<?xml version='1.0' encoding='UTF-8'?><gpx version="1.1" creator="JPX - https://github.com/jenetics/jpx" xmlns="http://www.topografix.com/GPX/1/1"><trk><trkseg><trkpt lat="45.7945610529082" lon="9.413774868804332"><ele>212.00000000000003</ele><time>2026-04-05T07:46:56.893Z</time></trkpt><trkpt lat="45.79451148473392" lon="9.413702427469062"><ele>212.0</ele><time>2026-04-05T07:47:03.893Z</time></trkpt><trkpt lat="45.794571532383465" lon="9.413648278676822"><ele>212.0</ele><time>2026-04-05T07:50:46Z</time></trkpt><trkpt lat="45.794606442614764" lon="9.413789787962559"><ele>212.0</ele><time>2026-04-05T07:50:54Z</time></trkpt><trkpt lat="45.794654191962316" lon="9.413899948006234"><ele>212.00000000000003</ele><time>2026-04-05T07:50:57Z</time></trkpt><trkpt lat="45.79471449760208" lon="9.413847858473355"><ele>212.0</ele><time>2026-04-05T07:50:59Z</time></trkpt><trkpt lat="45.794781409060676" lon="9.413795881876663"><ele>212.0</ele><time>2026-04-05T07:51:01Z</time></trkpt><trkpt lat="45.79493152386668" lon="9.414053061087635"><ele>212.0</ele><time>2026-04-05T07:51:07Z</time></trkpt><trkpt lat="45.79499933072998" lon="9.414117535405271"><ele>212.0</ele><time>2026-04-05T07:51:09Z</time></trkpt><trkpt lat="45.79509594688811" lon="9.414061276595458"><ele>212.0</ele><time>2026-04-05T07:51:11Z</time></trkpt><trkpt lat="45.79519411725553" lon="9.413997890532897"><ele>212.0</ele><time>2026-04-05T07:51:13.001Z</time></trkpt><trkpt lat="45.79528084701647" lon="9.413947675937825"><ele>212.0</ele><time>2026-04-05T07:51:15.001Z</time></trkpt><trkpt lat="45.79536515242435" lon="9.413895642490768"><ele>212.0</ele><time>2026-04-05T07:51:17.001Z</time></trkpt><trkpt lat="45.7954451579551" lon="9.413859543100656"><ele>212.0</ele><time>2026-04-05T07:51:19.001Z</time></trkpt><trkpt lat="45.795517169324576" lon="9.413867119726994"><ele>212.0</ele><time>2026-04-05T07:51:21.001Z</time></trkpt><trkpt lat="45.79558794667921" lon="9.41402390992614"><ele>212.00000000000003</ele><time>2026-04-05T07:51:23.001Z</time></trkpt><trkpt lat="45.79562528502303" lon="9.414132829571416"><ele>212.0</ele><time>2026-04-05T07:51:24.001Z</time></trkpt><trkpt lat="45.795656089635024" lon="9.414247110375369"><ele>212.0</ele><time>2026-04-05T07:51:25.001Z</time></trkpt><trkpt lat="45.79570281232839" lon="9.414360354385002"><ele>212.0</ele><time>2026-04-05T07:51:26.001Z</time></trkpt><trkpt lat="45.79574189281053" lon="9.414468864898836"><ele>212.00000000000003</ele><time>2026-04-05T07:51:27.001Z</time></trkpt><trkpt lat="45.7957876964153" lon="9.414574753643013"><ele>212.0</ele><time>2026-04-05T07:51:28.001Z</time></trkpt><trkpt lat="45.795822593302326" lon="9.414681625295941"><ele>211.00000000000003</ele><time>2026-04-05T07:51:29.001Z</time></trkpt><trkpt lat="45.79585439746352" lon="9.414777759411034"><ele>210.0</ele><time>2026-04-05T07:51:30.001Z</time></trkpt><trkpt lat="45.795886797126094" lon="9.414866749251555"><ele>209.0</ele><time>2026-04-05T07:51:31.001Z</time></trkpt><trkpt lat="45.79592932745969" lon="9.415006868415823"><ele>208.0</ele><time>2026-04-05T07:51:33.001Z</time></trkpt><trkpt lat="45.795975277684484" lon="9.415108696225522"><ele>207.00000000000003</ele><time>2026-04-05T07:51:35.001Z</time></trkpt><trkpt lat="45.796021609072895" lon="9.415187532688277"><ele>206.0</ele><time>2026-04-05T07:51:38.001Z</time></trkpt><trkpt lat="45.79605538948214" lon="9.415285086866747"><ele>206.00000000000003</ele><time>2026-04-05T07:51:42.001Z</time></trkpt><trkpt lat="45.796174387886005" lon="9.415230365744266"><ele>206.0</ele><time>2026-04-05T07:51:43.001Z</time></trkpt><trkpt lat="45.79623684819122" lon="9.415196088167315"><ele>206.0</ele><time>2026-04-05T07:51:44.001Z</time></trkpt><trkpt lat="45.79629821520754" lon="9.415167666833128"><ele>206.0</ele><time>2026-04-05T07:51:45.001Z</time></trkpt><trkpt lat="45.796365303148534" lon="9.415136499294894"><ele>206.00000000000003</ele><time>2026-04-05T07:51:46.001Z</time></trkpt><trkpt lat="45.796442364791226" lon="9.415105516024838"><ele>206.0</ele><time>2026-04-05T07:51:47.001Z</time></trkpt><trkpt lat="45.79652129678353" lon="9.415069796065973"><ele>206.00000000000003</ele><time>2026-04-05T07:51:48.001Z</time></trkpt><trkpt lat="45.796599718516234" lon="9.41503630408872"><ele>206.0</ele><time>2026-04-05T07:51:49.001Z</time></trkpt><trkpt lat="45.79667605632088" lon="9.41500161739537"><ele>206.0</ele><time>2026-04-05T07:51:50.001Z</time></trkpt><trkpt lat="45.796757237223794" lon="9.414966447471622"><ele>206.0</ele><time>2026-04-05T07:51:51.001Z</time></trkpt><trkpt lat="45.796841800695496" lon="9.414929586547505"><ele>206.00000000000003</ele><time>2026-04-05T07:51:52.001Z</time></trkpt><trkpt lat="45.79692169763637" lon="9.41489499754168"><ele>206.0</ele><time>2026-04-05T07:51:53.001Z</time></trkpt><trkpt lat="45.79700405165568" lon="9.41486222894"><ele>205.8</ele><time>2026-04-05T07:51:54.001Z</time></trkpt><trkpt lat="45.797084807751936" lon="9.414826858723643"><ele>205.60000000000002</ele><time>2026-04-05T07:51:55.001Z</time></trkpt><trkpt lat="45.79716677681817" lon="9.414793316717963"><ele>205.4</ele><time>2026-04-05T07:51:56.001Z</time></trkpt><trkpt lat="45.7972554032167" lon="9.414760487338912"><ele>205.2</ele><time>2026-04-05T07:51:57.001Z</time></trkpt><trkpt lat="45.79734950286067" lon="9.414723056871797"><ele>205.0</ele><time>2026-04-05T07:51:58.001Z</time></trkpt><trkpt lat="45.79744603509804" lon="9.414683400950977"><ele>205.6</ele><time>2026-04-05T07:51:59.001Z</time></trkpt><trkpt lat="45.797546283240756" lon="9.414639640740054"><ele>206.2</ele><time>2026-04-05T07:52:00.001Z</time></trkpt><trkpt lat="45.797647997054206" lon="9.414590682387955"><ele>206.8</ele><time>2026-04-05T07:52:01.001Z</time></trkpt><trkpt lat="45.797747940449284" lon="9.414541718747866"><ele>207.4</ele><time>2026-04-05T07:52:02.001Z</time></trkpt><trkpt lat="45.797841313341806" lon="9.414502887803385"><ele>208.0</ele><time>2026-04-05T07:52:03.001Z</time></trkpt><trkpt lat="45.79793156734745" lon="9.41446395968169"><ele>207.99999999999997</ele><time>2026-04-05T07:52:04Z</time></trkpt><trkpt lat="45.79801736537158" lon="9.414426928903687"><ele>208.0</ele><time>2026-04-05T07:52:05Z</time></trkpt><trkpt lat="45.798104031902525" lon="9.414394108505608"><ele>208.0</ele><time>2026-04-05T07:52:06Z</time></trkpt><trkpt lat="45.79818783924216" lon="9.414366163723992"><ele>208.0</ele><time>2026-04-05T07:52:07Z</time></trkpt><trkpt lat="45.7982705546321" lon="9.41433918834432"><ele>207.99999999999997</ele><time>2026-04-05T07:52:08Z</time></trkpt><trkpt lat="45.79835260264558" lon="9.414309731892569"><ele>208.0</ele><time>2026-04-05T07:52:09Z</time></trkpt><trkpt lat="45.79844305093534" lon="9.414290506855107"><ele>207.60000000000002</ele><time>2026-04-05T07:52:10Z</time></trkpt><trkpt lat="45.798541114798695" lon="9.414280668331829"><ele>207.20000000000002</ele><time>2026-04-05T07:52:11Z</time></trkpt><trkpt lat="45.79863952013766" lon="9.414264864497282"><ele>206.8</ele><time>2026-04-05T07:52:12Z</time></trkpt><trkpt lat="45.79874180075474" lon="9.414246763174734"><ele>206.4</ele><time>2026-04-05T07:52:13Z</time></trkpt><trkpt lat="45.79884426843554" lon="9.41423048726213"><ele>206.0</ele><time>2026-04-05T07:52:14Z</time></trkpt><trkpt lat="45.798954922406274" lon="9.414210775065733"><ele>206.0</ele><time>2026-04-05T07:52:15Z</time></trkpt><trkpt lat="45.79906574202384" lon="9.41418551456602"><ele>206.0</ele><time>2026-04-05T07:52:16Z</time></trkpt><trkpt lat="45.799186414419125" lon="9.414149877408326"><ele>206.0</ele><time>2026-04-05T07:52:17Z</time></trkpt><trkpt lat="45.799300636313504" lon="9.414096577244115"><ele>206.0</ele><time>2026-04-05T07:52:18Z</time></trkpt><trkpt lat="45.79941174927376" lon="9.414027666388021"><ele>206.20000000000002</ele><time>2026-04-05T07:52:19Z</time></trkpt><trkpt lat="45.799518680347234" lon="9.413951491393581"><ele>206.4</ele><time>2026-04-05T07:52:20Z</time></trkpt><trkpt lat="45.79961824964956" lon="9.413875307635584"><ele>206.6</ele><time>2026-04-05T07:52:21Z</time></trkpt><trkpt lat="45.799713859835926" lon="9.413801583590478"><ele>206.8</ele><time>2026-04-05T07:52:22Z</time></trkpt><trkpt lat="45.7998018941866" lon="9.4137331732765"><ele>207.0</ele><time>2026-04-05T07:52:23Z</time></trkpt><trkpt lat="45.7998830070017" lon="9.413665825448781"><ele>208.0</ele><time>2026-04-05T07:52:24Z</time></trkpt><trkpt lat="45.79996235721515" lon="9.413621936272756"><ele>209.0</ele><time>2026-04-05T07:52:25Z</time></trkpt><trkpt lat="45.80004503517178" lon="9.413598519179452"><ele>210.0</ele><time>2026-04-05T07:52:26Z</time></trkpt><trkpt lat="45.800135056807775" lon="9.413589531846549"><ele>211.0</ele><time>2026-04-05T07:52:27Z</time></trkpt><trkpt lat="45.80023364468334" lon="9.413592313312215"><ele>212.0</ele><time>2026-04-05T07:52:28Z</time></trkpt><trkpt lat="45.80032638192654" lon="9.41357922974964"><ele>212.00000000000003</ele><time>2026-04-05T07:52:29Z</time></trkpt><trkpt lat="45.80041117141958" lon="9.413553720067384"><ele>212.0</ele><time>2026-04-05T07:52:30Z</time></trkpt><trkpt lat="45.80050503865733" lon="9.413565455211145"><ele>212.0</ele><time>2026-04-05T07:52:31Z</time></trkpt><trkpt lat="45.8005869071706" lon="9.413533394552227"><ele>212.0</ele><time>2026-04-05T07:52:32Z</time></trkpt><trkpt lat="45.80066660827795" lon="9.413540315398375"><ele>212.00000000000003</ele><time>2026-04-05T07:52:33Z</time></trkpt><trkpt lat="45.80074725560864" lon="9.413507638634647"><ele>212.0</ele><time>2026-04-05T07:52:34Z</time></trkpt><trkpt lat="45.80082703564916" lon="9.413459721230062"><ele>212.00000000000003</ele><time>2026-04-05T07:52:35Z</time></trkpt><trkpt lat="45.80090194799172" lon="9.413407473872743"><ele>212.0</ele><time>2026-04-05T07:52:36Z</time></trkpt><trkpt lat="45.80098123311741" lon="9.4133686559442"><ele>212.0</ele><time>2026-04-05T07:52:37Z</time></trkpt><trkpt lat="45.80106450286783" lon="9.413345424707162"><ele>212.0</ele><time>2026-04-05T07:52:38Z</time></trkpt><trkpt lat="45.80114126513042" lon="9.41328604029333"><ele>212.00000000000003</ele><time>2026-04-05T07:52:39Z</time></trkpt><trkpt lat="45.80122185676445" lon="9.413245678596866"><ele>212.0</ele><time>2026-04-05T07:52:40Z</time></trkpt><trkpt lat="45.80129973216948" lon="9.413222602742588"><ele>211.00000000000003</ele><time>2026-04-05T07:52:41Z</time></trkpt><trkpt lat="45.80137636112" lon="9.41318141534782"><ele>210.0</ele><time>2026-04-05T07:52:42Z</time></trkpt><trkpt lat="45.80145085018751" lon="9.413140991808602"><ele>209.0</ele><time>2026-04-05T07:52:43Z</time></trkpt><trkpt lat="45.80152185617583" lon="9.413108501761213"><ele>208.0</ele><time>2026-04-05T07:52:44Z</time></trkpt><trkpt lat="45.801589311280935" lon="9.413079500967056"><ele>207.00000000000003</ele><time>2026-04-05T07:52:45Z</time></trkpt><trkpt lat="45.801660289433855" lon="9.413045587856452"><ele>206.0</ele><time>2026-04-05T07:52:46Z</time></trkpt><trkpt lat="45.80173565198827" lon="9.413006711985973"><ele>206.20000000000002</ele><time>2026-04-05T07:52:47Z</time></trkpt><trkpt lat="45.8018123530565" lon="9.412967311856484"><ele>206.4</ele><time>2026-04-05T07:52:48Z</time></trkpt><trkpt lat="45.8018906471673" lon="9.412927093406156"><ele>206.6</ele><time>2026-04-05T07:52:49Z</time></trkpt><trkpt lat="45.80197790258706" lon="9.412877551924485"><ele>206.8</ele><time>2026-04-05T07:52:50Z</time></trkpt><trkpt lat="45.80206480978033" lon="9.412801246134107"><ele>207.0</ele><time>2026-04-05T07:52:51Z</time></trkpt><trkpt lat="45.802160147680105" lon="9.412744919848176"><ele>206.39999999999998</ele><time>2026-04-05T07:52:52Z</time></trkpt><trkpt lat="45.80225683929531" lon="9.412690873138637"><ele>205.79999999999998</ele><time>2026-04-05T07:52:53Z</time></trkpt><trkpt lat="45.80235855324581" lon="9.412636983553904"><ele>205.2</ele><time>2026-04-05T07:52:54Z</time></trkpt><trkpt lat="45.80245817520188" lon="9.412575246032786"><ele>204.6</ele><time>2026-04-05T07:52:55Z</time></trkpt><trkpt lat="45.802555868962564" lon="9.412502574194995"><ele>204.0</ele><time>2026-04-05T07:52:56Z</time></trkpt><trkpt lat="45.80264948608896" lon="9.41241815165736"><ele>203.6</ele><time>2026-04-05T07:52:57Z</time></trkpt><trkpt lat="45.802738570261" lon="9.412319438988002"><ele>203.2</ele><time>2026-04-05T07:52:58Z</time></trkpt><trkpt lat="45.8028181239308" lon="9.412203331013107"><ele>202.79999999999998</ele><time>2026-04-05T07:52:59Z</time></trkpt><trkpt lat="45.80289211136086" lon="9.412083699720144"><ele>202.39999999999998</ele><time>2026-04-05T07:53:00Z</time></trkpt><trkpt lat="45.802961185070494" lon="9.411958662872607"><ele>202.0</ele><time>2026-04-05T07:53:01Z</time></trkpt><trkpt lat="45.803022492879265" lon="9.411838850466385"><ele>202.8</ele><time>2026-04-05T07:53:02Z</time></trkpt><trkpt lat="45.803081358569955" lon="9.411727809314126"><ele>203.6</ele><time>2026-04-05T07:53:03Z</time></trkpt><trkpt lat="45.80313895744754" lon="9.411623213230788"><ele>204.4</ele><time>2026-04-05T07:53:04Z</time></trkpt><trkpt lat="45.80320316201494" lon="9.411521190063675"><ele>205.20000000000002</ele><time>2026-04-05T07:53:05Z</time></trkpt><trkpt lat="45.80326269088505" lon="9.411415472419097"><ele>206.0</ele><time>2026-04-05T07:53:06Z</time></trkpt><trkpt lat="45.80332026197019" lon="9.41129614037438"><ele>206.20000000000002</ele><time>2026-04-05T07:53:07Z</time></trkpt><trkpt lat="45.80338143821547" lon="9.411182733752803"><ele>206.4</ele><time>2026-04-05T07:53:08Z</time></trkpt><trkpt lat="45.803435363765864" lon="9.411064924958094"><ele>206.6</ele><time>2026-04-05T07:53:09Z</time></trkpt><trkpt lat="45.80348464406638" lon="9.410930386161336"><ele>206.8</ele><time>2026-04-05T07:53:10Z</time></trkpt><trkpt lat="45.80352306572117" lon="9.410771824366249"><ele>207.0</ele><time>2026-04-05T07:53:11Z</time></trkpt><trkpt lat="45.80356058676879" lon="9.41061788672806"><ele>206.2</ele><time>2026-04-05T07:53:12Z</time></trkpt><trkpt lat="45.803592424556456" lon="9.410463361774415"><ele>205.39999999999998</ele><time>2026-04-05T07:53:13Z</time></trkpt><trkpt lat="45.80361878872916" lon="9.410312382054409"><ele>204.60000000000002</ele><time>2026-04-05T07:53:14Z</time></trkpt><trkpt lat="45.803642544787785" lon="9.410162026077359"><ele>203.8</ele><time>2026-04-05T07:53:15Z</time></trkpt><trkpt lat="45.80366515625789" lon="9.410016655244906"><ele>203.0</ele><time>2026-04-05T07:53:16Z</time></trkpt><trkpt lat="45.80368801001085" lon="9.409880374883551"><ele>203.00000000000003</ele><time>2026-04-05T07:53:17Z</time></trkpt><trkpt lat="45.803709972294385" lon="9.409746487892221"><ele>203.0</ele><time>2026-04-05T07:53:18Z</time></trkpt><trkpt lat="45.803728090578325" lon="9.409619170569448"><ele>203.0</ele><time>2026-04-05T07:53:19.001Z</time></trkpt><trkpt lat="45.80374674613765" lon="9.409496206306851"><ele>203.0</ele><time>2026-04-05T07:53:20.001Z</time></trkpt><trkpt lat="45.80376573795333" lon="9.409377421744225"><ele>203.00000000000003</ele><time>2026-04-05T07:53:21.001Z</time></trkpt><trkpt lat="45.80378347808531" lon="9.409257464150322"><ele>203.0</ele><time>2026-04-05T07:53:22.001Z</time></trkpt><trkpt lat="45.8037993132792" lon="9.409134806644998"><ele>203.8</ele><time>2026-04-05T07:53:23.001Z</time></trkpt><trkpt lat="45.803816062820104" lon="9.409010750101121"><ele>204.60000000000002</ele><time>2026-04-05T07:53:24.001Z</time></trkpt><trkpt lat="45.80383501057943" lon="9.408879795354991"><ele>205.39999999999998</ele><time>2026-04-05T07:53:25.001Z</time></trkpt><trkpt lat="45.803855997754454" lon="9.408749739303124"><ele>206.2</ele><time>2026-04-05T07:53:26.001Z</time></trkpt><trkpt lat="45.80387769477119" lon="9.408617578095402"><ele>207.0</ele><time>2026-04-05T07:53:27.001Z</time></trkpt><trkpt lat="45.80389847616536" lon="9.40847641274727"><ele>207.0</ele><time>2026-04-05T07:53:28.001Z</time></trkpt><trkpt lat="45.803920185758656" lon="9.408327692688669"><ele>207.0</ele><time>2026-04-05T07:53:29.001Z</time></trkpt><trkpt lat="45.803960780229914" lon="9.408166831200916"><ele>207.0</ele><time>2026-04-05T07:53:30.001Z</time></trkpt><trkpt lat="45.80398877507229" lon="9.407988621383922"><ele>207.0</ele><time>2026-04-05T07:53:31.001Z</time></trkpt><trkpt lat="45.80400380807847" lon="9.407802334469865"><ele>206.0</ele><time>2026-04-05T07:53:32.001Z</time></trkpt><trkpt lat="45.804036303735614" lon="9.407622502427268"><ele>205.0</ele><time>2026-04-05T07:53:33.001Z</time></trkpt><trkpt lat="45.80406473858768" lon="9.407443464402844"><ele>204.0</ele><time>2026-04-05T07:53:34.001Z</time></trkpt><trkpt lat="45.80409411807748" lon="9.407266339732068"><ele>203.0</ele><time>2026-04-05T07:53:35.001Z</time></trkpt><trkpt lat="45.80412261879514" lon="9.407087392085113"><ele>202.75</ele><time>2026-04-05T07:53:36.001Z</time></trkpt><trkpt lat="45.80415264542488" lon="9.406913274449426"><ele>202.5</ele><time>2026-04-05T07:53:37.001Z</time></trkpt><trkpt lat="45.804184870537085" lon="9.406746065335021"><ele>202.25</ele><time>2026-04-05T07:53:38.001Z</time></trkpt><trkpt lat="45.804207846210616" lon="9.4065806941464"><ele>202.0</ele><time>2026-04-05T07:53:39.001Z</time></trkpt><trkpt lat="45.80423345817121" lon="9.406426696901395"><ele>202.2</ele><time>2026-04-05T07:53:40.001Z</time></trkpt><trkpt lat="45.804255308632385" lon="9.406283379620215"><ele>202.39999999999998</ele><time>2026-04-05T07:53:41.001Z</time></trkpt><trkpt lat="45.80427357715" lon="9.40614226009151"><ele>202.60000000000002</ele><time>2026-04-05T07:53:42.001Z</time></trkpt><trkpt lat="45.804291752253654" lon="9.406015511706338"><ele>202.8</ele><time>2026-04-05T07:53:43.001Z</time></trkpt><trkpt lat="45.80430595061641" lon="9.405918128209578"><ele>203.0</ele><time>2026-04-05T07:53:44.001Z</time></trkpt><trkpt lat="45.80432518005159" lon="9.405793142940778"><ele>202.50000000000003</ele><time>2026-04-05T07:53:46.001Z</time></trkpt><trkpt lat="45.804339155896834" lon="9.405685007757851"><ele>202.0</ele><time>2026-04-05T07:53:48.001Z</time></trkpt><trkpt lat="45.804363914816754" lon="9.405533310439052"><ele>201.5</ele><time>2026-04-05T07:53:50.001Z</time></trkpt><trkpt lat="45.8043900311042" lon="9.40543939391367"><ele>201.0</ele><time>2026-04-05T07:53:51Z</time></trkpt><trkpt lat="45.80442330171298" lon="9.40534543119718"><ele>200.50000000000003</ele><time>2026-04-05T07:53:52Z</time></trkpt><trkpt lat="45.80446352958719" lon="9.40526016881757"><ele>200.0</ele><time>2026-04-05T07:53:53Z</time></trkpt><trkpt lat="45.80451161200352" lon="9.405187973588703"><ele>200.00000000000003</ele><time>2026-04-05T07:53:54Z</time></trkpt><trkpt lat="45.80456974573169" lon="9.405120063273394"><ele>200.0</ele><time>2026-04-05T07:53:55Z</time></trkpt><trkpt lat="45.80463238990389" lon="9.40505026071978"><ele>200.0</ele><time>2026-04-05T07:53:56Z</time></trkpt><trkpt lat="45.80470141343192" lon="9.404980155051897"><ele>200.0</ele><time>2026-04-05T07:53:57Z</time></trkpt><trkpt lat="45.804777465746504" lon="9.404904623503372"><ele>200.00000000000003</ele><time>2026-04-05T07:53:58Z</time></trkpt><trkpt lat="45.80485644146383" lon="9.404825592199684"><ele>200.0</ele><time>2026-04-05T07:53:59Z</time></trkpt><trkpt lat="45.80493786462928" lon="9.404742501954578"><ele>200.0</ele><time>2026-04-05T07:54:00Z</time></trkpt><trkpt lat="45.805015439493545" lon="9.404664475721333"><ele>200.0</ele><time>2026-04-05T07:54:01Z</time></trkpt><trkpt lat="45.80509367872428" lon="9.404587459431058"><ele>200.0</ele><time>2026-04-05T07:54:02Z</time></trkpt><trkpt lat="45.8051735985937" lon="9.404505729733653"><ele>200.0</ele><time>2026-04-05T07:54:03Z</time></trkpt><trkpt lat="45.80525588704919" lon="9.404422745924856"><ele>200.0</ele><time>2026-04-05T07:54:04Z</time></trkpt><trkpt lat="45.80533837233282" lon="9.404342826987072"><ele>200.4</ele><time>2026-04-05T07:54:05Z</time></trkpt><trkpt lat="45.805421447405024" lon="9.404261293592581"><ele>200.8</ele><time>2026-04-05T07:54:06Z</time></trkpt><trkpt lat="45.80550386728787" lon="9.404180348354885"><ele>201.2</ele><time>2026-04-05T07:54:07Z</time></trkpt><trkpt lat="45.805585389853135" lon="9.404098043562414"><ele>201.6</ele><time>2026-04-05T07:54:08Z</time></trkpt><trkpt lat="45.80566641528555" lon="9.404016977643689"><ele>202.0</ele><time>2026-04-05T07:54:09Z</time></trkpt><trkpt lat="45.805750193775744" lon="9.40393717562857"><ele>202.0</ele><time>2026-04-05T07:54:10Z</time></trkpt><trkpt lat="45.805836241241394" lon="9.403854279438244"><ele>202.0</ele><time>2026-04-05T07:54:11Z</time></trkpt><trkpt lat="45.8059247707113" lon="9.403777913125056"><ele>202.0</ele><time>2026-04-05T07:54:12Z</time></trkpt><trkpt lat="45.80601172577004" lon="9.403707624468538"><ele>202.0</ele><time>2026-04-05T07:54:13Z</time></trkpt><trkpt lat="45.806093773003205" lon="9.403636482637861"><ele>202.0</ele><time>2026-04-05T07:54:14Z</time></trkpt><trkpt lat="45.806170847239876" lon="9.403558274920787"><ele>202.0</ele><time>2026-04-05T07:54:15Z</time></trkpt><trkpt lat="45.80624849479674" lon="9.403479155508183"><ele>202.0</ele><time>2026-04-05T07:54:16Z</time></trkpt><trkpt lat="45.806323692596955" lon="9.403401339070083"><ele>202.0</ele><time>2026-04-05T07:54:17Z</time></trkpt><trkpt lat="45.80639913390109" lon="9.403323225673105"><ele>202.0</ele><time>2026-04-05T07:54:18Z</time></trkpt><trkpt lat="45.80647536700567" lon="9.403243693430317"><ele>202.0</ele><time>2026-04-05T07:54:19Z</time></trkpt><trkpt lat="45.80655433980406" lon="9.403164422639376"><ele>202.0</ele><time>2026-04-05T07:54:20Z</time></trkpt><trkpt lat="45.80663290431184" lon="9.403083839685163"><ele>202.0</ele><time>2026-04-05T07:54:21Z</time></trkpt><trkpt lat="45.806707963923536" lon="9.40300370036567"><ele>202.0</ele><time>2026-04-05T07:54:22Z</time></trkpt><trkpt lat="45.80678211454558" lon="9.402925645206503"><ele>202.0</ele><time>2026-04-05T07:54:23Z</time></trkpt><trkpt lat="45.80685329181562" lon="9.402847783192323"><ele>202.0</ele><time>2026-04-05T07:54:24Z</time></trkpt><trkpt lat="45.80692605449068" lon="9.402771886872511"><ele>201.99999999999997</ele><time>2026-04-05T07:54:25Z</time></trkpt><trkpt lat="45.80699969213136" lon="9.402696631246899"><ele>202.0</ele><time>2026-04-05T07:54:26Z</time></trkpt><trkpt lat="45.8070733298814" lon="9.402622656989578"><ele>202.0</ele><time>2026-04-05T07:54:27Z</time></trkpt><trkpt lat="45.80714091866676" lon="9.402553576082859"><ele>202.0</ele><time>2026-04-05T07:54:28Z</time></trkpt><trkpt lat="45.80720383183724" lon="9.40248949513705"><ele>201.99999999999997</ele><time>2026-04-05T07:54:29Z</time></trkpt><trkpt lat="45.80726230664292" lon="9.402428711585676"><ele>202.0</ele><time>2026-04-05T07:54:30Z</time></trkpt><trkpt lat="45.8073160714467" lon="9.402371460870736"><ele>202.0</ele><time>2026-04-05T07:54:31Z</time></trkpt><trkpt lat="45.807408110778276" lon="9.402243334384071"><ele>202.0</ele><time>2026-04-05T07:54:33Z</time></trkpt><trkpt lat="45.80746436033594" lon="9.402170650149719"><ele>202.0</ele><time>2026-04-05T07:54:34Z</time></trkpt><trkpt lat="45.80753475049875" lon="9.402104981575027"><ele>202.0</ele><time>2026-04-05T07:54:35Z</time></trkpt><trkpt lat="45.80761656621902" lon="9.402044238086468"><ele>202.0</ele><time>2026-04-05T07:54:36Z</time></trkpt><trkpt lat="45.807702976742576" lon="9.401975401719168"><ele>201.8</ele><time>2026-04-05T07:54:37Z</time></trkpt><trkpt lat="45.80778810903722" lon="9.401890688064624"><ele>201.6</ele><time>2026-04-05T07:54:38Z</time></trkpt><trkpt lat="45.807876975416534" lon="9.401800356457983"><ele>201.4</ele><time>2026-04-05T07:54:39Z</time></trkpt><trkpt lat="45.807969130419664" lon="9.401711122527828"><ele>201.20000000000002</ele><time>2026-04-05T07:54:40Z</time></trkpt><trkpt lat="45.80806498776375" lon="9.401626406862682"><ele>201.0</ele><time>2026-04-05T07:54:41Z</time></trkpt><trkpt lat="45.8081649619984" lon="9.401543517261556"><ele>201.0</ele><time>2026-04-05T07:54:42Z</time></trkpt><trkpt lat="45.80827041774254" lon="9.401464749765426"><ele>201.0</ele><time>2026-04-05T07:54:43Z</time></trkpt><trkpt lat="45.80838664410543" lon="9.401385913100937"><ele>201.0</ele><time>2026-04-05T07:54:44Z</time></trkpt><trkpt lat="45.808523801166025" lon="9.401292704009625"><ele>201.0</ele><time>2026-04-05T07:54:45Z</time></trkpt><trkpt lat="45.808667077039814" lon="9.401208411022878"><ele>201.33333333333331</ele><time>2026-04-05T07:54:46Z</time></trkpt><trkpt lat="45.80882081542975" lon="9.401136264284489"><ele>201.66666666666666</ele><time>2026-04-05T07:54:47Z</time></trkpt><trkpt lat="45.80897286382294" lon="9.401062956450055"><ele>202.0</ele><time>2026-04-05T07:54:48Z</time></trkpt><trkpt lat="45.80912040109934" lon="9.400987083337071"><ele>202.0</ele><time>2026-04-05T07:54:49Z</time></trkpt><trkpt lat="45.80926529295518" lon="9.400913346912033"><ele>202.0</ele><time>2026-04-05T07:54:50Z</time></trkpt><trkpt lat="45.80940748282029" lon="9.400841321648937"><ele>202.0</ele><time>2026-04-05T07:54:51Z</time></trkpt><trkpt lat="45.80954729423306" lon="9.400769603960004"><ele>202.0</ele><time>2026-04-05T07:54:52Z</time></trkpt><trkpt lat="45.80968338586335" lon="9.400698263976597"><ele>202.0</ele><time>2026-04-05T07:54:53Z</time></trkpt><trkpt lat="45.80981951175949" lon="9.400629135323085"><ele>202.0</ele><time>2026-04-05T07:54:54Z</time></trkpt><trkpt lat="45.80995594409084" lon="9.400557262302604"><ele>202.0</ele><time>2026-04-05T07:54:55Z</time></trkpt><trkpt lat="45.81009148428158" lon="9.40048100020555"><ele>202.0</ele><time>2026-04-05T07:54:56Z</time></trkpt><trkpt lat="45.81022822826589" lon="9.400405707920813"><ele>202.0</ele><time>2026-04-05T07:54:57Z</time></trkpt><trkpt lat="45.81036615914873" lon="9.400333231584069"><ele>202.0</ele><time>2026-04-05T07:54:58Z</time></trkpt><trkpt lat="45.810506162813226" lon="9.400261395861257"><ele>202.0</ele><time>2026-04-05T07:54:59Z</time></trkpt><trkpt lat="45.81064805063509" lon="9.400190883902182"><ele>202.0</ele><time>2026-04-05T07:55:00Z</time></trkpt><trkpt lat="45.81079133034107" lon="9.400125015846514"><ele>202.0</ele><time>2026-04-05T07:55:01Z</time></trkpt><trkpt lat="45.81093629343902" lon="9.400062059490184"><ele>202.0</ele><time>2026-04-05T07:55:02Z</time></trkpt><trkpt lat="45.81108014675591" lon="9.399996056956677"><ele>202.66666666666666</ele><time>2026-04-05T07:55:03Z</time></trkpt><trkpt lat="45.8112227303282" lon="9.399926174842253"><ele>203.33333333333331</ele><time>2026-04-05T07:55:04Z</time></trkpt><trkpt lat="45.811364512790384" lon="9.399853121871567"><ele>204.0</ele><time>2026-04-05T07:55:05Z</time></trkpt><trkpt lat="45.81150429550076" lon="9.399779562455372"><ele>204.0</ele><time>2026-04-05T07:55:06Z</time></trkpt><trkpt lat="45.81164204292442" lon="9.399706567429861"><ele>204.0</ele><time>2026-04-05T07:55:07Z</time></trkpt><trkpt lat="45.81177683558807" lon="9.399638985748103"><ele>204.0</ele><time>2026-04-05T07:55:08Z</time></trkpt><trkpt lat="45.811907163911755" lon="9.399575461808777"><ele>204.0</ele><time>2026-04-05T07:55:09Z</time></trkpt><trkpt lat="45.812033561971724" lon="9.39951122269622"><ele>204.5</ele><time>2026-04-05T07:55:10Z</time></trkpt><trkpt lat="45.81215645123398" lon="9.399447091004262"><ele>205.0</ele><time>2026-04-05T07:55:11Z</time></trkpt><trkpt lat="45.81227177877216" lon="9.399390809305975"><ele>205.5</ele><time>2026-04-05T07:55:12Z</time></trkpt><trkpt lat="45.812380721297494" lon="9.399339134995058"><ele>206.0</ele><time>2026-04-05T07:55:13Z</time></trkpt><trkpt lat="45.81248978681398" lon="9.399297612316234"><ele>206.0</ele><time>2026-04-05T07:55:14Z</time></trkpt><trkpt lat="45.812602234033825" lon="9.399268354183627"><ele>206.0</ele><time>2026-04-05T07:55:15Z</time></trkpt><trkpt lat="45.81271525296583" lon="9.399219734207854"><ele>206.0</ele><time>2026-04-05T07:55:16Z</time></trkpt><trkpt lat="45.81282839617464" lon="9.399143895505528"><ele>206.0</ele><time>2026-04-05T07:55:17Z</time></trkpt><trkpt lat="45.8129466277249" lon="9.399064195735148"><ele>206.0</ele><time>2026-04-05T07:55:18Z</time></trkpt><trkpt lat="45.81307188708889" lon="9.39899337604281"><ele>206.0</ele><time>2026-04-05T07:55:19Z</time></trkpt><trkpt lat="45.813202132353446" lon="9.398924700985255"><ele>206.0</ele><time>2026-04-05T07:55:20Z</time></trkpt><trkpt lat="45.81333671056603" lon="9.398855242580009"><ele>206.0</ele><time>2026-04-05T07:55:20.999Z</time></trkpt><trkpt lat="45.813475696999284" lon="9.398786018787089"><ele>206.66666666666669</ele><time>2026-04-05T07:55:21.999Z</time></trkpt><trkpt lat="45.813616998417686" lon="9.398715986316663"><ele>207.33333333333331</ele><time>2026-04-05T07:55:22.999Z</time></trkpt><trkpt lat="45.81375983963052" lon="9.398639298332125"><ele>208.0</ele><time>2026-04-05T07:55:23.999Z</time></trkpt><trkpt lat="45.81390483097556" lon="9.398562621627084"><ele>208.0</ele><time>2026-04-05T07:55:25.001Z</time></trkpt><trkpt lat="45.81404998596047" lon="9.398488523590153"><ele>208.0</ele><time>2026-04-05T07:55:26.001Z</time></trkpt><trkpt lat="45.814191605068395" lon="9.39841653741716"><ele>208.0</ele><time>2026-04-05T07:55:27.001Z</time></trkpt><trkpt lat="45.81432547507141" lon="9.398348138968682"><ele>208.0</ele><time>2026-04-05T07:55:28.001Z</time></trkpt><trkpt lat="45.814454162630874" lon="9.398283219470116"><ele>207.5</ele><time>2026-04-05T07:55:29.001Z</time></trkpt><trkpt lat="45.814579099065504" lon="9.398219995756"><ele>207.0</ele><time>2026-04-05T07:55:30.001Z</time></trkpt><trkpt lat="45.814698824845244" lon="9.398156873813587"><ele>206.5</ele><time>2026-04-05T07:55:31.001Z</time></trkpt><trkpt lat="45.81480994155684" lon="9.398100257761321"><ele>206.0</ele><time>2026-04-05T07:55:32.001Z</time></trkpt><trkpt lat="45.81491482390243" lon="9.3980491118974"><ele>206.0</ele><time>2026-04-05T07:55:33.001Z</time></trkpt><trkpt lat="45.8150161937966" lon="9.397998782087324"><ele>206.0</ele><time>2026-04-05T07:55:34.001Z</time></trkpt><trkpt lat="45.81511933942751" lon="9.397936363683717"><ele>206.0</ele><time>2026-04-05T07:55:35.001Z</time></trkpt><trkpt lat="45.81523054895678" lon="9.397874533836477"><ele>206.0</ele><time>2026-04-05T07:55:36.001Z</time></trkpt><trkpt lat="45.81534586809143" lon="9.397822074405761"><ele>206.0</ele><time>2026-04-05T07:55:37.001Z</time></trkpt><trkpt lat="45.815462363572905" lon="9.397767509789894"><ele>206.0</ele><time>2026-04-05T07:55:38.001Z</time></trkpt><trkpt lat="45.815579367525565" lon="9.39770981328925"><ele>206.0</ele><time>2026-04-05T07:55:39.001Z</time></trkpt><trkpt lat="45.81569996031217" lon="9.397651209305472"><ele>206.0</ele><time>2026-04-05T07:55:40.001Z</time></trkpt><trkpt lat="45.81582289707605" lon="9.397592939656066"><ele>206.0</ele><time>2026-04-05T07:55:41.001Z</time></trkpt><trkpt lat="45.815945620795986" lon="9.397535274449895"><ele>206.0</ele><time>2026-04-05T07:55:42.001Z</time></trkpt><trkpt lat="45.81606322171403" lon="9.397478490454338"><ele>206.0</ele><time>2026-04-05T07:55:43.001Z</time></trkpt><trkpt lat="45.81618388616724" lon="9.397420352180516"><ele>206.0</ele><time>2026-04-05T07:55:44.001Z</time></trkpt><trkpt lat="45.81630508523975" lon="9.397356371649087"><ele>205.75</ele><time>2026-04-05T07:55:45Z</time></trkpt><trkpt lat="45.816427876177876" lon="9.397290947978247"><ele>205.5</ele><time>2026-04-05T07:55:46Z</time></trkpt><trkpt lat="45.816554989071754" lon="9.39722935392808"><ele>205.25</ele><time>2026-04-05T07:55:47Z</time></trkpt><trkpt lat="45.81668217573537" lon="9.3971656875926"><ele>205.0</ele><time>2026-04-05T07:55:48Z</time></trkpt><trkpt lat="45.81681107342977" lon="9.397098941099488"><ele>204.25</ele><time>2026-04-05T07:55:49Z</time></trkpt><trkpt lat="45.816939791891016" lon="9.397033413311913"><ele>203.5</ele><time>2026-04-05T07:55:50Z</time></trkpt><trkpt lat="45.81706895778" lon="9.396970414920721"><ele>202.75</ele><time>2026-04-05T07:55:51Z</time></trkpt><trkpt lat="45.81719876933588" lon="9.396906248080613"><ele>202.0</ele><time>2026-04-05T07:55:52Z</time></trkpt><trkpt lat="45.81732792630162" lon="9.39684020132403"><ele>202.0</ele><time>2026-04-05T07:55:53Z</time></trkpt><trkpt lat="45.817455839173284" lon="9.396775264104006"><ele>202.0</ele><time>2026-04-05T07:55:54Z</time></trkpt><trkpt lat="45.81758253472215" lon="9.396713974818102"><ele>202.0</ele><time>2026-04-05T07:55:55Z</time></trkpt><trkpt lat="45.81770785766812" lon="9.396650458415415"><ele>202.0</ele><time>2026-04-05T07:55:56Z</time></trkpt><trkpt lat="45.81783145459492" lon="9.396586954406812"><ele>202.5</ele><time>2026-04-05T07:55:57Z</time></trkpt><trkpt lat="45.817955272389206" lon="9.396520886355036"><ele>203.0</ele><time>2026-04-05T07:55:58Z</time></trkpt><trkpt lat="45.81808003371221" lon="9.39645125825706"><ele>203.5</ele><time>2026-04-05T07:55:59Z</time></trkpt><trkpt lat="45.8182058926912" lon="9.396374516973998"><ele>204.0</ele><time>2026-04-05T07:56:00Z</time></trkpt><trkpt lat="45.81833377616498" lon="9.396300381264805"><ele>204.0</ele><time>2026-04-05T07:56:01Z</time></trkpt><trkpt lat="45.81846711986201" lon="9.396237544110985"><ele>204.0</ele><time>2026-04-05T07:56:02Z</time></trkpt><trkpt lat="45.81860046456116" lon="9.396171256730423"><ele>204.0</ele><time>2026-04-05T07:56:03Z</time></trkpt><trkpt lat="45.81873528349634" lon="9.396102710369608"><ele>204.0</ele><time>2026-04-05T07:56:04Z</time></trkpt><trkpt lat="45.81886954274549" lon="9.396036938980485"><ele>204.0</ele><time>2026-04-05T07:56:05Z</time></trkpt><trkpt lat="45.81900258913223" lon="9.39597348748052"><ele>204.0</ele><time>2026-04-05T07:56:06Z</time></trkpt><trkpt lat="45.81912757352523" lon="9.395909165305303"><ele>204.0</ele><time>2026-04-05T07:56:07Z</time></trkpt><trkpt lat="45.81925054228222" lon="9.39584481104897"><ele>204.0</ele><time>2026-04-05T07:56:08Z</time></trkpt><trkpt lat="45.819376471921736" lon="9.395778731190727"><ele>203.25</ele><time>2026-04-05T07:56:09Z</time></trkpt><trkpt lat="45.81950634384938" lon="9.395710549055606"><ele>202.5</ele><time>2026-04-05T07:56:10Z</time></trkpt><trkpt lat="45.81964133686949" lon="9.395639970840028"><ele>201.75</ele><time>2026-04-05T07:56:11Z</time></trkpt><trkpt lat="45.81978461262278" lon="9.395569182440838"><ele>201.0</ele><time>2026-04-05T07:56:12Z</time></trkpt><trkpt lat="45.8199304804942" lon="9.395498936036395"><ele>202.0</ele><time>2026-04-05T07:56:13Z</time></trkpt><trkpt lat="45.82007830977521" lon="9.39542993659346"><ele>203.0</ele><time>2026-04-05T07:56:14Z</time></trkpt><trkpt lat="45.82022576881968" lon="9.395357570115463"><ele>204.0</ele><time>2026-04-05T07:56:15Z</time></trkpt><trkpt lat="45.820368319354074" lon="9.395282136169104"><ele>204.0</ele><time>2026-04-05T07:56:16Z</time></trkpt><trkpt lat="45.82050754534213" lon="9.395214403454037"><ele>204.0</ele><time>2026-04-05T07:56:17Z</time></trkpt><trkpt lat="45.82064019383096" lon="9.395150115043998"><ele>204.0</ele><time>2026-04-05T07:56:18Z</time></trkpt><trkpt lat="45.82078001983854" lon="9.39509051787103"><ele>204.0</ele><time>2026-04-05T07:56:19Z</time></trkpt><trkpt lat="45.82092314709625" lon="9.395040200595869"><ele>203.33333333333331</ele><time>2026-04-05T07:56:20Z</time></trkpt><trkpt lat="45.82107400114925" lon="9.394997573649361"><ele>202.66666666666666</ele><time>2026-04-05T07:56:21Z</time></trkpt><trkpt lat="45.8212276999252" lon="9.394962116394751"><ele>202.0</ele><time>2026-04-05T07:56:22Z</time></trkpt><trkpt lat="45.821382483228824" lon="9.394945574163033"><ele>202.0</ele><time>2026-04-05T07:56:23Z</time></trkpt><trkpt lat="45.821534652634476" lon="9.394941315523424"><ele>202.0</ele><time>2026-04-05T07:56:24Z</time></trkpt><trkpt lat="45.82168389005626" lon="9.394945511705478"><ele>202.0</ele><time>2026-04-05T07:56:25Z</time></trkpt><trkpt lat="45.82183167200322" lon="9.394955567737183"><ele>202.0</ele><time>2026-04-05T07:56:26Z</time></trkpt><trkpt lat="45.821975436485204" lon="9.394973386547845"><ele>202.75</ele><time>2026-04-05T07:56:27Z</time></trkpt><trkpt lat="45.82211731246414" lon="9.394996628449203"><ele>203.5</ele><time>2026-04-05T07:56:28Z</time></trkpt><trkpt lat="45.82225746774029" lon="9.395019175617636"><ele>204.25</ele><time>2026-04-05T07:56:29Z</time></trkpt><trkpt lat="45.822396710164874" lon="9.3950436999157"><ele>205.0</ele><time>2026-04-05T07:56:30Z</time></trkpt><trkpt lat="45.82253962266414" lon="9.39506238302473"><ele>204.66666666666666</ele><time>2026-04-05T07:56:31Z</time></trkpt><trkpt lat="45.822689620407424" lon="9.39506652196729"><ele>204.33333333333331</ele><time>2026-04-05T07:56:32Z</time></trkpt><trkpt lat="45.822843738291006" lon="9.39506975375436"><ele>204.0</ele><time>2026-04-05T07:56:33Z</time></trkpt><trkpt lat="45.822999802406855" lon="9.395069037741298"><ele>204.0</ele><time>2026-04-05T07:56:34Z</time></trkpt><trkpt lat="45.82315422453167" lon="9.395066578242613"><ele>204.0</ele><time>2026-04-05T07:56:35Z</time></trkpt><trkpt lat="45.82330354601309" lon="9.39506547533365"><ele>204.0</ele><time>2026-04-05T07:56:36Z</time></trkpt><trkpt lat="45.82345150206168" lon="9.395067279856612"><ele>204.25</ele><time>2026-04-05T07:56:37Z</time></trkpt><trkpt lat="45.823595978153435" lon="9.395075016290408"><ele>204.5</ele><time>2026-04-05T07:56:38Z</time></trkpt><trkpt lat="45.82374024784081" lon="9.395087353861125"><ele>204.75</ele><time>2026-04-05T07:56:39Z</time></trkpt><trkpt lat="45.823882419441546" lon="9.3951064772445"><ele>205.0</ele><time>2026-04-05T07:56:40Z</time></trkpt><trkpt lat="45.82402251720106" lon="9.39512861656563"><ele>205.0</ele><time>2026-04-05T07:56:41Z</time></trkpt><trkpt lat="45.82416268610564" lon="9.395150471003639"><ele>205.0</ele><time>2026-04-05T07:56:42Z</time></trkpt><trkpt lat="45.82430307815559" lon="9.395174640589786"><ele>205.0</ele><time>2026-04-05T07:56:43Z</time></trkpt><trkpt lat="45.824442447885964" lon="9.395222584896771"><ele>205.0</ele><time>2026-04-05T07:56:44Z</time></trkpt><trkpt lat="45.82458609508501" lon="9.395225436312273"><ele>205.0</ele><time>2026-04-05T07:56:45Z</time></trkpt><trkpt lat="45.824726676893924" lon="9.395254150972844"><ele>205.0</ele><time>2026-04-05T07:56:46Z</time></trkpt><trkpt lat="45.82486909611436" lon="9.395281909057354"><ele>205.0</ele><time>2026-04-05T07:56:47Z</time></trkpt><trkpt lat="45.8250102285976" lon="9.395313186879399"><ele>205.0</ele><time>2026-04-05T07:56:48Z</time></trkpt><trkpt lat="45.82515104428841" lon="9.39534341927373"><ele>205.5</ele><time>2026-04-05T07:56:49Z</time></trkpt><trkpt lat="45.825289503752956" lon="9.39537046219682"><ele>206.0</ele><time>2026-04-05T07:56:50Z</time></trkpt><trkpt lat="45.82542924083888" lon="9.395398323135208"><ele>206.5</ele><time>2026-04-05T07:56:51Z</time></trkpt><trkpt lat="45.825569128086634" lon="9.39542487049007"><ele>207.0</ele><time>2026-04-05T07:56:52Z</time></trkpt><trkpt lat="45.825711218269724" lon="9.395447760856188"><ele>207.0</ele><time>2026-04-05T07:56:53Z</time></trkpt><trkpt lat="45.825857595350094" lon="9.395465104908768"><ele>207.0</ele><time>2026-04-05T07:56:54Z</time></trkpt><trkpt lat="45.82600698179028" lon="9.395510369046818"><ele>207.0</ele><time>2026-04-05T07:56:55Z</time></trkpt><trkpt lat="45.826162863401095" lon="9.395539373568852"><ele>206.33333333333331</ele><time>2026-04-05T07:56:56Z</time></trkpt><trkpt lat="45.82632804872665" lon="9.39557116573254"><ele>205.66666666666666</ele><time>2026-04-05T07:56:57Z</time></trkpt><trkpt lat="45.826493379591426" lon="9.395602430069"><ele>205.0</ele><time>2026-04-05T07:56:58Z</time></trkpt><trkpt lat="45.82665571646787" lon="9.39563251323692"><ele>205.0</ele><time>2026-04-05T07:56:59Z</time></trkpt><trkpt lat="45.826810731692035" lon="9.395640026982498"><ele>205.0</ele><time>2026-04-05T07:57:00Z</time></trkpt><trkpt lat="45.826955646663826" lon="9.395664587691112"><ele>205.0</ele><time>2026-04-05T07:57:01Z</time></trkpt><trkpt lat="45.82708366242173" lon="9.395711817268637"><ele>205.0</ele><time>2026-04-05T07:57:02Z</time></trkpt><trkpt lat="45.827219964313585" lon="9.3957377337246"><ele>205.0</ele><time>2026-04-05T07:57:03Z</time></trkpt><trkpt lat="45.82735657143108" lon="9.39576384678452"><ele>205.0</ele><time>2026-04-05T07:57:04Z</time></trkpt><trkpt lat="45.82748959889324" lon="9.395767188805504"><ele>205.0</ele><time>2026-04-05T07:57:05Z</time></trkpt><trkpt lat="45.82761097823304" lon="9.395795703796638"><ele>205.0</ele><time>2026-04-05T07:57:06Z</time></trkpt><trkpt lat="45.827733852724435" lon="9.395822932426649"><ele>205.0</ele><time>2026-04-05T07:57:07Z</time></trkpt><trkpt lat="45.82785832137186" lon="9.395849696305048"><ele>205.0</ele><time>2026-04-05T07:57:08Z</time></trkpt><trkpt lat="45.82798419381327" lon="9.395871980187133"><ele>205.0</ele><time>2026-04-05T07:57:09Z</time></trkpt><trkpt lat="45.82811327336268" lon="9.395894334545218"><ele>205.0</ele><time>2026-04-05T07:57:09.999Z</time></trkpt><trkpt lat="45.82824937999374" lon="9.395910654936882"><ele>205.0</ele><time>2026-04-05T07:57:10.999Z</time></trkpt><trkpt lat="45.82838871770227" lon="9.395924036039672"><ele>205.0</ele><time>2026-04-05T07:57:11.999Z</time></trkpt><trkpt lat="45.82853196055202" lon="9.395929777519545"><ele>205.0</ele><time>2026-04-05T07:57:12.999Z</time></trkpt><trkpt lat="45.828677251908104" lon="9.39593147306694"><ele>205.0</ele><time>2026-04-05T07:57:13.999Z</time></trkpt><trkpt lat="45.828824746658235" lon="9.395925604165642"><ele>205.0</ele><time>2026-04-05T07:57:14.999Z</time></trkpt><trkpt lat="45.82897456009887" lon="9.395911594606368"><ele>205.0</ele><time>2026-04-05T07:57:15.999Z</time></trkpt><trkpt lat="45.82912425272453" lon="9.395889342328491"><ele>205.0</ele><time>2026-04-05T07:57:16.999Z</time></trkpt><trkpt lat="45.829273863853" lon="9.395862124682665"><ele>204.66666666666666</ele><time>2026-04-05T07:57:17.999Z</time></trkpt><trkpt lat="45.82942031510302" lon="9.395831678823493"><ele>204.33333333333331</ele><time>2026-04-05T07:57:18.999Z</time></trkpt><trkpt lat="45.829570131226504" lon="9.395800687006856"><ele>204.0</ele><time>2026-04-05T07:57:19.999Z</time></trkpt><trkpt lat="45.82972042259583" lon="9.395766582249488"><ele>204.0</ele><time>2026-04-05T07:57:20.999Z</time></trkpt><trkpt lat="45.82987365688606" lon="9.395731428958069"><ele>204.0</ele><time>2026-04-05T07:57:21.999Z</time></trkpt><trkpt lat="45.83002819649125" lon="9.395697072901854"><ele>204.0</ele><time>2026-04-05T07:57:22.999Z</time></trkpt><trkpt lat="45.83018391914533" lon="9.395664106890504"><ele>203.0</ele><time>2026-04-05T07:57:23.999Z</time></trkpt><trkpt lat="45.83034133326477" lon="9.395635249074031"><ele>202.0</ele><time>2026-04-05T07:57:24.999Z</time></trkpt><trkpt lat="45.830499553014334" lon="9.395605972729143"><ele>201.0</ele><time>2026-04-05T07:57:25.999Z</time></trkpt><trkpt lat="45.83065928664542" lon="9.395577900880289"><ele>201.0</ele><time>2026-04-05T07:57:26.999Z</time></trkpt><trkpt lat="45.830819190165215" lon="9.39555136114035"><ele>201.0</ele><time>2026-04-05T07:57:27.999Z</time></trkpt><trkpt lat="45.83097815356689" lon="9.39552417953043"><ele>201.0</ele><time>2026-04-05T07:57:28.999Z</time></trkpt><trkpt lat="45.83113657921946" lon="9.39549602932464"><ele>203.33333333333331</ele><time>2026-04-05T07:57:30Z</time></trkpt><trkpt lat="45.83129391163259" lon="9.395468770838724"><ele>205.66666666666666</ele><time>2026-04-05T07:57:31Z</time></trkpt><trkpt lat="45.831449067545094" lon="9.395442891310482"><ele>208.0</ele><time>2026-04-05T07:57:32Z</time></trkpt><trkpt lat="45.83160282850129" lon="9.3954143078471"><ele>208.0</ele><time>2026-04-05T07:57:33Z</time></trkpt><trkpt lat="45.83175516398564" lon="9.39538560920516"><ele>208.0</ele><time>2026-04-05T07:57:34Z</time></trkpt><trkpt lat="45.83190605780644" lon="9.395353123490347"><ele>208.0</ele><time>2026-04-05T07:57:35Z</time></trkpt><trkpt lat="45.832054454653594" lon="9.395313469102458"><ele>207.75</ele><time>2026-04-05T07:57:36Z</time></trkpt><trkpt lat="45.83219845992388" lon="9.39526286657005"><ele>207.5</ele><time>2026-04-05T07:57:37Z</time></trkpt><trkpt lat="45.83233906139136" lon="9.395203711723054"><ele>207.25</ele><time>2026-04-05T07:57:38Z</time></trkpt><trkpt lat="45.832474334941395" lon="9.395137665835234"><ele>207.0</ele><time>2026-04-05T07:57:39Z</time></trkpt><trkpt lat="45.8326047419656" lon="9.395065010633848"><ele>205.75</ele><time>2026-04-05T07:57:40Z</time></trkpt><trkpt lat="45.83272587541875" lon="9.394985777734359"><ele>204.5</ele><time>2026-04-05T07:57:41Z</time></trkpt><trkpt lat="45.83284073433509" lon="9.39490147843297"><ele>203.25</ele><time>2026-04-05T07:57:42Z</time></trkpt><trkpt lat="45.832950701572365" lon="9.394811181545721"><ele>202.0</ele><time>2026-04-05T07:57:43Z</time></trkpt><trkpt lat="45.83305232783302" lon="9.394718248587417"><ele>202.0</ele><time>2026-04-05T07:57:44Z</time></trkpt><trkpt lat="45.83315226175761" lon="9.394624638519089"><ele>202.0</ele><time>2026-04-05T07:57:45Z</time></trkpt><trkpt lat="45.83324557422493" lon="9.394533560204218"><ele>202.0</ele><time>2026-04-05T07:57:46Z</time></trkpt><trkpt lat="45.833330033155335" lon="9.394447702614874"><ele>202.0</ele><time>2026-04-05T07:57:47Z</time></trkpt><trkpt lat="45.833408764123455" lon="9.394367993284035"><ele>202.0</ele><time>2026-04-05T07:57:48Z</time></trkpt><trkpt lat="45.83348360397203" lon="9.394292525299688"><ele>202.0</ele><time>2026-04-05T07:57:49Z</time></trkpt><trkpt lat="45.83355833571238" lon="9.394222144674412"><ele>202.0</ele><time>2026-04-05T07:57:50Z</time></trkpt><trkpt lat="45.83363559876007" lon="9.394155849116226"><ele>202.0</ele><time>2026-04-05T07:57:51Z</time></trkpt><trkpt lat="45.833719894871884" lon="9.394085874613337"><ele>202.0</ele><time>2026-04-05T07:57:52Z</time></trkpt><trkpt lat="45.833808572068214" lon="9.39401614933045"><ele>202.0</ele><time>2026-04-05T07:57:53Z</time></trkpt><trkpt lat="45.83389699026447" lon="9.393954692312912"><ele>202.0</ele><time>2026-04-05T07:57:54Z</time></trkpt><trkpt lat="45.83399137987274" lon="9.393908289657492"><ele>202.0</ele><time>2026-04-05T07:57:55Z</time></trkpt><trkpt lat="45.83408963813367" lon="9.393874305970602"><ele>202.0</ele><time>2026-04-05T07:57:56Z</time></trkpt><trkpt lat="45.83419013872872" lon="9.39385121003441"><ele>202.0</ele><time>2026-04-05T07:57:57Z</time></trkpt><trkpt lat="45.83429752430037" lon="9.393832538949274"><ele>202.0</ele><time>2026-04-05T07:57:58Z</time></trkpt><trkpt lat="45.83440659996785" lon="9.393810825208654"><ele>204.0</ele><time>2026-04-05T07:57:59Z</time></trkpt><trkpt lat="45.83452002119151" lon="9.393788074322018"><ele>206.0</ele><time>2026-04-05T07:58:00Z</time></trkpt><trkpt lat="45.83463435704626" lon="9.393768162777206"><ele>208.0</ele><time>2026-04-05T07:58:01Z</time></trkpt><trkpt lat="45.83474862874289" lon="9.393751076603628"><ele>210.0</ele><time>2026-04-05T07:58:02Z</time></trkpt><trkpt lat="45.83486432246945" lon="9.393734953259095"><ele>210.0</ele><time>2026-04-05T07:58:03Z</time></trkpt><trkpt lat="45.834978073246596" lon="9.39372334152352"><ele>210.0</ele><time>2026-04-05T07:58:04Z</time></trkpt><trkpt lat="45.83508826529059" lon="9.393719551571994"><ele>210.0</ele><time>2026-04-05T07:58:05Z</time></trkpt><trkpt lat="45.83519033749951" lon="9.393719827249058"><ele>210.0</ele><time>2026-04-05T07:58:06Z</time></trkpt><trkpt lat="45.83528712452853" lon="9.393723605781778"><ele>210.0</ele><time>2026-04-05T07:58:07Z</time></trkpt><trkpt lat="45.83538161014426" lon="9.393735198186373"><ele>210.16666666666666</ele><time>2026-04-05T07:58:08Z</time></trkpt><trkpt lat="45.835476529424376" lon="9.393765684410642"><ele>210.33333333333331</ele><time>2026-04-05T07:58:09Z</time></trkpt><trkpt lat="45.83556259708449" lon="9.393803196439377"><ele>210.5</ele><time>2026-04-05T07:58:10Z</time></trkpt><trkpt lat="45.83563235043253" lon="9.393872500173119"><ele>210.66666666666666</ele><time>2026-04-05T07:58:11Z</time></trkpt><trkpt lat="45.83569516207886" lon="9.393960088723492"><ele>210.83333333333331</ele><time>2026-04-05T07:58:12Z</time></trkpt><trkpt lat="45.835744638656095" lon="9.394052100622083"><ele>211.0</ele><time>2026-04-05T07:58:13Z</time></trkpt><trkpt lat="45.83579686194242" lon="9.394134432465322"><ele>210.49999999999997</ele><time>2026-04-05T07:58:14Z</time></trkpt><trkpt lat="45.83587017849595" lon="9.394179870499645"><ele>210.0</ele><time>2026-04-05T07:58:15Z</time></trkpt><trkpt lat="45.83595076274765" lon="9.394184947074997"><ele>209.5</ele><time>2026-04-05T07:58:16Z</time></trkpt><trkpt lat="45.83604214665911" lon="9.39417070405231"><ele>209.0</ele><time>2026-04-05T07:58:17Z</time></trkpt><trkpt lat="45.83613294772693" lon="9.394200624265515"><ele>208.49999999999997</ele><time>2026-04-05T07:58:18Z</time></trkpt><trkpt lat="45.83621916815692" lon="9.394268266986181"><ele>208.0</ele><time>2026-04-05T07:58:19Z</time></trkpt><trkpt lat="45.83630782849297" lon="9.394368211274772"><ele>208.0</ele><time>2026-04-05T07:58:20Z</time></trkpt><trkpt lat="45.83638945735281" lon="9.394476316286173"><ele>208.0</ele><time>2026-04-05T07:58:21Z</time></trkpt><trkpt lat="45.836479115163634" lon="9.3945842638798"><ele>208.0</ele><time>2026-04-05T07:58:22Z</time></trkpt><trkpt lat="45.836574742674806" lon="9.394681764135402"><ele>208.0</ele><time>2026-04-05T07:58:23Z</time></trkpt><trkpt lat="45.83667073889874" lon="9.394776280161745"><ele>207.75</ele><time>2026-04-05T07:58:24Z</time></trkpt><trkpt lat="45.836772943903064" lon="9.394868117374639"><ele>207.5</ele><time>2026-04-05T07:58:25Z</time></trkpt><trkpt lat="45.836883613519234" lon="9.394964852038337"><ele>207.25</ele><time>2026-04-05T07:58:26Z</time></trkpt><trkpt lat="45.8370030836311" lon="9.395074092654161"><ele>207.0</ele><time>2026-04-05T07:58:27Z</time></trkpt><trkpt lat="45.837115038946" lon="9.3951744107116"><ele>207.0</ele><time>2026-04-05T07:58:28Z</time></trkpt><trkpt lat="45.83723109858584" lon="9.395252812225246"><ele>207.0</ele><time>2026-04-05T07:58:29Z</time></trkpt><trkpt lat="45.837360329196436" lon="9.395304697250271"><ele>207.0</ele><time>2026-04-05T07:58:30Z</time></trkpt><trkpt lat="45.83748989663804" lon="9.39534025113334"><ele>207.0</ele><time>2026-04-05T07:58:31Z</time></trkpt><trkpt lat="45.837615123505856" lon="9.395359246103165"><ele>207.25</ele><time>2026-04-05T07:58:32Z</time></trkpt><trkpt lat="45.83773786200824" lon="9.395364201693255"><ele>207.5</ele><time>2026-04-05T07:58:33Z</time></trkpt><trkpt lat="45.83786428105791" lon="9.395365362585437"><ele>207.75</ele><time>2026-04-05T07:58:34Z</time></trkpt><trkpt lat="45.83798960334095" lon="9.395363737887363"><ele>208.0</ele><time>2026-04-05T07:58:35Z</time></trkpt><trkpt lat="45.83810500069773" lon="9.395358273195326"><ele>208.0</ele><time>2026-04-05T07:58:36Z</time></trkpt><trkpt lat="45.838224094600506" lon="9.395353765726506"><ele>208.0</ele><time>2026-04-05T07:58:37Z</time></trkpt><trkpt lat="45.838345383850466" lon="9.395346358072976"><ele>208.0</ele><time>2026-04-05T07:58:38Z</time></trkpt><trkpt lat="45.83846703646728" lon="9.395344489243799"><ele>208.0</ele><time>2026-04-05T07:58:39Z</time></trkpt><trkpt lat="45.83858305799887" lon="9.395337063075761"><ele>207.5</ele><time>2026-04-05T07:58:40Z</time></trkpt><trkpt lat="45.83870035205982" lon="9.395328178888862"><ele>207.0</ele><time>2026-04-05T07:58:41Z</time></trkpt><trkpt lat="45.838818115011854" lon="9.395323340149533"><ele>206.5</ele><time>2026-04-05T07:58:42Z</time></trkpt><trkpt lat="45.83893930311085" lon="9.395319473912991"><ele>206.0</ele><time>2026-04-05T07:58:43Z</time></trkpt><trkpt lat="45.83906046898911" lon="9.39531279459152"><ele>206.0</ele><time>2026-04-05T07:58:44Z</time></trkpt><trkpt lat="45.839183689704896" lon="9.395305389181312"><ele>206.0</ele><time>2026-04-05T07:58:45Z</time></trkpt><trkpt lat="45.83930585663046" lon="9.395298987341524"><ele>206.0</ele><time>2026-04-05T07:58:46Z</time></trkpt><trkpt lat="45.839426804914766" lon="9.395293584419516"><ele>206.0</ele><time>2026-04-05T07:58:47Z</time></trkpt><trkpt lat="45.83954841775164" lon="9.395289124961245"><ele>205.75</ele><time>2026-04-05T07:58:48Z</time></trkpt><trkpt lat="45.839671660399304" lon="9.39528682123538"><ele>205.5</ele><time>2026-04-05T07:58:49Z</time></trkpt><trkpt lat="45.839795320156604" lon="9.395282724439596"><ele>205.25</ele><time>2026-04-05T07:58:50Z</time></trkpt><trkpt lat="45.839919634922346" lon="9.39527622057553"><ele>205.0</ele><time>2026-04-05T07:58:51Z</time></trkpt><trkpt lat="45.84004215976615" lon="9.395272815681974"><ele>205.0</ele><time>2026-04-05T07:58:52Z</time></trkpt><trkpt lat="45.840163836855815" lon="9.395275871075027"><ele>205.0</ele><time>2026-04-05T07:58:53Z</time></trkpt><trkpt lat="45.84028702873062" lon="9.395288201238145"><ele>205.0</ele><time>2026-04-05T07:58:54Z</time></trkpt><trkpt lat="45.84041221695572" lon="9.395308245978736"><ele>205.0</ele><time>2026-04-05T07:58:55Z</time></trkpt><trkpt lat="45.840535416451296" lon="9.39534415687433"><ele>205.0</ele><time>2026-04-05T07:58:56Z</time></trkpt><trkpt lat="45.84065894355901" lon="9.395390943350476"><ele>205.0</ele><time>2026-04-05T07:58:57Z</time></trkpt><trkpt lat="45.84077803245788" lon="9.395448975259653"><ele>205.0</ele><time>2026-04-05T07:58:58Z</time></trkpt><trkpt lat="45.84089571977866" lon="9.395518709773924"><ele>205.0</ele><time>2026-04-05T07:58:59Z</time></trkpt><trkpt lat="45.84101319355198" lon="9.395599361339503"><ele>206.0</ele><time>2026-04-05T07:59:00Z</time></trkpt><trkpt lat="45.84113053343896" lon="9.395687283798809"><ele>207.0</ele><time>2026-04-05T07:59:01Z</time></trkpt><trkpt lat="45.84124902046234" lon="9.395779657245738"><ele>208.0</ele><time>2026-04-05T07:59:01.999Z</time></trkpt><trkpt lat="45.84136841013809" lon="9.395880767625362"><ele>209.0</ele><time>2026-04-05T07:59:02.999Z</time></trkpt><trkpt lat="45.84149309623883" lon="9.395987278696358"><ele>209.0</ele><time>2026-04-05T07:59:03.999Z</time></trkpt><trkpt lat="45.84162038358159" lon="9.396095812761917"><ele>209.0</ele><time>2026-04-05T07:59:04.999Z</time></trkpt><trkpt lat="45.841749848848956" lon="9.396207447461837"><ele>209.0</ele><time>2026-04-05T07:59:05.999Z</time></trkpt><trkpt lat="45.84187706900975" lon="9.396320115576266"><ele>209.0</ele><time>2026-04-05T07:59:06.999Z</time></trkpt><trkpt lat="45.84200334692465" lon="9.396429165093071"><ele>209.25</ele><time>2026-04-05T07:59:07.999Z</time></trkpt><trkpt lat="45.842128178453194" lon="9.396532352921456"><ele>209.5</ele><time>2026-04-05T07:59:08.999Z</time></trkpt><trkpt lat="45.842249956452605" lon="9.396625901978028"><ele>209.75</ele><time>2026-04-05T07:59:09.999Z</time></trkpt><trkpt lat="45.84237481130403" lon="9.396717853547383"><ele>210.0</ele><time>2026-04-05T07:59:10.999Z</time></trkpt><trkpt lat="45.84249162430998" lon="9.396803501764916"><ele>210.0</ele><time>2026-04-05T07:59:11.999Z</time></trkpt><trkpt lat="45.84261385240542" lon="9.396886686436503"><ele>210.0</ele><time>2026-04-05T07:59:12.999Z</time></trkpt><trkpt lat="45.84274202133477" lon="9.396957942257766"><ele>210.0</ele><time>2026-04-05T07:59:13.999Z</time></trkpt><trkpt lat="45.84287865952215" lon="9.397008766272904"><ele>210.0</ele><time>2026-04-05T07:59:14.999Z</time></trkpt><trkpt lat="45.8430176911473" lon="9.39703349984444"><ele>209.5</ele><time>2026-04-05T07:59:15.999Z</time></trkpt><trkpt lat="45.843158422761576" lon="9.396996332714902"><ele>209.0</ele><time>2026-04-05T07:59:16.999Z</time></trkpt><trkpt lat="45.84329116177762" lon="9.396927535132788"><ele>208.5</ele><time>2026-04-05T07:59:17.999Z</time></trkpt><trkpt lat="45.84340917932707" lon="9.396841253508006"><ele>208.0</ele><time>2026-04-05T07:59:18.999Z</time></trkpt><trkpt lat="45.84352147093187" lon="9.396757253055036"><ele>206.0</ele><time>2026-04-05T07:59:19.999Z</time></trkpt><trkpt lat="45.84363331551088" lon="9.396666341613637"><ele>204.0</ele><time>2026-04-05T07:59:20.999Z</time></trkpt><trkpt lat="45.84375518647118" lon="9.396568360154106"><ele>202.0</ele><time>2026-04-05T07:59:21.999Z</time></trkpt><trkpt lat="45.843882819740855" lon="9.396468500478438"><ele>200.0</ele><time>2026-04-05T07:59:22.999Z</time></trkpt><trkpt lat="45.84401433605426" lon="9.396364220711442"><ele>199.66666666666669</ele><time>2026-04-05T07:59:23.999Z</time></trkpt><trkpt lat="45.84414917817838" lon="9.396257040384716"><ele>199.33333333333331</ele><time>2026-04-05T07:59:24.999Z</time></trkpt><trkpt lat="45.844284756956846" lon="9.396147075272538"><ele>199.0</ele><time>2026-04-05T07:59:25.999Z</time></trkpt><trkpt lat="45.84441924142278" lon="9.396037695360057"><ele>199.0</ele><time>2026-04-05T07:59:26.999Z</time></trkpt><trkpt lat="45.8445509413421" lon="9.395933736322155"><ele>199.0</ele><time>2026-04-05T07:59:27.999Z</time></trkpt><trkpt lat="45.844680751681636" lon="9.395837911236567"><ele>199.0</ele><time>2026-04-05T07:59:28.999Z</time></trkpt><trkpt lat="45.844804981748254" lon="9.395733756510136"><ele>199.0</ele><time>2026-04-05T07:59:29.999Z</time></trkpt><trkpt lat="45.84492498908655" lon="9.395626960268087"><ele>199.0</ele><time>2026-04-05T07:59:30.999Z</time></trkpt><trkpt lat="45.84503811746335" lon="9.395514607229922"><ele>199.0</ele><time>2026-04-05T07:59:31.999Z</time></trkpt><trkpt lat="45.845140646469616" lon="9.395386515801214"><ele>199.0</ele><time>2026-04-05T07:59:32.999Z</time></trkpt><trkpt lat="45.84523355732197" lon="9.39524708882619"><ele>199.0</ele><time>2026-04-05T07:59:33.999Z</time></trkpt><trkpt lat="45.84532108815712" lon="9.395101371800337"><ele>199.0</ele><time>2026-04-05T07:59:35Z</time></trkpt><trkpt lat="45.84540212448874" lon="9.394949764792543"><ele>199.0</ele><time>2026-04-05T07:59:36Z</time></trkpt><trkpt lat="45.845494357519264" lon="9.394803325441691"><ele>199.0</ele><time>2026-04-05T07:59:37Z</time></trkpt><trkpt lat="45.84557176572902" lon="9.394646869812624"><ele>199.0</ele><time>2026-04-05T07:59:38Z</time></trkpt><trkpt lat="45.845647881529295" lon="9.39449581147761"><ele>199.0</ele><time>2026-04-05T07:59:39Z</time></trkpt><trkpt lat="45.845728852350035" lon="9.394333419162223"><ele>199.0</ele><time>2026-04-05T07:59:40Z</time></trkpt><trkpt lat="45.84581453010742" lon="9.39415971883672"><ele>199.0</ele><time>2026-04-05T07:59:41Z</time></trkpt><trkpt lat="45.8458895003799" lon="9.393956774923202"><ele>199.0</ele><time>2026-04-05T07:59:42Z</time></trkpt><trkpt lat="45.845990681835325" lon="9.39376250875615"><ele>199.0</ele><time>2026-04-05T07:59:43Z</time></trkpt><trkpt lat="45.84609445445286" lon="9.393574390395417"><ele>199.0</ele><time>2026-04-05T07:59:44Z</time></trkpt><trkpt lat="45.84619167353133" lon="9.393389551689358"><ele>199.0</ele><time>2026-04-05T07:59:45Z</time></trkpt><trkpt lat="45.846284637030124" lon="9.393210457254916"><ele>199.0</ele><time>2026-04-05T07:59:46Z</time></trkpt><trkpt lat="45.84637224601482" lon="9.39304035197507"><ele>199.0</ele><time>2026-04-05T07:59:47Z</time></trkpt><trkpt lat="45.8464510474453" lon="9.392882924153126"><ele>199.0</ele><time>2026-04-05T07:59:48Z</time></trkpt><trkpt lat="45.84652546338072" lon="9.392735638578399"><ele>199.0</ele><time>2026-04-05T07:59:49Z</time></trkpt><trkpt lat="45.84659313177969" lon="9.392605339552826"><ele>199.0</ele><time>2026-04-05T07:59:50Z</time></trkpt><trkpt lat="45.846656712087125" lon="9.392480150821267"><ele>199.0</ele><time>2026-04-05T07:59:51Z</time></trkpt><trkpt lat="45.846712205388876" lon="9.392371665581228"><ele>199.0</ele><time>2026-04-05T07:59:52Z</time></trkpt><trkpt lat="45.84676002627516" lon="9.392282924774111"><ele>199.0</ele><time>2026-04-05T07:59:53Z</time></trkpt><trkpt lat="45.846804530368715" lon="9.392209261190736"><ele>199.0</ele><time>2026-04-05T07:59:54Z</time></trkpt><trkpt lat="45.846869123610205" lon="9.392067515273494"><ele>198.99999999999997</ele><time>2026-04-05T07:59:56Z</time></trkpt><trkpt lat="45.84690217156538" lon="9.391982727857174"><ele>199.0</ele><time>2026-04-05T07:59:57Z</time></trkpt><trkpt lat="45.84694442295656" lon="9.391879331546297"><ele>199.0</ele><time>2026-04-05T07:59:58Z</time></trkpt><trkpt lat="45.8469937686647" lon="9.391766941509442"><ele>199.0</ele><time>2026-04-05T07:59:59Z</time></trkpt><trkpt lat="45.8470422094904" lon="9.391652754305188"><ele>198.99999999999997</ele><time>2026-04-05T08:00:00Z</time></trkpt><trkpt lat="45.84709426114937" lon="9.391529518697343"><ele>199.0</ele><time>2026-04-05T08:00:01Z</time></trkpt><trkpt lat="45.84714867322058" lon="9.391398827852957"><ele>199.75</ele><time>2026-04-05T08:00:02Z</time></trkpt><trkpt lat="45.84720662416591" lon="9.391264010111831"><ele>200.5</ele><time>2026-04-05T08:00:03Z</time></trkpt><trkpt lat="45.84726868146639" lon="9.391126559984114"><ele>201.25</ele><time>2026-04-05T08:00:04Z</time></trkpt><trkpt lat="45.84733302804834" lon="9.390985731483424"><ele>202.0</ele><time>2026-04-05T08:00:05Z</time></trkpt><trkpt lat="45.84739663565827" lon="9.390839210993297"><ele>202.0</ele><time>2026-04-05T08:00:06Z</time></trkpt><trkpt lat="45.84745755748852" lon="9.390698607387561"><ele>202.0</ele><time>2026-04-05T08:00:07Z</time></trkpt><trkpt lat="45.8475180175286" lon="9.390557874966"><ele>202.0</ele><time>2026-04-05T08:00:08Z</time></trkpt><trkpt lat="45.84757834935827" lon="9.390415812405049"><ele>202.0</ele><time>2026-04-05T08:00:09Z</time></trkpt><trkpt lat="45.84763876388299" lon="9.390273517874123"><ele>201.0</ele><time>2026-04-05T08:00:10Z</time></trkpt><trkpt lat="45.84769865870836" lon="9.390130424932373"><ele>200.0</ele><time>2026-04-05T08:00:11Z</time></trkpt><trkpt lat="45.84775571477313" lon="9.389984360920138"><ele>199.0</ele><time>2026-04-05T08:00:12Z</time></trkpt><trkpt lat="45.847807332089275" lon="9.389832079249572"><ele>198.0</ele><time>2026-04-05T08:00:13Z</time></trkpt><trkpt lat="45.847852467042024" lon="9.389674724167849"><ele>198.0</ele><time>2026-04-05T08:00:14Z</time></trkpt><trkpt lat="45.847888304672416" lon="9.38951044313088"><ele>198.0</ele><time>2026-04-05T08:00:15Z</time></trkpt><trkpt lat="45.847918657567014" lon="9.389343024268795"><ele>198.0</ele><time>2026-04-05T08:00:16Z</time></trkpt><trkpt lat="45.84794154692301" lon="9.389171880952993"><ele>198.0</ele><time>2026-04-05T08:00:17Z</time></trkpt><trkpt lat="45.84795884234239" lon="9.38899950811019"><ele>198.25</ele><time>2026-04-05T08:00:18Z</time></trkpt><trkpt lat="45.84797093869774" lon="9.38882862287067"><ele>198.5</ele><time>2026-04-05T08:00:19Z</time></trkpt><trkpt lat="45.84797882173403" lon="9.388659013862227"><ele>198.75</ele><time>2026-04-05T08:00:20Z</time></trkpt><trkpt lat="45.84798061348723" lon="9.388492970443263"><ele>199.0</ele><time>2026-04-05T08:00:21Z</time></trkpt><trkpt lat="45.847978327950514" lon="9.388338272885791"><ele>198.99999999999997</ele><time>2026-04-05T08:00:22Z</time></trkpt><trkpt lat="45.84797289907163" lon="9.388195280654411"><ele>199.0</ele><time>2026-04-05T08:00:23Z</time></trkpt><trkpt lat="45.84796683670801" lon="9.388066505938156"><ele>199.0</ele><time>2026-04-05T08:00:24Z</time></trkpt><trkpt lat="45.84796060193618" lon="9.38794511182265"><ele>199.0</ele><time>2026-04-05T08:00:25Z</time></trkpt><trkpt lat="45.847957364084905" lon="9.387823475237074"><ele>198.99999999999997</ele><time>2026-04-05T08:00:26Z</time></trkpt><trkpt lat="45.847969814137585" lon="9.387707662345317"><ele>199.0</ele><time>2026-04-05T08:00:27Z</time></trkpt><trkpt lat="45.84800140416818" lon="9.38760299416989"><ele>199.2</ele><time>2026-04-05T08:00:28Z</time></trkpt><trkpt lat="45.8480457484415" lon="9.387509391013625"><ele>199.39999999999998</ele><time>2026-04-05T08:00:29Z</time></trkpt><trkpt lat="45.848097137890846" lon="9.38740926700933"><ele>199.6</ele><time>2026-04-05T08:00:30Z</time></trkpt><trkpt lat="45.84814217523409" lon="9.38730040655661"><ele>199.8</ele><time>2026-04-05T08:00:31Z</time></trkpt><trkpt lat="45.84815495009522" lon="9.387163041096963"><ele>200.0</ele><time>2026-04-05T08:00:32Z</time></trkpt><trkpt lat="45.848140232238585" lon="9.387016245665064"><ele>200.75</ele><time>2026-04-05T08:00:33Z</time></trkpt><trkpt lat="45.848138478054075" lon="9.386856605612962"><ele>201.5</ele><time>2026-04-05T08:00:34Z</time></trkpt><trkpt lat="45.84818610756476" lon="9.386703005007869"><ele>202.25</ele><time>2026-04-05T08:00:35Z</time></trkpt><trkpt lat="45.84826234883156" lon="9.386541229097242"><ele>203.0</ele><time>2026-04-05T08:00:36Z</time></trkpt><trkpt lat="45.848347026355924" lon="9.38638141331643"><ele>203.5</ele><time>2026-04-05T08:00:37Z</time></trkpt><trkpt lat="45.84842469016239" lon="9.38621086073388"><ele>204.0</ele><time>2026-04-05T08:00:38Z</time></trkpt><trkpt lat="45.848490786164255" lon="9.386022427392021"><ele>204.5</ele><time>2026-04-05T08:00:39Z</time></trkpt><trkpt lat="45.84857087940861" lon="9.385831248854126"><ele>205.0</ele><time>2026-04-05T08:00:40Z</time></trkpt><trkpt lat="45.84862700457973" lon="9.385619962242377"><ele>202.66666666666666</ele><time>2026-04-05T08:00:41Z</time></trkpt><trkpt lat="45.848683771365444" lon="9.385402204879641"><ele>200.33333333333331</ele><time>2026-04-05T08:00:42Z</time></trkpt><trkpt lat="45.848739663658584" lon="9.385172957174868"><ele>198.0</ele><time>2026-04-05T08:00:43Z</time></trkpt><trkpt lat="45.848784417419374" lon="9.384931293233802"><ele>198.0</ele><time>2026-04-05T08:00:44Z</time></trkpt><trkpt lat="45.84877410666518" lon="9.384681062512001"><ele>198.0</ele><time>2026-04-05T08:00:45Z</time></trkpt><trkpt lat="45.84881031089918" lon="9.38445814419936"><ele>198.0</ele><time>2026-04-05T08:00:46Z</time></trkpt><trkpt lat="45.84884626311753" lon="9.384243547651629"><ele>198.0</ele><time>2026-04-05T08:00:47Z</time></trkpt><trkpt lat="45.84888475455599" lon="9.384024209618275"><ele>198.0</ele><time>2026-04-05T08:00:48Z</time></trkpt><trkpt lat="45.84895728816578" lon="9.383833542438861"><ele>198.0</ele><time>2026-04-05T08:00:49Z</time></trkpt><trkpt lat="45.84901212821496" lon="9.383659862990914"><ele>198.0</ele><time>2026-04-05T08:00:50Z</time></trkpt><trkpt lat="45.8490662446904" lon="9.383500287068125"><ele>199.4</ele><time>2026-04-05T08:00:51Z</time></trkpt><trkpt lat="45.84910460306322" lon="9.38334742766005"><ele>200.8</ele><time>2026-04-05T08:00:52Z</time></trkpt><trkpt lat="45.84915864923801" lon="9.38321415120657"><ele>202.2</ele><time>2026-04-05T08:00:53Z</time></trkpt><trkpt lat="45.84920732656982" lon="9.383087870859109"><ele>203.6</ele><time>2026-04-05T08:00:54Z</time></trkpt><trkpt lat="45.849250555492745" lon="9.38297117344447"><ele>205.0</ele><time>2026-04-05T08:00:55Z</time></trkpt><trkpt lat="45.849290537500245" lon="9.382857682540006"><ele>203.83333333333331</ele><time>2026-04-05T08:00:56Z</time></trkpt><trkpt lat="45.84933032365289" lon="9.382745263855584"><ele>202.66666666666666</ele><time>2026-04-05T08:00:56.999Z</time></trkpt><trkpt lat="45.849369047850914" lon="9.382643095394286"><ele>201.5</ele><time>2026-04-05T08:00:57.999Z</time></trkpt><trkpt lat="45.84940253176487" lon="9.38256162596785"><ele>200.33333333333331</ele><time>2026-04-05T08:00:58.999Z</time></trkpt><trkpt lat="45.8494368149192" lon="9.382460761599626"><ele>199.16666666666666</ele><time>2026-04-05T08:01:00.999Z</time></trkpt><trkpt lat="45.849466237959504" lon="9.382354279703266"><ele>198.0</ele><time>2026-04-05T08:01:08.999Z</time></trkpt><trkpt lat="45.849493851443306" lon="9.382269643855967"><ele>199.0</ele><time>2026-04-05T08:01:09.999Z</time></trkpt><trkpt lat="45.849524451657544" lon="9.382168132777414"><ele>200.0</ele><time>2026-04-05T08:01:10.999Z</time></trkpt><trkpt lat="45.84956773625485" lon="9.382042145056374"><ele>201.0</ele><time>2026-04-05T08:01:11.999Z</time></trkpt><trkpt lat="45.84961336356386" lon="9.381902819726342"><ele>202.0</ele><time>2026-04-05T08:01:12.999Z</time></trkpt><trkpt lat="45.849664062718475" lon="9.381751832725687"><ele>203.0</ele><time>2026-04-05T08:01:13.999Z</time></trkpt><trkpt lat="45.84971768331646" lon="9.381593514586962"><ele>203.0</ele><time>2026-04-05T08:01:14.999Z</time></trkpt><trkpt lat="45.84977290967984" lon="9.381432126276378"><ele>203.0</ele><time>2026-04-05T08:01:15.999Z</time></trkpt><trkpt lat="45.849829133758945" lon="9.381267929116005"><ele>203.0</ele><time>2026-04-05T08:01:16.999Z</time></trkpt><trkpt lat="45.84988812970964" lon="9.381098604383668"><ele>203.0</ele><time>2026-04-05T08:01:17.999Z</time></trkpt><trkpt lat="45.84994875829072" lon="9.380933445547674"><ele>202.25</ele><time>2026-04-05T08:01:18.999Z</time></trkpt><trkpt lat="45.850010317932636" lon="9.380766852149709"><ele>201.5</ele><time>2026-04-05T08:01:19.999Z</time></trkpt><trkpt lat="45.85007397383131" lon="9.380603884934963"><ele>200.75</ele><time>2026-04-05T08:01:20.999Z</time></trkpt><trkpt lat="45.85013987895792" lon="9.380443099745454"><ele>200.0</ele><time>2026-04-05T08:01:21.999Z</time></trkpt><trkpt lat="45.85020980469482" lon="9.380286007984049"><ele>200.0</ele><time>2026-04-05T08:01:22.999Z</time></trkpt><trkpt lat="45.850277848170435" lon="9.38013274894713"><ele>200.0</ele><time>2026-04-05T08:01:23.999Z</time></trkpt><trkpt lat="45.850345001454656" lon="9.379978375189292"><ele>200.0</ele><time>2026-04-05T08:01:24.999Z</time></trkpt><trkpt lat="45.850411024637694" lon="9.379826019806945"><ele>200.0</ele><time>2026-04-05T08:01:25.999Z</time></trkpt><trkpt lat="45.850476324585465" lon="9.379675968307762"><ele>201.8</ele><time>2026-04-05T08:01:26.999Z</time></trkpt><trkpt lat="45.85053896937339" lon="9.379525944488506"><ele>203.6</ele><time>2026-04-05T08:01:27.999Z</time></trkpt><trkpt lat="45.85060052367877" lon="9.379390853023159"><ele>205.39999999999998</ele><time>2026-04-05T08:01:28.999Z</time></trkpt><trkpt lat="45.850654173941045" lon="9.379277969553248"><ele>207.2</ele><time>2026-04-05T08:01:29.999Z</time></trkpt><trkpt lat="45.85070644570182" lon="9.379169217807968"><ele>209.0</ele><time>2026-04-05T08:01:30.999Z</time></trkpt><trkpt lat="45.850757798659615" lon="9.379042170917632"><ele>209.0</ele><time>2026-04-05T08:01:31.999Z</time></trkpt><trkpt lat="45.850814696749666" lon="9.378903271794332"><ele>209.0</ele><time>2026-04-05T08:01:32.999Z</time></trkpt><trkpt lat="45.85087480266094" lon="9.378773992525058"><ele>209.0</ele><time>2026-04-05T08:01:33.999Z</time></trkpt><trkpt lat="45.850938542599344" lon="9.37865316166322"><ele>209.0</ele><time>2026-04-05T08:01:34.999Z</time></trkpt><trkpt lat="45.850996146803304" lon="9.378533309814019"><ele>209.0</ele><time>2026-04-05T08:01:35.999Z</time></trkpt><trkpt lat="45.851048515279516" lon="9.378416803080258"><ele>208.0</ele><time>2026-04-05T08:01:36.999Z</time></trkpt><trkpt lat="45.85109746765749" lon="9.378304110895202"><ele>207.0</ele><time>2026-04-05T08:01:37.999Z</time></trkpt><trkpt lat="45.851145621336535" lon="9.378188300785428"><ele>206.0</ele><time>2026-04-05T08:01:38.999Z</time></trkpt><trkpt lat="45.85119295424693" lon="9.37806749030623"><ele>205.0</ele><time>2026-04-05T08:01:39.999Z</time></trkpt><trkpt lat="45.85124432178674" lon="9.377938617177414"><ele>204.0</ele><time>2026-04-05T08:01:41Z</time></trkpt><trkpt lat="45.851298943765656" lon="9.37780502053969"><ele>204.0</ele><time>2026-04-05T08:01:42Z</time></trkpt><trkpt lat="45.85135760962702" lon="9.377667618886566"><ele>204.0</ele><time>2026-04-05T08:01:43Z</time></trkpt><trkpt lat="45.85141679901247" lon="9.377526399893066"><ele>204.0</ele><time>2026-04-05T08:01:44Z</time></trkpt><trkpt lat="45.85147871883135" lon="9.37738936985097"><ele>204.0</ele><time>2026-04-05T08:01:45Z</time></trkpt><trkpt lat="45.8515404587788" lon="9.377255010628287"><ele>203.6</ele><time>2026-04-05T08:01:46Z</time></trkpt><trkpt lat="45.85160201318652" lon="9.377124199425278"><ele>203.2</ele><time>2026-04-05T08:01:47Z</time></trkpt><trkpt lat="45.85166546828934" lon="9.376997661903115"><ele>202.79999999999998</ele><time>2026-04-05T08:01:48Z</time></trkpt><trkpt lat="45.8517308172885" lon="9.376872696977067"><ele>202.39999999999998</ele><time>2026-04-05T08:01:49Z</time></trkpt><trkpt lat="45.851798344506605" lon="9.376753723289893"><ele>202.0</ele><time>2026-04-05T08:01:50Z</time></trkpt><trkpt lat="45.85186643647074" lon="9.376640275492537"><ele>201.99999999999997</ele><time>2026-04-05T08:01:51Z</time></trkpt><trkpt lat="45.85192768503509" lon="9.376536498193191"><ele>202.0</ele><time>2026-04-05T08:01:52Z</time></trkpt><trkpt lat="45.85198189001739" lon="9.376438454066935"><ele>202.0</ele><time>2026-04-05T08:01:53Z</time></trkpt><trkpt lat="45.852044810373414" lon="9.376359636217854"><ele>202.0</ele><time>2026-04-05T08:01:54Z</time></trkpt><trkpt lat="45.85207075400825" lon="9.376259033074117"><ele>201.99999999999997</ele><time>2026-04-05T08:01:55Z</time></trkpt><trkpt lat="45.852119104930345" lon="9.376191806006853"><ele>202.0</ele><time>2026-04-05T08:01:56Z</time></trkpt><trkpt lat="45.85217927066559" lon="9.37605311394514"><ele>203.2</ele><time>2026-04-05T08:01:58Z</time></trkpt><trkpt lat="45.852248357763244" lon="9.375904040373307"><ele>204.39999999999998</ele><time>2026-04-05T08:02:00Z</time></trkpt><trkpt lat="45.852293974543876" lon="9.375814834613703"><ele>205.60000000000002</ele><time>2026-04-05T08:02:01Z</time></trkpt><trkpt lat="45.85235123573159" lon="9.375723100340725"><ele>206.8</ele><time>2026-04-05T08:02:02Z</time></trkpt><trkpt lat="45.85241803125584" lon="9.375628661642004"><ele>208.0</ele><time>2026-04-05T08:02:03Z</time></trkpt><trkpt lat="45.852491432729224" lon="9.375537965802886"><ele>208.0</ele><time>2026-04-05T08:02:04Z</time></trkpt><trkpt lat="45.85256968168445" lon="9.37545245827647"><ele>208.0</ele><time>2026-04-05T08:02:05Z</time></trkpt><trkpt lat="45.85265761515629" lon="9.375381222600252"><ele>208.0</ele><time>2026-04-05T08:02:06Z</time></trkpt><trkpt lat="45.85274801077215" lon="9.375307926706885"><ele>208.0</ele><time>2026-04-05T08:02:07Z</time></trkpt><trkpt lat="45.85283579047105" lon="9.375236891929339"><ele>208.0</ele><time>2026-04-05T08:02:08Z</time></trkpt><trkpt lat="45.85292363669165" lon="9.375167856586842"><ele>208.0</ele><time>2026-04-05T08:02:09Z</time></trkpt><trkpt lat="45.85301328496508" lon="9.375100086046709"><ele>208.0</ele><time>2026-04-05T08:02:10Z</time></trkpt><trkpt lat="45.85309287111925" lon="9.37501098471161"><ele>208.0</ele><time>2026-04-05T08:02:11Z</time></trkpt><trkpt lat="45.85318495005937" lon="9.374953379821044"><ele>208.0</ele><time>2026-04-05T08:02:12Z</time></trkpt><trkpt lat="45.85327201609074" lon="9.374895560177501"><ele>208.0</ele><time>2026-04-05T08:02:13Z</time></trkpt><trkpt lat="45.85335780382689" lon="9.374839478004512"><ele>207.0</ele><time>2026-04-05T08:02:14Z</time></trkpt><trkpt lat="45.853459108744644" lon="9.374827420655683"><ele>206.0</ele><time>2026-04-05T08:02:15Z</time></trkpt><trkpt lat="45.85355158620972" lon="9.374782726195905"><ele>205.0</ele><time>2026-04-05T08:02:16Z</time></trkpt><trkpt lat="45.853642001522445" lon="9.37473518185586"><ele>204.0</ele><time>2026-04-05T08:02:17Z</time></trkpt><trkpt lat="45.85372793157394" lon="9.37468762334221"><ele>203.0</ele><time>2026-04-05T08:02:18Z</time></trkpt><trkpt lat="45.853811872498866" lon="9.37464034494488"><ele>205.2</ele><time>2026-04-05T08:02:19Z</time></trkpt><trkpt lat="45.85389590326692" lon="9.374593015964885"><ele>207.4</ele><time>2026-04-05T08:02:20Z</time></trkpt><trkpt lat="45.85398087898314" lon="9.37453242971701"><ele>209.59999999999997</ele><time>2026-04-05T08:02:21Z</time></trkpt><trkpt lat="45.85408458350166" lon="9.37454772591552"><ele>211.79999999999998</ele><time>2026-04-05T08:02:22Z</time></trkpt><trkpt lat="45.85419513843129" lon="9.374542919183197"><ele>214.0</ele><time>2026-04-05T08:02:23Z</time></trkpt><trkpt lat="45.85431475260413" lon="9.374540117032558"><ele>216.33333333333331</ele><time>2026-04-05T08:02:24Z</time></trkpt><trkpt lat="45.854452643787695" lon="9.37456331855485"><ele>218.66666666666669</ele><time>2026-04-05T08:02:25Z</time></trkpt><trkpt lat="45.85461789836817" lon="9.374542245091703"><ele>221.0</ele><time>2026-04-05T08:02:26Z</time></trkpt><trkpt lat="45.85478950063644" lon="9.374483742227051"><ele>221.0</ele><time>2026-04-05T08:02:27Z</time></trkpt><trkpt lat="45.85495300322902" lon="9.374447795100268"><ele>221.0</ele><time>2026-04-05T08:02:28Z</time></trkpt><trkpt lat="45.8551009473851" lon="9.374435301418231"><ele>221.0</ele><time>2026-04-05T08:02:29Z</time></trkpt><trkpt lat="45.855201949863044" lon="9.374431918541037"><ele>221.0</ele><time>2026-04-05T08:02:30Z</time></trkpt><trkpt lat="45.85528928133731" lon="9.374426647783075"><ele>220.8</ele><time>2026-04-05T08:02:31Z</time></trkpt><trkpt lat="45.855389110594814" lon="9.374435285181887"><ele>220.60000000000002</ele><time>2026-04-05T08:02:32Z</time></trkpt><trkpt lat="45.85548293200626" lon="9.374471945792784"><ele>220.4</ele><time>2026-04-05T08:02:33Z</time></trkpt><trkpt lat="45.855566008424084" lon="9.374500098316089"><ele>220.2</ele><time>2026-04-05T08:02:34Z</time></trkpt><trkpt lat="45.855664481370965" lon="9.37449562948703"><ele>220.0</ele><time>2026-04-05T08:02:35Z</time></trkpt><trkpt lat="45.85575905506257" lon="9.374524721908314"><ele>220.0</ele><time>2026-04-05T08:02:36Z</time></trkpt><trkpt lat="45.85585004888389" lon="9.374550717921908"><ele>220.0</ele><time>2026-04-05T08:02:37Z</time></trkpt><trkpt lat="45.855943954928186" lon="9.37457523908508"><ele>220.0</ele><time>2026-04-05T08:02:38Z</time></trkpt><trkpt lat="45.85604284746914" lon="9.374571845525042"><ele>220.0</ele><time>2026-04-05T08:02:39Z</time></trkpt><trkpt lat="45.8561461634882" lon="9.374533823569818"><ele>220.0</ele><time>2026-04-05T08:02:40Z</time></trkpt><trkpt lat="45.85626473310661" lon="9.37445453086655"><ele>219.33333333333331</ele><time>2026-04-05T08:02:41Z</time></trkpt><trkpt lat="45.85640068649437" lon="9.374337650169439"><ele>218.66666666666669</ele><time>2026-04-05T08:02:42Z</time></trkpt><trkpt lat="45.856512645536775" lon="9.37418937755082"><ele>218.0</ele><time>2026-04-05T08:02:43Z</time></trkpt><trkpt lat="45.85661312314346" lon="9.373994388079591"><ele>212.33333333333334</ele><time>2026-04-05T08:02:44Z</time></trkpt><trkpt lat="45.85672950301763" lon="9.37379186690055"><ele>206.66666666666669</ele><time>2026-04-05T08:02:45Z</time></trkpt><trkpt lat="45.856843767926605" lon="9.37356239738169"><ele>201.0</ele><time>2026-04-05T08:02:46Z</time></trkpt><trkpt lat="45.85695567233984" lon="9.373324132777647"><ele>201.0</ele><time>2026-04-05T08:02:47Z</time></trkpt><trkpt lat="45.857066586699965" lon="9.373086871060755"><ele>201.0</ele><time>2026-04-05T08:02:48Z</time></trkpt><trkpt lat="45.857174640281684" lon="9.372856505431466"><ele>201.0</ele><time>2026-04-05T08:02:49Z</time></trkpt><trkpt lat="45.85728448898929" lon="9.372642361836517"><ele>201.66666666666669</ele><time>2026-04-05T08:02:50Z</time></trkpt><trkpt lat="45.857421297510385" lon="9.372461752519621"><ele>202.33333333333334</ele><time>2026-04-05T08:02:51Z</time></trkpt><trkpt lat="45.85755619384531" lon="9.372296364938304"><ele>203.0</ele><time>2026-04-05T08:02:52Z</time></trkpt><trkpt lat="45.85767792098897" lon="9.372151924541647"><ele>203.0</ele><time>2026-04-05T08:02:53Z</time></trkpt><trkpt lat="45.857800180583595" lon="9.372038402483067"><ele>203.0</ele><time>2026-04-05T08:02:54Z</time></trkpt><trkpt lat="45.857907578850224" lon="9.371919983840666"><ele>203.0</ele><time>2026-04-05T08:02:55Z</time></trkpt><trkpt lat="45.85799128803904" lon="9.371755076429444"><ele>203.0</ele><time>2026-04-05T08:02:55.999Z</time></trkpt><trkpt lat="45.85804361841584" lon="9.371563720466316"><ele>203.0</ele><time>2026-04-05T08:02:56.999Z</time></trkpt><trkpt lat="45.85804212128038" lon="9.371340705395786"><ele>203.0</ele><time>2026-04-05T08:02:57.999Z</time></trkpt><trkpt lat="45.857996701703314" lon="9.371116793712144"><ele>203.0</ele><time>2026-04-05T08:02:58.999Z</time></trkpt><trkpt lat="45.857912877289" lon="9.370896160578912"><ele>203.0</ele><time>2026-04-05T08:02:59.999Z</time></trkpt><trkpt lat="45.857830234750885" lon="9.37068407325004"><ele>203.0</ele><time>2026-04-05T08:03:00.999Z</time></trkpt><trkpt lat="45.85776974352338" lon="9.370501269033207"><ele>203.0</ele><time>2026-04-05T08:03:01.999Z</time></trkpt><trkpt lat="45.85773202141264" lon="9.370312583084946"><ele>203.0</ele><time>2026-04-05T08:03:02.999Z</time></trkpt><trkpt lat="45.85774023134708" lon="9.370104382821541"><ele>201.66666666666669</ele><time>2026-04-05T08:03:03.999Z</time></trkpt><trkpt lat="45.857759458375355" lon="9.369870924289858"><ele>200.33333333333331</ele><time>2026-04-05T08:03:04.999Z</time></trkpt><trkpt lat="45.85778089757348" lon="9.369615277849737"><ele>199.0</ele><time>2026-04-05T08:03:05.999Z</time></trkpt><trkpt lat="45.85778004004078" lon="9.369341946524816"><ele>199.0</ele><time>2026-04-05T08:03:06.999Z</time></trkpt><trkpt lat="45.8578006475881" lon="9.36910339519946"><ele>199.0</ele><time>2026-04-05T08:03:07.999Z</time></trkpt><trkpt lat="45.85782183223148" lon="9.368883344333018"><ele>199.0</ele><time>2026-04-05T08:03:08.999Z</time></trkpt><trkpt lat="45.857840967298635" lon="9.36868018745582"><ele>199.0</ele><time>2026-04-05T08:03:09.999Z</time></trkpt><trkpt lat="45.85785801423989" lon="9.368492493914456"><ele>199.0</ele><time>2026-04-05T08:03:10.999Z</time></trkpt><trkpt lat="45.857873831217795" lon="9.36830969548494"><ele>199.0</ele><time>2026-04-05T08:03:11.999Z</time></trkpt><trkpt lat="45.85788172608221" lon="9.368113222321051"><ele>199.0</ele><time>2026-04-05T08:03:12.999Z</time></trkpt><trkpt lat="45.85783208665784" lon="9.367920985157992"><ele>198.75</ele><time>2026-04-05T08:03:13.999Z</time></trkpt><trkpt lat="45.85774323288409" lon="9.367748332807961"><ele>198.5</ele><time>2026-04-05T08:03:14.999Z</time></trkpt><trkpt lat="45.857657019240904" lon="9.367577140607638"><ele>198.25</ele><time>2026-04-05T08:03:15.999Z</time></trkpt><trkpt lat="45.85758090234921" lon="9.367408009434442"><ele>198.0</ele><time>2026-04-05T08:03:16.999Z</time></trkpt><trkpt lat="45.85750511427433" lon="9.367246607433387"><ele>198.25</ele><time>2026-04-05T08:03:17.999Z</time></trkpt><trkpt lat="45.85742644695266" lon="9.36709677787092"><ele>198.5</ele><time>2026-04-05T08:03:18.999Z</time></trkpt><trkpt lat="45.85737411705094" lon="9.366934024371055"><ele>198.75</ele><time>2026-04-05T08:03:19.999Z</time></trkpt><trkpt lat="45.85733647534067" lon="9.366774986621024"><ele>199.0</ele><time>2026-04-05T08:03:20.999Z</time></trkpt><trkpt lat="45.8573150411134" lon="9.366609990922026"><ele>198.99999999999997</ele><time>2026-04-05T08:03:21.999Z</time></trkpt><trkpt lat="45.857346239038726" lon="9.36645249836982"><ele>199.0</ele><time>2026-04-05T08:03:22.999Z</time></trkpt><trkpt lat="45.85739750556247" lon="9.36632546640799"><ele>199.0</ele><time>2026-04-05T08:03:23.999Z</time></trkpt><trkpt lat="45.85744127627547" lon="9.366246080456765"><ele>199.0</ele><time>2026-04-05T08:03:24.999Z</time></trkpt><trkpt lat="45.85749027884426" lon="9.366147877266528"><ele>198.99999999999997</ele><time>2026-04-05T08:03:26.999Z</time></trkpt><trkpt lat="45.85753217026444" lon="9.36605264232927"><ele>199.0</ele><time>2026-04-05T08:03:28.999Z</time></trkpt><trkpt lat="45.85758485378458" lon="9.365950186232565"><ele>199.6</ele><time>2026-04-05T08:03:30.999Z</time></trkpt><trkpt lat="45.857685178135725" lon="9.365870807151849"><ele>200.2</ele><time>2026-04-05T08:03:32.999Z</time></trkpt><trkpt lat="45.85780513114226" lon="9.365866129594853"><ele>200.79999999999998</ele><time>2026-04-05T08:03:34.999Z</time></trkpt><trkpt lat="45.85790626382937" lon="9.36588363175492"><ele>201.39999999999998</ele><time>2026-04-05T08:03:36.999Z</time></trkpt><trkpt lat="45.85796768063039" lon="9.365931608612923"><ele>202.0</ele><time>2026-04-05T08:03:38.999Z</time></trkpt><trkpt lat="45.85801890164268" lon="9.366047340483702"><ele>201.99999999999997</ele><time>2026-04-05T08:03:41.999Z</time></trkpt><trkpt lat="45.8580716669991" lon="9.366140333965124"><ele>202.0</ele><time>2026-04-05T08:03:43.999Z</time></trkpt><trkpt lat="45.858180451014725" lon="9.366150411802407"><ele>202.0</ele><time>2026-04-05T08:03:46Z</time></trkpt><trkpt lat="45.85823648112225" lon="9.36609655013714"><ele>202.0</ele><time>2026-04-05T08:03:47Z</time></trkpt><trkpt lat="45.85828558826386" lon="9.3660349031554"><ele>201.99999999999997</ele><time>2026-04-05T08:03:48Z</time></trkpt><trkpt lat="45.85833842924699" lon="9.365981550884085"><ele>202.0</ele><time>2026-04-05T08:03:49Z</time></trkpt><trkpt lat="45.85840242463832" lon="9.36592353028572"><ele>201.5</ele><time>2026-04-05T08:03:50Z</time></trkpt><trkpt lat="45.858497652447234" lon="9.365889951940755"><ele>201.0</ele><time>2026-04-05T08:03:51Z</time></trkpt><trkpt lat="45.85860249621851" lon="9.36583471447057"><ele>200.5</ele><time>2026-04-05T08:03:52Z</time></trkpt><trkpt lat="45.85873043857471" lon="9.36577454838609"><ele>200.0</ele><time>2026-04-05T08:03:53Z</time></trkpt><trkpt lat="45.85887748534684" lon="9.365736468697527"><ele>200.0</ele><time>2026-04-05T08:03:54Z</time></trkpt><trkpt lat="45.8590393277919" lon="9.36567684751856"><ele>200.0</ele><time>2026-04-05T08:03:55Z</time></trkpt><trkpt lat="45.85918727808638" lon="9.365586470544372"><ele>200.0</ele><time>2026-04-05T08:03:56Z</time></trkpt><trkpt lat="45.85931401252304" lon="9.365480396797183"><ele>208.5</ele><time>2026-04-05T08:03:57Z</time></trkpt><trkpt lat="45.8594281852818" lon="9.365363811606208"><ele>217.0</ele><time>2026-04-05T08:03:58Z</time></trkpt><trkpt lat="45.85954272049014" lon="9.365240147322138"><ele>225.5</ele><time>2026-04-05T08:03:59Z</time></trkpt><trkpt lat="45.85965976328564" lon="9.365116111189753"><ele>234.0</ele><time>2026-04-05T08:04:00Z</time></trkpt><trkpt lat="45.85978709757068" lon="9.36499643413636"><ele>234.0</ele><time>2026-04-05T08:04:01Z</time></trkpt><trkpt lat="45.85992334724352" lon="9.364876371271516"><ele>234.0</ele><time>2026-04-05T08:04:02Z</time></trkpt><trkpt lat="45.86006772780248" lon="9.364768815337083"><ele>234.0</ele><time>2026-04-05T08:04:03Z</time></trkpt><trkpt lat="45.860219317942864" lon="9.36466501556922"><ele>265.5</ele><time>2026-04-05T08:04:04Z</time></trkpt><trkpt lat="45.860386526327616" lon="9.36455628838064"><ele>297.0</ele><time>2026-04-05T08:04:05.075Z</time></trkpt><trkpt lat="45.862914216058826" lon="9.363418955587651"><ele>416.0</ele><time>2026-04-05T08:04:09.454Z</time></trkpt><trkpt lat="45.86351938664926" lon="9.363170354577786"><ele>475.0</ele><time>2026-04-05T08:04:10.454Z</time></trkpt><trkpt lat="45.864124880763825" lon="9.362922394570873"><ele>475.0</ele><time>2026-04-05T08:04:11.454Z</time></trkpt><trkpt lat="45.864727400429146" lon="9.362659278593219"><ele>268.0</ele><time>2026-04-05T08:04:12.454Z</time></trkpt><trkpt lat="45.865296147045505" lon="9.362275491271353"><ele>339.0</ele><time>2026-04-05T08:04:13.454Z</time></trkpt><trkpt lat="45.86583840975278" lon="9.361816837981102"><ele>322.0</ele><time>2026-04-05T08:04:14.454Z</time></trkpt><trkpt lat="45.86638015513535" lon="9.361357160369653"><ele>291.0</ele><time>2026-04-05T08:04:15.454Z</time></trkpt><trkpt lat="45.866922084189596" lon="9.360898428428465"><ele>291.0</ele><time>2026-04-05T08:04:16.454Z</time></trkpt><trkpt lat="45.8670627" lon="9.3607794"><ele>291.0</ele><time>2026-04-05T08:04:17.454Z</time></trkpt><trkpt lat="45.87274386080186" lon="9.357437799714036"><ele>262.0</ele><time>2026-04-05T08:05:10.999Z</time></trkpt><trkpt lat="45.8728847735899" lon="9.357283004332757"><ele>233.0</ele><time>2026-04-05T08:05:11.999Z</time></trkpt><trkpt lat="45.87300502528475" lon="9.357138263417202"><ele>204.0</ele><time>2026-04-05T08:05:12.999Z</time></trkpt><trkpt lat="45.87325424896254" lon="9.356710134262707"><ele>203.0</ele><time>2026-04-05T08:05:14.999Z</time></trkpt><trkpt lat="45.87333322436326" lon="9.35647085629991"><ele>202.0</ele><time>2026-04-05T08:05:15.999Z</time></trkpt><trkpt lat="45.873426281891845" lon="9.356239344603758"><ele>201.0</ele><time>2026-04-05T08:05:16.999Z</time></trkpt><trkpt lat="45.873489777026194" lon="9.355988421652276"><ele>203.0</ele><time>2026-04-05T08:05:17.999Z</time></trkpt><trkpt lat="45.87353621174851" lon="9.35574537935212"><ele>205.0</ele><time>2026-04-05T08:05:18.999Z</time></trkpt><trkpt lat="45.8735679613215" lon="9.355517211031271"><ele>207.0</ele><time>2026-04-05T08:05:19.999Z</time></trkpt><trkpt lat="45.87359342456418" lon="9.35528631559507"><ele>209.33333333333331</ele><time>2026-04-05T08:05:20.999Z</time></trkpt><trkpt lat="45.87361255577276" lon="9.35504905717493"><ele>211.66666666666666</ele><time>2026-04-05T08:05:21.999Z</time></trkpt><trkpt lat="45.87362700648555" lon="9.35481678928989"><ele>214.0</ele><time>2026-04-05T08:05:22.999Z</time></trkpt><trkpt lat="45.87364114022742" lon="9.354589616130783"><ele>221.66666666666666</ele><time>2026-04-05T08:05:23.999Z</time></trkpt><trkpt lat="45.87365613681043" lon="9.354360062349828"><ele>229.33333333333331</ele><time>2026-04-05T08:05:25.048Z</time></trkpt><trkpt lat="45.87367249968262" lon="9.35415265184515"><ele>237.0</ele><time>2026-04-05T08:05:26.048Z</time></trkpt><trkpt lat="45.87369163299278" lon="9.353942467933727"><ele>253.0</ele><time>2026-04-05T08:05:27.047Z</time></trkpt><trkpt lat="45.873712065303906" lon="9.353752266585566"><ele>269.0</ele><time>2026-04-05T08:05:28.045Z</time></trkpt><trkpt lat="45.873733749839865" lon="9.353570875928936"><ele>285.0</ele><time>2026-04-05T08:05:29.045Z</time></trkpt><trkpt lat="45.874328229254424" lon="9.350873224806856"><ele>329.5</ele><time>2026-04-05T08:05:33.453Z</time></trkpt><trkpt lat="45.8745386012978" lon="9.350304020861566"><ele>374.0</ele><time>2026-04-05T08:05:34.453Z</time></trkpt><trkpt lat="45.87477239729538" lon="9.349753820689005"><ele>381.0</ele><time>2026-04-05T08:05:35.453Z</time></trkpt><trkpt lat="45.875027065032384" lon="9.349222595792831"><ele>388.0</ele><time>2026-04-05T08:05:36.453Z</time></trkpt><trkpt lat="45.8752859802886" lon="9.348696373491162"><ele>388.0</ele><time>2026-04-05T08:05:37.453Z</time></trkpt><trkpt lat="45.87554503571821" lon="9.34816986629951"><ele>388.0</ele><time>2026-04-05T08:05:38.453Z</time></trkpt><trkpt lat="45.87580331617606" lon="9.34764259433686"><ele>373.5</ele><time>2026-04-05T08:05:39.453Z</time></trkpt><trkpt lat="45.87606154487905" lon="9.347115417437031"><ele>359.0</ele><time>2026-04-05T08:05:40.453Z</time></trkpt><trkpt lat="45.87631979861414" lon="9.34658818943389"><ele>355.0</ele><time>2026-04-05T08:05:41.453Z</time></trkpt><trkpt lat="45.876580058687" lon="9.346062828043763"><ele>351.0</ele><time>2026-04-05T08:05:42.453Z</time></trkpt><trkpt lat="45.876845885988445" lon="9.345543132824485"><ele>351.0</ele><time>2026-04-05T08:05:43.453Z</time></trkpt><trkpt lat="45.877119589342506" lon="9.345032134125715"><ele>351.0</ele><time>2026-04-05T08:05:44.453Z</time></trkpt><trkpt lat="45.87739790120224" lon="9.34452574969048"><ele>348.5</ele><time>2026-04-05T08:05:45.453Z</time></trkpt><trkpt lat="45.877681569705786" lon="9.344025993470172"><ele>346.0</ele><time>2026-04-05T08:05:46.453Z</time></trkpt><trkpt lat="45.877967747480966" lon="9.343529607200688"><ele>357.5</ele><time>2026-04-05T08:05:47.453Z</time></trkpt><trkpt lat="45.878254082759064" lon="9.34303294773639"><ele>369.0</ele><time>2026-04-05T08:05:48.453Z</time></trkpt><trkpt lat="45.87854102109736" lon="9.342536769101406"><ele>348.5</ele><time>2026-04-05T08:05:49.453Z</time></trkpt><trkpt lat="45.87882839458193" lon="9.342041458237594"><ele>328.0</ele><time>2026-04-05T08:05:50.453Z</time></trkpt><trkpt lat="45.87911506937428" lon="9.341544988851682"><ele>323.0</ele><time>2026-04-05T08:05:51.453Z</time></trkpt><trkpt lat="45.87940171641987" lon="9.341048644043797"><ele>318.0</ele><time>2026-04-05T08:05:52.453Z</time></trkpt><trkpt lat="45.87968851997252" lon="9.340552618204171"><ele>348.5</ele><time>2026-04-05T08:05:53.453Z</time></trkpt><trkpt lat="45.87997515397284" lon="9.340056336487493"><ele>379.0</ele><time>2026-04-05T08:05:54.453Z</time></trkpt><trkpt lat="45.88026143769277" lon="9.339559561067846"><ele>382.0</ele><time>2026-04-05T08:05:55.453Z</time></trkpt><trkpt lat="45.88054604900674" lon="9.339060701330013"><ele>385.0</ele><time>2026-04-05T08:05:56.453Z</time></trkpt><trkpt lat="45.88082530207509" lon="9.338555408956294"><ele>403.0</ele><time>2026-04-05T08:05:57.453Z</time></trkpt><trkpt lat="45.8809228" lon="9.3383789"><ele>421.0</ele><time>2026-04-05T08:05:58.453Z</time></trkpt><trkpt lat="45.88400056583102" lon="9.331873606510376"><ele>352.6666666666667</ele><time>2026-04-05T08:06:56.998Z</time></trkpt><trkpt lat="45.88388037984613" lon="9.331577306095875"><ele>284.33333333333337</ele><time>2026-04-05T08:06:57.998Z</time></trkpt><trkpt lat="45.88392990249294" lon="9.331374896164835"><ele>216.0</ele><time>2026-04-05T08:06:58.998Z</time></trkpt><trkpt lat="45.88412278621393" lon="9.331234951436342"><ele>216.0</ele><time>2026-04-05T08:06:59.998Z</time></trkpt><trkpt lat="45.88420501746265" lon="9.331019523122395"><ele>216.0</ele><time>2026-04-05T08:07:00.998Z</time></trkpt><trkpt lat="45.88425305229174" lon="9.330786691992392"><ele>216.0</ele><time>2026-04-05T08:07:01.998Z</time></trkpt><trkpt lat="45.88425740456092" lon="9.330552421112081"><ele>217.66666666666669</ele><time>2026-04-05T08:07:03Z</time></trkpt><trkpt lat="45.884264014344296" lon="9.330323753305013"><ele>219.33333333333334</ele><time>2026-04-05T08:07:04Z</time></trkpt><trkpt lat="45.88426279150788" lon="9.330056981069857"><ele>221.0</ele><time>2026-04-05T08:07:05Z</time></trkpt><trkpt lat="45.88427095408074" lon="9.329771877653235"><ele>213.33333333333334</ele><time>2026-04-05T08:07:06Z</time></trkpt><trkpt lat="45.88429173477914" lon="9.329485038744503"><ele>205.66666666666669</ele><time>2026-04-05T08:07:07Z</time></trkpt><trkpt lat="45.8842977619857" lon="9.329195086528959"><ele>198.0</ele><time>2026-04-05T08:07:08Z</time></trkpt><trkpt lat="45.88433492473618" lon="9.3289072481734"><ele>198.0</ele><time>2026-04-05T08:07:09Z</time></trkpt><trkpt lat="45.88435661808003" lon="9.328617037003381"><ele>198.0</ele><time>2026-04-05T08:07:10Z</time></trkpt><trkpt lat="45.88437811044032" lon="9.328329514489441"><ele>198.0</ele><time>2026-04-05T08:07:11Z</time></trkpt><trkpt lat="45.88439847903353" lon="9.328057025729798"><ele>198.33333333333331</ele><time>2026-04-05T08:07:12Z</time></trkpt><trkpt lat="45.884406640364666" lon="9.32779528424326"><ele>198.66666666666666</ele><time>2026-04-05T08:07:13Z</time></trkpt><trkpt lat="45.884431519405354" lon="9.327552003590956"><ele>199.0</ele><time>2026-04-05T08:07:14Z</time></trkpt><trkpt lat="45.88445587833393" lon="9.32732056329453"><ele>199.5</ele><time>2026-04-05T08:07:15Z</time></trkpt><trkpt lat="45.884480530800275" lon="9.327101093307759"><ele>200.0</ele><time>2026-04-05T08:07:16Z</time></trkpt><trkpt lat="45.8845084223759" lon="9.326896686482762"><ele>200.5</ele><time>2026-04-05T08:07:17Z</time></trkpt><trkpt lat="45.884535552124724" lon="9.326705351924208"><ele>201.0</ele><time>2026-04-05T08:07:18Z</time></trkpt><trkpt lat="45.88456368405464" lon="9.326526499226683"><ele>201.0</ele><time>2026-04-05T08:07:19Z</time></trkpt><trkpt lat="45.8845920405514" lon="9.326359337047053"><ele>201.0</ele><time>2026-04-05T08:07:20Z</time></trkpt><trkpt lat="45.884613657865934" lon="9.326226843208426"><ele>201.0</ele><time>2026-04-05T08:07:21Z</time></trkpt><trkpt lat="45.88463300987972" lon="9.326108640934732"><ele>201.0</ele><time>2026-04-05T08:07:22Z</time></trkpt><trkpt lat="45.884660841241015" lon="9.326015375896318"><ele>201.0</ele><time>2026-04-05T08:07:25Z</time></trkpt><trkpt lat="45.88467717914404" lon="9.325914440157394"><ele>201.0</ele><time>2026-04-05T08:07:28Z</time></trkpt><trkpt lat="45.88470204834531" lon="9.325762228673504"><ele>201.0</ele><time>2026-04-05T08:07:30Z</time></trkpt><trkpt lat="45.88473023369198" lon="9.325620519574516"><ele>201.0</ele><time>2026-04-05T08:07:32Z</time></trkpt><trkpt lat="45.88475069255174" lon="9.325527275749584"><ele>201.0</ele><time>2026-04-05T08:07:33Z</time></trkpt><trkpt lat="45.88477909903148" lon="9.325401380514075"><ele>201.0</ele><time>2026-04-05T08:07:34Z</time></trkpt><trkpt lat="45.88481985857927" lon="9.325220737472664"><ele>201.0</ele><time>2026-04-05T08:07:35Z</time></trkpt><trkpt lat="45.88487699362089" lon="9.324972621186847"><ele>201.66666666666669</ele><time>2026-04-05T08:07:36Z</time></trkpt><trkpt lat="45.884942346247044" lon="9.324696507170781"><ele>202.33333333333334</ele><time>2026-04-05T08:07:37Z</time></trkpt><trkpt lat="45.8850196775796" lon="9.324447244930557"><ele>203.0</ele><time>2026-04-05T08:07:38Z</time></trkpt><trkpt lat="45.88514408651849" lon="9.324257464538631"><ele>203.0</ele><time>2026-04-05T08:07:39Z</time></trkpt><trkpt lat="45.88528875388602" lon="9.32407349783459"><ele>203.0</ele><time>2026-04-05T08:07:40Z</time></trkpt><trkpt lat="45.885420887810284" lon="9.323918189428854"><ele>203.0</ele><time>2026-04-05T08:07:41Z</time></trkpt><trkpt lat="45.88557630314972" lon="9.323808748838022"><ele>202.66666666666669</ele><time>2026-04-05T08:07:42Z</time></trkpt><trkpt lat="45.885741065130034" lon="9.323697809738878"><ele>202.33333333333331</ele><time>2026-04-05T08:07:43Z</time></trkpt><trkpt lat="45.885897842007495" lon="9.323587349054327"><ele>202.0</ele><time>2026-04-05T08:07:44Z</time></trkpt><trkpt lat="45.8860333481479" lon="9.323464776348954"><ele>202.0</ele><time>2026-04-05T08:07:45Z</time></trkpt><trkpt lat="45.88616131831802" lon="9.323359440017356"><ele>202.0</ele><time>2026-04-05T08:07:46Z</time></trkpt><trkpt lat="45.886268470494485" lon="9.323192891254863"><ele>202.0</ele><time>2026-04-05T08:07:47Z</time></trkpt><trkpt lat="45.88634801246324" lon="9.322972452124265"><ele>210.66666666666666</ele><time>2026-04-05T08:07:48Z</time></trkpt><trkpt lat="45.88644296229039" lon="9.32274251653428"><ele>219.33333333333331</ele><time>2026-04-05T08:07:49Z</time></trkpt><trkpt lat="45.886529711033205" lon="9.322546657328493"><ele>228.0</ele><time>2026-04-05T08:07:50Z</time></trkpt><trkpt lat="45.88664800019971" lon="9.322421992217881"><ele>221.66666666666669</ele><time>2026-04-05T08:07:51Z</time></trkpt><trkpt lat="45.88679852112117" lon="9.322270586723585"><ele>215.33333333333334</ele><time>2026-04-05T08:07:52Z</time></trkpt><trkpt lat="45.886919199822245" lon="9.322095378483024"><ele>209.0</ele><time>2026-04-05T08:07:53Z</time></trkpt><trkpt lat="45.887030065859676" lon="9.321926962156635"><ele>209.0</ele><time>2026-04-05T08:07:54Z</time></trkpt><trkpt lat="45.887143204325646" lon="9.321776900919692"><ele>209.0</ele><time>2026-04-05T08:07:55Z</time></trkpt><trkpt lat="45.8872591980489" lon="9.321655165722861"><ele>209.0</ele><time>2026-04-05T08:07:56Z</time></trkpt><trkpt lat="45.88737297396963" lon="9.321516462719295"><ele>209.0</ele><time>2026-04-05T08:07:57Z</time></trkpt><trkpt lat="45.88745617182013" lon="9.321348070793043"><ele>206.66666666666669</ele><time>2026-04-05T08:07:58Z</time></trkpt><trkpt lat="45.887529163267025" lon="9.321140832593018"><ele>204.33333333333331</ele><time>2026-04-05T08:07:59Z</time></trkpt><trkpt lat="45.887617582505804" lon="9.320910205054126"><ele>202.0</ele><time>2026-04-05T08:08:00Z</time></trkpt><trkpt lat="45.88772445829538" lon="9.32069760317122"><ele>210.66666666666666</ele><time>2026-04-05T08:08:00.999Z</time></trkpt><trkpt lat="45.887853663499996" lon="9.320505678471372"><ele>219.33333333333331</ele><time>2026-04-05T08:08:01.999Z</time></trkpt><trkpt lat="45.887980050952166" lon="9.32032215793599"><ele>228.0</ele><time>2026-04-05T08:08:02.999Z</time></trkpt><trkpt lat="45.88809279246705" lon="9.320163711104378"><ele>228.0</ele><time>2026-04-05T08:08:03.999Z</time></trkpt><trkpt lat="45.88820600349819" lon="9.320039920467808"><ele>228.0</ele><time>2026-04-05T08:08:04.999Z</time></trkpt><trkpt lat="45.888321597520864" lon="9.319951070228665"><ele>228.0</ele><time>2026-04-05T08:08:05.999Z</time></trkpt><trkpt lat="45.88842443551397" lon="9.319874197591327"><ele>228.0</ele><time>2026-04-05T08:08:06.999Z</time></trkpt><trkpt lat="45.88850559644266" lon="9.319813097038786"><ele>227.66666666666666</ele><time>2026-04-05T08:08:07.999Z</time></trkpt><trkpt lat="45.888578567655266" lon="9.319765776942903"><ele>227.33333333333331</ele><time>2026-04-05T08:08:08.999Z</time></trkpt><trkpt lat="45.88864468141759" lon="9.319728549476917"><ele>227.0</ele><time>2026-04-05T08:08:09.999Z</time></trkpt><trkpt lat="45.88871293975859" lon="9.319704551520443"><ele>226.66666666666666</ele><time>2026-04-05T08:08:10.999Z</time></trkpt><trkpt lat="45.88878900334579" lon="9.319689984062501"><ele>226.33333333333331</ele><time>2026-04-05T08:08:11.999Z</time></trkpt><trkpt lat="45.88887002957151" lon="9.319661810064154"><ele>226.0</ele><time>2026-04-05T08:08:12.999Z</time></trkpt><trkpt lat="45.888933363535486" lon="9.319593832163445"><ele>225.99999999999997</ele><time>2026-04-05T08:08:13.999Z</time></trkpt><trkpt lat="45.889017160741474" lon="9.319533268311172"><ele>226.0</ele><time>2026-04-05T08:08:14.999Z</time></trkpt><trkpt lat="45.88909078264933" lon="9.319441568451055"><ele>226.0</ele><time>2026-04-05T08:08:15.999Z</time></trkpt><trkpt lat="45.889161311208724" lon="9.319352201953588"><ele>226.0</ele><time>2026-04-05T08:08:16.999Z</time></trkpt><trkpt lat="45.889225498227" lon="9.319270672822984"><ele>225.99999999999997</ele><time>2026-04-05T08:08:17.999Z</time></trkpt><trkpt lat="45.88928284062041" lon="9.319200571652352"><ele>226.0</ele><time>2026-04-05T08:08:18.999Z</time></trkpt><trkpt lat="45.8893377483535" lon="9.31913340773478"><ele>224.0</ele><time>2026-04-05T08:08:19.999Z</time></trkpt><trkpt lat="45.889404675635646" lon="9.319047577037317"><ele>222.00000000000003</ele><time>2026-04-05T08:08:20.999Z</time></trkpt><trkpt lat="45.8894717578557" lon="9.318937028281665"><ele>220.00000000000003</ele><time>2026-04-05T08:08:21.999Z</time></trkpt><trkpt lat="45.889533531202545" lon="9.318812035455009"><ele>218.0</ele><time>2026-04-05T08:08:22.999Z</time></trkpt><trkpt lat="45.889573642120006" lon="9.318694515126325"><ele>216.0</ele><time>2026-04-05T08:08:23.999Z</time></trkpt><trkpt lat="45.88962050273974" lon="9.31857244915019"><ele>216.0</ele><time>2026-04-05T08:08:24.999Z</time></trkpt><trkpt lat="45.889675625036055" lon="9.318452242071997"><ele>216.0</ele><time>2026-04-05T08:08:25.999Z</time></trkpt><trkpt lat="45.88976279025836" lon="9.31829704327074"><ele>216.0</ele><time>2026-04-05T08:08:26.999Z</time></trkpt><trkpt lat="45.889864232810936" lon="9.318164301384217"><ele>216.0</ele><time>2026-04-05T08:08:27.999Z</time></trkpt><trkpt lat="45.88999813590672" lon="9.318102304895616"><ele>217.0</ele><time>2026-04-05T08:08:28.999Z</time></trkpt><trkpt lat="45.89016779103858" lon="9.318000491759017"><ele>218.0</ele><time>2026-04-05T08:08:29.999Z</time></trkpt><trkpt lat="45.89031443162652" lon="9.317875217789764"><ele>219.0</ele><time>2026-04-05T08:08:30.999Z</time></trkpt><trkpt lat="45.890452523488314" lon="9.31778407236995"><ele>219.0</ele><time>2026-04-05T08:08:31.999Z</time></trkpt><trkpt lat="45.8905793576599" lon="9.31767987672019"><ele>219.0</ele><time>2026-04-05T08:08:32.999Z</time></trkpt><trkpt lat="45.89069616482945" lon="9.31756905786064"><ele>219.0</ele><time>2026-04-05T08:08:33.999Z</time></trkpt><trkpt lat="45.89079767429399" lon="9.317429276970897"><ele>219.0</ele><time>2026-04-05T08:08:34.999Z</time></trkpt><trkpt lat="45.8908779924902" lon="9.317249149182995"><ele>213.75</ele><time>2026-04-05T08:08:35.999Z</time></trkpt><trkpt lat="45.890956982113806" lon="9.317058280963467"><ele>208.5</ele><time>2026-04-05T08:08:36.999Z</time></trkpt><trkpt lat="45.89103274645421" lon="9.316877038987096"><ele>203.25</ele><time>2026-04-05T08:08:37.999Z</time></trkpt><trkpt lat="45.89109521380467" lon="9.31670116055664"><ele>198.0</ele><time>2026-04-05T08:08:38.999Z</time></trkpt><trkpt lat="45.891133704832306" lon="9.316512381724372"><ele>199.66666666666669</ele><time>2026-04-05T08:08:39.999Z</time></trkpt><trkpt lat="45.89114176880178" lon="9.316285419798788"><ele>201.33333333333334</ele><time>2026-04-05T08:08:40.999Z</time></trkpt><trkpt lat="45.89115253518877" lon="9.316026302680447"><ele>203.0</ele><time>2026-04-05T08:08:41.999Z</time></trkpt><trkpt lat="45.89115598208497" lon="9.315790157429017"><ele>203.0</ele><time>2026-04-05T08:08:42.999Z</time></trkpt><trkpt lat="45.89116680684805" lon="9.315607666503846"><ele>203.0</ele><time>2026-04-05T08:08:43.999Z</time></trkpt><trkpt lat="45.89120696357461" lon="9.315449180954731"><ele>203.0</ele><time>2026-04-05T08:08:44.999Z</time></trkpt><trkpt lat="45.891278797033834" lon="9.315331138737356"><ele>203.0</ele><time>2026-04-05T08:08:45.999Z</time></trkpt><trkpt lat="45.89137876282029" lon="9.315248532099677"><ele>205.25</ele><time>2026-04-05T08:08:46.999Z</time></trkpt><trkpt lat="45.89149966331676" lon="9.31521503716218"><ele>207.5</ele><time>2026-04-05T08:08:47.999Z</time></trkpt><trkpt lat="45.891636381350345" lon="9.315185638298107"><ele>209.75</ele><time>2026-04-05T08:08:48.999Z</time></trkpt><trkpt lat="45.89180791264079" lon="9.315203624197132"><ele>212.0</ele><time>2026-04-05T08:08:49.999Z</time></trkpt><trkpt lat="45.89199086057719" lon="9.315177632648922"><ele>212.0</ele><time>2026-04-05T08:08:50.999Z</time></trkpt><trkpt lat="45.89217488051081" lon="9.31512114694084"><ele>212.0</ele><time>2026-04-05T08:08:51.999Z</time></trkpt><trkpt lat="45.89234110037743" lon="9.315031063589243"><ele>212.0</ele><time>2026-04-05T08:08:52.999Z</time></trkpt><trkpt lat="45.892517181557686" lon="9.314907417376432"><ele>215.0</ele><time>2026-04-05T08:08:53.999Z</time></trkpt><trkpt lat="45.89269512342878" lon="9.314765075900553"><ele>218.0</ele><time>2026-04-05T08:08:54.999Z</time></trkpt><trkpt lat="45.89285336275287" lon="9.314643990771811"><ele>221.0</ele><time>2026-04-05T08:08:55.999Z</time></trkpt><trkpt lat="45.89299389301048" lon="9.314518700217658"><ele>221.0</ele><time>2026-04-05T08:08:56.999Z</time></trkpt><trkpt lat="45.893105745639225" lon="9.314339505407391"><ele>221.0</ele><time>2026-04-05T08:08:57.999Z</time></trkpt><trkpt lat="45.89321262793976" lon="9.314131674441178"><ele>221.0</ele><time>2026-04-05T08:08:58.999Z</time></trkpt><trkpt lat="45.893325524451875" lon="9.313942086030984"><ele>225.33333333333334</ele><time>2026-04-05T08:08:59.999Z</time></trkpt><trkpt lat="45.89347914962643" lon="9.31376548804359"><ele>229.66666666666669</ele><time>2026-04-05T08:09:00.999Z</time></trkpt><trkpt lat="45.893642593328266" lon="9.313576475196276"><ele>234.0</ele><time>2026-04-05T08:09:01.999Z</time></trkpt><trkpt lat="45.89380881166728" lon="9.313388968662942"><ele>234.0</ele><time>2026-04-05T08:09:02.999Z</time></trkpt><trkpt lat="45.89399874126217" lon="9.313261488869713"><ele>234.0</ele><time>2026-04-05T08:09:03.999Z</time></trkpt><trkpt lat="45.894181461597235" lon="9.313193970936087"><ele>234.0</ele><time>2026-04-05T08:09:04.999Z</time></trkpt><trkpt lat="45.89433710435264" lon="9.313098056205074"><ele>233.33333333333331</ele><time>2026-04-05T08:09:05.999Z</time></trkpt><trkpt lat="45.894501300520794" lon="9.313100523067787"><ele>232.66666666666666</ele><time>2026-04-05T08:09:06.999Z</time></trkpt><trkpt lat="45.89465339355412" lon="9.313101974619288"><ele>232.0</ele><time>2026-04-05T08:09:08Z</time></trkpt><trkpt lat="45.894796168214135" lon="9.313015227138976"><ele>232.0</ele><time>2026-04-05T08:09:09Z</time></trkpt><trkpt lat="45.89494678419658" lon="9.312861557759073"><ele>232.0</ele><time>2026-04-05T08:09:10Z</time></trkpt><trkpt lat="45.89512067539042" lon="9.31271602358048"><ele>232.0</ele><time>2026-04-05T08:09:11Z</time></trkpt><trkpt lat="45.89530934367068" lon="9.312552696881497"><ele>234.33333333333331</ele><time>2026-04-05T08:09:12Z</time></trkpt><trkpt lat="45.89550192183177" lon="9.312390409324133"><ele>236.66666666666669</ele><time>2026-04-05T08:09:13Z</time></trkpt><trkpt lat="45.895691384412494" lon="9.312230747365911"><ele>239.0</ele><time>2026-04-05T08:09:14Z</time></trkpt><trkpt lat="45.89587571837662" lon="9.312073050817792"><ele>227.33333333333334</ele><time>2026-04-05T08:09:15Z</time></trkpt><trkpt lat="45.89605251636941" lon="9.311921401154713"><ele>215.66666666666669</ele><time>2026-04-05T08:09:16Z</time></trkpt><trkpt lat="45.896226711616436" lon="9.311772083357925"><ele>204.0</ele><time>2026-04-05T08:09:17Z</time></trkpt><trkpt lat="45.896402074761454" lon="9.311621772046681"><ele>204.0</ele><time>2026-04-05T08:09:18Z</time></trkpt><trkpt lat="45.896580431009795" lon="9.311471668179896"><ele>204.0</ele><time>2026-04-05T08:09:19Z</time></trkpt><trkpt lat="45.89675972393898" lon="9.311317621838901"><ele>204.0</ele><time>2026-04-05T08:09:20Z</time></trkpt><trkpt lat="45.89693044311197" lon="9.311168506551004"><ele>208.0</ele><time>2026-04-05T08:09:21Z</time></trkpt><trkpt lat="45.89709122818904" lon="9.31102990348485"><ele>212.0</ele><time>2026-04-05T08:09:22Z</time></trkpt><trkpt lat="45.897242751065804" lon="9.310912631615361"><ele>216.0</ele><time>2026-04-05T08:09:23Z</time></trkpt><trkpt lat="45.897400041137814" lon="9.31087987295833"><ele>216.0</ele><time>2026-04-05T08:09:24Z</time></trkpt><trkpt lat="45.89757351046457" lon="9.310875966080225"><ele>216.0</ele><time>2026-04-05T08:09:25Z</time></trkpt><trkpt lat="45.89775220520408" lon="9.310901435705999"><ele>216.0</ele><time>2026-04-05T08:09:26Z</time></trkpt><trkpt lat="45.897924425009755" lon="9.310890816068127"><ele>212.33333333333331</ele><time>2026-04-05T08:09:27Z</time></trkpt><trkpt lat="45.89809442948458" lon="9.310817871205682"><ele>208.66666666666666</ele><time>2026-04-05T08:09:28Z</time></trkpt><trkpt lat="45.89825224442374" lon="9.310700951577676"><ele>205.0</ele><time>2026-04-05T08:09:29Z</time></trkpt><trkpt lat="45.898382778761146" lon="9.310575825150334"><ele>202.66666666666666</ele><time>2026-04-05T08:09:30Z</time></trkpt><trkpt lat="45.89847934303001" lon="9.310425779976619"><ele>200.33333333333331</ele><time>2026-04-05T08:09:31Z</time></trkpt><trkpt lat="45.898540723863725" lon="9.310226632987378"><ele>198.0</ele><time>2026-04-05T08:09:32Z</time></trkpt><trkpt lat="45.89858421300125" lon="9.309996686550138"><ele>198.0</ele><time>2026-04-05T08:09:33Z</time></trkpt><trkpt lat="45.898618131386954" lon="9.309744844267922"><ele>198.0</ele><time>2026-04-05T08:09:34Z</time></trkpt><trkpt lat="45.898655158667154" lon="9.30947930944502"><ele>198.0</ele><time>2026-04-05T08:09:35Z</time></trkpt><trkpt lat="45.89869272154836" lon="9.309223024372764"><ele>198.33333333333331</ele><time>2026-04-05T08:09:36Z</time></trkpt><trkpt lat="45.89875070185553" lon="9.30898526744081"><ele>198.66666666666666</ele><time>2026-04-05T08:09:37Z</time></trkpt><trkpt lat="45.898823819893906" lon="9.308749651000031"><ele>199.0</ele><time>2026-04-05T08:09:38Z</time></trkpt><trkpt lat="45.89889995390208" lon="9.308510158606055"><ele>201.66666666666666</ele><time>2026-04-05T08:09:39Z</time></trkpt><trkpt lat="45.898977148141874" lon="9.308270609266486"><ele>204.33333333333331</ele><time>2026-04-05T08:09:40Z</time></trkpt><trkpt lat="45.899055370781895" lon="9.308032703184443"><ele>207.0</ele><time>2026-04-05T08:09:41Z</time></trkpt><trkpt lat="45.899145733394136" lon="9.307807220537697"><ele>208.0</ele><time>2026-04-05T08:09:42Z</time></trkpt><trkpt lat="45.899264091478415" lon="9.307589338488459"><ele>209.0</ele><time>2026-04-05T08:09:43Z</time></trkpt><trkpt lat="45.89939338314251" lon="9.307354746430608"><ele>210.0</ele><time>2026-04-05T08:09:44Z</time></trkpt><trkpt lat="45.899533962031086" lon="9.307099674386816"><ele>210.0</ele><time>2026-04-05T08:09:45Z</time></trkpt><trkpt lat="45.899673314919305" lon="9.306846826825552"><ele>210.0</ele><time>2026-04-05T08:09:46Z</time></trkpt><trkpt lat="45.899800046140804" lon="9.306620196690007"><ele>210.0</ele><time>2026-04-05T08:09:47Z</time></trkpt><trkpt lat="45.89992589832543" lon="9.306419740558951"><ele>208.33333333333331</ele><time>2026-04-05T08:09:48Z</time></trkpt><trkpt lat="45.90006714202652" lon="9.3062482214698"><ele>206.66666666666666</ele><time>2026-04-05T08:09:49Z</time></trkpt><trkpt lat="45.900208926831596" lon="9.306082588260212"><ele>205.0</ele><time>2026-04-05T08:09:50Z</time></trkpt><trkpt lat="45.90034730628634" lon="9.305916376683067"><ele>205.0</ele><time>2026-04-05T08:09:51Z</time></trkpt><trkpt lat="45.900481848552914" lon="9.30573270560864"><ele>205.0</ele><time>2026-04-05T08:09:52Z</time></trkpt><trkpt lat="45.900602585149485" lon="9.30550849732865"><ele>205.0</ele><time>2026-04-05T08:09:53Z</time></trkpt><trkpt lat="45.900715570108645" lon="9.305256265556434"><ele>204.33333333333331</ele><time>2026-04-05T08:09:54Z</time></trkpt><trkpt lat="45.900819041335374" lon="9.305018946009923"><ele>203.66666666666669</ele><time>2026-04-05T08:09:55Z</time></trkpt><trkpt lat="45.90091474207399" lon="9.304805615144128"><ele>203.0</ele><time>2026-04-05T08:09:56Z</time></trkpt><trkpt lat="45.90101198034298" lon="9.30462618059594"><ele>203.0</ele><time>2026-04-05T08:09:57Z</time></trkpt><trkpt lat="45.901102621142705" lon="9.304472183904984"><ele>203.0</ele><time>2026-04-05T08:09:58Z</time></trkpt><trkpt lat="45.901186802107134" lon="9.304333545642617"><ele>203.0</ele><time>2026-04-05T08:09:59Z</time></trkpt><trkpt lat="45.90125072413124" lon="9.304193253058315"><ele>203.0</ele><time>2026-04-05T08:10:00Z</time></trkpt><trkpt lat="45.90133557842773" lon="9.304092748399936"><ele>203.0</ele><time>2026-04-05T08:10:01Z</time></trkpt><trkpt lat="45.90138728794414" lon="9.303973180777895"><ele>203.0</ele><time>2026-04-05T08:10:02Z</time></trkpt><trkpt lat="45.90144726933354" lon="9.303874466386075"><ele>203.0</ele><time>2026-04-05T08:10:03Z</time></trkpt><trkpt lat="45.901518738388226" lon="9.303790548468076"><ele>203.0</ele><time>2026-04-05T08:10:03.999Z</time></trkpt><trkpt lat="45.90156594803004" lon="9.303678293611068"><ele>203.0</ele><time>2026-04-05T08:10:04.999Z</time></trkpt><trkpt lat="45.90162483286471" lon="9.303579418293115"><ele>203.2</ele><time>2026-04-05T08:10:05.999Z</time></trkpt><trkpt lat="45.90169315048987" lon="9.303490239012342"><ele>203.4</ele><time>2026-04-05T08:10:06.999Z</time></trkpt><trkpt lat="45.90175035033972" lon="9.303377235036807"><ele>203.6</ele><time>2026-04-05T08:10:07.999Z</time></trkpt><trkpt lat="45.9018061899859" lon="9.303253254694548"><ele>203.79999999999998</ele><time>2026-04-05T08:10:08.999Z</time></trkpt><trkpt lat="45.9018620483682" lon="9.3031235709206"><ele>204.0</ele><time>2026-04-05T08:10:09.999Z</time></trkpt><trkpt lat="45.90191862004628" lon="9.302990600806622"><ele>204.0</ele><time>2026-04-05T08:10:10.999Z</time></trkpt><trkpt lat="45.90197633937274" lon="9.302854472416232"><ele>204.0</ele><time>2026-04-05T08:10:11.999Z</time></trkpt><trkpt lat="45.902019869523855" lon="9.3027158442446"><ele>204.0</ele><time>2026-04-05T08:10:12.999Z</time></trkpt><trkpt lat="45.9020740225472" lon="9.30259229620691"><ele>204.0</ele><time>2026-04-05T08:10:13.999Z</time></trkpt><trkpt lat="45.902128272896476" lon="9.30247264718844"><ele>204.0</ele><time>2026-04-05T08:10:14.999Z</time></trkpt><trkpt lat="45.90219940159463" lon="9.302365167706085"><ele>205.0</ele><time>2026-04-05T08:10:15.999Z</time></trkpt><trkpt lat="45.90224830168021" lon="9.302229046426119"><ele>206.0</ele><time>2026-04-05T08:10:16.999Z</time></trkpt><trkpt lat="45.902314049637205" lon="9.30210827198974"><ele>207.0</ele><time>2026-04-05T08:10:17.999Z</time></trkpt><trkpt lat="45.90237977502519" lon="9.301983424931604"><ele>208.0</ele><time>2026-04-05T08:10:18.999Z</time></trkpt><trkpt lat="45.9024442542149" lon="9.301858338684289"><ele>209.0</ele><time>2026-04-05T08:10:19.999Z</time></trkpt><trkpt lat="45.90252246807306" lon="9.301745351672867"><ele>208.39999999999998</ele><time>2026-04-05T08:10:20.999Z</time></trkpt><trkpt lat="45.90258773361543" lon="9.301624655711514"><ele>207.8</ele><time>2026-04-05T08:10:21.999Z</time></trkpt><trkpt lat="45.90264689377631" lon="9.30149684150284"><ele>207.2</ele><time>2026-04-05T08:10:22.999Z</time></trkpt><trkpt lat="45.90274175524619" lon="9.301430573189318"><ele>206.60000000000002</ele><time>2026-04-05T08:10:23.999Z</time></trkpt><trkpt lat="45.902834975162925" lon="9.30138106342233"><ele>206.0</ele><time>2026-04-05T08:10:24.999Z</time></trkpt><trkpt lat="45.90293039193926" lon="9.301322934255007"><ele>206.0</ele><time>2026-04-05T08:10:25.999Z</time></trkpt><trkpt lat="45.903034092856196" lon="9.30129021271248"><ele>206.0</ele><time>2026-04-05T08:10:26.999Z</time></trkpt><trkpt lat="45.90313893977556" lon="9.301257032915846"><ele>206.0</ele><time>2026-04-05T08:10:27.999Z</time></trkpt><trkpt lat="45.903244009371804" lon="9.301221073403662"><ele>206.0</ele><time>2026-04-05T08:10:28.999Z</time></trkpt><trkpt lat="45.90334991606054" lon="9.30118236406523"><ele>206.0</ele><time>2026-04-05T08:10:29.999Z</time></trkpt><trkpt lat="45.90345630284596" lon="9.301143907069193"><ele>204.5</ele><time>2026-04-05T08:10:30.999Z</time></trkpt><trkpt lat="45.90356363033669" lon="9.301105764387591"><ele>203.0</ele><time>2026-04-05T08:10:31.999Z</time></trkpt><trkpt lat="45.90367122943619" lon="9.30106407856073"><ele>201.5</ele><time>2026-04-05T08:10:32.999Z</time></trkpt><trkpt lat="45.90378240689794" lon="9.301010132283993"><ele>200.0</ele><time>2026-04-05T08:10:33.999Z</time></trkpt><trkpt lat="45.90389281164543" lon="9.30093243483191"><ele>200.0</ele><time>2026-04-05T08:10:34.999Z</time></trkpt><trkpt lat="45.90399872034399" lon="9.300840164579064"><ele>200.0</ele><time>2026-04-05T08:10:35.999Z</time></trkpt><trkpt lat="45.90410150117499" lon="9.300729828232361"><ele>200.0</ele><time>2026-04-05T08:10:36.999Z</time></trkpt><trkpt lat="45.90420552133693" lon="9.300614767808355"><ele>200.0</ele><time>2026-04-05T08:10:37.999Z</time></trkpt><trkpt lat="45.90431294508391" lon="9.300496783052235"><ele>200.25</ele><time>2026-04-05T08:10:38.999Z</time></trkpt><trkpt lat="45.90441937262398" lon="9.30037488834731"><ele>200.5</ele><time>2026-04-05T08:10:39.999Z</time></trkpt><trkpt lat="45.904524772902434" lon="9.300251888656382"><ele>200.75</ele><time>2026-04-05T08:10:40.999Z</time></trkpt><trkpt lat="45.904630181711774" lon="9.300130648424817"><ele>201.0</ele><time>2026-04-05T08:10:41.999Z</time></trkpt><trkpt lat="45.904738612438294" lon="9.30001821994998"><ele>201.0</ele><time>2026-04-05T08:10:42.999Z</time></trkpt><trkpt lat="45.90485437479203" lon="9.299925210847176"><ele>201.0</ele><time>2026-04-05T08:10:43.999Z</time></trkpt><trkpt lat="45.90497888924091" lon="9.299860411013391"><ele>201.0</ele><time>2026-04-05T08:10:44.999Z</time></trkpt><trkpt lat="45.905108250551265" lon="9.299813864372904"><ele>201.0</ele><time>2026-04-05T08:10:45.999Z</time></trkpt><trkpt lat="45.905240716733836" lon="9.299769315025259"><ele>201.75</ele><time>2026-04-05T08:10:46.999Z</time></trkpt><trkpt lat="45.905373678443645" lon="9.299720893108084"><ele>202.5</ele><time>2026-04-05T08:10:47.999Z</time></trkpt><trkpt lat="45.905498662802614" lon="9.299652563570861"><ele>203.25</ele><time>2026-04-05T08:10:48.999Z</time></trkpt><trkpt lat="45.90561511008455" lon="9.2995678670291"><ele>204.0</ele><time>2026-04-05T08:10:49.999Z</time></trkpt><trkpt lat="45.90572222436671" lon="9.299479418371611"><ele>204.0</ele><time>2026-04-05T08:10:50.999Z</time></trkpt><trkpt lat="45.9058240876208" lon="9.299391847390504"><ele>204.0</ele><time>2026-04-05T08:10:51.999Z</time></trkpt><trkpt lat="45.90592553383885" lon="9.299303599607121"><ele>204.0</ele><time>2026-04-05T08:10:52.999Z</time></trkpt><trkpt lat="45.90602695067764" lon="9.299216039852201"><ele>204.0</ele><time>2026-04-05T08:10:53.999Z</time></trkpt><trkpt lat="45.90611998447067" lon="9.299130238375268"><ele>204.16666666666666</ele><time>2026-04-05T08:10:54.999Z</time></trkpt><trkpt lat="45.90620657209352" lon="9.29905174021477"><ele>204.33333333333331</ele><time>2026-04-05T08:10:55.999Z</time></trkpt><trkpt lat="45.90628046201491" lon="9.298984059382375"><ele>204.5</ele><time>2026-04-05T08:10:56.999Z</time></trkpt><trkpt lat="45.90634428678312" lon="9.298947036464348"><ele>204.66666666666666</ele><time>2026-04-05T08:10:57.999Z</time></trkpt><trkpt lat="45.90642115735918" lon="9.298896462196053"><ele>204.83333333333331</ele><time>2026-04-05T08:10:59.999Z</time></trkpt><trkpt lat="45.906484489855394" lon="9.298811800747218"><ele>205.0</ele><time>2026-04-05T08:12:07.999Z</time></trkpt><trkpt lat="45.90656129570839" lon="9.298711345952755"><ele>205.0</ele><time>2026-04-05T08:12:08.999Z</time></trkpt><trkpt lat="45.90667199486216" lon="9.298587775016868"><ele>205.0</ele><time>2026-04-05T08:12:09.999Z</time></trkpt><trkpt lat="45.906826781099994" lon="9.298487178072966"><ele>205.0</ele><time>2026-04-05T08:12:10.999Z</time></trkpt><trkpt lat="45.906978826034006" lon="9.29834970339739"><ele>205.66666666666666</ele><time>2026-04-05T08:12:11.999Z</time></trkpt><trkpt lat="45.90711684624355" lon="9.298221575678221"><ele>206.33333333333331</ele><time>2026-04-05T08:12:12.999Z</time></trkpt><trkpt lat="45.90723823488263" lon="9.298109552659108"><ele>207.0</ele><time>2026-04-05T08:12:13.999Z</time></trkpt><trkpt lat="45.9073713020299" lon="9.29798675214044"><ele>207.0</ele><time>2026-04-05T08:12:14.999Z</time></trkpt><trkpt lat="45.90753175825277" lon="9.297841850245785"><ele>207.0</ele><time>2026-04-05T08:12:15.999Z</time></trkpt><trkpt lat="45.90769177119741" lon="9.297698188033186"><ele>207.0</ele><time>2026-04-05T08:12:16.999Z</time></trkpt><trkpt lat="45.90784383350554" lon="9.297560137022224"><ele>205.0</ele><time>2026-04-05T08:12:17.999Z</time></trkpt><trkpt lat="45.907983557429866" lon="9.29740980892797"><ele>203.0</ele><time>2026-04-05T08:12:18.999Z</time></trkpt><trkpt lat="45.90813079404075" lon="9.297285619282782"><ele>201.0</ele><time>2026-04-05T08:12:19.999Z</time></trkpt><trkpt lat="45.908274196501814" lon="9.29715971463236"><ele>201.0</ele><time>2026-04-05T08:12:20.999Z</time></trkpt><trkpt lat="45.90841402827109" lon="9.297035415490447"><ele>201.0</ele><time>2026-04-05T08:12:21.999Z</time></trkpt><trkpt lat="45.90854924802908" lon="9.296912388164749"><ele>201.0</ele><time>2026-04-05T08:12:22.999Z</time></trkpt><trkpt lat="45.908674588134886" lon="9.296798886847533"><ele>201.0</ele><time>2026-04-05T08:12:23.999Z</time></trkpt><trkpt lat="45.90878388057667" lon="9.296699105582878"><ele>201.0</ele><time>2026-04-05T08:12:24.999Z</time></trkpt><trkpt lat="45.90887968440675" lon="9.296607746396065"><ele>201.0</ele><time>2026-04-05T08:12:25.999Z</time></trkpt><trkpt lat="45.908963157829284" lon="9.296524575613843"><ele>201.0</ele><time>2026-04-05T08:12:26.999Z</time></trkpt><trkpt lat="45.90905905142381" lon="9.29645115736023"><ele>200.5</ele><time>2026-04-05T08:12:27.999Z</time></trkpt><trkpt lat="45.9091583415836" lon="9.296331235664221"><ele>200.0</ele><time>2026-04-05T08:12:28.999Z</time></trkpt><trkpt lat="45.90924522456162" lon="9.296181738443467"><ele>199.5</ele><time>2026-04-05T08:12:29.999Z</time></trkpt><trkpt lat="45.909327005025276" lon="9.296014762837189"><ele>199.0</ele><time>2026-04-05T08:12:30.999Z</time></trkpt><trkpt lat="45.90939632834833" lon="9.29582877284501"><ele>199.0</ele><time>2026-04-05T08:12:31.999Z</time></trkpt><trkpt lat="45.90949024457462" lon="9.295660560817025"><ele>199.0</ele><time>2026-04-05T08:12:32.999Z</time></trkpt><trkpt lat="45.90954619879057" lon="9.295456781495286"><ele>199.0</ele><time>2026-04-05T08:12:33.999Z</time></trkpt><trkpt lat="45.90963261348271" lon="9.295271444060527"><ele>200.33333333333331</ele><time>2026-04-05T08:12:34.999Z</time></trkpt><trkpt lat="45.909719853735766" lon="9.2950854084199"><ele>201.66666666666669</ele><time>2026-04-05T08:12:35.999Z</time></trkpt><trkpt lat="45.90981353837773" lon="9.294904191072058"><ele>203.0</ele><time>2026-04-05T08:12:36.999Z</time></trkpt><trkpt lat="45.90992472426189" lon="9.294743280872837"><ele>203.66666666666669</ele><time>2026-04-05T08:12:37.999Z</time></trkpt><trkpt lat="45.91005744611806" lon="9.2945927089076"><ele>204.33333333333331</ele><time>2026-04-05T08:12:38.999Z</time></trkpt><trkpt lat="45.910207024147" lon="9.294458203265062"><ele>205.0</ele><time>2026-04-05T08:12:39.999Z</time></trkpt><trkpt lat="45.910367891405066" lon="9.294337636808448"><ele>205.0</ele><time>2026-04-05T08:12:40.999Z</time></trkpt><trkpt lat="45.91053173947023" lon="9.29422296860438"><ele>205.0</ele><time>2026-04-05T08:12:41.999Z</time></trkpt><trkpt lat="45.91069989039583" lon="9.29413068719005"><ele>205.0</ele><time>2026-04-05T08:12:42.999Z</time></trkpt><trkpt lat="45.91087260629379" lon="9.294066144533856"><ele>204.33333333333331</ele><time>2026-04-05T08:12:43.999Z</time></trkpt><trkpt lat="45.91103595443613" lon="9.294014322775462"><ele>203.66666666666669</ele><time>2026-04-05T08:12:44.999Z</time></trkpt><trkpt lat="45.911187223169335" lon="9.293971759530248"><ele>203.0</ele><time>2026-04-05T08:12:45.999Z</time></trkpt><trkpt lat="45.91133340379828" lon="9.293944099648957"><ele>203.0</ele><time>2026-04-05T08:12:46.999Z</time></trkpt><trkpt lat="45.911480523461606" lon="9.293932421168028"><ele>203.0</ele><time>2026-04-05T08:12:47.999Z</time></trkpt><trkpt lat="45.91162644647742" lon="9.293920976413123"><ele>203.0</ele><time>2026-04-05T08:12:48.999Z</time></trkpt><trkpt lat="45.91176599278514" lon="9.293908165483419"><ele>203.0</ele><time>2026-04-05T08:12:49.999Z</time></trkpt><trkpt lat="45.91189922696686" lon="9.293886905627401"><ele>204.25</ele><time>2026-04-05T08:12:50.999Z</time></trkpt><trkpt lat="45.91202646421681" lon="9.293829888555925"><ele>205.5</ele><time>2026-04-05T08:12:51.999Z</time></trkpt><trkpt lat="45.91214477548712" lon="9.293747416348277"><ele>206.75</ele><time>2026-04-05T08:12:52.999Z</time></trkpt><trkpt lat="45.91225165880088" lon="9.293669289572168"><ele>208.0</ele><time>2026-04-05T08:12:53.999Z</time></trkpt><trkpt lat="45.91236020676416" lon="9.293599398531546"><ele>208.0</ele><time>2026-04-05T08:12:54.999Z</time></trkpt><trkpt lat="45.91247181896065" lon="9.293527598062997"><ele>208.0</ele><time>2026-04-05T08:12:55.999Z</time></trkpt><trkpt lat="45.912574529414805" lon="9.293460317762783"><ele>208.0</ele><time>2026-04-05T08:12:56.999Z</time></trkpt><trkpt lat="45.912668263569074" lon="9.293404119616433"><ele>208.0</ele><time>2026-04-05T08:12:57.999Z</time></trkpt><trkpt lat="45.91275501708101" lon="9.293353111061329"><ele>208.0</ele><time>2026-04-05T08:12:58.999Z</time></trkpt><trkpt lat="45.912841796152506" lon="9.293304857281901"><ele>208.60000000000002</ele><time>2026-04-05T08:12:59.999Z</time></trkpt><trkpt lat="45.912932558583805" lon="9.293256456024594"><ele>209.20000000000002</ele><time>2026-04-05T08:13:00.999Z</time></trkpt><trkpt lat="45.913026369252115" lon="9.293203322429875"><ele>209.8</ele><time>2026-04-05T08:13:01.999Z</time></trkpt><trkpt lat="45.91312423692577" lon="9.293150482841376"><ele>210.4</ele><time>2026-04-05T08:13:02.999Z</time></trkpt><trkpt lat="45.91322587717574" lon="9.293102186069872"><ele>211.0</ele><time>2026-04-05T08:13:03.999Z</time></trkpt><trkpt lat="45.913331894746996" lon="9.293059511552242"><ele>209.75</ele><time>2026-04-05T08:13:04.999Z</time></trkpt><trkpt lat="45.91344232015526" lon="9.293022941455407"><ele>208.5</ele><time>2026-04-05T08:13:05.999Z</time></trkpt><trkpt lat="45.913556428238955" lon="9.292997905800268"><ele>207.25</ele><time>2026-04-05T08:13:06.999Z</time></trkpt><trkpt lat="45.91367106103345" lon="9.292971716627793"><ele>206.0</ele><time>2026-04-05T08:13:07.999Z</time></trkpt><trkpt lat="45.91378648007454" lon="9.292946818061836"><ele>206.0</ele><time>2026-04-05T08:13:08.999Z</time></trkpt><trkpt lat="45.91390542498483" lon="9.292925969532108"><ele>206.0</ele><time>2026-04-05T08:13:09.999Z</time></trkpt><trkpt lat="45.914029690255234" lon="9.292926729285835"><ele>206.0</ele><time>2026-04-05T08:13:10.999Z</time></trkpt><trkpt lat="45.91415658334548" lon="9.292949968440912"><ele>206.0</ele><time>2026-04-05T08:13:11.999Z</time></trkpt><trkpt lat="45.91429220692139" lon="9.292972083901311"><ele>205.75</ele><time>2026-04-05T08:13:12.999Z</time></trkpt><trkpt lat="45.91443499794534" lon="9.292993745816686"><ele>205.5</ele><time>2026-04-05T08:13:13.999Z</time></trkpt><trkpt lat="45.91458077278112" lon="9.29301155690852"><ele>205.25</ele><time>2026-04-05T08:13:14.999Z</time></trkpt><trkpt lat="45.91472969786198" lon="9.293022410333162"><ele>205.0</ele><time>2026-04-05T08:13:15.999Z</time></trkpt><trkpt lat="45.91488548361171" lon="9.292998239274876"><ele>205.0</ele><time>2026-04-05T08:13:16.999Z</time></trkpt><trkpt lat="45.91504278964682" lon="9.292939691627547"><ele>205.0</ele><time>2026-04-05T08:13:17.999Z</time></trkpt><trkpt lat="45.91520310242386" lon="9.29285267745549"><ele>205.0</ele><time>2026-04-05T08:13:18.999Z</time></trkpt><trkpt lat="45.91537341155443" lon="9.29275671597427"><ele>204.0</ele><time>2026-04-05T08:13:20Z</time></trkpt><trkpt lat="45.915549711075315" lon="9.29265599778267"><ele>203.0</ele><time>2026-04-05T08:13:21Z</time></trkpt><trkpt lat="45.91572379695994" lon="9.292537048742815"><ele>202.0</ele><time>2026-04-05T08:13:22Z</time></trkpt><trkpt lat="45.91589355805839" lon="9.292395160509852"><ele>203.33333333333331</ele><time>2026-04-05T08:13:23Z</time></trkpt><trkpt lat="45.91606581193738" lon="9.292253665678682"><ele>204.66666666666669</ele><time>2026-04-05T08:13:24Z</time></trkpt><trkpt lat="45.91623697188956" lon="9.292113810248557"><ele>206.0</ele><time>2026-04-05T08:13:25Z</time></trkpt><trkpt lat="45.91640784597145" lon="9.2919728161687"><ele>206.0</ele><time>2026-04-05T08:13:26Z</time></trkpt><trkpt lat="45.91657651534612" lon="9.291833243714073"><ele>206.0</ele><time>2026-04-05T08:13:27Z</time></trkpt><trkpt lat="45.91673693723799" lon="9.2916858842768"><ele>206.0</ele><time>2026-04-05T08:13:28Z</time></trkpt><trkpt lat="45.91688662971898" lon="9.29153099423053"><ele>206.33333333333334</ele><time>2026-04-05T08:13:29Z</time></trkpt><trkpt lat="45.917027725725816" lon="9.291371389430727"><ele>206.66666666666669</ele><time>2026-04-05T08:13:30Z</time></trkpt><trkpt lat="45.91715561589499" lon="9.291192261153384"><ele>207.0</ele><time>2026-04-05T08:13:31Z</time></trkpt><trkpt lat="45.9172795288496" lon="9.291007809064611"><ele>207.0</ele><time>2026-04-05T08:13:32Z</time></trkpt><trkpt lat="45.917388688760816" lon="9.290800436557912"><ele>207.0</ele><time>2026-04-05T08:13:33Z</time></trkpt><trkpt lat="45.91749224289685" lon="9.290582579694913"><ele>207.0</ele><time>2026-04-05T08:13:34Z</time></trkpt><trkpt lat="45.9176339785983" lon="9.290418014803466"><ele>206.0</ele><time>2026-04-05T08:13:35Z</time></trkpt><trkpt lat="45.917773662215495" lon="9.290262057644727"><ele>205.0</ele><time>2026-04-05T08:13:36Z</time></trkpt><trkpt lat="45.917904922059" lon="9.290113435645914"><ele>204.0</ele><time>2026-04-05T08:13:37Z</time></trkpt><trkpt lat="45.918058588338546" lon="9.290027643388706"><ele>204.0</ele><time>2026-04-05T08:13:38Z</time></trkpt><trkpt lat="45.918217994112126" lon="9.289950912564043"><ele>204.0</ele><time>2026-04-05T08:13:39Z</time></trkpt><trkpt lat="45.91835256640578" lon="9.289807450501408"><ele>204.0</ele><time>2026-04-05T08:13:40Z</time></trkpt><trkpt lat="45.91850160407379" lon="9.289649436479209"><ele>206.66666666666669</ele><time>2026-04-05T08:13:41Z</time></trkpt><trkpt lat="45.918648352177456" lon="9.28949212550312"><ele>209.33333333333334</ele><time>2026-04-05T08:13:42Z</time></trkpt><trkpt lat="45.91882834944094" lon="9.289436999225847"><ele>212.0</ele><time>2026-04-05T08:13:43Z</time></trkpt><trkpt lat="45.91901361999563" lon="9.289382053375752"><ele>212.0</ele><time>2026-04-05T08:13:44Z</time></trkpt><trkpt lat="45.91918512787092" lon="9.289313536721272"><ele>212.0</ele><time>2026-04-05T08:13:45Z</time></trkpt><trkpt lat="45.9193412650876" lon="9.289272686878887"><ele>212.0</ele><time>2026-04-05T08:13:46Z</time></trkpt><trkpt lat="45.919482335641064" lon="9.289235330594426"><ele>211.6</ele><time>2026-04-05T08:13:47Z</time></trkpt><trkpt lat="45.91959670581946" lon="9.289200650407029"><ele>211.2</ele><time>2026-04-05T08:13:48Z</time></trkpt><trkpt lat="45.9196881029032" lon="9.28917260010849"><ele>210.8</ele><time>2026-04-05T08:13:49Z</time></trkpt><trkpt lat="45.919758138582026" lon="9.289152949159478"><ele>210.4</ele><time>2026-04-05T08:13:50Z</time></trkpt><trkpt lat="45.91986691697365" lon="9.289123263283244"><ele>210.0</ele><time>2026-04-05T08:13:52Z</time></trkpt><trkpt lat="45.919986477933634" lon="9.289090487117704"><ele>210.0</ele><time>2026-04-05T08:13:54Z</time></trkpt><trkpt lat="45.92005620044559" lon="9.28906638072589"><ele>210.0</ele><time>2026-04-05T08:13:55Z</time></trkpt><trkpt lat="45.920136027168894" lon="9.289015135192956"><ele>210.0</ele><time>2026-04-05T08:13:56Z</time></trkpt><trkpt lat="45.92022582375006" lon="9.288963968374862"><ele>210.0</ele><time>2026-04-05T08:13:57Z</time></trkpt><trkpt lat="45.92031575830976" lon="9.288881914057201"><ele>210.0</ele><time>2026-04-05T08:13:58Z</time></trkpt><trkpt lat="45.92042017975662" lon="9.288784113441276"><ele>211.75</ele><time>2026-04-05T08:13:59Z</time></trkpt><trkpt lat="45.92053050656838" lon="9.288680781903295"><ele>213.5</ele><time>2026-04-05T08:14:00Z</time></trkpt><trkpt lat="45.92064127213135" lon="9.288576962230103"><ele>215.25</ele><time>2026-04-05T08:14:01Z</time></trkpt><trkpt lat="45.920755357809284" lon="9.288469913936732"><ele>217.0</ele><time>2026-04-05T08:14:02Z</time></trkpt><trkpt lat="45.920863341617356" lon="9.288345112867049"><ele>213.75</ele><time>2026-04-05T08:14:03Z</time></trkpt><trkpt lat="45.920986428685325" lon="9.288239969955354"><ele>210.5</ele><time>2026-04-05T08:14:03.999Z</time></trkpt><trkpt lat="45.92110874668029" lon="9.288132711513004"><ele>207.25</ele><time>2026-04-05T08:14:04.999Z</time></trkpt><trkpt lat="45.921229826261026" lon="9.288022079770592"><ele>204.0</ele><time>2026-04-05T08:14:05.999Z</time></trkpt><trkpt lat="45.921357627006635" lon="9.28792956267116"><ele>211.0</ele><time>2026-04-05T08:14:06.999Z</time></trkpt><trkpt lat="45.92149318472111" lon="9.287852772565435"><ele>218.0</ele><time>2026-04-05T08:14:07.999Z</time></trkpt><trkpt lat="45.92163674808612" lon="9.287784423926892"><ele>225.0</ele><time>2026-04-05T08:14:08.999Z</time></trkpt><trkpt lat="45.92179772903407" lon="9.287714884129384"><ele>225.0</ele><time>2026-04-05T08:14:09.999Z</time></trkpt><trkpt lat="45.92196487212055" lon="9.28764709641857"><ele>225.0</ele><time>2026-04-05T08:14:10.999Z</time></trkpt><trkpt lat="45.922140180661586" lon="9.287613599283077"><ele>225.0</ele><time>2026-04-05T08:14:11.999Z</time></trkpt><trkpt lat="45.92231628223563" lon="9.287590146449304"><ele>225.0</ele><time>2026-04-05T08:14:12.999Z</time></trkpt><trkpt lat="45.92248241067252" lon="9.287581169710403"><ele>225.0</ele><time>2026-04-05T08:14:13.999Z</time></trkpt><trkpt lat="45.92263768653424" lon="9.287601320346122"><ele>225.0</ele><time>2026-04-05T08:14:14.999Z</time></trkpt><trkpt lat="45.92278480015408" lon="9.287567516363419"><ele>228.66666666666669</ele><time>2026-04-05T08:14:15.999Z</time></trkpt><trkpt lat="45.92293644391979" lon="9.287473613609466"><ele>232.33333333333334</ele><time>2026-04-05T08:14:16.999Z</time></trkpt><trkpt lat="45.92309544164221" lon="9.287371973031393"><ele>236.0</ele><time>2026-04-05T08:14:17.999Z</time></trkpt><trkpt lat="45.92324409162297" lon="9.287224320917339"><ele>226.33333333333334</ele><time>2026-04-05T08:14:18.999Z</time></trkpt><trkpt lat="45.9234047192397" lon="9.287096432884585"><ele>216.66666666666669</ele><time>2026-04-05T08:14:19.999Z</time></trkpt><trkpt lat="45.9235533714048" lon="9.286945187756938"><ele>207.0</ele><time>2026-04-05T08:14:20.999Z</time></trkpt><trkpt lat="45.92368843866142" lon="9.286775534736062"><ele>207.0</ele><time>2026-04-05T08:14:21.999Z</time></trkpt><trkpt lat="45.92383558993456" lon="9.28663805782478"><ele>207.0</ele><time>2026-04-05T08:14:22.999Z</time></trkpt><trkpt lat="45.92399267061549" lon="9.286514713025227"><ele>207.0</ele><time>2026-04-05T08:14:23.999Z</time></trkpt><trkpt lat="45.92416757334144" lon="9.286433277695709"><ele>208.33333333333331</ele><time>2026-04-05T08:14:24.999Z</time></trkpt><trkpt lat="45.9243318046372" lon="9.286305805304485"><ele>209.66666666666666</ele><time>2026-04-05T08:14:25.999Z</time></trkpt><trkpt lat="45.92450114015648" lon="9.286201743572011"><ele>211.0</ele><time>2026-04-05T08:14:26.999Z</time></trkpt><trkpt lat="45.92466899941158" lon="9.286096480778493"><ele>211.0</ele><time>2026-04-05T08:14:27.999Z</time></trkpt><trkpt lat="45.92482689528516" lon="9.285974002114255"><ele>211.0</ele><time>2026-04-05T08:14:28.999Z</time></trkpt><trkpt lat="45.92499022760143" lon="9.285856545894687"><ele>211.0</ele><time>2026-04-05T08:14:29.999Z</time></trkpt><trkpt lat="45.92512437065182" lon="9.285691021507667"><ele>212.66666666666666</ele><time>2026-04-05T08:14:30.999Z</time></trkpt><trkpt lat="45.92524612909043" lon="9.285510689915183"><ele>214.33333333333331</ele><time>2026-04-05T08:14:31.999Z</time></trkpt><trkpt lat="45.92540489358117" lon="9.285389802444723"><ele>216.0</ele><time>2026-04-05T08:14:32.999Z</time></trkpt><trkpt lat="45.92557065143466" lon="9.28529812937073"><ele>216.0</ele><time>2026-04-05T08:14:33.999Z</time></trkpt><trkpt lat="45.92573409756231" lon="9.28524222915236"><ele>216.0</ele><time>2026-04-05T08:14:34.999Z</time></trkpt><trkpt lat="45.92590055227386" lon="9.285225690279617"><ele>216.0</ele><time>2026-04-05T08:14:35.999Z</time></trkpt><trkpt lat="45.9260674288766" lon="9.285238133534836"><ele>214.33333333333331</ele><time>2026-04-05T08:14:36.999Z</time></trkpt><trkpt lat="45.92623267188564" lon="9.285271525397194"><ele>212.66666666666666</ele><time>2026-04-05T08:14:37.999Z</time></trkpt><trkpt lat="45.926400313643356" lon="9.28530618033797"><ele>211.0</ele><time>2026-04-05T08:14:38.999Z</time></trkpt><trkpt lat="45.92656867453121" lon="9.285340368646295"><ele>212.33333333333331</ele><time>2026-04-05T08:14:39.999Z</time></trkpt><trkpt lat="45.92674031296695" lon="9.28536975279296"><ele>213.66666666666669</ele><time>2026-04-05T08:14:40.999Z</time></trkpt><trkpt lat="45.92691373001726" lon="9.285397225814208"><ele>215.0</ele><time>2026-04-05T08:14:41.999Z</time></trkpt><trkpt lat="45.927089476205204" lon="9.285430731258495"><ele>215.0</ele><time>2026-04-05T08:14:42.999Z</time></trkpt><trkpt lat="45.92726485121465" lon="9.285465123631525"><ele>215.0</ele><time>2026-04-05T08:14:43.999Z</time></trkpt><trkpt lat="45.927445668215164" lon="9.285474454086406"><ele>215.0</ele><time>2026-04-05T08:14:44.999Z</time></trkpt><trkpt lat="45.92761967417576" lon="9.285457097866747"><ele>213.66666666666669</ele><time>2026-04-05T08:14:45.999Z</time></trkpt><trkpt lat="45.9277932332105" lon="9.285409461312922"><ele>212.33333333333331</ele><time>2026-04-05T08:14:46.999Z</time></trkpt><trkpt lat="45.92796290658985" lon="9.285325038229333"><ele>211.0</ele><time>2026-04-05T08:14:47.999Z</time></trkpt><trkpt lat="45.92812731990751" lon="9.285210569548303"><ele>211.0</ele><time>2026-04-05T08:14:48.999Z</time></trkpt><trkpt lat="45.92828682144087" lon="9.285081652295728"><ele>211.0</ele><time>2026-04-05T08:14:49.999Z</time></trkpt><trkpt lat="45.9284334688826" lon="9.28494817775627"><ele>211.0</ele><time>2026-04-05T08:14:50.999Z</time></trkpt><trkpt lat="45.92858786593725" lon="9.28483364027802"><ele>212.33333333333331</ele><time>2026-04-05T08:14:51.999Z</time></trkpt><trkpt lat="45.92873360404688" lon="9.284710041312053"><ele>213.66666666666669</ele><time>2026-04-05T08:14:52.999Z</time></trkpt><trkpt lat="45.92890417718709" lon="9.284656549748703"><ele>215.0</ele><time>2026-04-05T08:14:53.999Z</time></trkpt><trkpt lat="45.92908291200999" lon="9.284636528174582"><ele>214.33333333333334</ele><time>2026-04-05T08:14:54.999Z</time></trkpt><trkpt lat="45.92925779952445" lon="9.284621935514684"><ele>213.66666666666669</ele><time>2026-04-05T08:14:55.999Z</time></trkpt><trkpt lat="45.92943253048503" lon="9.284611789504092"><ele>213.0</ele><time>2026-04-05T08:14:56.999Z</time></trkpt><trkpt lat="45.92960683130729" lon="9.284600280171379"><ele>213.0</ele><time>2026-04-05T08:14:57.999Z</time></trkpt><trkpt lat="45.929779577624785" lon="9.284587190414896"><ele>213.0</ele><time>2026-04-05T08:14:58.999Z</time></trkpt><trkpt lat="45.929949128858055" lon="9.284562819147862"><ele>213.0</ele><time>2026-04-05T08:14:59.999Z</time></trkpt><trkpt lat="45.930118334704666" lon="9.284524137880883"><ele>212.66666666666669</ele><time>2026-04-05T08:15:00.999Z</time></trkpt><trkpt lat="45.930269942580885" lon="9.284405520865285"><ele>212.33333333333334</ele><time>2026-04-05T08:15:01.999Z</time></trkpt><trkpt lat="45.930423436799124" lon="9.284293556275351"><ele>212.0</ele><time>2026-04-05T08:15:02.999Z</time></trkpt><trkpt lat="45.930571088324584" lon="9.284172821343622"><ele>212.0</ele><time>2026-04-05T08:15:03.999Z</time></trkpt><trkpt lat="45.930721632527245" lon="9.284064673814466"><ele>212.0</ele><time>2026-04-05T08:15:04.999Z</time></trkpt><trkpt lat="45.93087554360394" lon="9.283975299670686"><ele>212.0</ele><time>2026-04-05T08:15:05.999Z</time></trkpt><trkpt lat="45.93102318212757" lon="9.283904219455103"><ele>214.25</ele><time>2026-04-05T08:15:06.999Z</time></trkpt><trkpt lat="45.93116675197522" lon="9.283847192172075"><ele>216.5</ele><time>2026-04-05T08:15:07.999Z</time></trkpt><trkpt lat="45.931310428608896" lon="9.283793254701763"><ele>218.75</ele><time>2026-04-05T08:15:08.999Z</time></trkpt><trkpt lat="45.93145036920942" lon="9.28374777395414"><ele>221.0</ele><time>2026-04-05T08:15:09.999Z</time></trkpt><trkpt lat="45.93157676375647" lon="9.283716005270922"><ele>221.0</ele><time>2026-04-05T08:15:10.999Z</time></trkpt><trkpt lat="45.93169303710012" lon="9.283703625374331"><ele>221.0</ele><time>2026-04-05T08:15:11.999Z</time></trkpt><trkpt lat="45.931806174754875" lon="9.283712149131839"><ele>221.0</ele><time>2026-04-05T08:15:12.999Z</time></trkpt><trkpt lat="45.93192331049679" lon="9.283744765132159"><ele>221.0</ele><time>2026-04-05T08:15:13.999Z</time></trkpt><trkpt lat="45.93205231877865" lon="9.283790738363104"><ele>220.25</ele><time>2026-04-05T08:15:14.999Z</time></trkpt><trkpt lat="45.93218688978157" lon="9.283826264471386"><ele>219.5</ele><time>2026-04-05T08:15:15.999Z</time></trkpt><trkpt lat="45.9323278093736" lon="9.283856093724811"><ele>218.75</ele><time>2026-04-05T08:15:16.999Z</time></trkpt><trkpt lat="45.93246766304885" lon="9.283871577872816"><ele>218.0</ele><time>2026-04-05T08:15:17.999Z</time></trkpt><trkpt lat="45.93261294150917" lon="9.283863798366397"><ele>216.0</ele><time>2026-04-05T08:15:18.999Z</time></trkpt><trkpt lat="45.93276306330712" lon="9.283837063676264"><ele>214.0</ele><time>2026-04-05T08:15:19.999Z</time></trkpt><trkpt lat="45.93291745726934" lon="9.283806332013373"><ele>212.0</ele><time>2026-04-05T08:15:20.999Z</time></trkpt><trkpt lat="45.933073995132624" lon="9.28377992024893"><ele>212.0</ele><time>2026-04-05T08:15:21.999Z</time></trkpt><trkpt lat="45.9332338968495" lon="9.283753881612034"><ele>212.0</ele><time>2026-04-05T08:15:22.999Z</time></trkpt><trkpt lat="45.93339398847176" lon="9.283720060494549"><ele>212.0</ele><time>2026-04-05T08:15:23.999Z</time></trkpt><trkpt lat="45.93354663720216" lon="9.283671755950571"><ele>209.33333333333334</ele><time>2026-04-05T08:15:24.999Z</time></trkpt><trkpt lat="45.93369612992184" lon="9.283612957713697"><ele>206.66666666666669</ele><time>2026-04-05T08:15:26Z</time></trkpt><trkpt lat="45.93381400483597" lon="9.28345828429042"><ele>204.0</ele><time>2026-04-05T08:15:27Z</time></trkpt><trkpt lat="45.9339469259316" lon="9.283320252799301"><ele>204.0</ele><time>2026-04-05T08:15:28Z</time></trkpt><trkpt lat="45.93407419914191" lon="9.28316954202086"><ele>204.0</ele><time>2026-04-05T08:15:29Z</time></trkpt><trkpt lat="45.93420781796521" lon="9.283030010061799"><ele>204.0</ele><time>2026-04-05T08:15:30Z</time></trkpt><trkpt lat="45.93434722791786" lon="9.282899120114383"><ele>206.66666666666669</ele><time>2026-04-05T08:15:31Z</time></trkpt><trkpt lat="45.93448481553738" lon="9.282753184539663"><ele>209.33333333333334</ele><time>2026-04-05T08:15:32Z</time></trkpt><trkpt lat="45.934643627443975" lon="9.282648146011097"><ele>212.0</ele><time>2026-04-05T08:15:33Z</time></trkpt><trkpt lat="45.934815461441765" lon="9.28257692802016"><ele>212.0</ele><time>2026-04-05T08:15:34Z</time></trkpt><trkpt lat="45.93498389100455" lon="9.282525776336445"><ele>212.0</ele><time>2026-04-05T08:15:35Z</time></trkpt><trkpt lat="45.93514731809439" lon="9.282482456099707"><ele>212.0</ele><time>2026-04-05T08:15:36Z</time></trkpt><trkpt lat="45.93530379556965" lon="9.282442618061912"><ele>211.0</ele><time>2026-04-05T08:15:37Z</time></trkpt><trkpt lat="45.93545636953477" lon="9.282411028773794"><ele>210.0</ele><time>2026-04-05T08:15:38Z</time></trkpt><trkpt lat="45.93560505358143" lon="9.282406083188356"><ele>209.0</ele><time>2026-04-05T08:15:39Z</time></trkpt><trkpt lat="45.93574662670684" lon="9.282429254360338"><ele>208.0</ele><time>2026-04-05T08:15:40Z</time></trkpt><trkpt lat="45.935881977811256" lon="9.282457887657989"><ele>209.5</ele><time>2026-04-05T08:15:41Z</time></trkpt><trkpt lat="45.93601673678714" lon="9.28247600844034"><ele>211.0</ele><time>2026-04-05T08:15:42Z</time></trkpt><trkpt lat="45.93614986011585" lon="9.282466782929887"><ele>212.5</ele><time>2026-04-05T08:15:43Z</time></trkpt><trkpt lat="45.936274784745294" lon="9.282417862405744"><ele>214.0</ele><time>2026-04-05T08:15:44Z</time></trkpt><trkpt lat="45.936390005559886" lon="9.282362448217755"><ele>214.0</ele><time>2026-04-05T08:15:45Z</time></trkpt><trkpt lat="45.93651341463199" lon="9.282320922351534"><ele>214.0</ele><time>2026-04-05T08:15:46Z</time></trkpt><trkpt lat="45.936645644437526" lon="9.28230821828339"><ele>214.0</ele><time>2026-04-05T08:15:47Z</time></trkpt><trkpt lat="45.93678486043287" lon="9.282325883276604"><ele>214.0</ele><time>2026-04-05T08:15:48Z</time></trkpt><trkpt lat="45.93692426129736" lon="9.282320732061097"><ele>217.0</ele><time>2026-04-05T08:15:49Z</time></trkpt><trkpt lat="45.937058024421276" lon="9.2823183085831"><ele>220.0</ele><time>2026-04-05T08:15:50Z</time></trkpt><trkpt lat="45.93719077511522" lon="9.282319262130644"><ele>223.0</ele><time>2026-04-05T08:15:51Z</time></trkpt><trkpt lat="45.93732096722227" lon="9.282307123627776"><ele>226.0</ele><time>2026-04-05T08:15:52Z</time></trkpt><trkpt lat="45.93744467667974" lon="9.28233828630678"><ele>224.5</ele><time>2026-04-05T08:15:53Z</time></trkpt><trkpt lat="45.93756723286225" lon="9.282361591954157"><ele>223.0</ele><time>2026-04-05T08:15:54Z</time></trkpt><trkpt lat="45.93768574076604" lon="9.282382337821307"><ele>221.5</ele><time>2026-04-05T08:15:55Z</time></trkpt><trkpt lat="45.937796226031736" lon="9.282395959368904"><ele>220.0</ele><time>2026-04-05T08:15:56Z</time></trkpt><trkpt lat="45.9378981531169" lon="9.282409402661989"><ele>220.0</ele><time>2026-04-05T08:15:57Z</time></trkpt><trkpt lat="45.93799457459526" lon="9.282420011806545"><ele>220.0</ele><time>2026-04-05T08:15:58Z</time></trkpt><trkpt lat="45.93808671286439" lon="9.282431303853654"><ele>220.0</ele><time>2026-04-05T08:15:59Z</time></trkpt><trkpt lat="45.9381714007414" lon="9.282435901930373"><ele>220.0</ele><time>2026-04-05T08:16:00Z</time></trkpt><trkpt lat="45.938242495097185" lon="9.282410970614862"><ele>220.0</ele><time>2026-04-05T08:16:01Z</time></trkpt><trkpt lat="45.93835444180899" lon="9.282350118043299"><ele>216.33333333333331</ele><time>2026-04-05T08:16:03Z</time></trkpt><trkpt lat="45.938413648692716" lon="9.28230688238181"><ele>212.66666666666666</ele><time>2026-04-05T08:16:04Z</time></trkpt><trkpt lat="45.9384834715209" lon="9.282259765623031"><ele>209.0</ele><time>2026-04-05T08:16:05Z</time></trkpt><trkpt lat="45.93856151202368" lon="9.282226413377565"><ele>205.33333333333331</ele><time>2026-04-05T08:16:06Z</time></trkpt><trkpt lat="45.93865464650351" lon="9.282208952864895"><ele>201.66666666666666</ele><time>2026-04-05T08:16:06.999Z</time></trkpt><trkpt lat="45.938760969495874" lon="9.282211616505668"><ele>198.0</ele><time>2026-04-05T08:16:07.999Z</time></trkpt><trkpt lat="45.93888880373417" lon="9.282246349637523"><ele>211.66666666666669</ele><time>2026-04-05T08:16:08.999Z</time></trkpt><trkpt lat="45.93904120898324" lon="9.282255954665057"><ele>225.33333333333334</ele><time>2026-04-05T08:16:09.999Z</time></trkpt><trkpt lat="45.93921691835292" lon="9.28224062519353"><ele>239.0</ele><time>2026-04-05T08:16:10.999Z</time></trkpt><trkpt lat="45.93940551669774" lon="9.282222127820253"><ele>239.0</ele><time>2026-04-05T08:16:11.999Z</time></trkpt><trkpt lat="45.93960413124171" lon="9.282208262173109"><ele>239.0</ele><time>2026-04-05T08:16:12.999Z</time></trkpt><trkpt lat="45.93979786161203" lon="9.282176590518587"><ele>239.0</ele><time>2026-04-05T08:16:13.999Z</time></trkpt><trkpt lat="45.939983747882934" lon="9.282167765892757"><ele>237.0</ele><time>2026-04-05T08:16:14.999Z</time></trkpt><trkpt lat="45.940150535408726" lon="9.282157789952869"><ele>235.0</ele><time>2026-04-05T08:16:15.999Z</time></trkpt><trkpt lat="45.940301176867315" lon="9.282125057839574"><ele>233.0</ele><time>2026-04-05T08:16:16.999Z</time></trkpt><trkpt lat="45.94043952788351" lon="9.282082294377387"><ele>233.0</ele><time>2026-04-05T08:16:17.999Z</time></trkpt><trkpt lat="45.94056052309522" lon="9.282013974554015"><ele>233.0</ele><time>2026-04-05T08:16:18.999Z</time></trkpt><trkpt lat="45.94067311218536" lon="9.281951910551888"><ele>233.0</ele><time>2026-04-05T08:16:19.999Z</time></trkpt><trkpt lat="45.940784625626776" lon="9.281885269501482"><ele>233.0</ele><time>2026-04-05T08:16:20.999Z</time></trkpt><trkpt lat="45.940895574998564" lon="9.281802447112621"><ele>232.0</ele><time>2026-04-05T08:16:21.999Z</time></trkpt><trkpt lat="45.94099064131147" lon="9.281702492793771"><ele>231.0</ele><time>2026-04-05T08:16:22.999Z</time></trkpt><trkpt lat="45.94108633310173" lon="9.281600345320026"><ele>230.0</ele><time>2026-04-05T08:16:23.999Z</time></trkpt><trkpt lat="45.94118427809841" lon="9.28149958578849"><ele>229.0</ele><time>2026-04-05T08:16:24.999Z</time></trkpt><trkpt lat="45.941287764596176" lon="9.28140072597435"><ele>229.0</ele><time>2026-04-05T08:16:25.999Z</time></trkpt><trkpt lat="45.941395049926506" lon="9.281299700337449"><ele>229.0</ele><time>2026-04-05T08:16:26.999Z</time></trkpt><trkpt lat="45.94151645905331" lon="9.281186103721707"><ele>229.0</ele><time>2026-04-05T08:16:27.999Z</time></trkpt><trkpt lat="45.94166454001641" lon="9.281048335974646"><ele>229.0</ele><time>2026-04-05T08:16:28.999Z</time></trkpt><trkpt lat="45.94181472372084" lon="9.280908612047963"><ele>230.75</ele><time>2026-04-05T08:16:29.999Z</time></trkpt><trkpt lat="45.94194984148979" lon="9.280780747320291"><ele>232.5</ele><time>2026-04-05T08:16:30.999Z</time></trkpt><trkpt lat="45.94207367194163" lon="9.28066353445681"><ele>234.25</ele><time>2026-04-05T08:16:31.999Z</time></trkpt><trkpt lat="45.942189583444595" lon="9.280557250655082"><ele>236.0</ele><time>2026-04-05T08:16:32.999Z</time></trkpt><trkpt lat="45.94229331385901" lon="9.280443158108088"><ele>236.0</ele><time>2026-04-05T08:16:33.999Z</time></trkpt><trkpt lat="45.94240394178377" lon="9.280356592990586"><ele>236.0</ele><time>2026-04-05T08:16:34.999Z</time></trkpt><trkpt lat="45.9425212541266" lon="9.28029491591985"><ele>236.0</ele><time>2026-04-05T08:16:35.999Z</time></trkpt><trkpt lat="45.942644495276426" lon="9.280253729746095"><ele>236.0</ele><time>2026-04-05T08:16:36.999Z</time></trkpt><trkpt lat="45.94276201134083" lon="9.28021325989969"><ele>236.8</ele><time>2026-04-05T08:16:37.999Z</time></trkpt><trkpt lat="45.942874902372736" lon="9.280166453743599"><ele>237.60000000000002</ele><time>2026-04-05T08:16:38.999Z</time></trkpt><trkpt lat="45.942963131251936" lon="9.280089293030459"><ele>238.4</ele><time>2026-04-05T08:16:39.999Z</time></trkpt><trkpt lat="45.94304446068006" lon="9.279994873903652"><ele>239.2</ele><time>2026-04-05T08:16:40.999Z</time></trkpt><trkpt lat="45.94311331096789" lon="9.279874793501785"><ele>240.0</ele><time>2026-04-05T08:16:41.999Z</time></trkpt><trkpt lat="45.94318010825446" lon="9.279742741932884"><ele>240.0</ele><time>2026-04-05T08:16:42.999Z</time></trkpt><trkpt lat="45.94325057530114" lon="9.279621378828502"><ele>240.0</ele><time>2026-04-05T08:16:43.999Z</time></trkpt><trkpt lat="45.94332985095819" lon="9.27951903162081"><ele>240.0</ele><time>2026-04-05T08:16:44.999Z</time></trkpt><trkpt lat="45.94342265729518" lon="9.27942380646084"><ele>240.0</ele><time>2026-04-05T08:16:45.999Z</time></trkpt><trkpt lat="45.94351283133639" lon="9.279339487031457"><ele>240.0</ele><time>2026-04-05T08:16:46.999Z</time></trkpt><trkpt lat="45.94358722174996" lon="9.279239811076545"><ele>240.0</ele><time>2026-04-05T08:16:47.999Z</time></trkpt><trkpt lat="45.94367489027064" lon="9.279185043781652"><ele>240.0</ele><time>2026-04-05T08:16:48.999Z</time></trkpt><trkpt lat="45.943753692451075" lon="9.279118961785619"><ele>240.0</ele><time>2026-04-05T08:16:49.999Z</time></trkpt><trkpt lat="45.943840526881694" lon="9.279050779070142"><ele>240.0</ele><time>2026-04-05T08:16:50.999Z</time></trkpt><trkpt lat="45.9439523453039" lon="9.279046306450072"><ele>240.0</ele><time>2026-04-05T08:16:51.999Z</time></trkpt><trkpt lat="45.94406942728747" lon="9.279008252142827"><ele>240.0</ele><time>2026-04-05T08:16:52.999Z</time></trkpt><trkpt lat="45.94419592769711" lon="9.279013266382654"><ele>240.0</ele><time>2026-04-05T08:16:53.999Z</time></trkpt><trkpt lat="45.944325671218614" lon="9.278996705935779"><ele>240.0</ele><time>2026-04-05T08:16:54.999Z</time></trkpt><trkpt lat="45.94445470920702" lon="9.278979669228974"><ele>240.0</ele><time>2026-04-05T08:16:55.999Z</time></trkpt><trkpt lat="45.94457271338833" lon="9.278961674857175"><ele>239.2</ele><time>2026-04-05T08:16:56.999Z</time></trkpt><trkpt lat="45.94467961393806" lon="9.278925193917892"><ele>238.4</ele><time>2026-04-05T08:16:57.999Z</time></trkpt><trkpt lat="45.944783586623814" lon="9.278909724014849"><ele>237.60000000000002</ele><time>2026-04-05T08:16:58.999Z</time></trkpt><trkpt lat="45.94489503012054" lon="9.278891492752265"><ele>236.8</ele><time>2026-04-05T08:16:59.999Z</time></trkpt><trkpt lat="45.94501597896983" lon="9.278876210328143"><ele>236.0</ele><time>2026-04-05T08:17:00.999Z</time></trkpt><trkpt lat="45.94512593369363" lon="9.278860003374827"><ele>236.0</ele><time>2026-04-05T08:17:01.999Z</time></trkpt><trkpt lat="45.94523149336449" lon="9.27882787183358"><ele>236.00000000000003</ele><time>2026-04-05T08:17:02.999Z</time></trkpt><trkpt lat="45.94534302350633" lon="9.278800157246398"><ele>236.00000000000003</ele><time>2026-04-05T08:17:03.999Z</time></trkpt><trkpt lat="45.94544848154254" lon="9.278737770616392"><ele>236.0</ele><time>2026-04-05T08:17:04.999Z</time></trkpt><trkpt lat="45.94555364511781" lon="9.278675489701065"><ele>236.0</ele><time>2026-04-05T08:17:05.999Z</time></trkpt><trkpt lat="45.94566524446188" lon="9.278629480410205"><ele>236.0</ele><time>2026-04-05T08:17:06.999Z</time></trkpt><trkpt lat="45.94577570621246" lon="9.278614825666244"><ele>236.00000000000003</ele><time>2026-04-05T08:17:07.999Z</time></trkpt><trkpt lat="45.94587470922961" lon="9.27859860554971"><ele>236.00000000000003</ele><time>2026-04-05T08:17:08.999Z</time></trkpt><trkpt lat="45.94595732275271" lon="9.278584608332492"><ele>236.0</ele><time>2026-04-05T08:17:09.999Z</time></trkpt><trkpt lat="45.94605265812887" lon="9.278564076012328"><ele>236.0</ele><time>2026-04-05T08:17:11.999Z</time></trkpt><trkpt lat="45.94611711083826" lon="9.278542394424468"><ele>235.4</ele><time>2026-04-05T08:17:24.999Z</time></trkpt><trkpt lat="45.94622362127178" lon="9.278495542623922"><ele>234.8</ele><time>2026-04-05T08:17:27.999Z</time></trkpt><trkpt lat="45.94629611298918" lon="9.278464559895102"><ele>234.20000000000002</ele><time>2026-04-05T08:17:28.999Z</time></trkpt><trkpt lat="45.94636808600282" lon="9.27843762733509"><ele>233.60000000000002</ele><time>2026-04-05T08:17:29.999Z</time></trkpt><trkpt lat="45.94643631926178" lon="9.278418429710483"><ele>233.0</ele><time>2026-04-05T08:17:38Z</time></trkpt><trkpt lat="45.94656707108692" lon="9.2783843996651"><ele>233.00000000000003</ele><time>2026-04-05T08:17:40Z</time></trkpt><trkpt lat="45.94663440543232" lon="9.278355086954845"><ele>233.0</ele><time>2026-04-05T08:17:41Z</time></trkpt><trkpt lat="45.946699058825224" lon="9.278290580383754"><ele>233.0</ele><time>2026-04-05T08:17:42Z</time></trkpt><trkpt lat="45.94675027625968" lon="9.278198959804994"><ele>233.0</ele><time>2026-04-05T08:17:43Z</time></trkpt><trkpt lat="45.94680430878917" lon="9.278114418542398"><ele>233.00000000000003</ele><time>2026-04-05T08:17:44Z</time></trkpt><trkpt lat="45.946862437112415" lon="9.278029508951619"><ele>233.0</ele><time>2026-04-05T08:17:45Z</time></trkpt><trkpt lat="45.94693489135871" lon="9.277962188747498"><ele>237.60000000000002</ele><time>2026-04-05T08:17:46Z</time></trkpt><trkpt lat="45.947012066964724" lon="9.277912044876002"><ele>242.20000000000002</ele><time>2026-04-05T08:17:47Z</time></trkpt><trkpt lat="45.94709403297242" lon="9.277857862902366"><ele>246.8</ele><time>2026-04-05T08:17:48Z</time></trkpt><trkpt lat="45.94719356467426" lon="9.277892227435103"><ele>251.4</ele><time>2026-04-05T08:17:49Z</time></trkpt><trkpt lat="45.947289131053374" lon="9.277872995754402"><ele>256.0</ele><time>2026-04-05T08:17:50Z</time></trkpt><trkpt lat="45.947377575328325" lon="9.277874551745974"><ele>255.99999999999997</ele><time>2026-04-05T08:17:51Z</time></trkpt><trkpt lat="45.9474565920574" lon="9.277872783883796"><ele>256.0</ele><time>2026-04-05T08:17:52Z</time></trkpt><trkpt lat="45.9475343480447" lon="9.27789994734704"><ele>256.0</ele><time>2026-04-05T08:17:53Z</time></trkpt><trkpt lat="45.947629032663734" lon="9.277902291895337"><ele>256.0</ele><time>2026-04-05T08:17:54Z</time></trkpt><trkpt lat="45.9477187003689" lon="9.277891738619008"><ele>255.99999999999997</ele><time>2026-04-05T08:17:55Z</time></trkpt><trkpt lat="45.94781112970852" lon="9.277838026817541"><ele>256.0</ele><time>2026-04-05T08:17:56Z</time></trkpt><trkpt lat="45.947900566082666" lon="9.277793960550696"><ele>251.20000000000002</ele><time>2026-04-05T08:17:57Z</time></trkpt><trkpt lat="45.947991093210454" lon="9.27775245479686"><ele>246.40000000000003</ele><time>2026-04-05T08:17:58Z</time></trkpt><trkpt lat="45.94807076718418" lon="9.277684181811283"><ele>241.6</ele><time>2026-04-05T08:17:59Z</time></trkpt><trkpt lat="45.94813776803582" lon="9.277606091083669"><ele>236.8</ele><time>2026-04-05T08:18:00Z</time></trkpt><trkpt lat="45.94821248844669" lon="9.277544442127947"><ele>232.0</ele><time>2026-04-05T08:18:01Z</time></trkpt><trkpt lat="45.94830522722099" lon="9.277559786387997"><ele>229.6</ele><time>2026-04-05T08:18:02Z</time></trkpt><trkpt lat="45.94840226625205" lon="9.277580600781077"><ele>227.2</ele><time>2026-04-05T08:18:03Z</time></trkpt><trkpt lat="45.94851137572756" lon="9.277586106499827"><ele>224.8</ele><time>2026-04-05T08:18:04Z</time></trkpt><trkpt lat="45.948617750136755" lon="9.277602892554283"><ele>222.4</ele><time>2026-04-05T08:18:05Z</time></trkpt><trkpt lat="45.94872311495466" lon="9.277615508879434"><ele>220.0</ele><time>2026-04-05T08:18:05.999Z</time></trkpt><trkpt lat="45.948824916020875" lon="9.277610207653348"><ele>220.0</ele><time>2026-04-05T08:18:06.999Z</time></trkpt><trkpt lat="45.94892629330161" lon="9.277591359502466"><ele>220.0</ele><time>2026-04-05T08:18:07.999Z</time></trkpt><trkpt lat="45.949033428580876" lon="9.277560554762864"><ele>220.0</ele><time>2026-04-05T08:18:08.999Z</time></trkpt><trkpt lat="45.94913687193385" lon="9.277509043353856"><ele>220.0</ele><time>2026-04-05T08:18:09.999Z</time></trkpt><trkpt lat="45.94923250436288" lon="9.277450777121903"><ele>220.0</ele><time>2026-04-05T08:18:10.999Z</time></trkpt><trkpt lat="45.949327959977616" lon="9.277372950136956"><ele>217.0</ele><time>2026-04-05T08:18:11.999Z</time></trkpt><trkpt lat="45.949420371056334" lon="9.277302374500952"><ele>214.0</ele><time>2026-04-05T08:18:12.999Z</time></trkpt><trkpt lat="45.949511712851006" lon="9.277234112325333"><ele>211.0</ele><time>2026-04-05T08:18:13.999Z</time></trkpt><trkpt lat="45.94960764236962" lon="9.277176317787841"><ele>208.0</ele><time>2026-04-05T08:18:14.999Z</time></trkpt><trkpt lat="45.94971052236565" lon="9.277131261065566"><ele>205.0</ele><time>2026-04-05T08:18:15.999Z</time></trkpt><trkpt lat="45.949819295216706" lon="9.277116910300041"><ele>208.4</ele><time>2026-04-05T08:18:16.999Z</time></trkpt><trkpt lat="45.949930615087496" lon="9.277101566678724"><ele>211.8</ele><time>2026-04-05T08:18:17.999Z</time></trkpt><trkpt lat="45.950034288043625" lon="9.277079601707708"><ele>215.2</ele><time>2026-04-05T08:18:18.999Z</time></trkpt><trkpt lat="45.950134663713705" lon="9.27705379242042"><ele>218.6</ele><time>2026-04-05T08:18:19.999Z</time></trkpt><trkpt lat="45.95022885174513" lon="9.277030273216083"><ele>222.0</ele><time>2026-04-05T08:18:20.999Z</time></trkpt><trkpt lat="45.9503212842031" lon="9.277009130912369"><ele>222.0</ele><time>2026-04-05T08:18:21.999Z</time></trkpt><trkpt lat="45.95041408103808" lon="9.276983778625716"><ele>222.0</ele><time>2026-04-05T08:18:22.999Z</time></trkpt><trkpt lat="45.95050848290108" lon="9.276942733673872"><ele>222.0</ele><time>2026-04-05T08:18:23.999Z</time></trkpt><trkpt lat="45.95060447899899" lon="9.276890136499329"><ele>222.0</ele><time>2026-04-05T08:18:24.999Z</time></trkpt><trkpt lat="45.95070498565325" lon="9.276823248558893"><ele>222.0</ele><time>2026-04-05T08:18:25.999Z</time></trkpt><trkpt lat="45.95081323471945" lon="9.276763594880906"><ele>223.39999999999998</ele><time>2026-04-05T08:18:26.999Z</time></trkpt><trkpt lat="45.95090041083715" lon="9.276687642670993"><ele>224.79999999999998</ele><time>2026-04-05T08:18:27.999Z</time></trkpt><trkpt lat="45.95097404787039" lon="9.276613520530587"><ele>226.2</ele><time>2026-04-05T08:18:28.999Z</time></trkpt><trkpt lat="45.951043858488696" lon="9.276546983490261"><ele>227.6</ele><time>2026-04-05T08:18:29.999Z</time></trkpt><trkpt lat="45.95112539904603" lon="9.276467796014108"><ele>229.0</ele><time>2026-04-05T08:18:30.999Z</time></trkpt><trkpt lat="45.95123410008461" lon="9.276408732723079"><ele>229.0</ele><time>2026-04-05T08:18:31.999Z</time></trkpt><trkpt lat="45.95137004047113" lon="9.276376652136161"><ele>229.0</ele><time>2026-04-05T08:18:32.999Z</time></trkpt><trkpt lat="45.951512388195326" lon="9.276315475923"><ele>229.0</ele><time>2026-04-05T08:18:33.999Z</time></trkpt><trkpt lat="45.951649833995155" lon="9.276242340716514"><ele>229.0</ele><time>2026-04-05T08:18:34.999Z</time></trkpt><trkpt lat="45.95178248294541" lon="9.276162304136541"><ele>224.25</ele><time>2026-04-05T08:18:35.999Z</time></trkpt><trkpt lat="45.95189096087244" lon="9.276075533300652"><ele>219.5</ele><time>2026-04-05T08:18:36.999Z</time></trkpt><trkpt lat="45.95200489443987" lon="9.276017477654575"><ele>214.75</ele><time>2026-04-05T08:18:37.999Z</time></trkpt><trkpt lat="45.952111293238545" lon="9.275950922113125"><ele>210.0</ele><time>2026-04-05T08:18:38.999Z</time></trkpt><trkpt lat="45.95220499376202" lon="9.275889813835317"><ele>210.0</ele><time>2026-04-05T08:18:39.999Z</time></trkpt><trkpt lat="45.95229649510639" lon="9.275847438774234"><ele>210.0</ele><time>2026-04-05T08:18:40.999Z</time></trkpt><trkpt lat="45.952379479356324" lon="9.275775344360108"><ele>210.0</ele><time>2026-04-05T08:18:41.999Z</time></trkpt><trkpt lat="45.95245407213682" lon="9.275683651826077"><ele>210.0</ele><time>2026-04-05T08:18:42.999Z</time></trkpt><trkpt lat="45.95254238756276" lon="9.275627820607284"><ele>210.0</ele><time>2026-04-05T08:18:43.999Z</time></trkpt><trkpt lat="45.9526350715731" lon="9.2755882334036"><ele>212.75</ele><time>2026-04-05T08:18:44.999Z</time></trkpt><trkpt lat="45.95273365024332" lon="9.275563181375915"><ele>215.5</ele><time>2026-04-05T08:18:45.999Z</time></trkpt><trkpt lat="45.95284176438734" lon="9.275565422724455"><ele>218.25</ele><time>2026-04-05T08:18:46.999Z</time></trkpt><trkpt lat="45.952954401909196" lon="9.27552703265434"><ele>221.0</ele><time>2026-04-05T08:18:47.999Z</time></trkpt><trkpt lat="45.9530832313011" lon="9.275470787783293"><ele>221.0</ele><time>2026-04-05T08:18:48.999Z</time></trkpt><trkpt lat="45.95323600360073" lon="9.27539201826653"><ele>221.0</ele><time>2026-04-05T08:18:49.999Z</time></trkpt><trkpt lat="45.95337998300228" lon="9.275313475315258"><ele>221.0</ele><time>2026-04-05T08:18:50.999Z</time></trkpt><trkpt lat="45.95352804933329" lon="9.275240338977708"><ele>219.33333333333334</ele><time>2026-04-05T08:18:51.999Z</time></trkpt><trkpt lat="45.9536727223069" lon="9.275169025988689"><ele>217.66666666666669</ele><time>2026-04-05T08:18:52.999Z</time></trkpt><trkpt lat="45.95380993848418" lon="9.275079912338118"><ele>216.0</ele><time>2026-04-05T08:18:53.999Z</time></trkpt><trkpt lat="45.95394962961011" lon="9.275012338891743"><ele>216.0</ele><time>2026-04-05T08:18:54.999Z</time></trkpt><trkpt lat="45.95407856960202" lon="9.274928557305186"><ele>216.0</ele><time>2026-04-05T08:18:55.999Z</time></trkpt><trkpt lat="45.95420011373524" lon="9.27483232803717"><ele>216.0</ele><time>2026-04-05T08:18:56.999Z</time></trkpt><trkpt lat="45.954319283403116" lon="9.274744175553053"><ele>216.0</ele><time>2026-04-05T08:18:57.999Z</time></trkpt><trkpt lat="45.95441297801037" lon="9.274642157977604"><ele>215.60000000000002</ele><time>2026-04-05T08:18:58.999Z</time></trkpt><trkpt lat="45.954490146237276" lon="9.27454536808117"><ele>215.20000000000002</ele><time>2026-04-05T08:18:59.999Z</time></trkpt><trkpt lat="45.95455890568984" lon="9.274445103315731"><ele>214.79999999999998</ele><time>2026-04-05T08:19:00.999Z</time></trkpt><trkpt lat="45.95460643425665" lon="9.274341484218661"><ele>214.39999999999998</ele><time>2026-04-05T08:19:01.999Z</time></trkpt><trkpt lat="45.954666675719096" lon="9.274251510812416"><ele>214.0</ele><time>2026-04-05T08:19:02.999Z</time></trkpt><trkpt lat="45.95473179801534" lon="9.274151611898642"><ele>214.0</ele><time>2026-04-05T08:19:03.999Z</time></trkpt><trkpt lat="45.95479576309289" lon="9.274042057046191"><ele>213.99999999999997</ele><time>2026-04-05T08:19:04.999Z</time></trkpt><trkpt lat="45.95485306414638" lon="9.273923298439362"><ele>213.99999999999997</ele><time>2026-04-05T08:19:05.999Z</time></trkpt><trkpt lat="45.95490905873215" lon="9.273796275583894"><ele>214.0</ele><time>2026-04-05T08:19:06.999Z</time></trkpt><trkpt lat="45.95496883329084" lon="9.27366692405633"><ele>214.0</ele><time>2026-04-05T08:19:07.999Z</time></trkpt><trkpt lat="45.95503032964737" lon="9.27353407523759"><ele>213.75</ele><time>2026-04-05T08:19:08.999Z</time></trkpt><trkpt lat="45.95509126789009" lon="9.273397850086951"><ele>213.5</ele><time>2026-04-05T08:19:09.999Z</time></trkpt><trkpt lat="45.955154222355" lon="9.273262844904021"><ele>213.25</ele><time>2026-04-05T08:19:10.999Z</time></trkpt><trkpt lat="45.95521912875713" lon="9.273127198684504"><ele>213.0</ele><time>2026-04-05T08:19:11.999Z</time></trkpt><trkpt lat="45.95528208803607" lon="9.272989716210063"><ele>213.0</ele><time>2026-04-05T08:19:12.999Z</time></trkpt><trkpt lat="45.955343742180496" lon="9.272854771767998"><ele>213.0</ele><time>2026-04-05T08:19:13.999Z</time></trkpt><trkpt lat="45.95540512792957" lon="9.272724611143495"><ele>213.0</ele><time>2026-04-05T08:19:14.999Z</time></trkpt><trkpt lat="45.95546309136073" lon="9.272598240540988"><ele>213.0</ele><time>2026-04-05T08:19:15.999Z</time></trkpt><trkpt lat="45.95551757615854" lon="9.27247254986193"><ele>213.0</ele><time>2026-04-05T08:19:16.999Z</time></trkpt><trkpt lat="45.95556441591184" lon="9.272346175589385"><ele>214.60000000000002</ele><time>2026-04-05T08:19:17.999Z</time></trkpt><trkpt lat="45.95561402104052" lon="9.272221957702168"><ele>216.20000000000002</ele><time>2026-04-05T08:19:18.999Z</time></trkpt><trkpt lat="45.95562345497568" lon="9.272083612945426"><ele>217.8</ele><time>2026-04-05T08:19:19.999Z</time></trkpt><trkpt lat="45.95562728180741" lon="9.271959873839558"><ele>219.4</ele><time>2026-04-05T08:19:20.999Z</time></trkpt><trkpt lat="45.955631684092175" lon="9.271832394845783"><ele>221.0</ele><time>2026-04-05T08:19:21.999Z</time></trkpt><trkpt lat="45.95562933431961" lon="9.2717021471864"><ele>221.0</ele><time>2026-04-05T08:19:22.999Z</time></trkpt><trkpt lat="45.955662955867396" lon="9.271575882977762"><ele>221.00000000000003</ele><time>2026-04-05T08:19:23.999Z</time></trkpt><trkpt lat="45.95571284077024" lon="9.271458080638457"><ele>221.00000000000003</ele><time>2026-04-05T08:19:24.999Z</time></trkpt><trkpt lat="45.95577854850672" lon="9.271345630844047"><ele>221.0</ele><time>2026-04-05T08:19:25.999Z</time></trkpt><trkpt lat="45.955853065351924" lon="9.271241454667303"><ele>221.0</ele><time>2026-04-05T08:19:26.999Z</time></trkpt><trkpt lat="45.95593509075779" lon="9.271138928004714"><ele>221.75</ele><time>2026-04-05T08:19:27.999Z</time></trkpt><trkpt lat="45.956020593621865" lon="9.271033171533317"><ele>222.5</ele><time>2026-04-05T08:19:28.999Z</time></trkpt><trkpt lat="45.95610491099136" lon="9.270917441347033"><ele>223.25</ele><time>2026-04-05T08:19:29.999Z</time></trkpt><trkpt lat="45.95620297581972" lon="9.270818151698176"><ele>224.0</ele><time>2026-04-05T08:19:30.999Z</time></trkpt><trkpt lat="45.956263677808835" lon="9.270674649398751"><ele>227.39999999999998</ele><time>2026-04-05T08:19:31.999Z</time></trkpt><trkpt lat="45.956322056430984" lon="9.270543022242794"><ele>230.79999999999998</ele><time>2026-04-05T08:19:32.999Z</time></trkpt><trkpt lat="45.956368838576765" lon="9.270407213843749"><ele>234.20000000000002</ele><time>2026-04-05T08:19:33.999Z</time></trkpt><trkpt lat="45.95641258661447" lon="9.270279547115566"><ele>237.60000000000002</ele><time>2026-04-05T08:19:34.999Z</time></trkpt><trkpt lat="45.95645031499099" lon="9.270165730728193"><ele>241.0</ele><time>2026-04-05T08:19:36Z</time></trkpt><trkpt lat="45.95649767586951" lon="9.270061170242982"><ele>241.0</ele><time>2026-04-05T08:19:37Z</time></trkpt><trkpt lat="45.95657538891135" lon="9.269990541100874"><ele>241.00000000000003</ele><time>2026-04-05T08:19:38Z</time></trkpt><trkpt lat="45.95665941999649" lon="9.269933662943696"><ele>241.00000000000003</ele><time>2026-04-05T08:19:39Z</time></trkpt><trkpt lat="45.95675503738273" lon="9.269888909130987"><ele>241.0</ele><time>2026-04-05T08:19:40Z</time></trkpt><trkpt lat="45.95686628634022" lon="9.269848370744148"><ele>241.0</ele><time>2026-04-05T08:19:41Z</time></trkpt><trkpt lat="45.95699915484591" lon="9.269862383448432"><ele>238.5</ele><time>2026-04-05T08:19:42Z</time></trkpt><trkpt lat="45.95712348936585" lon="9.269859704429283"><ele>236.0</ele><time>2026-04-05T08:19:43Z</time></trkpt><trkpt lat="45.957252716002486" lon="9.269864437010911"><ele>233.5</ele><time>2026-04-05T08:19:44Z</time></trkpt><trkpt lat="45.95739516238031" lon="9.269828121023892"><ele>231.0</ele><time>2026-04-05T08:19:45Z</time></trkpt><trkpt lat="45.9575678392524" lon="9.269791241137822"><ele>235.33333333333331</ele><time>2026-04-05T08:19:46Z</time></trkpt><trkpt lat="45.95776165650852" lon="9.269763644166284"><ele>239.66666666666666</ele><time>2026-04-05T08:19:47Z</time></trkpt><trkpt lat="45.95795372401967" lon="9.269726041769708"><ele>244.0</ele><time>2026-04-05T08:19:48Z</time></trkpt><trkpt lat="45.958128565025746" lon="9.269697950127602"><ele>244.0</ele><time>2026-04-05T08:19:49Z</time></trkpt><trkpt lat="45.95829677425896" lon="9.269615695001875"><ele>244.0</ele><time>2026-04-05T08:19:50Z</time></trkpt><trkpt lat="45.9584673365301" lon="9.269465385116304"><ele>244.0</ele><time>2026-04-05T08:19:51Z</time></trkpt><trkpt lat="45.958638984299654" lon="9.26927362301327"><ele>244.33333333333331</ele><time>2026-04-05T08:19:52Z</time></trkpt><trkpt lat="45.95881237505573" lon="9.26910179561302"><ele>244.66666666666669</ele><time>2026-04-05T08:19:53Z</time></trkpt><trkpt lat="45.958968809125984" lon="9.268975557654295"><ele>245.0</ele><time>2026-04-05T08:19:54Z</time></trkpt><trkpt lat="45.95909551476079" lon="9.26883703794602"><ele>245.0</ele><time>2026-04-05T08:19:55Z</time></trkpt><trkpt lat="45.95919027942727" lon="9.26867172465575"><ele>245.0</ele><time>2026-04-05T08:19:56Z</time></trkpt><trkpt lat="45.959265386057936" lon="9.268469883383373"><ele>245.0</ele><time>2026-04-05T08:19:57Z</time></trkpt><trkpt lat="45.95931667931438" lon="9.268241590686348"><ele>238.5</ele><time>2026-04-05T08:19:58Z</time></trkpt><trkpt lat="45.959363560243666" lon="9.268041273354463"><ele>232.0</ele><time>2026-04-05T08:19:59Z</time></trkpt><trkpt lat="45.959473492284175" lon="9.267913651897565"><ele>225.5</ele><time>2026-04-05T08:20:00Z</time></trkpt><trkpt lat="45.959592808635115" lon="9.267776485520477"><ele>219.0</ele><time>2026-04-05T08:20:01Z</time></trkpt><trkpt lat="45.95969809049201" lon="9.26761249402469"><ele>219.0</ele><time>2026-04-05T08:20:02Z</time></trkpt><trkpt lat="45.95977007092406" lon="9.267434818284098"><ele>219.0</ele><time>2026-04-05T08:20:03Z</time></trkpt><trkpt lat="45.95982925293687" lon="9.267267236041617"><ele>219.0</ele><time>2026-04-05T08:20:04Z</time></trkpt><trkpt lat="45.959865814722484" lon="9.267105578864824"><ele>219.0</ele><time>2026-04-05T08:20:05Z</time></trkpt><trkpt lat="45.95988495403648" lon="9.266949494748626"><ele>220.33333333333334</ele><time>2026-04-05T08:20:06Z</time></trkpt><trkpt lat="45.959889620220956" lon="9.26680103317309"><ele>221.66666666666669</ele><time>2026-04-05T08:20:06.999Z</time></trkpt><trkpt lat="45.95988409781125" lon="9.26667487757651"><ele>223.0</ele><time>2026-04-05T08:20:07.999Z</time></trkpt><trkpt lat="45.959883268263134" lon="9.266568949290605"><ele>224.33333333333334</ele><time>2026-04-05T08:20:08.999Z</time></trkpt><trkpt lat="45.95988693681111" lon="9.266462279451451"><ele>225.66666666666669</ele><time>2026-04-05T08:20:09.999Z</time></trkpt><trkpt lat="45.95990331186971" lon="9.2663620999372"><ele>227.0</ele><time>2026-04-05T08:20:10.999Z</time></trkpt><trkpt lat="45.959937961675536" lon="9.26626781980532"><ele>227.0</ele><time>2026-04-05T08:20:11.999Z</time></trkpt><trkpt lat="45.96000416819391" lon="9.266190681513606"><ele>227.0</ele><time>2026-04-05T08:20:12.999Z</time></trkpt><trkpt lat="45.96009237628414" lon="9.266158860128892"><ele>227.0</ele><time>2026-04-05T08:20:13.999Z</time></trkpt><trkpt lat="45.9601886319782" lon="9.26616232144012"><ele>227.0</ele><time>2026-04-05T08:20:14.999Z</time></trkpt><trkpt lat="45.96028658893555" lon="9.266172365523234"><ele>227.0</ele><time>2026-04-05T08:20:15.999Z</time></trkpt><trkpt lat="45.9603837376075" lon="9.266164777328028"><ele>227.0</ele><time>2026-04-05T08:20:16.999Z</time></trkpt><trkpt lat="45.96049752184457" lon="9.266127634435504"><ele>227.0</ele><time>2026-04-05T08:20:17.999Z</time></trkpt><trkpt lat="45.96064933695102" lon="9.266099916997591"><ele>227.0</ele><time>2026-04-05T08:20:18.999Z</time></trkpt><trkpt lat="45.96079619892123" lon="9.26603666666951"><ele>227.0</ele><time>2026-04-05T08:20:19.999Z</time></trkpt><trkpt lat="45.96092382153247" lon="9.265961624824866"><ele>225.39999999999998</ele><time>2026-04-05T08:20:20.999Z</time></trkpt><trkpt lat="45.96104258140081" lon="9.265910582142503"><ele>223.79999999999998</ele><time>2026-04-05T08:20:21.999Z</time></trkpt><trkpt lat="45.96114703624204" lon="9.265862158065756"><ele>222.2</ele><time>2026-04-05T08:20:22.999Z</time></trkpt><trkpt lat="45.96124471821743" lon="9.265816516179159"><ele>220.6</ele><time>2026-04-05T08:20:23.999Z</time></trkpt><trkpt lat="45.96133543127972" lon="9.265772855948379"><ele>219.0</ele><time>2026-04-05T08:20:24.999Z</time></trkpt><trkpt lat="45.96142317798666" lon="9.2657445998574"><ele>219.0</ele><time>2026-04-05T08:20:25.999Z</time></trkpt><trkpt lat="45.961509651837794" lon="9.265735423568902"><ele>219.0</ele><time>2026-04-05T08:20:26.999Z</time></trkpt><trkpt lat="45.96159177638803" lon="9.265749763625323"><ele>219.0</ele><time>2026-04-05T08:20:27.999Z</time></trkpt><trkpt lat="45.96167261821269" lon="9.265773688198141"><ele>219.0</ele><time>2026-04-05T08:20:28.999Z</time></trkpt><trkpt lat="45.96175392560327" lon="9.26579880541795"><ele>219.0</ele><time>2026-04-05T08:20:29.999Z</time></trkpt><trkpt lat="45.961827825304844" lon="9.265821870725995"><ele>219.0</ele><time>2026-04-05T08:20:30.999Z</time></trkpt><trkpt lat="45.9618953276659" lon="9.265837531379386"><ele>220.2</ele><time>2026-04-05T08:20:31.999Z</time></trkpt><trkpt lat="45.962008990223985" lon="9.265825130172965"><ele>221.39999999999998</ele><time>2026-04-05T08:20:33.999Z</time></trkpt><trkpt lat="45.96209362461902" lon="9.265779876047782"><ele>222.6</ele><time>2026-04-05T08:20:34.999Z</time></trkpt><trkpt lat="45.96219664648107" lon="9.265719063986076"><ele>223.8</ele><time>2026-04-05T08:20:35.999Z</time></trkpt><trkpt lat="45.96231163161946" lon="9.265654072017137"><ele>225.0</ele><time>2026-04-05T08:20:36.999Z</time></trkpt><trkpt lat="45.96241396531535" lon="9.265638335819634"><ele>225.0</ele><time>2026-04-05T08:20:37.999Z</time></trkpt><trkpt lat="45.96252980654209" lon="9.265648115613484"><ele>225.0</ele><time>2026-04-05T08:20:38.999Z</time></trkpt><trkpt lat="45.96266709469219" lon="9.265672096649572"><ele>225.0</ele><time>2026-04-05T08:20:39.999Z</time></trkpt><trkpt lat="45.962842110843496" lon="9.26567789209865"><ele>225.0</ele><time>2026-04-05T08:20:40.999Z</time></trkpt><trkpt lat="45.9630319943119" lon="9.265710659509228"><ele>225.66666666666669</ele><time>2026-04-05T08:20:41.999Z</time></trkpt><trkpt lat="45.963224298254005" lon="9.265737130980744"><ele>226.33333333333334</ele><time>2026-04-05T08:20:42.999Z</time></trkpt><trkpt lat="45.96341869093389" lon="9.26576508478822"><ele>227.0</ele><time>2026-04-05T08:20:43.999Z</time></trkpt><trkpt lat="45.963612069720156" lon="9.265804577456727"><ele>232.66666666666669</ele><time>2026-04-05T08:20:44.999Z</time></trkpt><trkpt lat="45.963803247361874" lon="9.265864340099716"><ele>238.33333333333331</ele><time>2026-04-05T08:20:45.999Z</time></trkpt><trkpt lat="45.96399028413884" lon="9.26593832957707"><ele>244.0</ele><time>2026-04-05T08:20:46.999Z</time></trkpt><trkpt lat="45.96417870250645" lon="9.266009208001687"><ele>252.33333333333331</ele><time>2026-04-05T08:20:47.999Z</time></trkpt><trkpt lat="45.964363075800875" lon="9.266071394105044"><ele>260.6666666666667</ele><time>2026-04-05T08:20:48.999Z</time></trkpt><trkpt lat="45.964532103999794" lon="9.266132619267601"><ele>269.0</ele><time>2026-04-05T08:20:49.999Z</time></trkpt><trkpt lat="45.9646858873644" lon="9.266187172621448"><ele>269.0</ele><time>2026-04-05T08:20:50.999Z</time></trkpt><trkpt lat="45.96482500940304" lon="9.266237677184963"><ele>269.0</ele><time>2026-04-05T08:20:51.999Z</time></trkpt><trkpt lat="45.96493405866627" lon="9.26628396246603"><ele>269.0</ele><time>2026-04-05T08:20:52.999Z</time></trkpt><trkpt lat="45.96501465708226" lon="9.266344829262671"><ele>269.0</ele><time>2026-04-05T08:20:53.999Z</time></trkpt><trkpt lat="45.96507269903144" lon="9.266427867293146"><ele>269.0</ele><time>2026-04-05T08:20:54.999Z</time></trkpt><trkpt lat="45.96510457950077" lon="9.266530871131163"><ele>266.83333333333337</ele><time>2026-04-05T08:20:55.999Z</time></trkpt><trkpt lat="45.96513049264625" lon="9.266623165597837"><ele>264.6666666666667</ele><time>2026-04-05T08:20:56.999Z</time></trkpt><trkpt lat="45.96520395215559" lon="9.266737681726937"><ele>262.5</ele><time>2026-04-05T08:20:58.999Z</time></trkpt><trkpt lat="45.96530661690661" lon="9.266809759736528"><ele>260.3333333333333</ele><time>2026-04-05T08:21:00.999Z</time></trkpt><trkpt lat="45.96537021098739" lon="9.2668317657945"><ele>258.16666666666663</ele><time>2026-04-05T08:21:01.999Z</time></trkpt><trkpt lat="45.965443544381806" lon="9.266834627407231"><ele>256.0</ele><time>2026-04-05T08:21:02.999Z</time></trkpt><trkpt lat="45.96553722060607" lon="9.266807994925436"><ele>256.0</ele><time>2026-04-05T08:21:03.999Z</time></trkpt><trkpt lat="45.96564219814827" lon="9.26679123912156"><ele>256.0</ele><time>2026-04-05T08:21:04.999Z</time></trkpt><trkpt lat="45.96574375561904" lon="9.266813057062569"><ele>256.0</ele><time>2026-04-05T08:21:05.999Z</time></trkpt><trkpt lat="45.965839628726286" lon="9.266857294178202"><ele>256.0</ele><time>2026-04-05T08:21:06.999Z</time></trkpt><trkpt lat="45.96593311647319" lon="9.266905944228446"><ele>256.0</ele><time>2026-04-05T08:21:07.999Z</time></trkpt><trkpt lat="45.966023684343114" lon="9.266952562266686"><ele>259.8333333333333</ele><time>2026-04-05T08:21:08.999Z</time></trkpt><trkpt lat="45.96610473320571" lon="9.266993318443077"><ele>263.66666666666663</ele><time>2026-04-05T08:21:09.999Z</time></trkpt><trkpt lat="45.96617660671101" lon="9.26702824619367"><ele>267.5</ele><time>2026-04-05T08:21:10.999Z</time></trkpt><trkpt lat="45.966240122531026" lon="9.267063747128107"><ele>271.3333333333333</ele><time>2026-04-05T08:21:11.999Z</time></trkpt><trkpt lat="45.96635089046929" lon="9.267138890984157"><ele>275.1666666666667</ele><time>2026-04-05T08:21:13.999Z</time></trkpt><trkpt lat="45.96640776863745" lon="9.267179101310976"><ele>279.0</ele><time>2026-04-05T08:21:14.999Z</time></trkpt><trkpt lat="45.966513132264154" lon="9.267255398309274"><ele>272.59999999999997</ele><time>2026-04-05T08:21:16.999Z</time></trkpt><trkpt lat="45.966612251328456" lon="9.267328493343642"><ele>266.2</ele><time>2026-04-05T08:21:18.999Z</time></trkpt><trkpt lat="45.96672377356008" lon="9.267388107914487"><ele>259.79999999999995</ele><time>2026-04-05T08:21:20.999Z</time></trkpt><trkpt lat="45.966846960195575" lon="9.267378014342423"><ele>253.39999999999998</ele><time>2026-04-05T08:21:22.999Z</time></trkpt><trkpt lat="45.96691264534468" lon="9.267354955026972"><ele>247.0</ele><time>2026-04-05T08:21:23.999Z</time></trkpt><trkpt lat="45.96702272855306" lon="9.26741018553338"><ele>247.0</ele><time>2026-04-05T08:21:25.999Z</time></trkpt><trkpt lat="45.96710943446441" lon="9.267473529322244"><ele>247.0</ele><time>2026-04-05T08:21:27.999Z</time></trkpt><trkpt lat="45.967201083264165" lon="9.267501630333074"><ele>247.0</ele><time>2026-04-05T08:21:29.999Z</time></trkpt><trkpt lat="45.96730105245256" lon="9.26749023787675"><ele>247.0</ele><time>2026-04-05T08:21:31.999Z</time></trkpt><trkpt lat="45.967386730590434" lon="9.267448566662447"><ele>247.0</ele><time>2026-04-05T08:21:33.999Z</time></trkpt><trkpt lat="45.96752442687091" lon="9.267399892583116"><ele>245.6</ele><time>2026-04-05T08:21:35.999Z</time></trkpt><trkpt lat="45.96761139081465" lon="9.2673563034267"><ele>244.2</ele><time>2026-04-05T08:21:36.999Z</time></trkpt><trkpt lat="45.96768334502518" lon="9.267321363873924"><ele>242.8</ele><time>2026-04-05T08:21:37.999Z</time></trkpt><trkpt lat="45.96777204637759" lon="9.267262775277912"><ele>241.4</ele><time>2026-04-05T08:21:39.999Z</time></trkpt><trkpt lat="45.96785329403698" lon="9.26723263069239"><ele>240.0</ele><time>2026-04-05T08:21:42Z</time></trkpt><trkpt lat="45.96796129919259" lon="9.267189247508806"><ele>242.14285714285717</ele><time>2026-04-05T08:21:44Z</time></trkpt><trkpt lat="45.968023605625255" lon="9.267160897847159"><ele>244.28571428571428</ele><time>2026-04-05T08:21:45Z</time></trkpt><trkpt lat="45.96808592288946" lon="9.267124593799775"><ele>246.42857142857144</ele><time>2026-04-05T08:21:46Z</time></trkpt><trkpt lat="45.968143360019525" lon="9.26707519573796"><ele>248.57142857142858</ele><time>2026-04-05T08:21:47Z</time></trkpt><trkpt lat="45.96819034665826" lon="9.267007602035132"><ele>250.71428571428572</ele><time>2026-04-05T08:21:48Z</time></trkpt><trkpt lat="45.96822330973774" lon="9.266929913894936"><ele>252.85714285714286</ele><time>2026-04-05T08:21:49Z</time></trkpt><trkpt lat="45.96824958271291" lon="9.266786009185239"><ele>255.0</ele><time>2026-04-05T08:21:51Z</time></trkpt><trkpt lat="45.968258964807724" lon="9.266634205950767"><ele>255.0</ele><time>2026-04-05T08:21:53Z</time></trkpt><trkpt lat="45.96827880558093" lon="9.266455117058108"><ele>255.0</ele><time>2026-04-05T08:21:55Z</time></trkpt><trkpt lat="45.9683134846777" lon="9.266374751334295"><ele>255.0</ele><time>2026-04-05T08:21:56Z</time></trkpt><trkpt lat="45.968356657897495" lon="9.26630651758494"><ele>255.0</ele><time>2026-04-05T08:21:57Z</time></trkpt><trkpt lat="45.968413148595644" lon="9.266257346580943"><ele>255.0</ele><time>2026-04-05T08:21:58Z</time></trkpt><trkpt lat="45.968474619693204" lon="9.266223840923379"><ele>255.0</ele><time>2026-04-05T08:21:59Z</time></trkpt><trkpt lat="45.968537972423455" lon="9.266213620027493"><ele>257.8</ele><time>2026-04-05T08:22:00Z</time></trkpt><trkpt lat="45.968654468722065" lon="9.266246646040193"><ele>260.6</ele><time>2026-04-05T08:22:02Z</time></trkpt><trkpt lat="45.96873615435727" lon="9.266295832727208"><ele>263.4</ele><time>2026-04-05T08:22:04Z</time></trkpt><trkpt lat="45.96881144501942" lon="9.266340301463789"><ele>266.2</ele><time>2026-04-05T08:22:06Z</time></trkpt><trkpt lat="45.96891332455973" lon="9.266401386336007"><ele>269.0</ele><time>2026-04-05T08:22:08Z</time></trkpt><trkpt lat="45.96903279491546" lon="9.266442016249833"><ele>269.0</ele><time>2026-04-05T08:22:10Z</time></trkpt><trkpt lat="45.969096194258206" lon="9.266437659923987"><ele>269.0</ele><time>2026-04-05T08:22:11Z</time></trkpt><trkpt lat="45.969211604101" lon="9.266393509723558"><ele>269.0</ele><time>2026-04-05T08:22:12.999Z</time></trkpt><trkpt lat="45.96930475246697" lon="9.266290253254818"><ele>269.0</ele><time>2026-04-05T08:22:14.999Z</time></trkpt><trkpt lat="45.96938685720379" lon="9.26616269639206"><ele>269.0</ele><time>2026-04-05T08:22:16.999Z</time></trkpt><trkpt lat="45.96946807432259" lon="9.266063145695597"><ele>268.59999999999997</ele><time>2026-04-05T08:22:18.999Z</time></trkpt><trkpt lat="45.96958652862962" lon="9.266025286834042"><ele>268.2</ele><time>2026-04-05T08:22:20.999Z</time></trkpt><trkpt lat="45.96965056220722" lon="9.26603047174896"><ele>267.79999999999995</ele><time>2026-04-05T08:22:21.999Z</time></trkpt><trkpt lat="45.96971346254308" lon="9.266037275102175"><ele>267.4</ele><time>2026-04-05T08:22:22.999Z</time></trkpt><trkpt lat="45.96983572057237" lon="9.266055778799057"><ele>267.0</ele><time>2026-04-05T08:22:24.999Z</time></trkpt><trkpt lat="45.96995571158435" lon="9.26608095867762"><ele>266.8</ele><time>2026-04-05T08:22:26.999Z</time></trkpt><trkpt lat="45.97007595594014" lon="9.266093230283543"><ele>266.6</ele><time>2026-04-05T08:22:28.999Z</time></trkpt><trkpt lat="45.970196539886075" lon="9.26607144571925"><ele>266.40000000000003</ele><time>2026-04-05T08:22:30.999Z</time></trkpt><trkpt lat="45.97031517124806" lon="9.266038509776408"><ele>266.2</ele><time>2026-04-05T08:22:32.999Z</time></trkpt><trkpt lat="45.970376723509425" lon="9.26601747902485"><ele>266.0</ele><time>2026-04-05T08:22:33.999Z</time></trkpt><trkpt lat="45.970436409525995" lon="9.265974889733798"><ele>266.0</ele><time>2026-04-05T08:22:34.999Z</time></trkpt><trkpt lat="45.97049933987951" lon="9.265912197703146"><ele>266.0</ele><time>2026-04-05T08:22:35.999Z</time></trkpt><trkpt lat="45.97054771537892" lon="9.265792142131618"><ele>266.0</ele><time>2026-04-05T08:22:36.999Z</time></trkpt><trkpt lat="45.970592826228206" lon="9.265647671398561"><ele>266.0</ele><time>2026-04-05T08:22:37.999Z</time></trkpt><trkpt lat="45.97064248224292" lon="9.265497694949017"><ele>266.0</ele><time>2026-04-05T08:22:38.999Z</time></trkpt><trkpt lat="45.97069698898575" lon="9.265371870146575"><ele>267.40000000000003</ele><time>2026-04-05T08:22:39.999Z</time></trkpt><trkpt lat="45.970776691331466" lon="9.26530584135568"><ele>268.8</ele><time>2026-04-05T08:22:40.999Z</time></trkpt><trkpt lat="45.97087219509939" lon="9.265265637131456"><ele>270.20000000000005</ele><time>2026-04-05T08:22:41.999Z</time></trkpt><trkpt lat="45.97097670904707" lon="9.265267468775196"><ele>271.6</ele><time>2026-04-05T08:22:42.999Z</time></trkpt><trkpt lat="45.971090791056966" lon="9.265267468771901"><ele>273.0</ele><time>2026-04-05T08:22:43.999Z</time></trkpt><trkpt lat="45.9711818911879" lon="9.2652624098385"><ele>275.4</ele><time>2026-04-05T08:22:44.999Z</time></trkpt><trkpt lat="45.971249424330786" lon="9.26522080082509"><ele>277.8</ele><time>2026-04-05T08:22:45.999Z</time></trkpt><trkpt lat="45.97133549345723" lon="9.265189060362168"><ele>280.2</ele><time>2026-04-05T08:22:47.999Z</time></trkpt><trkpt lat="45.97139540906895" lon="9.265065794063437"><ele>282.6</ele><time>2026-04-05T08:22:49.999Z</time></trkpt><trkpt lat="45.97146081622403" lon="9.264867430813434"><ele>285.0</ele><time>2026-04-05T08:22:51.999Z</time></trkpt><trkpt lat="45.971515170948045" lon="9.264686744299132"><ele>285.25</ele><time>2026-04-05T08:22:52.999Z</time></trkpt><trkpt lat="45.97161030189828" lon="9.264523142198772"><ele>285.5</ele><time>2026-04-05T08:22:53.999Z</time></trkpt><trkpt lat="45.971662891310494" lon="9.26435310599108"><ele>285.75</ele><time>2026-04-05T08:22:54.999Z</time></trkpt><trkpt lat="45.971703778668164" lon="9.264193736267266"><ele>286.0</ele><time>2026-04-05T08:22:55.999Z</time></trkpt><trkpt lat="45.971779200900386" lon="9.264067544727052"><ele>286.2</ele><time>2026-04-05T08:22:56.999Z</time></trkpt><trkpt lat="45.971859276379654" lon="9.263955936250237"><ele>286.40000000000003</ele><time>2026-04-05T08:22:57.999Z</time></trkpt><trkpt lat="45.971936120569275" lon="9.26385153937778"><ele>286.6</ele><time>2026-04-05T08:22:58.999Z</time></trkpt><trkpt lat="45.97200528555384" lon="9.263742752249223"><ele>286.8</ele><time>2026-04-05T08:22:59.999Z</time></trkpt><trkpt lat="45.97208163477333" lon="9.263643600864027"><ele>287.0</ele><time>2026-04-05T08:23:00.999Z</time></trkpt><trkpt lat="45.97214906281764" lon="9.263523826447246"><ele>287.0</ele><time>2026-04-05T08:23:01.999Z</time></trkpt><trkpt lat="45.97221370664577" lon="9.263401896451414"><ele>287.0</ele><time>2026-04-05T08:23:02.999Z</time></trkpt><trkpt lat="45.97227796085101" lon="9.263280702666883"><ele>287.0</ele><time>2026-04-05T08:23:03.999Z</time></trkpt><trkpt lat="45.972345426084495" lon="9.263163322350215"><ele>287.0</ele><time>2026-04-05T08:23:04.999Z</time></trkpt><trkpt lat="45.97241076651138" lon="9.263046387660172"><ele>287.0</ele><time>2026-04-05T08:23:05.999Z</time></trkpt><trkpt lat="45.97247029699669" lon="9.262934042559415"><ele>286.8</ele><time>2026-04-05T08:23:06.999Z</time></trkpt><trkpt lat="45.972512599768805" lon="9.262803531203225"><ele>286.6</ele><time>2026-04-05T08:23:07.999Z</time></trkpt><trkpt lat="45.97257550973514" lon="9.262688735674672"><ele>286.40000000000003</ele><time>2026-04-05T08:23:08.999Z</time></trkpt><trkpt lat="45.972586940977315" lon="9.262531157810276"><ele>286.2</ele><time>2026-04-05T08:23:09.999Z</time></trkpt><trkpt lat="45.97259164754099" lon="9.262367353651616"><ele>286.0</ele><time>2026-04-05T08:23:10.999Z</time></trkpt><trkpt lat="45.9725837900958" lon="9.262174820284368"><ele>280.5</ele><time>2026-04-05T08:23:11.999Z</time></trkpt><trkpt lat="45.97259265394158" lon="9.26198072394595"><ele>275.0</ele><time>2026-04-05T08:23:12.999Z</time></trkpt><trkpt lat="45.97259131598912" lon="9.261792404159952"><ele>269.5</ele><time>2026-04-05T08:23:13.999Z</time></trkpt><trkpt lat="45.972596161801846" lon="9.261623512774454"><ele>264.0</ele><time>2026-04-05T08:23:14.999Z</time></trkpt><trkpt lat="45.9726111258148" lon="9.261470050596845"><ele>265.2</ele><time>2026-04-05T08:23:15.999Z</time></trkpt><trkpt lat="45.97268303412465" lon="9.261332076191453"><ele>266.4</ele><time>2026-04-05T08:23:16.999Z</time></trkpt><trkpt lat="45.97273246379324" lon="9.261166528819913"><ele>267.6</ele><time>2026-04-05T08:23:17.999Z</time></trkpt><trkpt lat="45.97275142906353" lon="9.261005826916472"><ele>268.8</ele><time>2026-04-05T08:23:18.999Z</time></trkpt><trkpt lat="45.97276077639917" lon="9.260888781149356"><ele>270.0</ele><time>2026-04-05T08:23:19.999Z</time></trkpt><trkpt lat="45.97273094466229" lon="9.260784141759066"><ele>270.0</ele><time>2026-04-05T08:23:20.999Z</time></trkpt><trkpt lat="45.972667353027525" lon="9.260707877865608"><ele>270.0</ele><time>2026-04-05T08:23:21.999Z</time></trkpt><trkpt lat="45.972588532367524" lon="9.26066479323432"><ele>270.0</ele><time>2026-04-05T08:23:22.999Z</time></trkpt><trkpt lat="45.97253796707246" lon="9.260568596996915"><ele>270.0</ele><time>2026-04-05T08:23:24.999Z</time></trkpt><trkpt lat="45.972583862108195" lon="9.260499874414442"><ele>270.0</ele><time>2026-04-05T08:23:25.999Z</time></trkpt><trkpt lat="45.97267519034682" lon="9.260503018632116"><ele>270.0</ele><time>2026-04-05T08:23:26.999Z</time></trkpt><trkpt lat="45.97275690243067" lon="9.260588813000501"><ele>270.0</ele><time>2026-04-05T08:23:27.999Z</time></trkpt><trkpt lat="45.9728514716996" lon="9.260680681051777"><ele>270.0</ele><time>2026-04-05T08:23:28.999Z</time></trkpt><trkpt lat="45.972951223429824" lon="9.260798473506279"><ele>270.0</ele><time>2026-04-05T08:23:29.999Z</time></trkpt><trkpt lat="45.973025448461094" lon="9.260948659260833"><ele>270.0</ele><time>2026-04-05T08:23:30.999Z</time></trkpt><trkpt lat="45.97310898627497" lon="9.261070368156311"><ele>270.0</ele><time>2026-04-05T08:23:31.999Z</time></trkpt><trkpt lat="45.97321730475266" lon="9.261152686023385"><ele>270.0</ele><time>2026-04-05T08:23:32.999Z</time></trkpt><trkpt lat="45.97334096606248" lon="9.261198746834365"><ele>270.0</ele><time>2026-04-05T08:23:33.999Z</time></trkpt><trkpt lat="45.97347015375314" lon="9.261189074859107"><ele>270.0</ele><time>2026-04-05T08:23:34.999Z</time></trkpt><trkpt lat="45.9735980539271" lon="9.261118655149616"><ele>268.0</ele><time>2026-04-05T08:23:35.999Z</time></trkpt><trkpt lat="45.97371238323439" lon="9.260998897003912"><ele>266.0</ele><time>2026-04-05T08:23:36.999Z</time></trkpt><trkpt lat="45.973802683680375" lon="9.26083180407307"><ele>264.0</ele><time>2026-04-05T08:23:37.999Z</time></trkpt><trkpt lat="45.97387186438497" lon="9.260608762294726"><ele>264.0</ele><time>2026-04-05T08:23:38.999Z</time></trkpt><trkpt lat="45.973919943933254" lon="9.260392201323945"><ele>264.0</ele><time>2026-04-05T08:23:39.999Z</time></trkpt><trkpt lat="45.973954886404464" lon="9.26023123276544"><ele>264.0</ele><time>2026-04-05T08:23:40.999Z</time></trkpt><trkpt lat="45.97400355600629" lon="9.260129840040294"><ele>264.0</ele><time>2026-04-05T08:23:41.999Z</time></trkpt><trkpt lat="45.97399148606545" lon="9.260023011493772"><ele>264.0</ele><time>2026-04-05T08:23:42.999Z</time></trkpt><trkpt lat="45.97408145676955" lon="9.260015820743495"><ele>264.0</ele><time>2026-04-05T08:23:43.999Z</time></trkpt><trkpt lat="45.97415146934352" lon="9.260059996239123"><ele>264.0</ele><time>2026-04-05T08:23:44.998Z</time></trkpt><trkpt lat="45.974190339387214" lon="9.260170650205373"><ele>264.0</ele><time>2026-04-05T08:23:45.998Z</time></trkpt><trkpt lat="45.974167832177486" lon="9.260299823688518"><ele>264.0</ele><time>2026-04-05T08:23:46.998Z</time></trkpt><trkpt lat="45.97409949707934" lon="9.260454551940398"><ele>264.0</ele><time>2026-04-05T08:23:48Z</time></trkpt><trkpt lat="45.974017715505035" lon="9.260625599342875"><ele>261.8</ele><time>2026-04-05T08:23:49Z</time></trkpt><trkpt lat="45.97395373101497" lon="9.260783166405647"><ele>259.59999999999997</ele><time>2026-04-05T08:23:50Z</time></trkpt><trkpt lat="45.973913381883236" lon="9.260929119593225"><ele>257.4</ele><time>2026-04-05T08:23:51Z</time></trkpt><trkpt lat="45.97391628793616" lon="9.261051451161022"><ele>255.2</ele><time>2026-04-05T08:23:52Z</time></trkpt><trkpt lat="45.97393740856862" lon="9.261137734935254"><ele>253.0</ele><time>2026-04-05T08:23:53Z</time></trkpt><trkpt lat="45.974015061039296" lon="9.261254553788428"><ele>253.0</ele><time>2026-04-05T08:23:55Z</time></trkpt><trkpt lat="45.97408138754694" lon="9.261323212114938"><ele>253.0</ele><time>2026-04-05T08:23:56Z</time></trkpt><trkpt lat="45.974178375326815" lon="9.261362228747462"><ele>253.0</ele><time>2026-04-05T08:23:57Z</time></trkpt><trkpt lat="45.9742895053768" lon="9.261349186453801"><ele>253.0</ele><time>2026-04-05T08:23:58Z</time></trkpt><trkpt lat="45.97439898463328" lon="9.261333343300755"><ele>253.0</ele><time>2026-04-05T08:23:59Z</time></trkpt><trkpt lat="45.974498776947236" lon="9.261352576977622"><ele>251.2</ele><time>2026-04-05T08:24:00Z</time></trkpt><trkpt lat="45.97460076471453" lon="9.261396184495519"><ele>249.4</ele><time>2026-04-05T08:24:01Z</time></trkpt><trkpt lat="45.97469067192088" lon="9.261464225962877"><ele>247.59999999999997</ele><time>2026-04-05T08:24:02Z</time></trkpt><trkpt lat="45.974775756337614" lon="9.261544767573692"><ele>245.79999999999998</ele><time>2026-04-05T08:24:03Z</time></trkpt><trkpt lat="45.97485536068106" lon="9.261635635181326"><ele>244.0</ele><time>2026-04-05T08:24:04Z</time></trkpt><trkpt lat="45.97492764946671" lon="9.261743209337466"><ele>244.0</ele><time>2026-04-05T08:24:05Z</time></trkpt><trkpt lat="45.97499926334198" lon="9.261852238523014"><ele>243.99999999999997</ele><time>2026-04-05T08:24:06Z</time></trkpt><trkpt lat="45.97507339955562" lon="9.26194434009349"><ele>243.99999999999997</ele><time>2026-04-05T08:24:07Z</time></trkpt><trkpt lat="45.97514805888647" lon="9.2620304165542"><ele>244.0</ele><time>2026-04-05T08:24:08Z</time></trkpt><trkpt lat="45.97523089215352" lon="9.262103298607444"><ele>244.0</ele><time>2026-04-05T08:24:09Z</time></trkpt><trkpt lat="45.97531795321677" lon="9.262154851746526"><ele>242.33333333333331</ele><time>2026-04-05T08:24:10Z</time></trkpt><trkpt lat="45.975406092524366" lon="9.262190350409453"><ele>240.66666666666666</ele><time>2026-04-05T08:24:11Z</time></trkpt><trkpt lat="45.975489398201624" lon="9.262212715895219"><ele>239.0</ele><time>2026-04-05T08:24:12Z</time></trkpt><trkpt lat="45.97556642965988" lon="9.26222946646609"><ele>237.33333333333331</ele><time>2026-04-05T08:24:13Z</time></trkpt><trkpt lat="45.97564373137289" lon="9.26224306369851"><ele>235.66666666666666</ele><time>2026-04-05T08:24:14Z</time></trkpt><trkpt lat="45.9757239465266" lon="9.26225774932816"><ele>234.0</ele><time>2026-04-05T08:24:15Z</time></trkpt><trkpt lat="45.97581006610094" lon="9.262286868818284"><ele>234.0</ele><time>2026-04-05T08:24:15.999Z</time></trkpt><trkpt lat="45.97589741252415" lon="9.262301229752769"><ele>234.0</ele><time>2026-04-05T08:24:16.999Z</time></trkpt><trkpt lat="45.97597712730335" lon="9.262316001260535"><ele>234.0</ele><time>2026-04-05T08:24:17.999Z</time></trkpt><trkpt lat="45.976049308269054" lon="9.262320196633405"><ele>234.0</ele><time>2026-04-05T08:24:18.999Z</time></trkpt><trkpt lat="45.976130303938" lon="9.262336316194675"><ele>234.0</ele><time>2026-04-05T08:24:19.999Z</time></trkpt><trkpt lat="45.976216541050576" lon="9.262346799582103"><ele>234.0</ele><time>2026-04-05T08:24:20.999Z</time></trkpt><trkpt lat="45.97630878298598" lon="9.262371984506713"><ele>234.0</ele><time>2026-04-05T08:24:21.999Z</time></trkpt><trkpt lat="45.97640849594409" lon="9.262391857849982"><ele>233.99999999999997</ele><time>2026-04-05T08:24:22.999Z</time></trkpt><trkpt lat="45.976512822896275" lon="9.262418747081432"><ele>233.99999999999997</ele><time>2026-04-05T08:24:23.999Z</time></trkpt><trkpt lat="45.976619138345846" lon="9.262439718436852"><ele>234.0</ele><time>2026-04-05T08:24:24.999Z</time></trkpt><trkpt lat="45.9767249939028" lon="9.26246124448165"><ele>234.0</ele><time>2026-04-05T08:24:25.999Z</time></trkpt><trkpt lat="45.97683006605521" lon="9.262484174531682"><ele>234.16666666666666</ele><time>2026-04-05T08:24:26.999Z</time></trkpt><trkpt lat="45.97693085186964" lon="9.262505067592683"><ele>234.33333333333331</ele><time>2026-04-05T08:24:27.999Z</time></trkpt><trkpt lat="45.97702759349458" lon="9.262526746813116"><ele>234.5</ele><time>2026-04-05T08:24:28.999Z</time></trkpt><trkpt lat="45.977113874199354" lon="9.2625504443818"><ele>234.66666666666666</ele><time>2026-04-05T08:24:29.999Z</time></trkpt><trkpt lat="45.9771911375262" lon="9.262568804014487"><ele>234.83333333333331</ele><time>2026-04-05T08:24:30.999Z</time></trkpt><trkpt lat="45.97725888242164" lon="9.262565253805727"><ele>235.0</ele><time>2026-04-05T08:24:31.999Z</time></trkpt><trkpt lat="45.977325397946544" lon="9.2625656811731"><ele>235.0</ele><time>2026-04-05T08:24:33.999Z</time></trkpt><trkpt lat="45.97733628628983" lon="9.262293776721647"><ele>235.0</ele><time>2026-04-05T08:24:34.999Z</time></trkpt><trkpt lat="45.9773190826003" lon="9.262143280654875"><ele>235.0</ele><time>2026-04-05T08:24:35.999Z</time></trkpt><trkpt lat="45.97730489520075" lon="9.261938082533515"><ele>235.0</ele><time>2026-04-05T08:24:36.999Z</time></trkpt><trkpt lat="45.97729808065608" lon="9.261700910700498"><ele>235.75</ele><time>2026-04-05T08:24:37.999Z</time></trkpt><trkpt lat="45.977300209446966" lon="9.261485915395237"><ele>236.5</ele><time>2026-04-05T08:24:38.999Z</time></trkpt><trkpt lat="45.97731745244445" lon="9.261275986178378"><ele>237.25</ele><time>2026-04-05T08:24:39.999Z</time></trkpt><trkpt lat="45.977351548242304" lon="9.261098565221744"><ele>238.0</ele><time>2026-04-05T08:24:40.999Z</time></trkpt><trkpt lat="45.977388952963544" lon="9.260958183513763"><ele>238.49999999999997</ele><time>2026-04-05T08:24:41.999Z</time></trkpt><trkpt lat="45.97742185184077" lon="9.260834963819775"><ele>239.0</ele><time>2026-04-05T08:24:42.999Z</time></trkpt><trkpt lat="45.977447010889406" lon="9.260716683926665"><ele>239.5</ele><time>2026-04-05T08:24:43.999Z</time></trkpt><trkpt lat="45.97747320965632" lon="9.260617422427291"><ele>240.0</ele><time>2026-04-05T08:24:44.999Z</time></trkpt><trkpt lat="45.97750472237269" lon="9.260538761427027"><ele>240.49999999999997</ele><time>2026-04-05T08:24:45.999Z</time></trkpt><trkpt lat="45.977576243833916" lon="9.26044166801879"><ele>241.0</ele><time>2026-04-05T08:24:47.999Z</time></trkpt><trkpt lat="45.977677824808175" lon="9.26031423245373"><ele>242.60000000000002</ele><time>2026-04-05T08:24:49.999Z</time></trkpt><trkpt lat="45.97773802087814" lon="9.260232537120105"><ele>244.20000000000002</ele><time>2026-04-05T08:24:50.999Z</time></trkpt><trkpt lat="45.9778037469268" lon="9.260141147246372"><ele>245.79999999999998</ele><time>2026-04-05T08:24:51.999Z</time></trkpt><trkpt lat="45.97787022044502" lon="9.260033498871952"><ele>247.39999999999998</ele><time>2026-04-05T08:24:52.999Z</time></trkpt><trkpt lat="45.977933771579224" lon="9.259913079021434"><ele>249.0</ele><time>2026-04-05T08:24:53.999Z</time></trkpt><trkpt lat="45.977986273149746" lon="9.259779281989376"><ele>249.0</ele><time>2026-04-05T08:24:54.999Z</time></trkpt><trkpt lat="45.97802983893029" lon="9.259634575147624"><ele>249.0</ele><time>2026-04-05T08:24:55.999Z</time></trkpt><trkpt lat="45.97806898031504" lon="9.259483726455104"><ele>249.0</ele><time>2026-04-05T08:24:56.999Z</time></trkpt><trkpt lat="45.978108970987094" lon="9.25932841969074"><ele>249.0</ele><time>2026-04-05T08:24:57.999Z</time></trkpt><trkpt lat="45.978150409023286" lon="9.259171308142507"><ele>249.0</ele><time>2026-04-05T08:24:58.999Z</time></trkpt><trkpt lat="45.97819513761298" lon="9.259009034869527"><ele>249.0</ele><time>2026-04-05T08:24:59.999Z</time></trkpt><trkpt lat="45.978240089056975" lon="9.25884059369977"><ele>249.0</ele><time>2026-04-05T08:25:00.999Z</time></trkpt><trkpt lat="45.978283970612154" lon="9.258669414022993"><ele>249.0</ele><time>2026-04-05T08:25:01.999Z</time></trkpt><trkpt lat="45.978327386625956" lon="9.258499212448449"><ele>250.5</ele><time>2026-04-05T08:25:02.999Z</time></trkpt><trkpt lat="45.97838646644298" lon="9.258337679043713"><ele>252.0</ele><time>2026-04-05T08:25:03.999Z</time></trkpt><trkpt lat="45.97842836697735" lon="9.25816623680748"><ele>253.5</ele><time>2026-04-05T08:25:04.999Z</time></trkpt><trkpt lat="45.97846418706967" lon="9.257994270907252"><ele>255.0</ele><time>2026-04-05T08:25:05.999Z</time></trkpt><trkpt lat="45.9784967668936" lon="9.257820899270262"><ele>255.0</ele><time>2026-04-05T08:25:06.999Z</time></trkpt><trkpt lat="45.978509576767294" lon="9.257642578799135"><ele>255.0</ele><time>2026-04-05T08:25:07.999Z</time></trkpt><trkpt lat="45.978538732816766" lon="9.257470093141103"><ele>255.0</ele><time>2026-04-05T08:25:08.999Z</time></trkpt><trkpt lat="45.97856947318081" lon="9.257299217531891"><ele>255.0</ele><time>2026-04-05T08:25:09.999Z</time></trkpt><trkpt lat="45.97860102078733" lon="9.257130008098233"><ele>254.5</ele><time>2026-04-05T08:25:10.999Z</time></trkpt><trkpt lat="45.97862959726827" lon="9.256962456833273"><ele>254.0</ele><time>2026-04-05T08:25:11.999Z</time></trkpt><trkpt lat="45.97865271160268" lon="9.256804384335243"><ele>253.5</ele><time>2026-04-05T08:25:12.999Z</time></trkpt><trkpt lat="45.97868827746598" lon="9.256653474734112"><ele>253.0</ele><time>2026-04-05T08:25:13.999Z</time></trkpt><trkpt lat="45.978702421870736" lon="9.256497429516173"><ele>252.0</ele><time>2026-04-05T08:25:14.999Z</time></trkpt><trkpt lat="45.978696696532396" lon="9.25632411947733"><ele>251.0</ele><time>2026-04-05T08:25:15.999Z</time></trkpt><trkpt lat="45.9787072245388" lon="9.256151154370983"><ele>250.0</ele><time>2026-04-05T08:25:16.999Z</time></trkpt><trkpt lat="45.97874011333939" lon="9.255981770212333"><ele>249.0</ele><time>2026-04-05T08:25:17.999Z</time></trkpt><trkpt lat="45.978762636215386" lon="9.255805705991666"><ele>249.0</ele><time>2026-04-05T08:25:18.999Z</time></trkpt><trkpt lat="45.978771983241806" lon="9.255632947689126"><ele>249.0</ele><time>2026-04-05T08:25:19.999Z</time></trkpt><trkpt lat="45.97879650500103" lon="9.25546563415985"><ele>249.0</ele><time>2026-04-05T08:25:20.999Z</time></trkpt><trkpt lat="45.97882034087974" lon="9.255305174890692"><ele>249.0</ele><time>2026-04-05T08:25:21.999Z</time></trkpt><trkpt lat="45.978847639473834" lon="9.255152194106579"><ele>247.2</ele><time>2026-04-05T08:25:22.999Z</time></trkpt><trkpt lat="45.97888246962297" lon="9.255012966086023"><ele>245.39999999999998</ele><time>2026-04-05T08:25:23.999Z</time></trkpt><trkpt lat="45.978931447772936" lon="9.2548887364079"><ele>243.6</ele><time>2026-04-05T08:25:24.999Z</time></trkpt><trkpt lat="45.97899196238223" lon="9.254782392910604"><ele>241.8</ele><time>2026-04-05T08:25:25.999Z</time></trkpt><trkpt lat="45.97906460553524" lon="9.254700132905327"><ele>240.0</ele><time>2026-04-05T08:25:26.999Z</time></trkpt><trkpt lat="45.979135886294905" lon="9.254630570809164"><ele>236.16666666666666</ele><time>2026-04-05T08:25:27.999Z</time></trkpt><trkpt lat="45.979208360281596" lon="9.254573002879512"><ele>232.33333333333331</ele><time>2026-04-05T08:25:28.999Z</time></trkpt><trkpt lat="45.97928585713033" lon="9.254523139026393"><ele>228.5</ele><time>2026-04-05T08:25:29.999Z</time></trkpt><trkpt lat="45.97937215488636" lon="9.25448743074484"><ele>224.66666666666666</ele><time>2026-04-05T08:25:30.999Z</time></trkpt><trkpt lat="45.979451529658164" lon="9.254461323412867"><ele>220.83333333333331</ele><time>2026-04-05T08:25:31.999Z</time></trkpt><trkpt lat="45.97952426344744" lon="9.254465397096467"><ele>217.0</ele><time>2026-04-05T08:25:32.999Z</time></trkpt><trkpt lat="45.979600059624076" lon="9.254490398330985"><ele>216.99999999999997</ele><time>2026-04-05T08:25:33.999Z</time></trkpt><trkpt lat="45.97968140031497" lon="9.254527263573564"><ele>217.0</ele><time>2026-04-05T08:25:34.999Z</time></trkpt><trkpt lat="45.97976333358205" lon="9.254564194507502"><ele>217.0</ele><time>2026-04-05T08:25:35.999Z</time></trkpt><trkpt lat="45.97984718761873" lon="9.254600450523222"><ele>217.0</ele><time>2026-04-05T08:25:36.999Z</time></trkpt><trkpt lat="45.979932397596" lon="9.254632795196297"><ele>216.99999999999997</ele><time>2026-04-05T08:25:37.999Z</time></trkpt><trkpt lat="45.980017047254506" lon="9.254670890290283"><ele>217.0</ele><time>2026-04-05T08:25:38.999Z</time></trkpt><trkpt lat="45.98009970672684" lon="9.25471694545963"><ele>215.83333333333331</ele><time>2026-04-05T08:25:39.999Z</time></trkpt><trkpt lat="45.980177088982" lon="9.254767716152038"><ele>214.66666666666666</ele><time>2026-04-05T08:25:40.999Z</time></trkpt><trkpt lat="45.98025537555746" lon="9.25481700732932"><ele>213.5</ele><time>2026-04-05T08:25:41.999Z</time></trkpt><trkpt lat="45.98033034365483" lon="9.254868087967708"><ele>212.33333333333331</ele><time>2026-04-05T08:25:42.999Z</time></trkpt><trkpt lat="45.98040899563414" lon="9.254920685896389"><ele>211.16666666666666</ele><time>2026-04-05T08:25:43.999Z</time></trkpt><trkpt lat="45.98048860652829" lon="9.254976236703687"><ele>210.0</ele><time>2026-04-05T08:25:44.999Z</time></trkpt><trkpt lat="45.9805640192121" lon="9.255040347086343"><ele>209.33333333333334</ele><time>2026-04-05T08:25:45.999Z</time></trkpt><trkpt lat="45.98063966522986" lon="9.255093818803534"><ele>208.66666666666669</ele><time>2026-04-05T08:25:46.999Z</time></trkpt><trkpt lat="45.98071261065796" lon="9.255142928437431"><ele>208.0</ele><time>2026-04-05T08:25:47.998Z</time></trkpt><trkpt lat="45.98078080048893" lon="9.255191445828332"><ele>207.33333333333334</ele><time>2026-04-05T08:25:48.998Z</time></trkpt><trkpt lat="45.98084462024205" lon="9.255235039329003"><ele>206.66666666666669</ele><time>2026-04-05T08:25:49.998Z</time></trkpt><trkpt lat="45.980905298829576" lon="9.255276687521066"><ele>206.0</ele><time>2026-04-05T08:25:50.998Z</time></trkpt><trkpt lat="45.98096876811836" lon="9.255322028141537"><ele>206.00000000000003</ele><time>2026-04-05T08:25:51.998Z</time></trkpt><trkpt lat="45.9810315764978" lon="9.255374030545475"><ele>206.0</ele><time>2026-04-05T08:25:52.998Z</time></trkpt><trkpt lat="45.98110279977085" lon="9.255416569780612"><ele>206.0</ele><time>2026-04-05T08:25:54Z</time></trkpt><trkpt lat="45.98118180077047" lon="9.255468203476838"><ele>206.0</ele><time>2026-04-05T08:25:55Z</time></trkpt><trkpt lat="45.981263743095" lon="9.25553005870191"><ele>206.00000000000003</ele><time>2026-04-05T08:25:56Z</time></trkpt><trkpt lat="45.981346953862776" lon="9.255587784911059"><ele>206.0</ele><time>2026-04-05T08:25:57Z</time></trkpt><trkpt lat="45.98142858150324" lon="9.255653578402447"><ele>205.20000000000002</ele><time>2026-04-05T08:25:58Z</time></trkpt><trkpt lat="45.981506359269815" lon="9.255734641568049"><ele>204.4</ele><time>2026-04-05T08:25:59Z</time></trkpt><trkpt lat="45.981577517931925" lon="9.255820515071614"><ele>203.6</ele><time>2026-04-05T08:26:00Z</time></trkpt><trkpt lat="45.981641716038986" lon="9.255906918385099"><ele>202.8</ele><time>2026-04-05T08:26:01Z</time></trkpt><trkpt lat="45.98170521696763" lon="9.255994966070523"><ele>202.0</ele><time>2026-04-05T08:26:02Z</time></trkpt><trkpt lat="45.981774253601294" lon="9.256070050136177"><ele>201.99999999999997</ele><time>2026-04-05T08:26:03Z</time></trkpt><trkpt lat="45.98184444647667" lon="9.256139178219456"><ele>202.0</ele><time>2026-04-05T08:26:04Z</time></trkpt><trkpt lat="45.98191328285265" lon="9.256202852826362"><ele>202.0</ele><time>2026-04-05T08:26:05Z</time></trkpt><trkpt lat="45.98198791648551" lon="9.25625535364086"><ele>202.0</ele><time>2026-04-05T08:26:06Z</time></trkpt><trkpt lat="45.982068146202224" lon="9.256289355378614"><ele>201.99999999999997</ele><time>2026-04-05T08:26:07Z</time></trkpt><trkpt lat="45.982149879489704" lon="9.25631597995219"><ele>202.0</ele><time>2026-04-05T08:26:08Z</time></trkpt><trkpt lat="45.98223081700944" lon="9.256333360305133"><ele>202.0</ele><time>2026-04-05T08:26:09Z</time></trkpt><trkpt lat="45.98231698844858" lon="9.25633939415285"><ele>202.0</ele><time>2026-04-05T08:26:10Z</time></trkpt><trkpt lat="45.98240806419894" lon="9.25635833724504"><ele>202.0</ele><time>2026-04-05T08:26:11Z</time></trkpt><trkpt lat="45.98249885294765" lon="9.256404272595413"><ele>202.0</ele><time>2026-04-05T08:26:12Z</time></trkpt><trkpt lat="45.98257853547262" lon="9.256476035917318"><ele>202.0</ele><time>2026-04-05T08:26:13Z</time></trkpt><trkpt lat="45.982652167306135" lon="9.256557975233267"><ele>201.66666666666666</ele><time>2026-04-05T08:26:14Z</time></trkpt><trkpt lat="45.982718257509084" lon="9.256646599347969"><ele>201.33333333333331</ele><time>2026-04-05T08:26:15Z</time></trkpt><trkpt lat="45.982781330127345" lon="9.256733000937544"><ele>201.0</ele><time>2026-04-05T08:26:15.999Z</time></trkpt><trkpt lat="45.98284259122633" lon="9.256814093659278"><ele>200.66666666666669</ele><time>2026-04-05T08:26:16.999Z</time></trkpt><trkpt lat="45.98290326516391" lon="9.256894411030395"><ele>200.33333333333334</ele><time>2026-04-05T08:26:17.999Z</time></trkpt><trkpt lat="45.98296423670285" lon="9.256969099837814"><ele>200.0</ele><time>2026-04-05T08:26:18.999Z</time></trkpt><trkpt lat="45.98302001955865" lon="9.257041172504143"><ele>200.00000000000003</ele><time>2026-04-05T08:26:19.999Z</time></trkpt><trkpt lat="45.9830720495202" lon="9.257115883705385"><ele>200.0</ele><time>2026-04-05T08:26:20.999Z</time></trkpt><trkpt lat="45.9831264674089" lon="9.25719033340819"><ele>200.0</ele><time>2026-04-05T08:26:21.999Z</time></trkpt><trkpt lat="45.98318299503433" lon="9.257263598188475"><ele>200.0</ele><time>2026-04-05T08:26:22.999Z</time></trkpt><trkpt lat="45.98323628363378" lon="9.257344231124879"><ele>200.00000000000003</ele><time>2026-04-05T08:26:23.999Z</time></trkpt><trkpt lat="45.98328622494939" lon="9.257421505184993"><ele>200.0</ele><time>2026-04-05T08:26:24.999Z</time></trkpt><trkpt lat="45.98334221176857" lon="9.257495384847193"><ele>200.16666666666669</ele><time>2026-04-05T08:26:25.999Z</time></trkpt><trkpt lat="45.983398994195035" lon="9.257570634446262"><ele>200.33333333333334</ele><time>2026-04-05T08:26:26.999Z</time></trkpt><trkpt lat="45.98345161276597" lon="9.257648420190614"><ele>200.5</ele><time>2026-04-05T08:26:27.999Z</time></trkpt><trkpt lat="45.98350567563709" lon="9.257730889574113"><ele>200.66666666666669</ele><time>2026-04-05T08:26:28.999Z</time></trkpt><trkpt lat="45.98355788480856" lon="9.257814973138876"><ele>200.83333333333334</ele><time>2026-04-05T08:26:29.999Z</time></trkpt><trkpt lat="45.98361675812817" lon="9.257893185169241"><ele>201.0</ele><time>2026-04-05T08:26:30.999Z</time></trkpt><trkpt lat="45.983665356654775" lon="9.25797551279167"><ele>201.0</ele><time>2026-04-05T08:26:31.999Z</time></trkpt><trkpt lat="45.9837160383435" lon="9.258048892975102"><ele>201.0</ele><time>2026-04-05T08:26:32.999Z</time></trkpt><trkpt lat="45.9837701169892" lon="9.25811695951611"><ele>201.0</ele><time>2026-04-05T08:26:33.999Z</time></trkpt><trkpt lat="45.98383388127922" lon="9.258172102105156"><ele>201.0</ele><time>2026-04-05T08:26:34.999Z</time></trkpt><trkpt lat="45.98390176164146" lon="9.258212677302533"><ele>201.0</ele><time>2026-04-05T08:26:35.999Z</time></trkpt><trkpt lat="45.98397226513733" lon="9.258247945214723"><ele>201.0</ele><time>2026-04-05T08:26:36.999Z</time></trkpt><trkpt lat="45.984042945351014" lon="9.258280746406415"><ele>201.0</ele><time>2026-04-05T08:26:37.999Z</time></trkpt><trkpt lat="45.984113273254586" lon="9.258307812590147"><ele>200.85714285714286</ele><time>2026-04-05T08:26:38.999Z</time></trkpt><trkpt lat="45.98418685132543" lon="9.258339622418784"><ele>200.71428571428572</ele><time>2026-04-05T08:26:39.999Z</time></trkpt><trkpt lat="45.98425818704419" lon="9.258379657052162"><ele>200.57142857142858</ele><time>2026-04-05T08:26:40.999Z</time></trkpt><trkpt lat="45.98432809541315" lon="9.258424818994916"><ele>200.42857142857144</ele><time>2026-04-05T08:26:41.999Z</time></trkpt><trkpt lat="45.98439595719242" lon="9.25847088674969"><ele>200.28571428571428</ele><time>2026-04-05T08:26:42.999Z</time></trkpt><trkpt lat="45.984457784019035" lon="9.258525194519768"><ele>200.14285714285717</ele><time>2026-04-05T08:26:43.999Z</time></trkpt><trkpt lat="45.98450861736857" lon="9.258581595271473"><ele>200.0</ele><time>2026-04-05T08:26:44.999Z</time></trkpt><trkpt lat="45.984582755867066" lon="9.25868599808284"><ele>200.00000000000003</ele><time>2026-04-05T08:26:46.999Z</time></trkpt><trkpt lat="45.98464156045868" lon="9.25877098600195"><ele>200.0</ele><time>2026-04-05T08:26:48.999Z</time></trkpt><trkpt lat="45.984702012576186" lon="9.258853970903916"><ele>200.0</ele><time>2026-04-05T08:26:50.999Z</time></trkpt><trkpt lat="45.98476125086687" lon="9.258941044546406"><ele>200.0</ele><time>2026-04-05T08:26:52.999Z</time></trkpt><trkpt lat="45.984820315780716" lon="9.259029033161832"><ele>200.00000000000003</ele><time>2026-04-05T08:26:54.999Z</time></trkpt><trkpt lat="45.984874993189344" lon="9.259110455532625"><ele>200.0</ele><time>2026-04-05T08:26:56.999Z</time></trkpt><trkpt lat="45.98492116966353" lon="9.259188506048762"><ele>199.85714285714286</ele><time>2026-04-05T08:26:58.999Z</time></trkpt><trkpt lat="45.9849540598031" lon="9.259272084750771"><ele>199.71428571428572</ele><time>2026-04-05T08:27:00.999Z</time></trkpt><trkpt lat="45.9849906891304" lon="9.259346839309936"><ele>199.57142857142856</ele><time>2026-04-05T08:27:03.999Z</time></trkpt><trkpt lat="45.98504651009734" lon="9.259389219263035"><ele>199.42857142857144</ele><time>2026-04-05T08:27:52.998Z</time></trkpt><trkpt lat="45.985094165780154" lon="9.259448781154942"><ele>199.28571428571428</ele><time>2026-04-05T08:27:55.998Z</time></trkpt><trkpt lat="45.985142980215855" lon="9.259524327401762"><ele>199.14285714285714</ele><time>2026-04-05T08:27:58.998Z</time></trkpt><trkpt lat="45.98519744522496" lon="9.25960885233419"><ele>199.0</ele><time>2026-04-05T08:28:02Z</time></trkpt><trkpt lat="45.985261091765025" lon="9.259698744824817"><ele>199.2</ele><time>2026-04-05T08:28:05Z</time></trkpt><trkpt lat="45.98531981961001" lon="9.25978722428692"><ele>199.39999999999998</ele><time>2026-04-05T08:28:08.001Z</time></trkpt><trkpt lat="45.98535022432061" lon="9.259900527767687"><ele>199.6</ele><time>2026-04-05T08:28:11.001Z</time></trkpt><trkpt lat="45.985354204017376" lon="9.260016928701091"><ele>199.8</ele><time>2026-04-05T08:28:30Z</time></trkpt><trkpt lat="45.98529602175913" lon="9.260144499913514"><ele>200.0</ele><time>2026-04-05T08:28:32Z</time></trkpt><trkpt lat="45.9852294899632" lon="9.260245177528502"><ele>200.00000000000003</ele><time>2026-04-05T08:28:34Z</time></trkpt><trkpt lat="45.98520413424465" lon="9.260376123721919"><ele>200.0</ele><time>2026-04-05T08:28:36Z</time></trkpt><trkpt lat="45.98525810911181" lon="9.260482293760717"><ele>200.0</ele><time>2026-04-05T08:28:38Z</time></trkpt><trkpt lat="45.98530746279332" lon="9.260542111573727"><ele>200.0</ele><time>2026-04-05T08:28:40Z</time></trkpt><trkpt lat="45.98531177043698" lon="9.260639715632328"><ele>200.00000000000003</ele><time>2026-04-05T08:28:42Z</time></trkpt><trkpt lat="45.98525306163179" lon="9.26071697585665"><ele>200.0</ele><time>2026-04-05T08:28:44Z</time></trkpt><trkpt lat="45.98516705844622" lon="9.260701189498846"><ele>201.6</ele><time>2026-04-05T08:28:46Z</time></trkpt><trkpt lat="45.985088047235465" lon="9.260628727794842"><ele>203.2</ele><time>2026-04-05T08:28:48Z</time></trkpt><trkpt lat="45.985003128927545" lon="9.260572278536062"><ele>204.8</ele><time>2026-04-05T08:28:50Z</time></trkpt><trkpt lat="45.98490978813674" lon="9.260511132311766"><ele>206.4</ele><time>2026-04-05T08:28:52Z</time></trkpt><trkpt lat="45.98481811290877" lon="9.26042306119458"><ele>208.0</ele><time>2026-04-05T08:28:54Z</time></trkpt><trkpt lat="45.984741572960985" lon="9.26033740639699"><ele>208.66666666666666</ele><time>2026-04-05T08:28:56Z</time></trkpt><trkpt lat="45.9846715860075" lon="9.260246301580079"><ele>209.33333333333331</ele><time>2026-04-05T08:28:58Z</time></trkpt><trkpt lat="45.984609032768276" lon="9.260157871314025"><ele>210.0</ele><time>2026-04-05T08:29:00Z</time></trkpt><trkpt lat="45.984549115006736" lon="9.260064537201288"><ele>210.66666666666669</ele><time>2026-04-05T08:29:02Z</time></trkpt><trkpt lat="45.984491105617096" lon="9.25999585935842"><ele>211.33333333333334</ele><time>2026-04-05T08:29:04Z</time></trkpt><trkpt lat="45.98441838970387" lon="9.259971158930822"><ele>212.0</ele><time>2026-04-05T08:29:06Z</time></trkpt><trkpt lat="45.98435900531862" lon="9.260032984314943"><ele>212.00000000000003</ele><time>2026-04-05T08:29:08Z</time></trkpt><trkpt lat="45.98434812714122" lon="9.260156537986868"><ele>212.0</ele><time>2026-04-05T08:29:10Z</time></trkpt><trkpt lat="45.98433530471135" lon="9.260284727603592"><ele>212.0</ele><time>2026-04-05T08:29:12Z</time></trkpt><trkpt lat="45.98432350494624" lon="9.260380419040954"><ele>212.0</ele><time>2026-04-05T08:29:14Z</time></trkpt><trkpt lat="45.98432491667001" lon="9.260484979245975"><ele>212.00000000000003</ele><time>2026-04-05T08:29:17Z</time></trkpt><trkpt lat="45.984345813320544" lon="9.260615251091046"><ele>212.0</ele><time>2026-04-05T08:29:21Z</time></trkpt><trkpt lat="45.98437176304543" lon="9.260742019987289"><ele>213.39999999999998</ele><time>2026-04-05T08:29:23Z</time></trkpt><trkpt lat="45.98441429242157" lon="9.260909801370413"><ele>214.79999999999998</ele><time>2026-04-05T08:29:25Z</time></trkpt><trkpt lat="45.98443620838586" lon="9.261006492718792"><ele>216.2</ele><time>2026-04-05T08:29:26Z</time></trkpt><trkpt lat="45.984463348297766" lon="9.26109803547117"><ele>217.6</ele><time>2026-04-05T08:29:27Z</time></trkpt><trkpt lat="45.98451837698256" lon="9.26125760129121"><ele>219.0</ele><time>2026-04-05T08:29:29Z</time></trkpt><trkpt lat="45.98458095400726" lon="9.26139263939597"><ele>221.2</ele><time>2026-04-05T08:29:31Z</time></trkpt><trkpt lat="45.984639656562884" lon="9.261498994162007"><ele>223.39999999999998</ele><time>2026-04-05T08:29:33Z</time></trkpt><trkpt lat="45.98470066936697" lon="9.261583815652084"><ele>225.6</ele><time>2026-04-05T08:29:35Z</time></trkpt><trkpt lat="45.984778471715785" lon="9.261659711348731"><ele>227.8</ele><time>2026-04-05T08:29:37Z</time></trkpt><trkpt lat="45.9848622204688" lon="9.261719146834402"><ele>230.0</ele><time>2026-04-05T08:29:39Z</time></trkpt><trkpt lat="45.984968950576146" lon="9.261779623437935"><ele>228.66666666666669</ele><time>2026-04-05T08:29:41Z</time></trkpt><trkpt lat="45.985032974516564" lon="9.261820381397786"><ele>227.33333333333334</ele><time>2026-04-05T08:29:42Z</time></trkpt><trkpt lat="45.98510852653095" lon="9.261870940867448"><ele>226.0</ele><time>2026-04-05T08:29:44Z</time></trkpt><trkpt lat="45.98517749197364" lon="9.261921405707458"><ele>224.66666666666669</ele><time>2026-04-05T08:29:46.999Z</time></trkpt><trkpt lat="45.985230497099515" lon="9.262017991501875"><ele>223.33333333333334</ele><time>2026-04-05T08:29:48.999Z</time></trkpt><trkpt lat="45.985228850568454" lon="9.26216081309133"><ele>222.0</ele><time>2026-04-05T08:29:50.999Z</time></trkpt><trkpt lat="45.98517219427545" lon="9.262264699771158"><ele>222.0</ele><time>2026-04-05T08:29:52.999Z</time></trkpt><trkpt lat="45.985077160736175" lon="9.262266584478477"><ele>222.0</ele><time>2026-04-05T08:29:54.999Z</time></trkpt><trkpt lat="45.984990531680175" lon="9.262221026424859"><ele>222.0</ele><time>2026-04-05T08:29:56.999Z</time></trkpt><trkpt lat="45.984909326554295" lon="9.262164354710233"><ele>222.0</ele><time>2026-04-05T08:29:58.999Z</time></trkpt><trkpt lat="45.984837025811736" lon="9.262124005935389"><ele>222.0</ele><time>2026-04-05T08:30:00.999Z</time></trkpt><trkpt lat="45.98476942241291" lon="9.262081012158976"><ele>222.0</ele><time>2026-04-05T08:30:02.999Z</time></trkpt><trkpt lat="45.984692820382705" lon="9.262039141195874"><ele>223.33333333333334</ele><time>2026-04-05T08:30:04.999Z</time></trkpt><trkpt lat="45.98459747126478" lon="9.261991518188706"><ele>224.66666666666669</ele><time>2026-04-05T08:30:07Z</time></trkpt><trkpt lat="45.98449797976449" lon="9.261932650034426"><ele>226.0</ele><time>2026-04-05T08:30:09Z</time></trkpt><trkpt lat="45.98443199204645" lon="9.26187354340439"><ele>227.33333333333334</ele><time>2026-04-05T08:30:11Z</time></trkpt><trkpt lat="45.98437795559425" lon="9.261811354666797"><ele>228.66666666666669</ele><time>2026-04-05T08:30:14Z</time></trkpt><trkpt lat="45.984310305202214" lon="9.261745156211619"><ele>230.0</ele><time>2026-04-05T08:30:17Z</time></trkpt><trkpt lat="45.98425190514639" lon="9.261688598833315"><ele>232.2</ele><time>2026-04-05T08:30:20Z</time></trkpt><trkpt lat="45.984174388485286" lon="9.261633328708818"><ele>234.4</ele><time>2026-04-05T08:30:22Z</time></trkpt><trkpt lat="45.984064669265074" lon="9.261612098034018"><ele>236.60000000000002</ele><time>2026-04-05T08:30:24Z</time></trkpt><trkpt lat="45.983959479152276" lon="9.26162807645446"><ele>238.8</ele><time>2026-04-05T08:30:26Z</time></trkpt><trkpt lat="45.98388094964909" lon="9.261656902854114"><ele>241.0</ele><time>2026-04-05T08:30:28Z</time></trkpt><trkpt lat="45.983812961213765" lon="9.261683447360749"><ele>241.0</ele><time>2026-04-05T08:30:30Z</time></trkpt><trkpt lat="45.98373956073411" lon="9.26171191243388"><ele>241.00000000000003</ele><time>2026-04-05T08:30:32Z</time></trkpt><trkpt lat="45.98366010853923" lon="9.261751240088438"><ele>241.00000000000003</ele><time>2026-04-05T08:30:34Z</time></trkpt><trkpt lat="45.9835653421937" lon="9.261766692116442"><ele>241.0</ele><time>2026-04-05T08:30:36Z</time></trkpt><trkpt lat="45.98345727581735" lon="9.261764646450795"><ele>241.0</ele><time>2026-04-05T08:30:38Z</time></trkpt><trkpt lat="45.983357496762174" lon="9.261743959999933"><ele>241.4</ele><time>2026-04-05T08:30:40Z</time></trkpt><trkpt lat="45.98325415682441" lon="9.261710642202692"><ele>241.8</ele><time>2026-04-05T08:30:42Z</time></trkpt><trkpt lat="45.98315294893364" lon="9.261674761939302"><ele>242.20000000000002</ele><time>2026-04-05T08:30:44Z</time></trkpt><trkpt lat="45.98305771445238" lon="9.261636481759577"><ele>242.60000000000002</ele><time>2026-04-05T08:30:46Z</time></trkpt><trkpt lat="45.98295432128942" lon="9.261599107095172"><ele>243.0</ele><time>2026-04-05T08:30:48Z</time></trkpt><trkpt lat="45.98289274061179" lon="9.261576104825311"><ele>243.0</ele><time>2026-04-05T08:30:49Z</time></trkpt><trkpt lat="45.98282729360089" lon="9.26155234548893"><ele>243.0</ele><time>2026-04-05T08:30:50Z</time></trkpt><trkpt lat="45.9827568929616" lon="9.26153910421338"><ele>243.0</ele><time>2026-04-05T08:30:51Z</time></trkpt><trkpt lat="45.98268643372979" lon="9.26152850103496"><ele>243.0</ele><time>2026-04-05T08:30:52Z</time></trkpt><trkpt lat="45.98261983771524" lon="9.26153371370707"><ele>243.0</ele><time>2026-04-05T08:30:53Z</time></trkpt><trkpt lat="45.9825118677948" lon="9.261528914205805"><ele>243.0</ele><time>2026-04-05T08:30:55Z</time></trkpt><trkpt lat="45.98242485733303" lon="9.261530914596012"><ele>242.75</ele><time>2026-04-05T08:30:57Z</time></trkpt><trkpt lat="45.98232487659791" lon="9.261527926879317"><ele>242.5</ele><time>2026-04-05T08:30:59Z</time></trkpt><trkpt lat="45.98220608295695" lon="9.261522889904827"><ele>242.25</ele><time>2026-04-05T08:31:01Z</time></trkpt><trkpt lat="45.982084474943676" lon="9.261523552857744"><ele>242.0</ele><time>2026-04-05T08:31:03Z</time></trkpt><trkpt lat="45.9819706330654" lon="9.261510013562125"><ele>242.0</ele><time>2026-04-05T08:31:05Z</time></trkpt><trkpt lat="45.98187469736411" lon="9.261465581627236"><ele>242.0</ele><time>2026-04-05T08:31:07Z</time></trkpt><trkpt lat="45.981778793632174" lon="9.26140566826152"><ele>242.0</ele><time>2026-04-05T08:31:09Z</time></trkpt><trkpt lat="45.98169870103893" lon="9.26134702596069"><ele>242.0</ele><time>2026-04-05T08:31:11Z</time></trkpt><trkpt lat="45.981630915249326" lon="9.26129679596304"><ele>242.0</ele><time>2026-04-05T08:31:13Z</time></trkpt><trkpt lat="45.98154932921454" lon="9.261263298538843"><ele>241.2</ele><time>2026-04-05T08:31:15Z</time></trkpt><trkpt lat="45.98148644554972" lon="9.261237103145973"><ele>240.39999999999998</ele><time>2026-04-05T08:31:16Z</time></trkpt><trkpt lat="45.98140792793471" lon="9.261298316703709"><ele>239.60000000000002</ele><time>2026-04-05T08:31:17Z</time></trkpt><trkpt lat="45.98128832899769" lon="9.261380408980635"><ele>238.8</ele><time>2026-04-05T08:31:18Z</time></trkpt><trkpt lat="45.98113709483076" lon="9.261452148257078"><ele>238.0</ele><time>2026-04-05T08:31:19Z</time></trkpt><trkpt lat="45.981002262394775" lon="9.26151278129723"><ele>238.0</ele><time>2026-04-05T08:31:20Z</time></trkpt><trkpt lat="45.98088958618814" lon="9.261587342425269"><ele>238.0</ele><time>2026-04-05T08:31:21Z</time></trkpt><trkpt lat="45.98079411688" lon="9.261633919388716"><ele>238.0</ele><time>2026-04-05T08:31:22Z</time></trkpt><trkpt lat="45.98070673056921" lon="9.261675301170037"><ele>238.0</ele><time>2026-04-05T08:31:23Z</time></trkpt><trkpt lat="45.980619973976125" lon="9.26171412125036"><ele>238.0</ele><time>2026-04-05T08:31:24Z</time></trkpt><trkpt lat="45.980533964486746" lon="9.261749924467306"><ele>239.0</ele><time>2026-04-05T08:31:25Z</time></trkpt><trkpt lat="45.98044610672773" lon="9.26179573476728"><ele>240.0</ele><time>2026-04-05T08:31:26Z</time></trkpt><trkpt lat="45.98035979200526" lon="9.261841097690198"><ele>241.0</ele><time>2026-04-05T08:31:27Z</time></trkpt><trkpt lat="45.98027700576334" lon="9.261894466727128"><ele>242.0</ele><time>2026-04-05T08:31:28Z</time></trkpt><trkpt lat="45.98019580159554" lon="9.261954834182827"><ele>243.0</ele><time>2026-04-05T08:31:29Z</time></trkpt><trkpt lat="45.98011313198754" lon="9.262024643277615"><ele>243.0</ele><time>2026-04-05T08:31:30Z</time></trkpt><trkpt lat="45.98002749006446" lon="9.262099533778013"><ele>243.0</ele><time>2026-04-05T08:31:31Z</time></trkpt><trkpt lat="45.979940422178444" lon="9.262173423607784"><ele>243.0</ele><time>2026-04-05T08:31:32Z</time></trkpt><trkpt lat="45.97985021352837" lon="9.26224720949682"><ele>243.0</ele><time>2026-04-05T08:31:33Z</time></trkpt><trkpt lat="45.9797601736514" lon="9.262321710558297"><ele>243.0</ele><time>2026-04-05T08:31:34Z</time></trkpt><trkpt lat="45.979670492796586" lon="9.262391746892346"><ele>242.0</ele><time>2026-04-05T08:31:35Z</time></trkpt><trkpt lat="45.979584952540016" lon="9.262454198216426"><ele>241.0</ele><time>2026-04-05T08:31:36Z</time></trkpt><trkpt lat="45.979499668419656" lon="9.262514266546773"><ele>240.0</ele><time>2026-04-05T08:31:37Z</time></trkpt><trkpt lat="45.9794147311853" lon="9.26257309689448"><ele>239.0</ele><time>2026-04-05T08:31:38Z</time></trkpt><trkpt lat="45.97933168084873" lon="9.262634270523764"><ele>238.0</ele><time>2026-04-05T08:31:39Z</time></trkpt><trkpt lat="45.97924803391171" lon="9.262696635400843"><ele>239.2</ele><time>2026-04-05T08:31:40Z</time></trkpt><trkpt lat="45.979164019605626" lon="9.262756774216689"><ele>240.4</ele><time>2026-04-05T08:31:41Z</time></trkpt><trkpt lat="45.97907608831874" lon="9.26279753656947"><ele>241.59999999999997</ele><time>2026-04-05T08:31:42Z</time></trkpt><trkpt lat="45.97898251007215" lon="9.262822243706474"><ele>242.79999999999998</ele><time>2026-04-05T08:31:43Z</time></trkpt><trkpt lat="45.97888669894256" lon="9.262832785888572"><ele>244.0</ele><time>2026-04-05T08:31:44Z</time></trkpt><trkpt lat="45.978788452882974" lon="9.262825118220741"><ele>244.0</ele><time>2026-04-05T08:31:45Z</time></trkpt><trkpt lat="45.97869375945552" lon="9.262811167818287"><ele>243.99999999999997</ele><time>2026-04-05T08:31:46Z</time></trkpt><trkpt lat="45.97859807707856" lon="9.26279184738234"><ele>243.99999999999997</ele><time>2026-04-05T08:31:46.999Z</time></trkpt><trkpt lat="45.97850076379393" lon="9.262776397831265"><ele>244.0</ele><time>2026-04-05T08:31:47.999Z</time></trkpt><trkpt lat="45.978398155388334" lon="9.262756383340381"><ele>244.0</ele><time>2026-04-05T08:31:48.999Z</time></trkpt><trkpt lat="45.97829339767527" lon="9.262735696489893"><ele>243.2</ele><time>2026-04-05T08:31:49.999Z</time></trkpt><trkpt lat="45.9781906215707" lon="9.262716138509145"><ele>242.39999999999998</ele><time>2026-04-05T08:31:50.999Z</time></trkpt><trkpt lat="45.978088490448506" lon="9.262697101735911"><ele>241.6</ele><time>2026-04-05T08:31:51.999Z</time></trkpt><trkpt lat="45.97798488389966" lon="9.26267910030317"><ele>240.8</ele><time>2026-04-05T08:31:52.999Z</time></trkpt><trkpt lat="45.97788571676607" lon="9.26266231273899"><ele>240.0</ele><time>2026-04-05T08:31:53.999Z</time></trkpt><trkpt lat="45.977799354161256" lon="9.262644192334077"><ele>240.0</ele><time>2026-04-05T08:31:54.999Z</time></trkpt><trkpt lat="45.9777215826595" lon="9.262625436101104"><ele>240.0</ele><time>2026-04-05T08:31:55.999Z</time></trkpt><trkpt lat="45.97765217253344" lon="9.262610273396657"><ele>240.0</ele><time>2026-04-05T08:31:56.999Z</time></trkpt><trkpt lat="45.977588974746524" lon="9.262598379535925"><ele>240.0</ele><time>2026-04-05T08:31:57.999Z</time></trkpt><trkpt lat="45.97748213498432" lon="9.262573529599624"><ele>240.0</ele><time>2026-04-05T08:31:59.999Z</time></trkpt><trkpt lat="45.97740256635423" lon="9.262548147433689"><ele>240.0</ele><time>2026-04-05T08:32:01.999Z</time></trkpt><trkpt lat="45.97730146640924" lon="9.262528412308026"><ele>239.16666666666666</ele><time>2026-04-05T08:32:03.999Z</time></trkpt><trkpt lat="45.9772311482594" lon="9.262517700314254"><ele>238.33333333333331</ele><time>2026-04-05T08:32:04.999Z</time></trkpt><trkpt lat="45.97714851985177" lon="9.262513408661748"><ele>237.5</ele><time>2026-04-05T08:32:05.999Z</time></trkpt><trkpt lat="45.97706284278571" lon="9.262502110428937"><ele>236.66666666666666</ele><time>2026-04-05T08:32:06.999Z</time></trkpt><trkpt lat="45.97696990226612" lon="9.262485738712012"><ele>235.83333333333331</ele><time>2026-04-05T08:32:07.999Z</time></trkpt><trkpt lat="45.97687391855142" lon="9.26246341643397"><ele>235.0</ele><time>2026-04-05T08:32:08.999Z</time></trkpt><trkpt lat="45.97677343055664" lon="9.262441609620149"><ele>234.75</ele><time>2026-04-05T08:32:09.999Z</time></trkpt><trkpt lat="45.97667196272057" lon="9.262418738496343"><ele>234.5</ele><time>2026-04-05T08:32:11Z</time></trkpt><trkpt lat="45.97656495393164" lon="9.26239435707818"><ele>234.25</ele><time>2026-04-05T08:32:12Z</time></trkpt><trkpt lat="45.976450794166475" lon="9.262367209566621"><ele>234.0</ele><time>2026-04-05T08:32:13Z</time></trkpt><trkpt lat="45.9763279496632" lon="9.262337912056774"><ele>234.0</ele><time>2026-04-05T08:32:14Z</time></trkpt><trkpt lat="45.97619892711056" lon="9.262309335999502"><ele>234.0</ele><time>2026-04-05T08:32:15Z</time></trkpt><trkpt lat="45.976058955381696" lon="9.262277351217623"><ele>234.0</ele><time>2026-04-05T08:32:16Z</time></trkpt><trkpt lat="45.97591408356112" lon="9.26225036323911"><ele>234.0</ele><time>2026-04-05T08:32:17Z</time></trkpt><trkpt lat="45.97576953570635" lon="9.262226615760794"><ele>233.75</ele><time>2026-04-05T08:32:18Z</time></trkpt><trkpt lat="45.975625221713294" lon="9.26220436215471"><ele>233.5</ele><time>2026-04-05T08:32:19Z</time></trkpt><trkpt lat="45.97548530371052" lon="9.262172253267014"><ele>233.25</ele><time>2026-04-05T08:32:20Z</time></trkpt><trkpt lat="45.97535131199569" lon="9.262120368604412"><ele>233.0</ele><time>2026-04-05T08:32:21Z</time></trkpt><trkpt lat="45.975225581121045" lon="9.262044428157111"><ele>233.0</ele><time>2026-04-05T08:32:22Z</time></trkpt><trkpt lat="45.97511407417667" lon="9.261932858978097"><ele>233.0</ele><time>2026-04-05T08:32:23Z</time></trkpt><trkpt lat="45.97501269550393" lon="9.261802728891627"><ele>233.0</ele><time>2026-04-05T08:32:24Z</time></trkpt><trkpt lat="45.97491494610242" lon="9.26166942410993"><ele>233.0</ele><time>2026-04-05T08:32:25Z</time></trkpt><trkpt lat="45.974818200347926" lon="9.261544923003349"><ele>235.0</ele><time>2026-04-05T08:32:26Z</time></trkpt><trkpt lat="45.9747147013321" lon="9.261438657238571"><ele>237.0</ele><time>2026-04-05T08:32:27Z</time></trkpt><trkpt lat="45.9745991894562" lon="9.261367614604417"><ele>239.0</ele><time>2026-04-05T08:32:28Z</time></trkpt><trkpt lat="45.97447678755704" lon="9.261306304161367"><ele>241.0</ele><time>2026-04-05T08:32:29Z</time></trkpt><trkpt lat="45.97434626120066" lon="9.261278612852712"><ele>241.0</ele><time>2026-04-05T08:32:30Z</time></trkpt><trkpt lat="45.9742189932506" lon="9.261284782273304"><ele>241.0</ele><time>2026-04-05T08:32:31Z</time></trkpt><trkpt lat="45.97410855143025" lon="9.261283075618923"><ele>241.0</ele><time>2026-04-05T08:32:32Z</time></trkpt><trkpt lat="45.97401639664897" lon="9.261201057332029"><ele>241.0</ele><time>2026-04-05T08:32:33Z</time></trkpt><trkpt lat="45.97395935160608" lon="9.261075374997572"><ele>243.4</ele><time>2026-04-05T08:32:34Z</time></trkpt><trkpt lat="45.973952110825955" lon="9.260926756964714"><ele>245.8</ele><time>2026-04-05T08:32:35Z</time></trkpt><trkpt lat="45.97399525992351" lon="9.260785528484499"><ele>248.20000000000002</ele><time>2026-04-05T08:32:36Z</time></trkpt><trkpt lat="45.974052611112725" lon="9.260651125720022"><ele>250.60000000000002</ele><time>2026-04-05T08:32:37Z</time></trkpt><trkpt lat="45.97410083862756" lon="9.260520078434682"><ele>253.0</ele><time>2026-04-05T08:32:38Z</time></trkpt><trkpt lat="45.974140969704614" lon="9.260400214103065"><ele>254.5714285714286</ele><time>2026-04-05T08:32:39Z</time></trkpt><trkpt lat="45.974176873220586" lon="9.26030085533928"><ele>256.14285714285717</ele><time>2026-04-05T08:32:40Z</time></trkpt><trkpt lat="45.97420104826603" lon="9.260215788627223"><ele>257.7142857142857</ele><time>2026-04-05T08:32:41Z</time></trkpt><trkpt lat="45.974211124981785" lon="9.260124461128678"><ele>259.28571428571433</ele><time>2026-04-05T08:32:42Z</time></trkpt><trkpt lat="45.974185284963426" lon="9.260029493520648"><ele>260.8571428571429</ele><time>2026-04-05T08:32:43Z</time></trkpt><trkpt lat="45.97412361887613" lon="9.259984615669504"><ele>262.42857142857144</ele><time>2026-04-05T08:32:44Z</time></trkpt><trkpt lat="45.97404187560142" lon="9.260009707145686"><ele>264.0</ele><time>2026-04-05T08:32:45Z</time></trkpt><trkpt lat="45.973969204904535" lon="9.260076302240542"><ele>264.0</ele><time>2026-04-05T08:32:46Z</time></trkpt><trkpt lat="45.9739476615288" lon="9.260201649279066"><ele>264.0</ele><time>2026-04-05T08:32:47Z</time></trkpt><trkpt lat="45.97391991965103" lon="9.260308939884194"><ele>264.0</ele><time>2026-04-05T08:32:48Z</time></trkpt><trkpt lat="45.97388775264102" lon="9.260419217841084"><ele>264.0</ele><time>2026-04-05T08:32:49Z</time></trkpt><trkpt lat="45.97385227285302" lon="9.260537150375239"><ele>264.0</ele><time>2026-04-05T08:32:50Z</time></trkpt><trkpt lat="45.9738143804488" lon="9.260654801582165"><ele>264.0</ele><time>2026-04-05T08:32:51Z</time></trkpt><trkpt lat="45.97377097041839" lon="9.260772361099514"><ele>262.1666666666667</ele><time>2026-04-05T08:32:52Z</time></trkpt><trkpt lat="45.97372325254234" lon="9.260879986145612"><ele>260.3333333333333</ele><time>2026-04-05T08:32:53Z</time></trkpt><trkpt lat="45.973667379410266" lon="9.26097316644495"><ele>258.5</ele><time>2026-04-05T08:32:54Z</time></trkpt><trkpt lat="45.9736039383107" lon="9.261042135371595"><ele>256.66666666666663</ele><time>2026-04-05T08:32:55Z</time></trkpt><trkpt lat="45.973536670082936" lon="9.261094828866787"><ele>254.83333333333331</ele><time>2026-04-05T08:32:56Z</time></trkpt><trkpt lat="45.973468303390504" lon="9.261122891600703"><ele>253.0</ele><time>2026-04-05T08:32:57Z</time></trkpt><trkpt lat="45.9734015403078" lon="9.261131361857881"><ele>255.83333333333331</ele><time>2026-04-05T08:32:58Z</time></trkpt><trkpt lat="45.97333224505995" lon="9.261130705753365"><ele>258.66666666666663</ele><time>2026-04-05T08:32:59Z</time></trkpt><trkpt lat="45.973262856586345" lon="9.261109395186306"><ele>261.5</ele><time>2026-04-05T08:33:00Z</time></trkpt><trkpt lat="45.97319010957349" lon="9.261071927050034"><ele>264.3333333333333</ele><time>2026-04-05T08:33:01Z</time></trkpt><trkpt lat="45.9731180968493" lon="9.261020263255169"><ele>267.1666666666667</ele><time>2026-04-05T08:33:02Z</time></trkpt><trkpt lat="45.973064951331736" lon="9.26092614728715"><ele>270.0</ele><time>2026-04-05T08:33:03Z</time></trkpt><trkpt lat="45.97300095099621" lon="9.260861408302231"><ele>270.0</ele><time>2026-04-05T08:33:04Z</time></trkpt><trkpt lat="45.972955067422554" lon="9.260776270713535"><ele>270.0</ele><time>2026-04-05T08:33:05Z</time></trkpt><trkpt lat="45.972905464780816" lon="9.260695442555958"><ele>270.0</ele><time>2026-04-05T08:33:06Z</time></trkpt><trkpt lat="45.97284630850564" lon="9.260623460987494"><ele>270.0</ele><time>2026-04-05T08:33:07Z</time></trkpt><trkpt lat="45.97277695378386" lon="9.260564006883515"><ele>270.0</ele><time>2026-04-05T08:33:08Z</time></trkpt><trkpt lat="45.97271267927375" lon="9.260519152493533"><ele>270.0</ele><time>2026-04-05T08:33:09Z</time></trkpt><trkpt lat="45.972633228367634" lon="9.260460727093728"><ele>271.5</ele><time>2026-04-05T08:33:11Z</time></trkpt><trkpt lat="45.97257802470406" lon="9.260407439167958"><ele>273.0</ele><time>2026-04-05T08:33:16Z</time></trkpt><trkpt lat="45.97249780881562" lon="9.260357265738861"><ele>274.5</ele><time>2026-04-05T08:33:18Z</time></trkpt><trkpt lat="45.97240674313073" lon="9.260393261695409"><ele>276.0</ele><time>2026-04-05T08:33:20Z</time></trkpt><trkpt lat="45.97238865067683" lon="9.260483946112135"><ele>277.5</ele><time>2026-04-05T08:33:21Z</time></trkpt><trkpt lat="45.97241937919171" lon="9.260578557481121"><ele>279.0</ele><time>2026-04-05T08:33:22Z</time></trkpt><trkpt lat="45.972489563780194" lon="9.260656863560826"><ele>277.5</ele><time>2026-04-05T08:33:23Z</time></trkpt><trkpt lat="45.97256569484182" lon="9.260714336434674"><ele>276.0</ele><time>2026-04-05T08:33:24Z</time></trkpt><trkpt lat="45.97264656038468" lon="9.26074759834995"><ele>274.5</ele><time>2026-04-05T08:33:25Z</time></trkpt><trkpt lat="45.972704706500785" lon="9.2607881737748"><ele>273.0</ele><time>2026-04-05T08:33:26Z</time></trkpt><trkpt lat="45.97274649089933" lon="9.260926746593526"><ele>271.5</ele><time>2026-04-05T08:33:28Z</time></trkpt><trkpt lat="45.97273271952435" lon="9.261016720264774"><ele>270.0</ele><time>2026-04-05T08:33:29Z</time></trkpt><trkpt lat="45.97271270685301" lon="9.261146154964866"><ele>270.0</ele><time>2026-04-05T08:33:30Z</time></trkpt><trkpt lat="45.9726827744177" lon="9.261286005241155"><ele>270.0</ele><time>2026-04-05T08:33:31Z</time></trkpt><trkpt lat="45.972641031408166" lon="9.261399124100047"><ele>270.0</ele><time>2026-04-05T08:33:32Z</time></trkpt><trkpt lat="45.97258834076634" lon="9.261486696842171"><ele>270.0</ele><time>2026-04-05T08:33:33Z</time></trkpt><trkpt lat="45.97254853947431" lon="9.26158399766822"><ele>270.0</ele><time>2026-04-05T08:33:34Z</time></trkpt><trkpt lat="45.97253929658149" lon="9.261704350612336"><ele>270.0</ele><time>2026-04-05T08:33:35Z</time></trkpt><trkpt lat="45.972546405103074" lon="9.26183312416624"><ele>270.8333333333333</ele><time>2026-04-05T08:33:36Z</time></trkpt><trkpt lat="45.972552001128605" lon="9.261964649944106"><ele>271.6666666666667</ele><time>2026-04-05T08:33:37Z</time></trkpt><trkpt lat="45.972557887046975" lon="9.262090350915328"><ele>272.5</ele><time>2026-04-05T08:33:38Z</time></trkpt><trkpt lat="45.9725607953762" lon="9.262213675188232"><ele>273.33333333333337</ele><time>2026-04-05T08:33:39Z</time></trkpt><trkpt lat="45.972563876311305" lon="9.262321182210423"><ele>274.1666666666667</ele><time>2026-04-05T08:33:40Z</time></trkpt><trkpt lat="45.972563698410745" lon="9.262413120940398"><ele>275.0</ele><time>2026-04-05T08:33:41Z</time></trkpt><trkpt lat="45.97255813656392" lon="9.262503636867121"><ele>275.0</ele><time>2026-04-05T08:33:42Z</time></trkpt><trkpt lat="45.97254680155364" lon="9.262639067212719"><ele>275.0</ele><time>2026-04-05T08:33:43.999Z</time></trkpt><trkpt lat="45.972516520341905" lon="9.262736693705753"><ele>275.0</ele><time>2026-04-05T08:33:46.999Z</time></trkpt><trkpt lat="45.97259806699193" lon="9.262715368164045"><ele>275.0</ele><time>2026-04-05T08:33:50.999Z</time></trkpt><trkpt lat="45.97255122519848" lon="9.262776125578513"><ele>275.0</ele><time>2026-04-05T08:38:19.999Z</time></trkpt><trkpt lat="45.97249954459134" lon="9.262686363371513"><ele>275.0</ele><time>2026-04-05T08:48:20.999Z</time></trkpt><trkpt lat="45.97250371144969" lon="9.262593172905705"><ele>275.0</ele><time>2026-04-05T08:48:28.999Z</time></trkpt><trkpt lat="45.97250707694149" lon="9.262491896075502"><ele>275.0</ele><time>2026-04-05T08:48:34.999Z</time></trkpt><trkpt lat="45.97254955440895" lon="9.262413330654628"><ele>275.0</ele><time>2026-04-05T08:48:38.069Z</time></trkpt><trkpt lat="45.972515420462045" lon="9.262625272849144"><ele>275.0</ele><time>2026-04-05T08:49:23.807Z</time></trkpt><trkpt lat="45.972552428207436" lon="9.262709196801035"><ele>275.0</ele><time>2026-04-05T09:04:01Z</time></trkpt><trkpt lat="45.97258651922612" lon="9.26281707724"><ele>275.0</ele><time>2026-04-05T09:06:58Z</time></trkpt><trkpt lat="45.97261002091448" lon="9.262711341001223"><ele>275.0</ele><time>2026-04-05T09:07:28Z</time></trkpt><trkpt lat="45.97253003517258" lon="9.262690493513144"><ele>275.0</ele><time>2026-04-05T09:07:41.999Z</time></trkpt><trkpt lat="45.972502129009186" lon="9.2627765364952"><ele>275.0</ele><time>2026-04-05T09:07:42.999Z</time></trkpt><trkpt lat="45.97247608938927" lon="9.262877757473062"><ele>275.0</ele><time>2026-04-05T09:07:43.999Z</time></trkpt><trkpt lat="45.972425322982595" lon="9.262976655112443"><ele>275.0</ele><time>2026-04-05T09:07:44.999Z</time></trkpt><trkpt lat="45.97235689888147" lon="9.263082498043246"><ele>275.0</ele><time>2026-04-05T09:07:45.999Z</time></trkpt><trkpt lat="45.97228134980254" lon="9.263207902606943"><ele>278.0</ele><time>2026-04-05T09:07:46.999Z</time></trkpt><trkpt lat="45.97220835429602" lon="9.263347404023452"><ele>281.0</ele><time>2026-04-05T09:07:47.999Z</time></trkpt><trkpt lat="45.97213465368214" lon="9.263494811519461"><ele>284.0</ele><time>2026-04-05T09:07:48.999Z</time></trkpt><trkpt lat="45.97205796933146" lon="9.263637577190075"><ele>287.0</ele><time>2026-04-05T09:07:49.999Z</time></trkpt><trkpt lat="45.971976572357825" lon="9.263773021933522"><ele>287.0</ele><time>2026-04-05T09:07:50.999Z</time></trkpt><trkpt lat="45.97188899637758" lon="9.263902377855167"><ele>287.0</ele><time>2026-04-05T09:07:51.999Z</time></trkpt><trkpt lat="45.9717969429115" lon="9.264020873517723"><ele>287.0</ele><time>2026-04-05T09:07:52.999Z</time></trkpt><trkpt lat="45.971716060702754" lon="9.2641386862218"><ele>287.0</ele><time>2026-04-05T09:07:53.999Z</time></trkpt><trkpt lat="45.971648514074865" lon="9.264279648521756"><ele>286.75</ele><time>2026-04-05T09:07:54.999Z</time></trkpt><trkpt lat="45.97159682214334" lon="9.264443540464415"><ele>286.5</ele><time>2026-04-05T09:07:55.999Z</time></trkpt><trkpt lat="45.97155612384625" lon="9.264618837100036"><ele>286.25</ele><time>2026-04-05T09:07:56.999Z</time></trkpt><trkpt lat="45.971511592180654" lon="9.264782913824302"><ele>286.0</ele><time>2026-04-05T09:07:57.999Z</time></trkpt><trkpt lat="45.97145815689471" lon="9.264932959386613"><ele>285.8</ele><time>2026-04-05T09:07:58.999Z</time></trkpt><trkpt lat="45.971397873812656" lon="9.265062702007429"><ele>285.6</ele><time>2026-04-05T09:07:59.999Z</time></trkpt><trkpt lat="45.971320727702135" lon="9.265164890568636"><ele>285.4</ele><time>2026-04-05T09:08:00.999Z</time></trkpt><trkpt lat="45.97122469061145" lon="9.265229195385183"><ele>285.2</ele><time>2026-04-05T09:08:02Z</time></trkpt><trkpt lat="45.971120827764565" lon="9.265249078726029"><ele>285.0</ele><time>2026-04-05T09:08:03Z</time></trkpt><trkpt lat="45.97101122636257" lon="9.265229107346016"><ele>285.0</ele><time>2026-04-05T09:08:04Z</time></trkpt><trkpt lat="45.97089540154124" lon="9.265216281638844"><ele>285.0</ele><time>2026-04-05T09:08:05Z</time></trkpt><trkpt lat="45.97078184161701" lon="9.26524723250287"><ele>285.0</ele><time>2026-04-05T09:08:06Z</time></trkpt><trkpt lat="45.9706854931077" lon="9.265325214779"><ele>285.0</ele><time>2026-04-05T09:08:07Z</time></trkpt><trkpt lat="45.97061523856404" lon="9.265448732763796"><ele>282.6</ele><time>2026-04-05T09:08:08Z</time></trkpt><trkpt lat="45.970567146238544" lon="9.265601541964882"><ele>280.2</ele><time>2026-04-05T09:08:09Z</time></trkpt><trkpt lat="45.9705313187992" lon="9.265757653350487"><ele>277.8</ele><time>2026-04-05T09:08:10Z</time></trkpt><trkpt lat="45.970479996386025" lon="9.265889572820162"><ele>275.4</ele><time>2026-04-05T09:08:11Z</time></trkpt><trkpt lat="45.970403075029466" lon="9.265983789771202"><ele>273.0</ele><time>2026-04-05T09:08:12Z</time></trkpt><trkpt lat="45.970289752563886" lon="9.266007497788932"><ele>271.5</ele><time>2026-04-05T09:08:13Z</time></trkpt><trkpt lat="45.97016531188718" lon="9.266041672321261"><ele>270.0</ele><time>2026-04-05T09:08:14Z</time></trkpt><trkpt lat="45.970033811060866" lon="9.266065617201722"><ele>268.5</ele><time>2026-04-05T09:08:15Z</time></trkpt><trkpt lat="45.96989916949322" lon="9.266040819726618"><ele>267.0</ele><time>2026-04-05T09:08:16Z</time></trkpt><trkpt lat="45.969765004282976" lon="9.266006232434437"><ele>267.0</ele><time>2026-04-05T09:08:17Z</time></trkpt><trkpt lat="45.96963790893716" lon="9.265982546941185"><ele>267.0</ele><time>2026-04-05T09:08:18Z</time></trkpt><trkpt lat="45.96951966712047" lon="9.265987700505091"><ele>267.0</ele><time>2026-04-05T09:08:19Z</time></trkpt><trkpt lat="45.96941024133498" lon="9.266055579382908"><ele>267.0</ele><time>2026-04-05T09:08:20Z</time></trkpt><trkpt lat="45.96931950339428" lon="9.26618689159969"><ele>267.0</ele><time>2026-04-05T09:08:21Z</time></trkpt><trkpt lat="45.96923249889926" lon="9.266330658861893"><ele>267.0</ele><time>2026-04-05T09:08:22Z</time></trkpt><trkpt lat="45.969117926921534" lon="9.26641463841717"><ele>267.0</ele><time>2026-04-05T09:08:23Z</time></trkpt><trkpt lat="45.96898643792279" lon="9.266387931473542"><ele>267.0</ele><time>2026-04-05T09:08:24Z</time></trkpt><trkpt lat="45.96886985908003" lon="9.266330070790628"><ele>267.5</ele><time>2026-04-05T09:08:25Z</time></trkpt><trkpt lat="45.9687390029837" lon="9.26625328771288"><ele>268.0</ele><time>2026-04-05T09:08:26Z</time></trkpt><trkpt lat="45.968613140781905" lon="9.266182748918702"><ele>268.5</ele><time>2026-04-05T09:08:27Z</time></trkpt><trkpt lat="45.968492841025046" lon="9.26615794820112"><ele>269.0</ele><time>2026-04-05T09:08:28Z</time></trkpt><trkpt lat="45.96837293516609" lon="9.266221837808994"><ele>271.25</ele><time>2026-04-05T09:08:29Z</time></trkpt><trkpt lat="45.96827186752104" lon="9.266356957611809"><ele>273.5</ele><time>2026-04-05T09:08:30Z</time></trkpt><trkpt lat="45.968216829530526" lon="9.266537521896863"><ele>275.75</ele><time>2026-04-05T09:08:31Z</time></trkpt><trkpt lat="45.968213594695314" lon="9.266733477350028"><ele>278.0</ele><time>2026-04-05T09:08:32Z</time></trkpt><trkpt lat="45.96819934458815" lon="9.266898397276012"><ele>273.4</ele><time>2026-04-05T09:08:33Z</time></trkpt><trkpt lat="45.96815124952202" lon="9.267027558482527"><ele>268.8</ele><time>2026-04-05T09:08:34Z</time></trkpt><trkpt lat="45.968064078195525" lon="9.267093021540289"><ele>264.2</ele><time>2026-04-05T09:08:35Z</time></trkpt><trkpt lat="45.96797156112853" lon="9.267138516380582"><ele>259.6</ele><time>2026-04-05T09:08:36Z</time></trkpt><trkpt lat="45.967891084071084" lon="9.267199210758875"><ele>255.0</ele><time>2026-04-05T09:08:37Z</time></trkpt><trkpt lat="45.96779818076321" lon="9.26723298701638"><ele>255.0</ele><time>2026-04-05T09:08:38Z</time></trkpt><trkpt lat="45.9677004346408" lon="9.267272282914838"><ele>255.0</ele><time>2026-04-05T09:08:39Z</time></trkpt><trkpt lat="45.967598816206774" lon="9.267322575977259"><ele>255.0</ele><time>2026-04-05T09:08:40Z</time></trkpt><trkpt lat="45.967503985132005" lon="9.267359263494717"><ele>255.0</ele><time>2026-04-05T09:08:41Z</time></trkpt><trkpt lat="45.96741572860796" lon="9.267411476490173"><ele>255.0</ele><time>2026-04-05T09:08:42Z</time></trkpt><trkpt lat="45.96733142266404" lon="9.267451687426776"><ele>253.4</ele><time>2026-04-05T09:08:43Z</time></trkpt><trkpt lat="45.96724784240597" lon="9.267473919297004"><ele>251.8</ele><time>2026-04-05T09:08:44Z</time></trkpt><trkpt lat="45.96716492447757" lon="9.267464989289367"><ele>250.2</ele><time>2026-04-05T09:08:45Z</time></trkpt><trkpt lat="45.96707853709592" lon="9.267424437424797"><ele>248.6</ele><time>2026-04-05T09:08:46Z</time></trkpt><trkpt lat="45.96698754997511" lon="9.267363189842273"><ele>247.0</ele><time>2026-04-05T09:08:47Z</time></trkpt><trkpt lat="45.9668912990219" lon="9.267319757397049"><ele>247.0</ele><time>2026-04-05T09:08:48Z</time></trkpt><trkpt lat="45.96679276977756" lon="9.267325863343348"><ele>247.0</ele><time>2026-04-05T09:08:49Z</time></trkpt><trkpt lat="45.96669453713606" lon="9.26734409685763"><ele>247.0</ele><time>2026-04-05T09:08:50Z</time></trkpt><trkpt lat="45.96659965678307" lon="9.267316121846896"><ele>247.0</ele><time>2026-04-05T09:08:51Z</time></trkpt><trkpt lat="45.96650416722384" lon="9.267209374611458"><ele>247.0</ele><time>2026-04-05T09:08:52Z</time></trkpt><trkpt lat="45.96637744007811" lon="9.26712677140766"><ele>255.0</ele><time>2026-04-05T09:08:53Z</time></trkpt><trkpt lat="45.96623428922377" lon="9.267030469473823"><ele>263.0</ele><time>2026-04-05T09:08:54Z</time></trkpt><trkpt lat="45.96610174872743" lon="9.266960124164429"><ele>271.0</ele><time>2026-04-05T09:08:55Z</time></trkpt><trkpt lat="45.96598851255573" lon="9.266904839042434"><ele>279.0</ele><time>2026-04-05T09:08:56Z</time></trkpt><trkpt lat="45.9658915926246" lon="9.266857268658171"><ele>274.4</ele><time>2026-04-05T09:08:57Z</time></trkpt><trkpt lat="45.965801464979926" lon="9.266810159977787"><ele>269.79999999999995</ele><time>2026-04-05T09:08:58Z</time></trkpt><trkpt lat="45.96571312719414" lon="9.26676638368889"><ele>265.20000000000005</ele><time>2026-04-05T09:08:59Z</time></trkpt><trkpt lat="45.96562318660945" lon="9.266755683238342"><ele>260.6</ele><time>2026-04-05T09:09:00Z</time></trkpt><trkpt lat="45.965534107465274" lon="9.266779741945818"><ele>256.0</ele><time>2026-04-05T09:09:01Z</time></trkpt><trkpt lat="45.96544831082852" lon="9.266812349625518"><ele>256.0</ele><time>2026-04-05T09:09:02Z</time></trkpt><trkpt lat="45.9653584770294" lon="9.266824054399603"><ele>256.0</ele><time>2026-04-05T09:09:03Z</time></trkpt><trkpt lat="45.965271026921286" lon="9.266779875853908"><ele>256.0</ele><time>2026-04-05T09:09:04Z</time></trkpt><trkpt lat="45.96519909512025" lon="9.266699666606952"><ele>256.0</ele><time>2026-04-05T09:09:05Z</time></trkpt><trkpt lat="45.96514105153241" lon="9.266602463042487"><ele>256.0</ele><time>2026-04-05T09:09:06Z</time></trkpt><trkpt lat="45.96512526537516" lon="9.266477546403449"><ele>258.6</ele><time>2026-04-05T09:09:07Z</time></trkpt><trkpt lat="45.96507659345483" lon="9.266375068990875"><ele>261.20000000000005</ele><time>2026-04-05T09:09:08Z</time></trkpt><trkpt lat="45.96502365114502" lon="9.266274120889268"><ele>263.79999999999995</ele><time>2026-04-05T09:09:09Z</time></trkpt><trkpt lat="45.96492444788325" lon="9.26621864803379"><ele>266.4</ele><time>2026-04-05T09:09:10Z</time></trkpt><trkpt lat="45.96479619094339" lon="9.266198420971357"><ele>269.0</ele><time>2026-04-05T09:09:11Z</time></trkpt><trkpt lat="45.964656144174874" lon="9.266133527590306"><ele>269.0</ele><time>2026-04-05T09:09:12Z</time></trkpt><trkpt lat="45.96451048087593" lon="9.266080466429035"><ele>269.0</ele><time>2026-04-05T09:09:13Z</time></trkpt><trkpt lat="45.96435155475279" lon="9.266022574471089"><ele>269.0</ele><time>2026-04-05T09:09:14Z</time></trkpt><trkpt lat="45.96419198296698" lon="9.265965218684848"><ele>260.6666666666667</ele><time>2026-04-05T09:09:15Z</time></trkpt><trkpt lat="45.96403456985578" lon="9.265916355130893"><ele>252.33333333333331</ele><time>2026-04-05T09:09:16Z</time></trkpt><trkpt lat="45.96388426501935" lon="9.26585089398804"><ele>244.0</ele><time>2026-04-05T09:09:17Z</time></trkpt><trkpt lat="45.963735854110176" lon="9.265797431501866"><ele>244.0</ele><time>2026-04-05T09:09:18Z</time></trkpt><trkpt lat="45.963586661396484" lon="9.265756637533395"><ele>244.0</ele><time>2026-04-05T09:09:19Z</time></trkpt><trkpt lat="45.96343340412121" lon="9.265733759210457"><ele>244.0</ele><time>2026-04-05T09:09:20Z</time></trkpt><trkpt lat="45.963281300172014" lon="9.265715745826638"><ele>239.75</ele><time>2026-04-05T09:09:21Z</time></trkpt><trkpt lat="45.9631349574811" lon="9.265693478575885"><ele>235.5</ele><time>2026-04-05T09:09:22Z</time></trkpt><trkpt lat="45.96299345505512" lon="9.265667050543005"><ele>231.25</ele><time>2026-04-05T09:09:23Z</time></trkpt><trkpt lat="45.962854636939674" lon="9.265644107809111"><ele>227.0</ele><time>2026-04-05T09:09:24Z</time></trkpt><trkpt lat="45.96271505696856" lon="9.265620680024558"><ele>226.5</ele><time>2026-04-05T09:09:25Z</time></trkpt><trkpt lat="45.96257473139789" lon="9.265600657226088"><ele>226.0</ele><time>2026-04-05T09:09:26Z</time></trkpt><trkpt lat="45.962429943611916" lon="9.265591132397814"><ele>225.5</ele><time>2026-04-05T09:09:27Z</time></trkpt><trkpt lat="45.962284780747574" lon="9.26562934020182"><ele>225.0</ele><time>2026-04-05T09:09:28Z</time></trkpt><trkpt lat="45.962147327596185" lon="9.265714958876092"><ele>225.0</ele><time>2026-04-05T09:09:28.999Z</time></trkpt><trkpt lat="45.96202530521931" lon="9.265787762861475"><ele>225.0</ele><time>2026-04-05T09:09:29.999Z</time></trkpt><trkpt lat="45.96190613871041" lon="9.265815522584363"><ele>225.0</ele><time>2026-04-05T09:09:30.999Z</time></trkpt><trkpt lat="45.96178399945025" lon="9.26575576599412"><ele>225.0</ele><time>2026-04-05T09:09:31.999Z</time></trkpt><trkpt lat="45.96164703121399" lon="9.265730008732813"><ele>223.5</ele><time>2026-04-05T09:09:32.999Z</time></trkpt><trkpt lat="45.96150733004227" lon="9.265702380525235"><ele>222.0</ele><time>2026-04-05T09:09:33.999Z</time></trkpt><trkpt lat="45.961363952480156" lon="9.265734647878798"><ele>220.5</ele><time>2026-04-05T09:09:34.999Z</time></trkpt><trkpt lat="45.96122573039969" lon="9.265806539734086"><ele>219.0</ele><time>2026-04-05T09:09:35.999Z</time></trkpt><trkpt lat="45.96108626697835" lon="9.265846414916581"><ele>219.0</ele><time>2026-04-05T09:09:36.999Z</time></trkpt><trkpt lat="45.96095764326025" lon="9.265908229414377"><ele>219.0</ele><time>2026-04-05T09:09:37.999Z</time></trkpt><trkpt lat="45.960828598954684" lon="9.26597063095708"><ele>219.0</ele><time>2026-04-05T09:09:38.999Z</time></trkpt><trkpt lat="45.96071225477323" lon="9.266025486309102"><ele>219.0</ele><time>2026-04-05T09:09:39.999Z</time></trkpt><trkpt lat="45.96060659154256" lon="9.26606632186664"><ele>220.6</ele><time>2026-04-05T09:09:40.999Z</time></trkpt><trkpt lat="45.960511757253805" lon="9.266096989025941"><ele>222.2</ele><time>2026-04-05T09:09:41.999Z</time></trkpt><trkpt lat="45.960425873705425" lon="9.266115385182738"><ele>223.79999999999998</ele><time>2026-04-05T09:09:42.999Z</time></trkpt><trkpt lat="45.96033970645597" lon="9.266147081577975"><ele>225.39999999999998</ele><time>2026-04-05T09:09:43.999Z</time></trkpt><trkpt lat="45.9602482445778" lon="9.266142370521498"><ele>227.0</ele><time>2026-04-05T09:09:44.999Z</time></trkpt><trkpt lat="45.960159615851424" lon="9.266136569121903"><ele>227.00000000000003</ele><time>2026-04-05T09:09:45.999Z</time></trkpt><trkpt lat="45.96007456183305" lon="9.266136204268275"><ele>227.0</ele><time>2026-04-05T09:09:46.999Z</time></trkpt><trkpt lat="45.959990775830605" lon="9.266161191066644"><ele>227.0</ele><time>2026-04-05T09:09:47.999Z</time></trkpt><trkpt lat="45.95992224225086" lon="9.266234604390627"><ele>227.0</ele><time>2026-04-05T09:09:48.999Z</time></trkpt><trkpt lat="45.95987971398249" lon="9.266345367729416"><ele>227.00000000000003</ele><time>2026-04-05T09:09:49.999Z</time></trkpt><trkpt lat="45.95986783581095" lon="9.266471791450817"><ele>227.0</ele><time>2026-04-05T09:09:50.999Z</time></trkpt><trkpt lat="45.95987151668766" lon="9.266594934084118"><ele>227.00000000000003</ele><time>2026-04-05T09:09:51.999Z</time></trkpt><trkpt lat="45.959874297258985" lon="9.26670781965437"><ele>227.0</ele><time>2026-04-05T09:09:52.999Z</time></trkpt><trkpt lat="45.959871555335226" lon="9.266799562504241"><ele>227.0</ele><time>2026-04-05T09:09:53.999Z</time></trkpt><trkpt lat="45.959868311172634" lon="9.266918347035508"><ele>227.0</ele><time>2026-04-05T09:09:55.999Z</time></trkpt><trkpt lat="45.959869659533744" lon="9.267013630364401"><ele>227.00000000000003</ele><time>2026-04-05T09:09:58.999Z</time></trkpt><trkpt lat="45.959847648409834" lon="9.267154570788902"><ele>227.0</ele><time>2026-04-05T09:10:00.999Z</time></trkpt><trkpt lat="45.959825573802796" lon="9.267240219811002"><ele>225.66666666666669</ele><time>2026-04-05T09:10:01.999Z</time></trkpt><trkpt lat="45.959780631515926" lon="9.267318220096143"><ele>224.33333333333334</ele><time>2026-04-05T09:10:02.999Z</time></trkpt><trkpt lat="45.959763660510305" lon="9.267406376648132"><ele>223.0</ele><time>2026-04-05T09:10:03.999Z</time></trkpt><trkpt lat="45.95972368004049" lon="9.26749583465489"><ele>221.66666666666669</ele><time>2026-04-05T09:10:04.999Z</time></trkpt><trkpt lat="45.95967681800783" lon="9.267591054819956"><ele>220.33333333333334</ele><time>2026-04-05T09:10:05.999Z</time></trkpt><trkpt lat="45.95962397993392" lon="9.267687406212536"><ele>219.0</ele><time>2026-04-05T09:10:06.999Z</time></trkpt><trkpt lat="45.9595634525793" lon="9.267785489690167"><ele>219.0</ele><time>2026-04-05T09:10:08Z</time></trkpt><trkpt lat="45.95947996975216" lon="9.267847187352759"><ele>219.0</ele><time>2026-04-05T09:10:09Z</time></trkpt><trkpt lat="45.95941703547745" lon="9.267938275764664"><ele>219.0</ele><time>2026-04-05T09:10:10Z</time></trkpt><trkpt lat="45.95935597349946" lon="9.26802155487789"><ele>219.0</ele><time>2026-04-05T09:10:11Z</time></trkpt><trkpt lat="45.95932288985076" lon="9.268132490033828"><ele>219.0</ele><time>2026-04-05T09:10:12Z</time></trkpt><trkpt lat="45.959304169991306" lon="9.26825382195722"><ele>219.0</ele><time>2026-04-05T09:10:13Z</time></trkpt><trkpt lat="45.95927883864712" lon="9.268367423882124"><ele>217.57142857142858</ele><time>2026-04-05T09:10:14Z</time></trkpt><trkpt lat="45.959246035211656" lon="9.268470670705105"><ele>216.14285714285714</ele><time>2026-04-05T09:10:15Z</time></trkpt><trkpt lat="45.95920780490194" lon="9.268562810528502"><ele>214.71428571428572</ele><time>2026-04-05T09:10:16Z</time></trkpt><trkpt lat="45.95916821734113" lon="9.268646823198997"><ele>213.28571428571428</ele><time>2026-04-05T09:10:17Z</time></trkpt><trkpt lat="45.95913113591178" lon="9.268733952664562"><ele>211.85714285714283</ele><time>2026-04-05T09:10:18Z</time></trkpt><trkpt lat="45.959086936989344" lon="9.268816918620743"><ele>210.42857142857142</ele><time>2026-04-05T09:10:19Z</time></trkpt><trkpt lat="45.95902430305752" lon="9.268888005881445"><ele>209.0</ele><time>2026-04-05T09:10:20Z</time></trkpt><trkpt lat="45.95894553811383" lon="9.2689582286686"><ele>213.0</ele><time>2026-04-05T09:10:21Z</time></trkpt><trkpt lat="45.95886059204417" lon="9.269035352146163"><ele>217.0</ele><time>2026-04-05T09:10:22Z</time></trkpt><trkpt lat="45.95877736597526" lon="9.269115916526465"><ele>220.99999999999997</ele><time>2026-04-05T09:10:23Z</time></trkpt><trkpt lat="45.958690541820545" lon="9.269207926116952"><ele>225.0</ele><time>2026-04-05T09:10:24Z</time></trkpt><trkpt lat="45.95860051400102" lon="9.26930144385717"><ele>229.0</ele><time>2026-04-05T09:10:25Z</time></trkpt><trkpt lat="45.95850712970725" lon="9.269391266039534"><ele>229.0</ele><time>2026-04-05T09:10:26Z</time></trkpt><trkpt lat="45.95841062993716" lon="9.269491406292197"><ele>229.0</ele><time>2026-04-05T09:10:27Z</time></trkpt><trkpt lat="45.95830530276604" lon="9.269576110586787"><ele>229.0</ele><time>2026-04-05T09:10:28Z</time></trkpt><trkpt lat="45.95819412355891" lon="9.269644733247882"><ele>229.0</ele><time>2026-04-05T09:10:29Z</time></trkpt><trkpt lat="45.95807328646027" lon="9.269686867410641"><ele>232.0</ele><time>2026-04-05T09:10:30Z</time></trkpt><trkpt lat="45.957954357295606" lon="9.269701056024422"><ele>234.99999999999997</ele><time>2026-04-05T09:10:31Z</time></trkpt><trkpt lat="45.95784739271654" lon="9.26970745100365"><ele>237.99999999999997</ele><time>2026-04-05T09:10:32Z</time></trkpt><trkpt lat="45.95774647769498" lon="9.269721029452228"><ele>241.0</ele><time>2026-04-05T09:10:33Z</time></trkpt><trkpt lat="45.957654504230895" lon="9.269733338522975"><ele>244.0</ele><time>2026-04-05T09:10:34Z</time></trkpt><trkpt lat="45.95756977127412" lon="9.269747749529301"><ele>246.39999999999998</ele><time>2026-04-05T09:10:35Z</time></trkpt><trkpt lat="45.95748469816934" lon="9.269766188600407"><ele>248.79999999999998</ele><time>2026-04-05T09:10:36Z</time></trkpt><trkpt lat="45.957394448656224" lon="9.269787741338094"><ele>251.20000000000002</ele><time>2026-04-05T09:10:37Z</time></trkpt><trkpt lat="45.95729967232403" lon="9.2698135585931"><ele>253.60000000000002</ele><time>2026-04-05T09:10:38Z</time></trkpt><trkpt lat="45.957205599508754" lon="9.269835740645382"><ele>256.0</ele><time>2026-04-05T09:10:39Z</time></trkpt><trkpt lat="45.95711246764529" lon="9.269843437013531"><ele>253.0</ele><time>2026-04-05T09:10:40Z</time></trkpt><trkpt lat="45.95702390347501" lon="9.269833726977371"><ele>250.00000000000003</ele><time>2026-04-05T09:10:41Z</time></trkpt><trkpt lat="45.956932414643944" lon="9.269822262274202"><ele>247.00000000000003</ele><time>2026-04-05T09:10:42Z</time></trkpt><trkpt lat="45.95683510902891" lon="9.269824882915614"><ele>244.0</ele><time>2026-04-05T09:10:43Z</time></trkpt><trkpt lat="45.95674543754782" lon="9.269845401467963"><ele>241.0</ele><time>2026-04-05T09:10:44Z</time></trkpt><trkpt lat="45.95666329936961" lon="9.269874315941442"><ele>240.99999999999997</ele><time>2026-04-05T09:10:45Z</time></trkpt><trkpt lat="45.956590884645884" lon="9.269923281878224"><ele>241.0</ele><time>2026-04-05T09:10:46Z</time></trkpt><trkpt lat="45.9565282570288" lon="9.269987916872239"><ele>241.0</ele><time>2026-04-05T09:10:47Z</time></trkpt><trkpt lat="45.95648208001256" lon="9.270069041644103"><ele>241.0</ele><time>2026-04-05T09:10:48Z</time></trkpt><trkpt lat="45.956450055155656" lon="9.270161705008382"><ele>240.99999999999997</ele><time>2026-04-05T09:10:49Z</time></trkpt><trkpt lat="45.956412669527644" lon="9.270269183541176"><ele>241.0</ele><time>2026-04-05T09:10:50Z</time></trkpt><trkpt lat="45.95637235980928" lon="9.270382572018184"><ele>241.0</ele><time>2026-04-05T09:10:51Z</time></trkpt><trkpt lat="45.95632788675786" lon="9.270502842526502"><ele>241.00000000000003</ele><time>2026-04-05T09:10:52Z</time></trkpt><trkpt lat="45.95627681768013" lon="9.270620879820267"><ele>241.00000000000003</ele><time>2026-04-05T09:10:53Z</time></trkpt><trkpt lat="45.95621395811263" lon="9.270733979432828"><ele>241.0</ele><time>2026-04-05T09:10:54Z</time></trkpt><trkpt lat="45.956142052056634" lon="9.270842942990704"><ele>241.0</ele><time>2026-04-05T09:10:55Z</time></trkpt><trkpt lat="45.956063972020885" lon="9.270953108846678"><ele>239.20000000000002</ele><time>2026-04-05T09:10:56Z</time></trkpt><trkpt lat="45.95598151449492" lon="9.271054593640294"><ele>237.40000000000003</ele><time>2026-04-05T09:10:57Z</time></trkpt><trkpt lat="45.955901668996354" lon="9.271154473156432"><ele>235.6</ele><time>2026-04-05T09:10:58Z</time></trkpt><trkpt lat="45.9558252551462" lon="9.271250188011772"><ele>233.8</ele><time>2026-04-05T09:10:59Z</time></trkpt><trkpt lat="45.95575268566044" lon="9.271356590922027"><ele>232.0</ele><time>2026-04-05T09:11:00Z</time></trkpt><trkpt lat="45.955685540175075" lon="9.271480485312274"><ele>229.8</ele><time>2026-04-05T09:11:01Z</time></trkpt><trkpt lat="45.95564183698061" lon="9.271620966166235"><ele>227.6</ele><time>2026-04-05T09:11:02Z</time></trkpt><trkpt lat="45.955617235004" lon="9.271765507726322"><ele>225.40000000000003</ele><time>2026-04-05T09:11:03Z</time></trkpt><trkpt lat="45.9556025119245" lon="9.271910623417009"><ele>223.20000000000002</ele><time>2026-04-05T09:11:04Z</time></trkpt><trkpt lat="45.95559762062878" lon="9.272050486364341"><ele>221.0</ele><time>2026-04-05T09:11:05Z</time></trkpt><trkpt lat="45.955586706239735" lon="9.272184171041609"><ele>219.0</ele><time>2026-04-05T09:11:06Z</time></trkpt><trkpt lat="45.955559578165534" lon="9.272316365480725"><ele>217.0</ele><time>2026-04-05T09:11:07Z</time></trkpt><trkpt lat="45.955511312165726" lon="9.272462908111043"><ele>215.0</ele><time>2026-04-05T09:11:08Z</time></trkpt><trkpt lat="45.955421484253236" lon="9.272627831524845"><ele>213.0</ele><time>2026-04-05T09:11:09Z</time></trkpt><trkpt lat="45.95534398569267" lon="9.272800221513618"><ele>213.0</ele><time>2026-04-05T09:11:10Z</time></trkpt><trkpt lat="45.955268050631965" lon="9.27296034278917"><ele>213.0</ele><time>2026-04-05T09:11:11Z</time></trkpt><trkpt lat="45.955194806641714" lon="9.273118470137074"><ele>213.0</ele><time>2026-04-05T09:11:12Z</time></trkpt><trkpt lat="45.95512791044894" lon="9.273267596670516"><ele>213.0</ele><time>2026-04-05T09:11:13Z</time></trkpt><trkpt lat="45.9550692029437" lon="9.273397516269513"><ele>213.2</ele><time>2026-04-05T09:11:14Z</time></trkpt><trkpt lat="45.95502322262646" lon="9.273535350827112"><ele>213.4</ele><time>2026-04-05T09:11:15Z</time></trkpt><trkpt lat="45.954956951136786" lon="9.273666729432113"><ele>213.59999999999997</ele><time>2026-04-05T09:11:16Z</time></trkpt><trkpt lat="45.954892847047276" lon="9.273791093178652"><ele>213.79999999999998</ele><time>2026-04-05T09:11:17Z</time></trkpt><trkpt lat="45.95483475026832" lon="9.273909159615963"><ele>214.0</ele><time>2026-04-05T09:11:18Z</time></trkpt><trkpt lat="45.95477828108853" lon="9.274018740531611"><ele>214.0</ele><time>2026-04-05T09:11:19Z</time></trkpt><trkpt lat="45.95471822131526" lon="9.274131411940003"><ele>213.99999999999997</ele><time>2026-04-05T09:11:20Z</time></trkpt><trkpt lat="45.95465243886615" lon="9.274249953782954"><ele>213.99999999999997</ele><time>2026-04-05T09:11:21Z</time></trkpt><trkpt lat="45.954579054744904" lon="9.274361267718229"><ele>214.0</ele><time>2026-04-05T09:11:22Z</time></trkpt><trkpt lat="45.95450258174925" lon="9.274468904182832"><ele>214.0</ele><time>2026-04-05T09:11:23Z</time></trkpt><trkpt lat="45.95442415164269" lon="9.274564994324125"><ele>213.99999999999997</ele><time>2026-04-05T09:11:24Z</time></trkpt><trkpt lat="45.95434798912638" lon="9.274645385561223"><ele>214.0</ele><time>2026-04-05T09:11:25Z</time></trkpt><trkpt lat="45.95427650188238" lon="9.274727111012474"><ele>214.0</ele><time>2026-04-05T09:11:26Z</time></trkpt><trkpt lat="45.95420322984215" lon="9.274796821950225"><ele>214.0</ele><time>2026-04-05T09:11:27Z</time></trkpt><trkpt lat="45.95413411684063" lon="9.274852779385109"><ele>213.99999999999997</ele><time>2026-04-05T09:11:28Z</time></trkpt><trkpt lat="45.954060305745514" lon="9.274903944881384"><ele>214.0</ele><time>2026-04-05T09:11:29Z</time></trkpt><trkpt lat="45.95398259027757" lon="9.274953912729577"><ele>214.39999999999998</ele><time>2026-04-05T09:11:30Z</time></trkpt><trkpt lat="45.95390368339691" lon="9.274997822765037"><ele>214.79999999999998</ele><time>2026-04-05T09:11:31Z</time></trkpt><trkpt lat="45.953814505828475" lon="9.275045166945562"><ele>215.20000000000002</ele><time>2026-04-05T09:11:32Z</time></trkpt><trkpt lat="45.95371471016036" lon="9.275088644083105"><ele>215.60000000000002</ele><time>2026-04-05T09:11:33Z</time></trkpt><trkpt lat="45.953620768193744" lon="9.275132905123623"><ele>216.0</ele><time>2026-04-05T09:11:34Z</time></trkpt><trkpt lat="45.953534583233996" lon="9.275176884557498"><ele>216.0</ele><time>2026-04-05T09:11:34.999Z</time></trkpt><trkpt lat="45.953454226172106" lon="9.275220298731128"><ele>216.0</ele><time>2026-04-05T09:11:35.999Z</time></trkpt><trkpt lat="45.95336968579259" lon="9.275275779997953"><ele>216.0</ele><time>2026-04-05T09:11:36.999Z</time></trkpt><trkpt lat="45.95329538460374" lon="9.275311845800358"><ele>216.0</ele><time>2026-04-05T09:11:37.999Z</time></trkpt><trkpt lat="45.953226205029615" lon="9.275352209102998"><ele>216.0</ele><time>2026-04-05T09:11:38.999Z</time></trkpt><trkpt lat="45.95315742373704" lon="9.27538738874555"><ele>216.0</ele><time>2026-04-05T09:11:39.999Z</time></trkpt><trkpt lat="45.953089506486926" lon="9.275421637720076"><ele>216.83333333333334</ele><time>2026-04-05T09:11:40.999Z</time></trkpt><trkpt lat="45.95302074589829" lon="9.275451230075571"><ele>217.66666666666669</ele><time>2026-04-05T09:11:41.999Z</time></trkpt><trkpt lat="45.95295633489545" lon="9.275482539929525"><ele>218.5</ele><time>2026-04-05T09:11:42.999Z</time></trkpt><trkpt lat="45.95287629977877" lon="9.275506371739219"><ele>219.33333333333334</ele><time>2026-04-05T09:11:43.999Z</time></trkpt><trkpt lat="45.95279128292523" lon="9.275530589528566"><ele>220.16666666666669</ele><time>2026-04-05T09:11:44.999Z</time></trkpt><trkpt lat="45.95271394585123" lon="9.275548095251914"><ele>221.0</ele><time>2026-04-05T09:11:45.999Z</time></trkpt><trkpt lat="45.95262819300041" lon="9.275571844892404"><ele>218.25</ele><time>2026-04-05T09:11:46.999Z</time></trkpt><trkpt lat="45.95252999361976" lon="9.27561999574364"><ele>215.5</ele><time>2026-04-05T09:11:47.999Z</time></trkpt><trkpt lat="45.952432512491995" lon="9.275694264332948"><ele>212.75</ele><time>2026-04-05T09:11:48.999Z</time></trkpt><trkpt lat="45.95231987529435" lon="9.275788197353634"><ele>210.0</ele><time>2026-04-05T09:11:49.999Z</time></trkpt><trkpt lat="45.952187941455925" lon="9.275890435041688"><ele>210.0</ele><time>2026-04-05T09:11:50.999Z</time></trkpt><trkpt lat="45.95202697456425" lon="9.275961865398546"><ele>210.0</ele><time>2026-04-05T09:11:51.999Z</time></trkpt><trkpt lat="45.951840229238954" lon="9.276075370719596"><ele>210.0</ele><time>2026-04-05T09:11:52.999Z</time></trkpt><trkpt lat="45.95161159608376" lon="9.276212926841454"><ele>219.5</ele><time>2026-04-05T09:11:53.999Z</time></trkpt><trkpt lat="45.9513715577439" lon="9.276326395902082"><ele>229.0</ele><time>2026-04-05T09:11:54.999Z</time></trkpt><trkpt lat="45.95117080044336" lon="9.276426246904453"><ele>226.66666666666666</ele><time>2026-04-05T09:11:55.999Z</time></trkpt><trkpt lat="45.95099797699812" lon="9.276526697670487"><ele>224.33333333333331</ele><time>2026-04-05T09:11:56.999Z</time></trkpt><trkpt lat="45.950857829697334" lon="9.276659156043394"><ele>222.0</ele><time>2026-04-05T09:11:57.999Z</time></trkpt><trkpt lat="45.95072115063116" lon="9.276798273085747"><ele>222.0</ele><time>2026-04-05T09:11:58.999Z</time></trkpt><trkpt lat="45.95058628242096" lon="9.276890636422568"><ele>222.0</ele><time>2026-04-05T09:11:59.999Z</time></trkpt><trkpt lat="45.950424584940706" lon="9.276944000333389"><ele>222.0</ele><time>2026-04-05T09:12:00.999Z</time></trkpt><trkpt lat="45.9502531710197" lon="9.276989846857372"><ele>222.0</ele><time>2026-04-05T09:12:01.999Z</time></trkpt><trkpt lat="45.950074112564785" lon="9.277028148619975"><ele>222.0</ele><time>2026-04-05T09:12:02.999Z</time></trkpt><trkpt lat="45.94989762338702" lon="9.2770703959687"><ele>222.0</ele><time>2026-04-05T09:12:03.999Z</time></trkpt><trkpt lat="45.94972623974749" lon="9.277101830644938"><ele>216.33333333333331</ele><time>2026-04-05T09:12:04.999Z</time></trkpt><trkpt lat="45.94956423033259" lon="9.277152915623455"><ele>210.66666666666666</ele><time>2026-04-05T09:12:05.999Z</time></trkpt><trkpt lat="45.94941722072079" lon="9.277237396225907"><ele>205.0</ele><time>2026-04-05T09:12:06.999Z</time></trkpt><trkpt lat="45.94927548475286" lon="9.277363241880538"><ele>210.0</ele><time>2026-04-05T09:12:07.999Z</time></trkpt><trkpt lat="45.94913545965121" lon="9.27748041756211"><ele>215.0</ele><time>2026-04-05T09:12:08.999Z</time></trkpt><trkpt lat="45.94899493424815" lon="9.277533328339915"><ele>220.0</ele><time>2026-04-05T09:12:09.999Z</time></trkpt><trkpt lat="45.94884359254122" lon="9.277566659052368"><ele>220.0</ele><time>2026-04-05T09:12:10.999Z</time></trkpt><trkpt lat="45.94867380619722" lon="9.277574679093053"><ele>220.0</ele><time>2026-04-05T09:12:11.999Z</time></trkpt><trkpt lat="45.94850347798845" lon="9.277550000731589"><ele>220.0</ele><time>2026-04-05T09:12:12.999Z</time></trkpt><trkpt lat="45.94833870169438" lon="9.277522982330721"><ele>223.0</ele><time>2026-04-05T09:12:14Z</time></trkpt><trkpt lat="45.948202044097386" lon="9.277536170040337"><ele>226.0</ele><time>2026-04-05T09:12:15Z</time></trkpt><trkpt lat="45.94809254514838" lon="9.277590478394107"><ele>229.0</ele><time>2026-04-05T09:12:16Z</time></trkpt><trkpt lat="45.94799867350799" lon="9.277702155958195"><ele>232.0</ele><time>2026-04-05T09:12:17Z</time></trkpt><trkpt lat="45.94788784873132" lon="9.277808663648138"><ele>232.0</ele><time>2026-04-05T09:12:18Z</time></trkpt><trkpt lat="45.94775334689641" lon="9.27786617346232"><ele>232.0</ele><time>2026-04-05T09:12:19Z</time></trkpt><trkpt lat="45.94762681617888" lon="9.277893620411652"><ele>232.0</ele><time>2026-04-05T09:12:20Z</time></trkpt><trkpt lat="45.94748828793878" lon="9.27788651049292"><ele>232.0</ele><time>2026-04-05T09:12:21Z</time></trkpt><trkpt lat="45.94733558154588" lon="9.277872647865836"><ele>238.0</ele><time>2026-04-05T09:12:22Z</time></trkpt><trkpt lat="45.94717965989377" lon="9.27786164106491"><ele>244.0</ele><time>2026-04-05T09:12:23Z</time></trkpt><trkpt lat="45.947038633575154" lon="9.27789053823162"><ele>250.0</ele><time>2026-04-05T09:12:24Z</time></trkpt><trkpt lat="45.946909724269894" lon="9.277925730268475"><ele>256.0</ele><time>2026-04-05T09:12:25Z</time></trkpt><trkpt lat="45.94679400781409" lon="9.278054470927525"><ele>250.25</ele><time>2026-04-05T09:12:26Z</time></trkpt><trkpt lat="45.9467119217956" lon="9.278200222902193"><ele>244.5</ele><time>2026-04-05T09:12:27Z</time></trkpt><trkpt lat="45.94663935025259" lon="9.278319264865035"><ele>238.75</ele><time>2026-04-05T09:12:28Z</time></trkpt><trkpt lat="45.94654386786755" lon="9.278392223052341"><ele>233.0</ele><time>2026-04-05T09:12:29Z</time></trkpt><trkpt lat="45.946400509552404" lon="9.278410516524978"><ele>233.0</ele><time>2026-04-05T09:12:30Z</time></trkpt><trkpt lat="45.94624588534927" lon="9.278454843035762"><ele>233.0</ele><time>2026-04-05T09:12:31Z</time></trkpt><trkpt lat="45.94608977082099" lon="9.278525409878371"><ele>233.0</ele><time>2026-04-05T09:12:32Z</time></trkpt><trkpt lat="45.94591201867348" lon="9.278596884556427"><ele>234.0</ele><time>2026-04-05T09:12:33Z</time></trkpt><trkpt lat="45.94574078111846" lon="9.27859956476991"><ele>235.0</ele><time>2026-04-05T09:12:34Z</time></trkpt><trkpt lat="45.94557858030894" lon="9.278627574988343"><ele>236.0</ele><time>2026-04-05T09:12:35Z</time></trkpt><trkpt lat="45.94542769138823" lon="9.278691913282884"><ele>236.0</ele><time>2026-04-05T09:12:36Z</time></trkpt><trkpt lat="45.94527270883701" lon="9.278805695046104"><ele>236.0</ele><time>2026-04-05T09:12:37Z</time></trkpt><trkpt lat="45.94511777522023" lon="9.278871662902574"><ele>236.0</ele><time>2026-04-05T09:12:38Z</time></trkpt><trkpt lat="45.944965899303774" lon="9.278884363245238"><ele>239.33333333333334</ele><time>2026-04-05T09:12:39Z</time></trkpt><trkpt lat="45.944795226752056" lon="9.278904204235705"><ele>242.66666666666669</ele><time>2026-04-05T09:12:40Z</time></trkpt><trkpt lat="45.94463316028321" lon="9.278923856374453"><ele>246.0</ele><time>2026-04-05T09:12:41Z</time></trkpt><trkpt lat="45.94447517826444" lon="9.2789470498698"><ele>246.0</ele><time>2026-04-05T09:12:42Z</time></trkpt><trkpt lat="45.944320824242666" lon="9.278972440150044"><ele>246.0</ele><time>2026-04-05T09:12:43Z</time></trkpt><trkpt lat="45.94416790904523" lon="9.278990425802993"><ele>246.0</ele><time>2026-04-05T09:12:44Z</time></trkpt><trkpt lat="45.944014754411484" lon="9.279004823873542"><ele>246.0</ele><time>2026-04-05T09:12:45Z</time></trkpt><trkpt lat="45.94386032383982" lon="9.279034071273365"><ele>246.0</ele><time>2026-04-05T09:12:46Z</time></trkpt><trkpt lat="45.94371086220286" lon="9.279100186375826"><ele>246.0</ele><time>2026-04-05T09:12:47Z</time></trkpt><trkpt lat="45.943575374816916" lon="9.27921725729635"><ele>244.0</ele><time>2026-04-05T09:12:48Z</time></trkpt><trkpt lat="45.943445674022776" lon="9.279355288080549"><ele>242.0</ele><time>2026-04-05T09:12:49Z</time></trkpt><trkpt lat="45.943319656268635" lon="9.279490656088745"><ele>240.0</ele><time>2026-04-05T09:12:50Z</time></trkpt><trkpt lat="45.943207734392935" lon="9.279633519730597"><ele>233.5</ele><time>2026-04-05T09:12:51Z</time></trkpt><trkpt lat="45.94311131997739" lon="9.279794141673825"><ele>227.0</ele><time>2026-04-05T09:12:52Z</time></trkpt><trkpt lat="45.94303728389596" lon="9.279961324435586"><ele>220.5</ele><time>2026-04-05T09:12:53Z</time></trkpt><trkpt lat="45.942925562858086" lon="9.280095112962998"><ele>214.0</ele><time>2026-04-05T09:12:54Z</time></trkpt><trkpt lat="45.9427847887886" lon="9.28017182480279"><ele>214.0</ele><time>2026-04-05T09:12:55Z</time></trkpt><trkpt lat="45.94263812183307" lon="9.280226344608707"><ele>214.0</ele><time>2026-04-05T09:12:56Z</time></trkpt><trkpt lat="45.942483603540126" lon="9.280279832344332"><ele>214.0</ele><time>2026-04-05T09:12:57Z</time></trkpt><trkpt lat="45.94233632549021" lon="9.280377958960745"><ele>213.0</ele><time>2026-04-05T09:12:58Z</time></trkpt><trkpt lat="45.94219649902066" lon="9.280506141055687"><ele>212.0</ele><time>2026-04-05T09:12:59Z</time></trkpt><trkpt lat="45.942055951985175" lon="9.280638695304917"><ele>211.0</ele><time>2026-04-05T09:13:00Z</time></trkpt><trkpt lat="45.94192095864342" lon="9.280775060346372"><ele>211.0</ele><time>2026-04-05T09:13:01Z</time></trkpt><trkpt lat="45.94179105500153" lon="9.28089877250043"><ele>211.0</ele><time>2026-04-05T09:13:02Z</time></trkpt><trkpt lat="45.941662692454315" lon="9.281013473650487"><ele>211.0</ele><time>2026-04-05T09:13:03Z</time></trkpt><trkpt lat="45.94153249428786" lon="9.281132318643275"><ele>208.33333333333331</ele><time>2026-04-05T09:13:04Z</time></trkpt><trkpt lat="45.941400604456426" lon="9.281252697297653"><ele>205.66666666666669</ele><time>2026-04-05T09:13:05Z</time></trkpt><trkpt lat="45.941270646803524" lon="9.28136674331602"><ele>203.0</ele><time>2026-04-05T09:13:06Z</time></trkpt><trkpt lat="45.9411461887798" lon="9.281485967110044"><ele>203.0</ele><time>2026-04-05T09:13:07Z</time></trkpt><trkpt lat="45.94103471202834" lon="9.28160765424173"><ele>203.0</ele><time>2026-04-05T09:13:08Z</time></trkpt><trkpt lat="45.94094056918784" lon="9.281717912439102"><ele>203.0</ele><time>2026-04-05T09:13:09Z</time></trkpt><trkpt lat="45.94084356748933" lon="9.281808743909979"><ele>203.0</ele><time>2026-04-05T09:13:10Z</time></trkpt><trkpt lat="45.940730780839935" lon="9.281883431389849"><ele>210.5</ele><time>2026-04-05T09:13:11Z</time></trkpt><trkpt lat="45.94061078934562" lon="9.28194848589215"><ele>218.0</ele><time>2026-04-05T09:13:12Z</time></trkpt><trkpt lat="45.94048837908532" lon="9.282017529118985"><ele>225.5</ele><time>2026-04-05T09:13:13Z</time></trkpt><trkpt lat="45.94036659952235" lon="9.282086529859205"><ele>233.0</ele><time>2026-04-05T09:13:14Z</time></trkpt><trkpt lat="45.94023693680295" lon="9.28212823122876"><ele>233.0</ele><time>2026-04-05T09:13:15Z</time></trkpt><trkpt lat="45.940099926959576" lon="9.28214036537216"><ele>233.0</ele><time>2026-04-05T09:13:16Z</time></trkpt><trkpt lat="45.93995850048892" lon="9.282141367149151"><ele>233.0</ele><time>2026-04-05T09:13:17Z</time></trkpt><trkpt lat="45.93981240697972" lon="9.282152115160065"><ele>233.0</ele><time>2026-04-05T09:13:18Z</time></trkpt><trkpt lat="45.93966150890263" lon="9.282159563399722"><ele>235.0</ele><time>2026-04-05T09:13:19Z</time></trkpt><trkpt lat="45.93950818417152" lon="9.282166490239657"><ele>237.0</ele><time>2026-04-05T09:13:20Z</time></trkpt><trkpt lat="45.93935171165004" lon="9.282181849605706"><ele>239.0</ele><time>2026-04-05T09:13:21Z</time></trkpt><trkpt lat="45.93919672543236" lon="9.282201155406097"><ele>255.33333333333334</ele><time>2026-04-05T09:13:22Z</time></trkpt><trkpt lat="45.9390383919731" lon="9.282215716787203"><ele>271.6666666666667</ele><time>2026-04-05T09:13:23Z</time></trkpt><trkpt lat="45.93888396528575" lon="9.28220448558966"><ele>288.0</ele><time>2026-04-05T09:13:24Z</time></trkpt><trkpt lat="45.93873917281396" lon="9.282164666175007"><ele>288.0</ele><time>2026-04-05T09:13:25Z</time></trkpt><trkpt lat="45.938587935490105" lon="9.282175801621234"><ele>288.0</ele><time>2026-04-05T09:13:26Z</time></trkpt><trkpt lat="45.938439120676065" lon="9.282233809366748"><ele>288.0</ele><time>2026-04-05T09:13:27Z</time></trkpt><trkpt lat="45.93831388787223" lon="9.28232695567945"><ele>288.0</ele><time>2026-04-05T09:13:28Z</time></trkpt><trkpt lat="45.93819768909208" lon="9.28240058566859"><ele>271.0</ele><time>2026-04-05T09:13:29Z</time></trkpt><trkpt lat="45.93807492905053" lon="9.282402841800051"><ele>254.0</ele><time>2026-04-05T09:13:30Z</time></trkpt><trkpt lat="45.93793430031179" lon="9.282394498538016"><ele>237.0</ele><time>2026-04-05T09:13:31Z</time></trkpt><trkpt lat="45.93778996382927" lon="9.282373966316962"><ele>220.0</ele><time>2026-04-05T09:13:32Z</time></trkpt><trkpt lat="45.937638503807705" lon="9.2823411676641"><ele>222.0</ele><time>2026-04-05T09:13:33Z</time></trkpt><trkpt lat="45.93748604494416" lon="9.282281083177102"><ele>224.0</ele><time>2026-04-05T09:13:34Z</time></trkpt><trkpt lat="45.93733228204529" lon="9.282280798207896"><ele>226.0</ele><time>2026-04-05T09:13:35Z</time></trkpt><trkpt lat="45.937168206258434" lon="9.28227069658417"><ele>226.0</ele><time>2026-04-05T09:13:36Z</time></trkpt><trkpt lat="45.9370080511531" lon="9.282284906110561"><ele>226.0</ele><time>2026-04-05T09:13:37Z</time></trkpt><trkpt lat="45.93685372216315" lon="9.282286030535081"><ele>226.0</ele><time>2026-04-05T09:13:37.999Z</time></trkpt><trkpt lat="45.93670337635445" lon="9.282287549992427"><ele>223.0</ele><time>2026-04-05T09:13:38.999Z</time></trkpt><trkpt lat="45.93655807723099" lon="9.282300073712202"><ele>220.0</ele><time>2026-04-05T09:13:39.999Z</time></trkpt><trkpt lat="45.93641748050011" lon="9.28233090101477"><ele>217.0</ele><time>2026-04-05T09:13:40.999Z</time></trkpt><trkpt lat="45.93627901396302" lon="9.282383026185297"><ele>214.0</ele><time>2026-04-05T09:13:41.999Z</time></trkpt><trkpt lat="45.93614068045988" lon="9.282438064076354"><ele>214.0</ele><time>2026-04-05T09:13:42.999Z</time></trkpt><trkpt lat="45.935997606776965" lon="9.282451073917084"><ele>214.0</ele><time>2026-04-05T09:13:43.999Z</time></trkpt><trkpt lat="45.93584522301963" lon="9.282423594924659"><ele>214.0</ele><time>2026-04-05T09:13:44.999Z</time></trkpt><trkpt lat="45.935695524591296" lon="9.282380061885068"><ele>212.0</ele><time>2026-04-05T09:13:45.999Z</time></trkpt><trkpt lat="45.9355468076879" lon="9.282369322450007"><ele>210.0</ele><time>2026-04-05T09:13:46.999Z</time></trkpt><trkpt lat="45.93539543711846" lon="9.282386306503517"><ele>208.0</ele><time>2026-04-05T09:13:47.999Z</time></trkpt><trkpt lat="45.93524369746632" lon="9.282427249499825"><ele>208.0</ele><time>2026-04-05T09:13:48.999Z</time></trkpt><trkpt lat="45.93509517813687" lon="9.282473661335175"><ele>208.0</ele><time>2026-04-05T09:13:49.999Z</time></trkpt><trkpt lat="45.93494958513685" lon="9.282515756699322"><ele>208.0</ele><time>2026-04-05T09:13:50.999Z</time></trkpt><trkpt lat="45.93480623932816" lon="9.282554998946043"><ele>208.0</ele><time>2026-04-05T09:13:51.999Z</time></trkpt><trkpt lat="45.93466535361306" lon="9.282607918006343"><ele>209.0</ele><time>2026-04-05T09:13:52.999Z</time></trkpt><trkpt lat="45.934531159449044" lon="9.282699532463567"><ele>210.0</ele><time>2026-04-05T09:13:53.999Z</time></trkpt><trkpt lat="45.93439908083837" lon="9.28279584977873"><ele>211.0</ele><time>2026-04-05T09:13:54.999Z</time></trkpt><trkpt lat="45.934275124339514" lon="9.282913601026163"><ele>212.0</ele><time>2026-04-05T09:13:55.999Z</time></trkpt><trkpt lat="45.93415065564684" lon="9.283040572103614"><ele>210.0</ele><time>2026-04-05T09:13:56.999Z</time></trkpt><trkpt lat="45.934031816338894" lon="9.283173029971586"><ele>208.0</ele><time>2026-04-05T09:13:57.999Z</time></trkpt><trkpt lat="45.93391695679395" lon="9.283311110106032"><ele>206.0</ele><time>2026-04-05T09:13:58.999Z</time></trkpt><trkpt lat="45.93380183802493" lon="9.283445399783874"><ele>204.0</ele><time>2026-04-05T09:13:59.999Z</time></trkpt><trkpt lat="45.93368266994114" lon="9.28356313975094"><ele>204.0</ele><time>2026-04-05T09:14:00.999Z</time></trkpt><trkpt lat="45.933550879574724" lon="9.283645030366259"><ele>204.0</ele><time>2026-04-05T09:14:01.999Z</time></trkpt><trkpt lat="45.933407722190225" lon="9.283688700373453"><ele>204.0</ele><time>2026-04-05T09:14:02.999Z</time></trkpt><trkpt lat="45.93325917079164" lon="9.283719833428078"><ele>204.0</ele><time>2026-04-05T09:14:03.999Z</time></trkpt><trkpt lat="45.93310929518121" lon="9.283750982455194"><ele>206.66666666666669</ele><time>2026-04-05T09:14:04.999Z</time></trkpt><trkpt lat="45.932958968027734" lon="9.283782182310679"><ele>209.33333333333334</ele><time>2026-04-05T09:14:05.999Z</time></trkpt><trkpt lat="45.93280526461831" lon="9.283813479456168"><ele>212.0</ele><time>2026-04-05T09:14:06.999Z</time></trkpt><trkpt lat="45.93265083673917" lon="9.283840110339485"><ele>214.0</ele><time>2026-04-05T09:14:07.999Z</time></trkpt><trkpt lat="45.93249528791424" lon="9.283846418382266"><ele>216.0</ele><time>2026-04-05T09:14:08.999Z</time></trkpt><trkpt lat="45.932340567868074" lon="9.283823908512076"><ele>218.0</ele><time>2026-04-05T09:14:09.999Z</time></trkpt><trkpt lat="45.93219220423882" lon="9.283784285670858"><ele>218.0</ele><time>2026-04-05T09:14:10.999Z</time></trkpt><trkpt lat="45.9320432806429" lon="9.283747007733973"><ele>218.0</ele><time>2026-04-05T09:14:11.999Z</time></trkpt><trkpt lat="45.93189582430524" lon="9.283713017358297"><ele>218.0</ele><time>2026-04-05T09:14:12.999Z</time></trkpt><trkpt lat="45.93174969522672" lon="9.283683037514377"><ele>218.0</ele><time>2026-04-05T09:14:13.999Z</time></trkpt><trkpt lat="45.931607283452266" lon="9.283676336760799"><ele>218.75</ele><time>2026-04-05T09:14:14.999Z</time></trkpt><trkpt lat="45.93146906885677" lon="9.28370534159186"><ele>219.5</ele><time>2026-04-05T09:14:15.999Z</time></trkpt><trkpt lat="45.93133688960956" lon="9.283749223381388"><ele>220.25</ele><time>2026-04-05T09:14:16.999Z</time></trkpt><trkpt lat="45.931204946966716" lon="9.283807009178782"><ele>221.0</ele><time>2026-04-05T09:14:17.999Z</time></trkpt><trkpt lat="45.93107039247395" lon="9.283869706718775"><ele>221.0</ele><time>2026-04-05T09:14:18.999Z</time></trkpt><trkpt lat="45.930930916588466" lon="9.283920085188399"><ele>221.0</ele><time>2026-04-05T09:14:20Z</time></trkpt><trkpt lat="45.930793322194745" lon="9.283991905882987"><ele>221.0</ele><time>2026-04-05T09:14:21Z</time></trkpt><trkpt lat="45.93066318172247" lon="9.284086130226955"><ele>221.0</ele><time>2026-04-05T09:14:22Z</time></trkpt><trkpt lat="45.93053586196126" lon="9.284182579167812"><ele>219.0</ele><time>2026-04-05T09:14:23Z</time></trkpt><trkpt lat="45.93041004446553" lon="9.284279302108962"><ele>217.0</ele><time>2026-04-05T09:14:24Z</time></trkpt><trkpt lat="45.930283004459724" lon="9.284377009716204"><ele>215.0</ele><time>2026-04-05T09:14:25Z</time></trkpt><trkpt lat="45.93014892996397" lon="9.284462808233062"><ele>213.0</ele><time>2026-04-05T09:14:26Z</time></trkpt><trkpt lat="45.93000575260026" lon="9.28452174544582"><ele>213.0</ele><time>2026-04-05T09:14:27Z</time></trkpt><trkpt lat="45.929854163771004" lon="9.284548859692581"><ele>213.0</ele><time>2026-04-05T09:14:28Z</time></trkpt><trkpt lat="45.92970120637768" lon="9.284559532310684"><ele>213.0</ele><time>2026-04-05T09:14:29Z</time></trkpt><trkpt lat="45.9295442783815" lon="9.284569263573943"><ele>213.0</ele><time>2026-04-05T09:14:30Z</time></trkpt><trkpt lat="45.92938651706106" lon="9.284581737894467"><ele>213.0</ele><time>2026-04-05T09:14:31Z</time></trkpt><trkpt lat="45.929224980842015" lon="9.28459476869134"><ele>213.0</ele><time>2026-04-05T09:14:32Z</time></trkpt><trkpt lat="45.929063585269326" lon="9.284608696117932"><ele>213.66666666666669</ele><time>2026-04-05T09:14:33Z</time></trkpt><trkpt lat="45.92890378836838" lon="9.284629583975688"><ele>214.33333333333334</ele><time>2026-04-05T09:14:34Z</time></trkpt><trkpt lat="45.92874739422049" lon="9.284648948229586"><ele>215.0</ele><time>2026-04-05T09:14:35Z</time></trkpt><trkpt lat="45.92860694786065" lon="9.284773563216785"><ele>213.66666666666669</ele><time>2026-04-05T09:14:36Z</time></trkpt><trkpt lat="45.928471121003525" lon="9.284900703714104"><ele>212.33333333333331</ele><time>2026-04-05T09:14:37Z</time></trkpt><trkpt lat="45.9283343974003" lon="9.285028478481141"><ele>211.0</ele><time>2026-04-05T09:14:38Z</time></trkpt><trkpt lat="45.928185744241205" lon="9.285119512734383"><ele>211.0</ele><time>2026-04-05T09:14:39Z</time></trkpt><trkpt lat="45.928044410662956" lon="9.285227543159811"><ele>211.0</ele><time>2026-04-05T09:14:40Z</time></trkpt><trkpt lat="45.92790237993051" lon="9.28531545903473"><ele>211.0</ele><time>2026-04-05T09:14:41Z</time></trkpt><trkpt lat="45.927756085207015" lon="9.285380052044655"><ele>211.0</ele><time>2026-04-05T09:14:42Z</time></trkpt><trkpt lat="45.92760776622885" lon="9.285442402351803"><ele>211.0</ele><time>2026-04-05T09:14:43Z</time></trkpt><trkpt lat="45.9274518126607" lon="9.28545147928119"><ele>211.0</ele><time>2026-04-05T09:14:44Z</time></trkpt><trkpt lat="45.927292641246865" lon="9.285439530791612"><ele>212.33333333333331</ele><time>2026-04-05T09:14:45Z</time></trkpt><trkpt lat="45.92713106575012" lon="9.285411799937073"><ele>213.66666666666669</ele><time>2026-04-05T09:14:46Z</time></trkpt><trkpt lat="45.926971998586076" lon="9.28537911229531"><ele>215.0</ele><time>2026-04-05T09:14:47Z</time></trkpt><trkpt lat="45.926810243964816" lon="9.28535733678956"><ele>213.66666666666669</ele><time>2026-04-05T09:14:48Z</time></trkpt><trkpt lat="45.92664981739093" lon="9.285324330959101"><ele>212.33333333333331</ele><time>2026-04-05T09:14:49Z</time></trkpt><trkpt lat="45.926490032709296" lon="9.285292118671325"><ele>211.0</ele><time>2026-04-05T09:14:50Z</time></trkpt><trkpt lat="45.9263329470214" lon="9.285264218414545"><ele>211.0</ele><time>2026-04-05T09:14:51Z</time></trkpt><trkpt lat="45.92617627777906" lon="9.285230938909349"><ele>211.0</ele><time>2026-04-05T09:14:52Z</time></trkpt><trkpt lat="45.92601973810414" lon="9.285197544337093"><ele>211.0</ele><time>2026-04-05T09:14:53Z</time></trkpt><trkpt lat="45.92586002705997" lon="9.28518790443133"><ele>212.66666666666666</ele><time>2026-04-05T09:14:54Z</time></trkpt><trkpt lat="45.92569865386679" lon="9.285224334094966"><ele>214.33333333333331</ele><time>2026-04-05T09:14:55Z</time></trkpt><trkpt lat="45.925538523088804" lon="9.28528792716549"><ele>216.0</ele><time>2026-04-05T09:14:56Z</time></trkpt><trkpt lat="45.92537956748683" lon="9.285376472563902"><ele>216.0</ele><time>2026-04-05T09:14:57Z</time></trkpt><trkpt lat="45.92523724008174" lon="9.285501920746285"><ele>216.0</ele><time>2026-04-05T09:14:58Z</time></trkpt><trkpt lat="45.9251102857933" lon="9.285656719211305"><ele>216.0</ele><time>2026-04-05T09:14:59Z</time></trkpt><trkpt lat="45.92498509557314" lon="9.285809895080178"><ele>215.0</ele><time>2026-04-05T09:15:00Z</time></trkpt><trkpt lat="45.92485788762264" lon="9.2859235232253"><ele>214.00000000000003</ele><time>2026-04-05T09:15:01Z</time></trkpt><trkpt lat="45.92474905330942" lon="9.286004913124573"><ele>213.0</ele><time>2026-04-05T09:15:02Z</time></trkpt><trkpt lat="45.92466261153781" lon="9.28606060545621"><ele>212.0</ele><time>2026-04-05T09:15:03Z</time></trkpt><trkpt lat="45.92459981933833" lon="9.286105384279011"><ele>211.0</ele><time>2026-04-05T09:15:04Z</time></trkpt><trkpt lat="45.92451143684933" lon="9.286167504530626"><ele>210.99999999999997</ele><time>2026-04-05T09:15:06Z</time></trkpt><trkpt lat="45.92443497203609" lon="9.286219579286678"><ele>211.0</ele><time>2026-04-05T09:15:08Z</time></trkpt><trkpt lat="45.92433418894766" lon="9.286285515663206"><ele>211.0</ele><time>2026-04-05T09:15:10Z</time></trkpt><trkpt lat="45.92427639698645" lon="9.286323130043362"><ele>211.0</ele><time>2026-04-05T09:15:11Z</time></trkpt><trkpt lat="45.92421545524342" lon="9.286357965762509"><ele>210.99999999999997</ele><time>2026-04-05T09:15:12Z</time></trkpt><trkpt lat="45.92415138883308" lon="9.286395789390742"><ele>211.0</ele><time>2026-04-05T09:15:13Z</time></trkpt><trkpt lat="45.92408369658027" lon="9.286432645748945"><ele>210.33333333333331</ele><time>2026-04-05T09:15:14Z</time></trkpt><trkpt lat="45.92401899451633" lon="9.286475763421302"><ele>209.66666666666666</ele><time>2026-04-05T09:15:15Z</time></trkpt><trkpt lat="45.92394751223762" lon="9.28652875677124"><ele>209.0</ele><time>2026-04-05T09:15:16Z</time></trkpt><trkpt lat="45.92386922028913" lon="9.286586476516568"><ele>208.33333333333331</ele><time>2026-04-05T09:15:17Z</time></trkpt><trkpt lat="45.92378886637802" lon="9.286646332146336"><ele>207.66666666666666</ele><time>2026-04-05T09:15:18Z</time></trkpt><trkpt lat="45.92371216651152" lon="9.286725901213531"><ele>207.0</ele><time>2026-04-05T09:15:19Z</time></trkpt><trkpt lat="45.92363663269237" lon="9.286810659272023"><ele>207.0</ele><time>2026-04-05T09:15:20Z</time></trkpt><trkpt lat="45.92356216560914" lon="9.28689035350438"><ele>207.0</ele><time>2026-04-05T09:15:21Z</time></trkpt><trkpt lat="45.92348617366783" lon="9.286966718401274"><ele>207.0</ele><time>2026-04-05T09:15:22Z</time></trkpt><trkpt lat="45.92340753275648" lon="9.287041200058237"><ele>207.0</ele><time>2026-04-05T09:15:23Z</time></trkpt><trkpt lat="45.92332499586513" lon="9.2871193270702"><ele>207.0</ele><time>2026-04-05T09:15:24Z</time></trkpt><trkpt lat="45.923238026748095" lon="9.287204792280587"><ele>207.6</ele><time>2026-04-05T09:15:25Z</time></trkpt><trkpt lat="45.92315273773268" lon="9.287287378104963"><ele>208.2</ele><time>2026-04-05T09:15:26Z</time></trkpt><trkpt lat="45.92306455991302" lon="9.287368016800333"><ele>208.8</ele><time>2026-04-05T09:15:27Z</time></trkpt><trkpt lat="45.92296433753183" lon="9.287436650482105"><ele>209.4</ele><time>2026-04-05T09:15:28Z</time></trkpt><trkpt lat="45.92285434234764" lon="9.287492788989622"><ele>210.0</ele><time>2026-04-05T09:15:29Z</time></trkpt><trkpt lat="45.92274536727165" lon="9.287545850395924"><ele>210.0</ele><time>2026-04-05T09:15:30Z</time></trkpt><trkpt lat="45.92263188586173" lon="9.287580164446494"><ele>210.0</ele><time>2026-04-05T09:15:31Z</time></trkpt><trkpt lat="45.92251005746655" lon="9.287572385583223"><ele>210.0</ele><time>2026-04-05T09:15:32Z</time></trkpt><trkpt lat="45.92238514024757" lon="9.287554423174127"><ele>210.0</ele><time>2026-04-05T09:15:33Z</time></trkpt><trkpt lat="45.92226070167804" lon="9.28755002579554"><ele>213.75</ele><time>2026-04-05T09:15:34Z</time></trkpt><trkpt lat="45.922141766711064" lon="9.287567351214797"><ele>217.5</ele><time>2026-04-05T09:15:35Z</time></trkpt><trkpt lat="45.92202930696415" lon="9.287600362194778"><ele>221.25</ele><time>2026-04-05T09:15:36Z</time></trkpt><trkpt lat="45.921919633759465" lon="9.287641216166802"><ele>225.0</ele><time>2026-04-05T09:15:37Z</time></trkpt><trkpt lat="45.92181416612815" lon="9.287688345110443"><ele>226.8</ele><time>2026-04-05T09:15:38Z</time></trkpt><trkpt lat="45.92171564073757" lon="9.287736762494633"><ele>228.6</ele><time>2026-04-05T09:15:39Z</time></trkpt><trkpt lat="45.921617601272054" lon="9.287782480074375"><ele>230.39999999999998</ele><time>2026-04-05T09:15:40Z</time></trkpt><trkpt lat="45.92151915755296" lon="9.287822672161344"><ele>232.2</ele><time>2026-04-05T09:15:40.999Z</time></trkpt><trkpt lat="45.921419290075846" lon="9.287865635495404"><ele>234.0</ele><time>2026-04-05T09:15:41.999Z</time></trkpt><trkpt lat="45.92132111890351" lon="9.287916449589323"><ele>234.0</ele><time>2026-04-05T09:15:42.999Z</time></trkpt><trkpt lat="45.92122606158321" lon="9.287986242891657"><ele>233.99999999999997</ele><time>2026-04-05T09:15:43.999Z</time></trkpt><trkpt lat="45.921134298348555" lon="9.288067945751472"><ele>233.99999999999997</ele><time>2026-04-05T09:15:44.999Z</time></trkpt><trkpt lat="45.92104152063072" lon="9.288155915003495"><ele>234.0</ele><time>2026-04-05T09:15:45.999Z</time></trkpt><trkpt lat="45.92094911538394" lon="9.288247018087853"><ele>234.0</ele><time>2026-04-05T09:15:46.999Z</time></trkpt><trkpt lat="45.92085195070409" lon="9.288327899828621"><ele>229.75</ele><time>2026-04-05T09:15:47.999Z</time></trkpt><trkpt lat="45.920754946342704" lon="9.288422128880738"><ele>225.5</ele><time>2026-04-05T09:15:48.999Z</time></trkpt><trkpt lat="45.92065803726044" lon="9.288511899348986"><ele>221.25</ele><time>2026-04-05T09:15:49.999Z</time></trkpt><trkpt lat="45.92055942832776" lon="9.288603253453902"><ele>217.0</ele><time>2026-04-05T09:15:50.999Z</time></trkpt><trkpt lat="45.92046296176413" lon="9.288693620150008"><ele>217.0</ele><time>2026-04-05T09:15:51.999Z</time></trkpt><trkpt lat="45.92036983810631" lon="9.288777196354"><ele>217.0</ele><time>2026-04-05T09:15:52.999Z</time></trkpt><trkpt lat="45.92028539301447" lon="9.288851373852284"><ele>217.0</ele><time>2026-04-05T09:15:53.999Z</time></trkpt><trkpt lat="45.920207487401335" lon="9.288928096645932"><ele>217.0</ele><time>2026-04-05T09:15:54.999Z</time></trkpt><trkpt lat="45.92013173198943" lon="9.288993832023317"><ele>217.0</ele><time>2026-04-05T09:15:55.999Z</time></trkpt><trkpt lat="45.92004901716246" lon="9.289045305574811"><ele>215.6</ele><time>2026-04-05T09:15:56.999Z</time></trkpt><trkpt lat="45.91996141955393" lon="9.289075740636"><ele>214.2</ele><time>2026-04-05T09:15:57.999Z</time></trkpt><trkpt lat="45.919872045215484" lon="9.289099401676877"><ele>212.8</ele><time>2026-04-05T09:15:58.999Z</time></trkpt><trkpt lat="45.9197788938506" lon="9.289123256252614"><ele>211.4</ele><time>2026-04-05T09:15:59.999Z</time></trkpt><trkpt lat="45.91968341665278" lon="9.289150546975675"><ele>210.0</ele><time>2026-04-05T09:16:00.999Z</time></trkpt><trkpt lat="45.919587163283516" lon="9.289181873577203"><ele>210.0</ele><time>2026-04-05T09:16:01.999Z</time></trkpt><trkpt lat="45.919491572479885" lon="9.2892122307676"><ele>210.0</ele><time>2026-04-05T09:16:02.999Z</time></trkpt><trkpt lat="45.91939566948364" lon="9.289241362142329"><ele>210.0</ele><time>2026-04-05T09:16:03.999Z</time></trkpt><trkpt lat="45.91930008704016" lon="9.289266056486769"><ele>210.0</ele><time>2026-04-05T09:16:04.999Z</time></trkpt><trkpt lat="45.91920468606827" lon="9.289290471700053"><ele>210.0</ele><time>2026-04-05T09:16:05.999Z</time></trkpt><trkpt lat="45.91911192516766" lon="9.289315467221197"><ele>210.4</ele><time>2026-04-05T09:16:06.999Z</time></trkpt><trkpt lat="45.919020046390415" lon="9.289342875116727"><ele>210.8</ele><time>2026-04-05T09:16:07.999Z</time></trkpt><trkpt lat="45.91892790295102" lon="9.289370532583382"><ele>211.2</ele><time>2026-04-05T09:16:08.999Z</time></trkpt><trkpt lat="45.91883755475353" lon="9.289398453344473"><ele>211.6</ele><time>2026-04-05T09:16:09.999Z</time></trkpt><trkpt lat="45.91874976635555" lon="9.289438788240817"><ele>212.0</ele><time>2026-04-05T09:16:10.999Z</time></trkpt><trkpt lat="45.9186541037759" lon="9.289461529683251"><ele>212.0</ele><time>2026-04-05T09:16:11.999Z</time></trkpt><trkpt lat="45.918566598984135" lon="9.2895252680205"><ele>212.0</ele><time>2026-04-05T09:16:12.999Z</time></trkpt><trkpt lat="45.918495167804025" lon="9.289624195961016"><ele>212.0</ele><time>2026-04-05T09:16:13.999Z</time></trkpt><trkpt lat="45.91841782341247" lon="9.289708349109304"><ele>212.0</ele><time>2026-04-05T09:16:14.999Z</time></trkpt><trkpt lat="45.91833822063401" lon="9.289793503650513"><ele>212.0</ele><time>2026-04-05T09:16:15.999Z</time></trkpt><trkpt lat="45.91825462473409" lon="9.289876334945447"><ele>210.39999999999998</ele><time>2026-04-05T09:16:16.999Z</time></trkpt><trkpt lat="45.9181657658045" lon="9.289951509784267"><ele>208.79999999999998</ele><time>2026-04-05T09:16:17.999Z</time></trkpt><trkpt lat="45.91807082022237" lon="9.290003555441723"><ele>207.2</ele><time>2026-04-05T09:16:18.999Z</time></trkpt><trkpt lat="45.917971063288924" lon="9.290044517053323"><ele>205.6</ele><time>2026-04-05T09:16:19.999Z</time></trkpt><trkpt lat="45.91787507172987" lon="9.29010715329048"><ele>204.0</ele><time>2026-04-05T09:16:20.999Z</time></trkpt><trkpt lat="45.91778484393087" lon="9.290192502981757"><ele>204.0</ele><time>2026-04-05T09:16:21.999Z</time></trkpt><trkpt lat="45.91769793293638" lon="9.290294379172748"><ele>204.0</ele><time>2026-04-05T09:16:22.999Z</time></trkpt><trkpt lat="45.91761281307371" lon="9.290394857229371"><ele>204.0</ele><time>2026-04-05T09:16:23.999Z</time></trkpt><trkpt lat="45.91752927837967" lon="9.290498196810804"><ele>204.0</ele><time>2026-04-05T09:16:25Z</time></trkpt><trkpt lat="45.91745461095114" lon="9.290614498656549"><ele>204.0</ele><time>2026-04-05T09:16:26Z</time></trkpt><trkpt lat="45.91738685210257" lon="9.290742621559588"><ele>204.6</ele><time>2026-04-05T09:16:27Z</time></trkpt><trkpt lat="45.917320140030206" lon="9.290869043820996"><ele>205.2</ele><time>2026-04-05T09:16:28Z</time></trkpt><trkpt lat="45.91725334689849" lon="9.290995865836871"><ele>205.79999999999998</ele><time>2026-04-05T09:16:29Z</time></trkpt><trkpt lat="45.917185501480866" lon="9.291121680433674"><ele>206.39999999999998</ele><time>2026-04-05T09:16:30Z</time></trkpt><trkpt lat="45.917111507451175" lon="9.29123983261594"><ele>207.0</ele><time>2026-04-05T09:16:31Z</time></trkpt><trkpt lat="45.917026235840275" lon="9.291355442166186"><ele>206.75</ele><time>2026-04-05T09:16:32Z</time></trkpt><trkpt lat="45.91692960192268" lon="9.291459003332124"><ele>206.5</ele><time>2026-04-05T09:16:33Z</time></trkpt><trkpt lat="45.916838584800516" lon="9.291558937991567"><ele>206.25</ele><time>2026-04-05T09:16:34Z</time></trkpt><trkpt lat="45.91674553057256" lon="9.291653639174353"><ele>206.0</ele><time>2026-04-05T09:16:35Z</time></trkpt><trkpt lat="45.916645370482215" lon="9.291739115844"><ele>206.0</ele><time>2026-04-05T09:16:36Z</time></trkpt><trkpt lat="45.916542585344004" lon="9.291822319626698"><ele>206.0</ele><time>2026-04-05T09:16:37Z</time></trkpt><trkpt lat="45.9164332564645" lon="9.291906787874494"><ele>206.0</ele><time>2026-04-05T09:16:38Z</time></trkpt><trkpt lat="45.9163265256626" lon="9.291996900686486"><ele>206.0</ele><time>2026-04-05T09:16:39Z</time></trkpt><trkpt lat="45.91621567923384" lon="9.292091237058987"><ele>206.0</ele><time>2026-04-05T09:16:40Z</time></trkpt><trkpt lat="45.916103654076885" lon="9.292189916209553"><ele>206.0</ele><time>2026-04-05T09:16:41Z</time></trkpt><trkpt lat="45.9159868586916" lon="9.292289917792155"><ele>206.0</ele><time>2026-04-05T09:16:42Z</time></trkpt><trkpt lat="45.915866971508706" lon="9.292388722580737"><ele>206.0</ele><time>2026-04-05T09:16:43Z</time></trkpt><trkpt lat="45.91574417580034" lon="9.292485642023172"><ele>205.0</ele><time>2026-04-05T09:16:44Z</time></trkpt><trkpt lat="45.91561932111249" lon="9.292573252818162"><ele>204.0</ele><time>2026-04-05T09:16:45Z</time></trkpt><trkpt lat="45.915490378649565" lon="9.292656953629772"><ele>203.0</ele><time>2026-04-05T09:16:46Z</time></trkpt><trkpt lat="45.91535869085963" lon="9.292734178863252"><ele>202.0</ele><time>2026-04-05T09:16:47Z</time></trkpt><trkpt lat="45.91522656695699" lon="9.29280787398237"><ele>202.0</ele><time>2026-04-05T09:16:48Z</time></trkpt><trkpt lat="45.915094480722026" lon="9.29288167338163"><ele>202.0</ele><time>2026-04-05T09:16:49Z</time></trkpt><trkpt lat="45.91496023760326" lon="9.292945356119633"><ele>202.0</ele><time>2026-04-05T09:16:50Z</time></trkpt><trkpt lat="45.91482305997201" lon="9.292983420188701"><ele>202.0</ele><time>2026-04-05T09:16:51Z</time></trkpt><trkpt lat="45.9146831274017" lon="9.292989341694495"><ele>202.75</ele><time>2026-04-05T09:16:52Z</time></trkpt><trkpt lat="45.91454410680423" lon="9.292976458721162"><ele>203.5</ele><time>2026-04-05T09:16:53Z</time></trkpt><trkpt lat="45.91440738087654" lon="9.292954043667875"><ele>204.25</ele><time>2026-04-05T09:16:54Z</time></trkpt><trkpt lat="45.91427300736562" lon="9.29292945122298"><ele>205.0</ele><time>2026-04-05T09:16:55Z</time></trkpt><trkpt lat="45.91414102882225" lon="9.292908918758446"><ele>205.25</ele><time>2026-04-05T09:16:56Z</time></trkpt><trkpt lat="45.91401076700299" lon="9.292898027170342"><ele>205.5</ele><time>2026-04-05T09:16:57Z</time></trkpt><trkpt lat="45.913882963552794" lon="9.292904992079151"><ele>205.75</ele><time>2026-04-05T09:16:58Z</time></trkpt><trkpt lat="45.91375626104536" lon="9.29292660356897"><ele>206.0</ele><time>2026-04-05T09:16:59Z</time></trkpt><trkpt lat="45.9136323921095" lon="9.292956426722006"><ele>206.0</ele><time>2026-04-05T09:17:00Z</time></trkpt><trkpt lat="45.913510289792185" lon="9.292987665561398"><ele>206.0</ele><time>2026-04-05T09:17:01Z</time></trkpt><trkpt lat="45.91339641600106" lon="9.293021225048017"><ele>206.0</ele><time>2026-04-05T09:17:02Z</time></trkpt><trkpt lat="45.91328694394209" lon="9.293054580832429"><ele>206.0</ele><time>2026-04-05T09:17:03Z</time></trkpt><trkpt lat="45.913182732125236" lon="9.293093957565759"><ele>205.20000000000002</ele><time>2026-04-05T09:17:04Z</time></trkpt><trkpt lat="45.913081629708486" lon="9.29314309674767"><ele>204.4</ele><time>2026-04-05T09:17:05Z</time></trkpt><trkpt lat="45.91298144861087" lon="9.293197534966591"><ele>203.6</ele><time>2026-04-05T09:17:06Z</time></trkpt><trkpt lat="45.91288301316555" lon="9.293258229565875"><ele>202.8</ele><time>2026-04-05T09:17:07Z</time></trkpt><trkpt lat="45.91278258938831" lon="9.293318731405831"><ele>202.0</ele><time>2026-04-05T09:17:08Z</time></trkpt><trkpt lat="45.912679278273565" lon="9.293379283761887"><ele>202.0</ele><time>2026-04-05T09:17:09Z</time></trkpt><trkpt lat="45.91257461251305" lon="9.293441945224181"><ele>202.0</ele><time>2026-04-05T09:17:10Z</time></trkpt><trkpt lat="45.91246999024683" lon="9.293505471312136"><ele>202.0</ele><time>2026-04-05T09:17:11Z</time></trkpt><trkpt lat="45.91236634570138" lon="9.293568055988358"><ele>202.0</ele><time>2026-04-05T09:17:12Z</time></trkpt><trkpt lat="45.91226811830841" lon="9.293632667137558"><ele>202.0</ele><time>2026-04-05T09:17:13Z</time></trkpt><trkpt lat="45.912178174333555" lon="9.293695017515162"><ele>202.99999999999997</ele><time>2026-04-05T09:17:14Z</time></trkpt><trkpt lat="45.91209442776563" lon="9.293748461469375"><ele>204.0</ele><time>2026-04-05T09:17:15Z</time></trkpt><trkpt lat="45.9120167001787" lon="9.29379907562564"><ele>205.0</ele><time>2026-04-05T09:17:16Z</time></trkpt><trkpt lat="45.91194298649064" lon="9.293845052900155"><ele>206.0</ele><time>2026-04-05T09:17:17Z</time></trkpt><trkpt lat="45.91186180695312" lon="9.293869036306088"><ele>206.99999999999997</ele><time>2026-04-05T09:17:18Z</time></trkpt><trkpt lat="45.911779498990605" lon="9.293878736034927"><ele>208.0</ele><time>2026-04-05T09:17:19Z</time></trkpt><trkpt lat="45.91169876562338" lon="9.29388411350543"><ele>208.16666666666666</ele><time>2026-04-05T09:17:20Z</time></trkpt><trkpt lat="45.91161728072521" lon="9.293889112777933"><ele>208.33333333333331</ele><time>2026-04-05T09:17:21Z</time></trkpt><trkpt lat="45.91153400778943" lon="9.293896925202416"><ele>208.5</ele><time>2026-04-05T09:17:22Z</time></trkpt><trkpt lat="45.91145390151332" lon="9.29390823703935"><ele>208.66666666666669</ele><time>2026-04-05T09:17:23Z</time></trkpt><trkpt lat="45.911370682606936" lon="9.293920167455825"><ele>208.83333333333334</ele><time>2026-04-05T09:17:24Z</time></trkpt><trkpt lat="45.911284292117635" lon="9.293933950935287"><ele>209.0</ele><time>2026-04-05T09:17:25Z</time></trkpt><trkpt lat="45.91119165278194" lon="9.293953342339025"><ele>208.2</ele><time>2026-04-05T09:17:26Z</time></trkpt><trkpt lat="45.911101545117475" lon="9.293976053860629"><ele>207.39999999999998</ele><time>2026-04-05T09:17:27Z</time></trkpt><trkpt lat="45.91101118789137" lon="9.294000431194359"><ele>206.6</ele><time>2026-04-05T09:17:28Z</time></trkpt><trkpt lat="45.91091605548899" lon="9.294031365053135"><ele>205.8</ele><time>2026-04-05T09:17:29Z</time></trkpt><trkpt lat="45.910818879976624" lon="9.294062960304586"><ele>205.0</ele><time>2026-04-05T09:17:30Z</time></trkpt><trkpt lat="45.91072030672395" lon="9.294100517684566"><ele>205.0</ele><time>2026-04-05T09:17:31Z</time></trkpt><trkpt lat="45.91062447715579" lon="9.294148598004687"><ele>205.0</ele><time>2026-04-05T09:17:32Z</time></trkpt><trkpt lat="45.91053178546456" lon="9.29420702137501"><ele>205.0</ele><time>2026-04-05T09:17:33Z</time></trkpt><trkpt lat="45.910445113535204" lon="9.29426754489761"><ele>205.0</ele><time>2026-04-05T09:17:34Z</time></trkpt><trkpt lat="45.91036397814738" lon="9.29432630556438"><ele>205.0</ele><time>2026-04-05T09:17:35Z</time></trkpt><trkpt lat="45.91028293771326" lon="9.294384494122067"><ele>205.0</ele><time>2026-04-05T09:17:36Z</time></trkpt><trkpt lat="45.91019979925942" lon="9.294441276503383"><ele>205.0</ele><time>2026-04-05T09:17:37Z</time></trkpt><trkpt lat="45.91011402883494" lon="9.294505435465016"><ele>205.0</ele><time>2026-04-05T09:17:38Z</time></trkpt><trkpt lat="45.910024293961676" lon="9.294579865499205"><ele>205.0</ele><time>2026-04-05T09:17:39Z</time></trkpt><trkpt lat="45.90993746031873" lon="9.294668381182117"><ele>205.0</ele><time>2026-04-05T09:17:39.999Z</time></trkpt><trkpt lat="45.90985350935801" lon="9.294772030375743"><ele>204.5</ele><time>2026-04-05T09:17:40.999Z</time></trkpt><trkpt lat="45.90977575552518" lon="9.294898948920023"><ele>204.0</ele><time>2026-04-05T09:17:41.999Z</time></trkpt><trkpt lat="45.909702128147636" lon="9.29505490365416"><ele>203.5</ele><time>2026-04-05T09:17:42.999Z</time></trkpt><trkpt lat="45.90963086669542" lon="9.29521619915938"><ele>203.0</ele><time>2026-04-05T09:17:43.999Z</time></trkpt><trkpt lat="45.9095641015081" lon="9.295380104173407"><ele>203.0</ele><time>2026-04-05T09:17:44.999Z</time></trkpt><trkpt lat="45.90949945496021" lon="9.29554724967564"><ele>203.0</ele><time>2026-04-05T09:17:45.999Z</time></trkpt><trkpt lat="45.90943830508827" lon="9.295710956122281"><ele>203.0</ele><time>2026-04-05T09:17:46.999Z</time></trkpt><trkpt lat="45.90936654131747" lon="9.29586757673474"><ele>203.0</ele><time>2026-04-05T09:17:47.999Z</time></trkpt><trkpt lat="45.90928956028481" lon="9.296014602729393"><ele>202.5</ele><time>2026-04-05T09:17:48.999Z</time></trkpt><trkpt lat="45.90921840921716" lon="9.2961503547792"><ele>202.0</ele><time>2026-04-05T09:17:49.999Z</time></trkpt><trkpt lat="45.90914839133985" lon="9.29627390345892"><ele>201.5</ele><time>2026-04-05T09:17:50.999Z</time></trkpt><trkpt lat="45.90906984981563" lon="9.29638498948646"><ele>201.0</ele><time>2026-04-05T09:17:51.999Z</time></trkpt><trkpt lat="45.90897648849059" lon="9.296484289132554"><ele>201.0</ele><time>2026-04-05T09:17:52.999Z</time></trkpt><trkpt lat="45.908868266576704" lon="9.296589044717292"><ele>201.0</ele><time>2026-04-05T09:17:53.999Z</time></trkpt><trkpt lat="45.908742453623255" lon="9.296711398617413"><ele>201.0</ele><time>2026-04-05T09:17:54.999Z</time></trkpt><trkpt lat="45.908599795826476" lon="9.296843721468715"><ele>201.0</ele><time>2026-04-05T09:17:55.999Z</time></trkpt><trkpt lat="45.908450034358715" lon="9.296977745604307"><ele>201.0</ele><time>2026-04-05T09:17:56.999Z</time></trkpt><trkpt lat="45.90828083412876" lon="9.297108133090044"><ele>201.0</ele><time>2026-04-05T09:17:57.999Z</time></trkpt><trkpt lat="45.90809225017861" lon="9.29727740947388"><ele>201.0</ele><time>2026-04-05T09:17:58.999Z</time></trkpt><trkpt lat="45.90788978697461" lon="9.297461583863205"><ele>201.0</ele><time>2026-04-05T09:17:59.999Z</time></trkpt><trkpt lat="45.907714594257826" lon="9.297631048412251"><ele>203.0</ele><time>2026-04-05T09:18:00.999Z</time></trkpt><trkpt lat="45.90754900606918" lon="9.297776441825565"><ele>205.0</ele><time>2026-04-05T09:18:01.999Z</time></trkpt><trkpt lat="45.907391989838324" lon="9.297917329613306"><ele>207.0</ele><time>2026-04-05T09:18:02.999Z</time></trkpt><trkpt lat="45.90724475176956" lon="9.298051269361446"><ele>204.66666666666669</ele><time>2026-04-05T09:18:03.999Z</time></trkpt><trkpt lat="45.9071052657169" lon="9.298179385895992"><ele>202.33333333333334</ele><time>2026-04-05T09:18:04.999Z</time></trkpt><trkpt lat="45.90696122760218" lon="9.298312848809276"><ele>200.0</ele><time>2026-04-05T09:18:05.999Z</time></trkpt><trkpt lat="45.90681615534376" lon="9.298446207611999"><ele>201.66666666666669</ele><time>2026-04-05T09:18:06.999Z</time></trkpt><trkpt lat="45.90666973724087" lon="9.298579013801245"><ele>203.33333333333331</ele><time>2026-04-05T09:18:07.999Z</time></trkpt><trkpt lat="45.90652339525976" lon="9.298709610296875"><ele>205.0</ele><time>2026-04-05T09:18:08.999Z</time></trkpt><trkpt lat="45.90638022898923" lon="9.298843402035589"><ele>203.33333333333331</ele><time>2026-04-05T09:18:09.999Z</time></trkpt><trkpt lat="45.906236898021554" lon="9.298974525588218"><ele>201.66666666666669</ele><time>2026-04-05T09:18:10.999Z</time></trkpt><trkpt lat="45.90609371905645" lon="9.299106674151886"><ele>200.0</ele><time>2026-04-05T09:18:11.999Z</time></trkpt><trkpt lat="45.90595018557022" lon="9.29923937162173"><ele>201.33333333333334</ele><time>2026-04-05T09:18:12.999Z</time></trkpt><trkpt lat="45.90580765251474" lon="9.299371631454523"><ele>202.66666666666669</ele><time>2026-04-05T09:18:13.999Z</time></trkpt><trkpt lat="45.905660795314084" lon="9.299499065368153"><ele>204.0</ele><time>2026-04-05T09:18:14.999Z</time></trkpt><trkpt lat="45.905510004860346" lon="9.299612271914794"><ele>204.0</ele><time>2026-04-05T09:18:15.999Z</time></trkpt><trkpt lat="45.905353091649005" lon="9.299696127857407"><ele>204.0</ele><time>2026-04-05T09:18:16.999Z</time></trkpt><trkpt lat="45.90518900401544" lon="9.299749450929081"><ele>204.0</ele><time>2026-04-05T09:18:17.999Z</time></trkpt><trkpt lat="45.905023168082735" lon="9.299798182859346"><ele>203.0</ele><time>2026-04-05T09:18:18.999Z</time></trkpt><trkpt lat="45.90486139778171" lon="9.299875678585792"><ele>202.0</ele><time>2026-04-05T09:18:19.999Z</time></trkpt><trkpt lat="45.904710443453176" lon="9.299992976618956"><ele>201.0</ele><time>2026-04-05T09:18:20.999Z</time></trkpt><trkpt lat="45.90457368224388" lon="9.300146707933944"><ele>201.0</ele><time>2026-04-05T09:18:21.999Z</time></trkpt><trkpt lat="45.904441648254156" lon="9.300304719781801"><ele>201.0</ele><time>2026-04-05T09:18:22.999Z</time></trkpt><trkpt lat="45.904309100480816" lon="9.300460912807766"><ele>201.0</ele><time>2026-04-05T09:18:23.999Z</time></trkpt><trkpt lat="45.90417807963165" lon="9.300607943678239"><ele>200.66666666666669</ele><time>2026-04-05T09:18:24.999Z</time></trkpt><trkpt lat="45.9040453094936" lon="9.300748397282533"><ele>200.33333333333334</ele><time>2026-04-05T09:18:25.999Z</time></trkpt><trkpt lat="45.9039038090869" lon="9.300874327747998"><ele>200.0</ele><time>2026-04-05T09:18:26.999Z</time></trkpt><trkpt lat="45.90375208432241" lon="9.300977964751766"><ele>200.0</ele><time>2026-04-05T09:18:27.999Z</time></trkpt><trkpt lat="45.90359121524219" lon="9.301055656474379"><ele>200.0</ele><time>2026-04-05T09:18:28.999Z</time></trkpt><trkpt lat="45.90342681309008" lon="9.301120726239125"><ele>200.0</ele><time>2026-04-05T09:18:29.999Z</time></trkpt><trkpt lat="45.90326070878128" lon="9.301177588043164"><ele>202.0</ele><time>2026-04-05T09:18:31Z</time></trkpt><trkpt lat="45.90309540379479" lon="9.301231237243528"><ele>204.0</ele><time>2026-04-05T09:18:32Z</time></trkpt><trkpt lat="45.90293639027153" lon="9.301288449407622"><ele>206.0</ele><time>2026-04-05T09:18:33Z</time></trkpt><trkpt lat="45.902784215863846" lon="9.30135572876957"><ele>207.0</ele><time>2026-04-05T09:18:34Z</time></trkpt><trkpt lat="45.902647140125445" lon="9.301471060988137"><ele>208.0</ele><time>2026-04-05T09:18:35Z</time></trkpt><trkpt lat="45.90253431014971" lon="9.301644002859573"><ele>209.0</ele><time>2026-04-05T09:18:36Z</time></trkpt><trkpt lat="45.90243342712317" lon="9.301844698068626"><ele>209.0</ele><time>2026-04-05T09:18:37Z</time></trkpt><trkpt lat="45.902330997978254" lon="9.30204835849161"><ele>209.0</ele><time>2026-04-05T09:18:38Z</time></trkpt><trkpt lat="45.90222565487215" lon="9.30225573566633"><ele>209.0</ele><time>2026-04-05T09:18:39Z</time></trkpt><trkpt lat="45.90212252338935" lon="9.302468536251038"><ele>207.33333333333334</ele><time>2026-04-05T09:18:40Z</time></trkpt><trkpt lat="45.90202427732165" lon="9.302687961977313"><ele>205.66666666666669</ele><time>2026-04-05T09:18:41Z</time></trkpt><trkpt lat="45.901932337888205" lon="9.302905632544858"><ele>204.0</ele><time>2026-04-05T09:18:42Z</time></trkpt><trkpt lat="45.901843235572905" lon="9.303119572567727"><ele>208.0</ele><time>2026-04-05T09:18:43Z</time></trkpt><trkpt lat="45.90174714821741" lon="9.303327523857003"><ele>212.0</ele><time>2026-04-05T09:18:44Z</time></trkpt><trkpt lat="45.901642700744475" lon="9.303527868118135"><ele>216.0</ele><time>2026-04-05T09:18:45Z</time></trkpt><trkpt lat="45.90153087335666" lon="9.303721099307577"><ele>216.0</ele><time>2026-04-05T09:18:46Z</time></trkpt><trkpt lat="45.90141468772017" lon="9.30391015346753"><ele>216.0</ele><time>2026-04-05T09:18:47Z</time></trkpt><trkpt lat="45.901297752401476" lon="9.304098913353558"><ele>216.0</ele><time>2026-04-05T09:18:48Z</time></trkpt><trkpt lat="45.90118474234556" lon="9.304279454091311"><ele>215.33333333333331</ele><time>2026-04-05T09:18:49Z</time></trkpt><trkpt lat="45.90107431688305" lon="9.304453584085987"><ele>214.66666666666666</ele><time>2026-04-05T09:18:50Z</time></trkpt><trkpt lat="45.900968467446276" lon="9.304634681746224"><ele>214.0</ele><time>2026-04-05T09:18:51Z</time></trkpt><trkpt lat="45.9008703208124" lon="9.304825688414493"><ele>214.0</ele><time>2026-04-05T09:18:52Z</time></trkpt><trkpt lat="45.90078230810361" lon="9.305019364753065"><ele>214.0</ele><time>2026-04-05T09:18:53Z</time></trkpt><trkpt lat="45.900699776518806" lon="9.305211481914325"><ele>214.0</ele><time>2026-04-05T09:18:54Z</time></trkpt><trkpt lat="45.90061877123389" lon="9.305403421508485"><ele>211.0</ele><time>2026-04-05T09:18:55Z</time></trkpt><trkpt lat="45.90052919527561" lon="9.305586245341917"><ele>208.0</ele><time>2026-04-05T09:18:56Z</time></trkpt><trkpt lat="45.90042953430439" lon="9.30575601012264"><ele>205.0</ele><time>2026-04-05T09:18:57Z</time></trkpt><trkpt lat="45.90031826382601" lon="9.305900638627062"><ele>205.0</ele><time>2026-04-05T09:18:58Z</time></trkpt><trkpt lat="45.90020375100138" lon="9.306036714956175"><ele>205.0</ele><time>2026-04-05T09:18:59Z</time></trkpt><trkpt lat="45.90008866665134" lon="9.306172977350238"><ele>205.0</ele><time>2026-04-05T09:19:00Z</time></trkpt><trkpt lat="45.899973974092156" lon="9.306311571747582"><ele>205.0</ele><time>2026-04-05T09:19:01Z</time></trkpt><trkpt lat="45.89986363396774" lon="9.30646037290685"><ele>206.66666666666666</ele><time>2026-04-05T09:19:02Z</time></trkpt><trkpt lat="45.89976217569768" lon="9.306622651287842"><ele>208.33333333333331</ele><time>2026-04-05T09:19:03Z</time></trkpt><trkpt lat="45.89966632979575" lon="9.306789825873944"><ele>210.0</ele><time>2026-04-05T09:19:04Z</time></trkpt><trkpt lat="45.89957218087857" lon="9.306960378876509"><ele>210.0</ele><time>2026-04-05T09:19:05Z</time></trkpt><trkpt lat="45.89947907050761" lon="9.307133205647618"><ele>210.0</ele><time>2026-04-05T09:19:06Z</time></trkpt><trkpt lat="45.89938725390238" lon="9.307306330748698"><ele>210.0</ele><time>2026-04-05T09:19:07Z</time></trkpt><trkpt lat="45.899292220242266" lon="9.30747752813187"><ele>215.0</ele><time>2026-04-05T09:19:08Z</time></trkpt><trkpt lat="45.89919930886731" lon="9.307649722657832"><ele>220.0</ele><time>2026-04-05T09:19:09Z</time></trkpt><trkpt lat="45.899111515476584" lon="9.30782934305176"><ele>225.0</ele><time>2026-04-05T09:19:10Z</time></trkpt><trkpt lat="45.899034156872425" lon="9.308021612046963"><ele>219.0</ele><time>2026-04-05T09:19:11Z</time></trkpt><trkpt lat="45.89896775296069" lon="9.308225701721481"><ele>213.0</ele><time>2026-04-05T09:19:12Z</time></trkpt><trkpt lat="45.898902711574166" lon="9.30843117483901"><ele>207.0</ele><time>2026-04-05T09:19:13Z</time></trkpt><trkpt lat="45.89883443057624" lon="9.308638027449426"><ele>207.0</ele><time>2026-04-05T09:19:14Z</time></trkpt><trkpt lat="45.89877062850533" lon="9.308844398398431"><ele>207.0</ele><time>2026-04-05T09:19:15Z</time></trkpt><trkpt lat="45.89871138315821" lon="9.309039124962288"><ele>207.0</ele><time>2026-04-05T09:19:16Z</time></trkpt><trkpt lat="45.898667399732865" lon="9.309230419871238"><ele>207.0</ele><time>2026-04-05T09:19:17Z</time></trkpt><trkpt lat="45.898638015422854" lon="9.309420151063271"><ele>205.0</ele><time>2026-04-05T09:19:18Z</time></trkpt><trkpt lat="45.89861165889441" lon="9.30961022730018"><ele>203.0</ele><time>2026-04-05T09:19:19Z</time></trkpt><trkpt lat="45.89858683864956" lon="9.309798572691593"><ele>201.0</ele><time>2026-04-05T09:19:20Z</time></trkpt><trkpt lat="45.89856156333802" lon="9.309980485955126"><ele>199.0</ele><time>2026-04-05T09:19:21Z</time></trkpt><trkpt lat="45.89853769973841" lon="9.310143645053609"><ele>198.79999999999998</ele><time>2026-04-05T09:19:22Z</time></trkpt><trkpt lat="45.89850682888442" lon="9.310292497864591"><ele>198.6</ele><time>2026-04-05T09:19:23Z</time></trkpt><trkpt lat="45.8984561855396" lon="9.310438335519102"><ele>198.4</ele><time>2026-04-05T09:19:24Z</time></trkpt><trkpt lat="45.89838275264419" lon="9.310555814900923"><ele>198.2</ele><time>2026-04-05T09:19:25Z</time></trkpt><trkpt lat="45.89829153435876" lon="9.310641976539811"><ele>198.0</ele><time>2026-04-05T09:19:26Z</time></trkpt><trkpt lat="45.89819217945805" lon="9.310714491561152"><ele>199.75</ele><time>2026-04-05T09:19:27Z</time></trkpt><trkpt lat="45.89809000316873" lon="9.310779209194914"><ele>201.5</ele><time>2026-04-05T09:19:28Z</time></trkpt><trkpt lat="45.89798243119894" lon="9.310834356716443"><ele>203.25</ele><time>2026-04-05T09:19:29Z</time></trkpt><trkpt lat="45.89786879962322" lon="9.310868275868092"><ele>205.0</ele><time>2026-04-05T09:19:30Z</time></trkpt><trkpt lat="45.89775027218829" lon="9.310874702874685"><ele>205.0</ele><time>2026-04-05T09:19:31Z</time></trkpt><trkpt lat="45.897632622744375" lon="9.31085779932157"><ele>205.0</ele><time>2026-04-05T09:19:32Z</time></trkpt><trkpt lat="45.89751816205835" lon="9.31084172287707"><ele>205.0</ele><time>2026-04-05T09:19:33Z</time></trkpt><trkpt lat="45.89741948207313" lon="9.310836258612174"><ele>205.0</ele><time>2026-04-05T09:19:34Z</time></trkpt><trkpt lat="45.89734219961636" lon="9.310832603425595"><ele>205.0</ele><time>2026-04-05T09:19:35Z</time></trkpt><trkpt lat="45.89725403465372" lon="9.310854267263258"><ele>207.2</ele><time>2026-04-05T09:19:37Z</time></trkpt><trkpt lat="45.89718620674928" lon="9.310899530560706"><ele>209.4</ele><time>2026-04-05T09:19:39Z</time></trkpt><trkpt lat="45.897113685699665" lon="9.310962866369675"><ele>211.60000000000002</ele><time>2026-04-05T09:19:40.999Z</time></trkpt><trkpt lat="45.89701209124663" lon="9.311039765994115"><ele>213.8</ele><time>2026-04-05T09:19:43.999Z</time></trkpt><trkpt lat="45.89690116638064" lon="9.311137600026786"><ele>216.0</ele><time>2026-04-05T09:19:45.999Z</time></trkpt><trkpt lat="45.89683805787724" lon="9.31119111249374"><ele>216.0</ele><time>2026-04-05T09:19:46.999Z</time></trkpt><trkpt lat="45.89677506583003" lon="9.311243549169037"><ele>216.00000000000003</ele><time>2026-04-05T09:19:47.999Z</time></trkpt><trkpt lat="45.8967060563087" lon="9.3113033858663"><ele>216.00000000000003</ele><time>2026-04-05T09:19:48.999Z</time></trkpt><trkpt lat="45.89662105400287" lon="9.311382504497184"><ele>216.0</ele><time>2026-04-05T09:19:49.999Z</time></trkpt><trkpt lat="45.896518761969354" lon="9.311475783358084"><ele>216.0</ele><time>2026-04-05T09:19:50.999Z</time></trkpt><trkpt lat="45.896405309958006" lon="9.311575802048035"><ele>212.0</ele><time>2026-04-05T09:19:51.999Z</time></trkpt><trkpt lat="45.89628225047816" lon="9.311685247437328"><ele>208.0</ele><time>2026-04-05T09:19:52.999Z</time></trkpt><trkpt lat="45.896137851223166" lon="9.311811340118238"><ele>204.0</ele><time>2026-04-05T09:19:53.999Z</time></trkpt><trkpt lat="45.89596526383262" lon="9.311965566370384"><ele>205.0</ele><time>2026-04-05T09:19:54.999Z</time></trkpt><trkpt lat="45.89575580065235" lon="9.312120393175688"><ele>206.0</ele><time>2026-04-05T09:19:55.999Z</time></trkpt><trkpt lat="45.89554697593599" lon="9.312297127773538"><ele>206.0</ele><time>2026-04-05T09:19:56.999Z</time></trkpt><trkpt lat="45.895359798111556" lon="9.312469847056446"><ele>206.0</ele><time>2026-04-05T09:19:57.999Z</time></trkpt><trkpt lat="45.89518529291122" lon="9.312604073947178"><ele>206.0</ele><time>2026-04-05T09:19:58.999Z</time></trkpt><trkpt lat="45.89503773350055" lon="9.312740133635566"><ele>206.25</ele><time>2026-04-05T09:19:59.999Z</time></trkpt><trkpt lat="45.894914890517455" lon="9.312856927629635"><ele>206.5</ele><time>2026-04-05T09:20:00.999Z</time></trkpt><trkpt lat="45.89480400497151" lon="9.312955342899613"><ele>206.75</ele><time>2026-04-05T09:20:01.999Z</time></trkpt><trkpt lat="45.89469480766343" lon="9.313036964752312"><ele>207.0</ele><time>2026-04-05T09:20:02.999Z</time></trkpt><trkpt lat="45.894573416320895" lon="9.313086598149967"><ele>207.0</ele><time>2026-04-05T09:20:03.999Z</time></trkpt><trkpt lat="45.89444641767258" lon="9.313065868829812"><ele>207.0</ele><time>2026-04-05T09:20:04.999Z</time></trkpt><trkpt lat="45.89430462428211" lon="9.313090432721646"><ele>207.0</ele><time>2026-04-05T09:20:05.999Z</time></trkpt><trkpt lat="45.894148430653786" lon="9.31316978883177"><ele>207.0</ele><time>2026-04-05T09:20:06.999Z</time></trkpt><trkpt lat="45.893999700711234" lon="9.31323625046838"><ele>216.0</ele><time>2026-04-05T09:20:07.999Z</time></trkpt><trkpt lat="45.89385824813279" lon="9.313325053644766"><ele>225.0</ele><time>2026-04-05T09:20:08.999Z</time></trkpt><trkpt lat="45.893724178692516" lon="9.313435832655083"><ele>234.0</ele><time>2026-04-05T09:20:09.999Z</time></trkpt><trkpt lat="45.893598187118656" lon="9.313576161377371"><ele>234.0</ele><time>2026-04-05T09:20:10.999Z</time></trkpt><trkpt lat="45.893474336047746" lon="9.313720071595572"><ele>234.0</ele><time>2026-04-05T09:20:11.999Z</time></trkpt><trkpt lat="45.89335301268618" lon="9.313863378020255"><ele>234.0</ele><time>2026-04-05T09:20:12.999Z</time></trkpt><trkpt lat="45.89323888115163" lon="9.314014400394374"><ele>229.66666666666669</ele><time>2026-04-05T09:20:13.999Z</time></trkpt><trkpt lat="45.89314325219059" lon="9.314198081131007"><ele>225.33333333333334</ele><time>2026-04-05T09:20:14.999Z</time></trkpt><trkpt lat="45.893056312049026" lon="9.314395701440436"><ele>221.0</ele><time>2026-04-05T09:20:15.999Z</time></trkpt><trkpt lat="45.8929411950513" lon="9.314558609641304"><ele>221.0</ele><time>2026-04-05T09:20:16.999Z</time></trkpt><trkpt lat="45.8927948326411" lon="9.314677003381592"><ele>221.0</ele><time>2026-04-05T09:20:17.999Z</time></trkpt><trkpt lat="45.89263738169189" lon="9.314784357366323"><ele>221.0</ele><time>2026-04-05T09:20:18.999Z</time></trkpt><trkpt lat="45.892484979256345" lon="9.314891689626277"><ele>218.0</ele><time>2026-04-05T09:20:19.999Z</time></trkpt><trkpt lat="45.892337054646354" lon="9.315000183020913"><ele>215.0</ele><time>2026-04-05T09:20:20.999Z</time></trkpt><trkpt lat="45.89218453138239" lon="9.315083592210874"><ele>212.0</ele><time>2026-04-05T09:20:21.999Z</time></trkpt><trkpt lat="45.8920245368284" lon="9.315136949675257"><ele>212.0</ele><time>2026-04-05T09:20:22.999Z</time></trkpt><trkpt lat="45.891857904434794" lon="9.315163138758251"><ele>212.0</ele><time>2026-04-05T09:20:23.999Z</time></trkpt><trkpt lat="45.8916940347629" lon="9.31516240631769"><ele>212.0</ele><time>2026-04-05T09:20:24.999Z</time></trkpt><trkpt lat="45.891546302852156" lon="9.315158171057767"><ele>218.5</ele><time>2026-04-05T09:20:25.999Z</time></trkpt><trkpt lat="45.89141647025001" lon="9.315182968768589"><ele>225.0</ele><time>2026-04-05T09:20:26.999Z</time></trkpt><trkpt lat="45.89130422889495" lon="9.31525088673459"><ele>231.5</ele><time>2026-04-05T09:20:27.999Z</time></trkpt><trkpt lat="45.891214439154396" lon="9.315361080715476"><ele>238.0</ele><time>2026-04-05T09:20:28.999Z</time></trkpt><trkpt lat="45.89115880275465" lon="9.315510160714037"><ele>229.25</ele><time>2026-04-05T09:20:29.999Z</time></trkpt><trkpt lat="45.89113342706151" lon="9.315677395829319"><ele>220.5</ele><time>2026-04-05T09:20:30.999Z</time></trkpt><trkpt lat="45.89113660842954" lon="9.315859712251822"><ele>211.75</ele><time>2026-04-05T09:20:31.999Z</time></trkpt><trkpt lat="45.89111827160105" lon="9.316064973297795"><ele>203.0</ele><time>2026-04-05T09:20:32.999Z</time></trkpt><trkpt lat="45.89111455624813" lon="9.31627383800421"><ele>201.75</ele><time>2026-04-05T09:20:33.999Z</time></trkpt><trkpt lat="45.891104391392425" lon="9.316469888464946"><ele>200.5</ele><time>2026-04-05T09:20:34.999Z</time></trkpt><trkpt lat="45.89107912454158" lon="9.316659147956006"><ele>199.25</ele><time>2026-04-05T09:20:36Z</time></trkpt><trkpt lat="45.891033351081965" lon="9.316852749391698"><ele>198.0</ele><time>2026-04-05T09:20:37Z</time></trkpt><trkpt lat="45.89094871167896" lon="9.31703314532396"><ele>203.25</ele><time>2026-04-05T09:20:38Z</time></trkpt><trkpt lat="45.89086559631866" lon="9.317210819087117"><ele>208.5</ele><time>2026-04-05T09:20:39Z</time></trkpt><trkpt lat="45.89078789486241" lon="9.317377404218112"><ele>213.75</ele><time>2026-04-05T09:20:40Z</time></trkpt><trkpt lat="45.890705495969094" lon="9.317531110826787"><ele>219.0</ele><time>2026-04-05T09:20:41Z</time></trkpt><trkpt lat="45.89057971192036" lon="9.317624991771696"><ele>219.0</ele><time>2026-04-05T09:20:42Z</time></trkpt><trkpt lat="45.890454788298506" lon="9.317738066565468"><ele>219.0</ele><time>2026-04-05T09:20:43Z</time></trkpt><trkpt lat="45.89032268206637" lon="9.317841170640994"><ele>219.0</ele><time>2026-04-05T09:20:44Z</time></trkpt><trkpt lat="45.89018881608595" lon="9.317934519539126"><ele>219.0</ele><time>2026-04-05T09:20:45Z</time></trkpt><trkpt lat="45.89005696532625" lon="9.318009146814093"><ele>218.25</ele><time>2026-04-05T09:20:46Z</time></trkpt><trkpt lat="45.889933383007396" lon="9.318081627155099"><ele>217.5</ele><time>2026-04-05T09:20:47Z</time></trkpt><trkpt lat="45.88981515771738" lon="9.318168571737495"><ele>216.75</ele><time>2026-04-05T09:20:48Z</time></trkpt><trkpt lat="45.88971735417431" lon="9.318293356902137"><ele>216.0</ele><time>2026-04-05T09:20:49Z</time></trkpt><trkpt lat="45.88963742813838" lon="9.318446636192816"><ele>216.0</ele><time>2026-04-05T09:20:50Z</time></trkpt><trkpt lat="45.88956825210125" lon="9.318615224068068"><ele>216.0</ele><time>2026-04-05T09:20:51Z</time></trkpt><trkpt lat="45.88950442335756" lon="9.318788701155722"><ele>216.0</ele><time>2026-04-05T09:20:52Z</time></trkpt><trkpt lat="45.88942427394711" lon="9.31895583520814"><ele>216.0</ele><time>2026-04-05T09:20:53Z</time></trkpt><trkpt lat="45.88931969162941" lon="9.31910385603732"><ele>218.5</ele><time>2026-04-05T09:20:54Z</time></trkpt><trkpt lat="45.889201847690785" lon="9.319247354591253"><ele>221.0</ele><time>2026-04-05T09:20:55Z</time></trkpt><trkpt lat="45.889092885799684" lon="9.319391092751443"><ele>223.5</ele><time>2026-04-05T09:20:56Z</time></trkpt><trkpt lat="45.888983442699896" lon="9.31952852610072"><ele>226.0</ele><time>2026-04-05T09:20:57Z</time></trkpt><trkpt lat="45.88886186295126" lon="9.31963190299614"><ele>226.0</ele><time>2026-04-05T09:20:58Z</time></trkpt><trkpt lat="45.888718319035824" lon="9.319653908099404"><ele>226.0</ele><time>2026-04-05T09:20:59Z</time></trkpt><trkpt lat="45.88857339831516" lon="9.319718204952697"><ele>226.0</ele><time>2026-04-05T09:21:00Z</time></trkpt><trkpt lat="45.8884389702565" lon="9.319820742491304"><ele>226.0</ele><time>2026-04-05T09:21:01Z</time></trkpt><trkpt lat="45.88830893815511" lon="9.319917715020305"><ele>226.5</ele><time>2026-04-05T09:21:02Z</time></trkpt><trkpt lat="45.888184226624965" lon="9.32001274488898"><ele>227.0</ele><time>2026-04-05T09:21:03Z</time></trkpt><trkpt lat="45.8880811649123" lon="9.320128623346786"><ele>227.5</ele><time>2026-04-05T09:21:04Z</time></trkpt><trkpt lat="45.88798903226677" lon="9.32026227385786"><ele>228.0</ele><time>2026-04-05T09:21:05Z</time></trkpt><trkpt lat="45.88790161259665" lon="9.32038731389082"><ele>228.0</ele><time>2026-04-05T09:21:06Z</time></trkpt><trkpt lat="45.887817695400415" lon="9.320510170708925"><ele>228.0</ele><time>2026-04-05T09:21:07Z</time></trkpt><trkpt lat="45.88773733410315" lon="9.320623934901016"><ele>228.0</ele><time>2026-04-05T09:21:08Z</time></trkpt><trkpt lat="45.887663483684655" lon="9.32074121944036"><ele>228.0</ele><time>2026-04-05T09:21:09Z</time></trkpt><trkpt lat="45.88759870077895" lon="9.320874539324983"><ele>229.60000000000002</ele><time>2026-04-05T09:21:10Z</time></trkpt><trkpt lat="45.88754280898392" lon="9.321012912502383"><ele>231.20000000000002</ele><time>2026-04-05T09:21:11Z</time></trkpt><trkpt lat="45.88749344412972" lon="9.321149401036097"><ele>232.8</ele><time>2026-04-05T09:21:12Z</time></trkpt><trkpt lat="45.887447430813374" lon="9.321275112145708"><ele>234.4</ele><time>2026-04-05T09:21:13Z</time></trkpt><trkpt lat="45.88740157792429" lon="9.321390366390078"><ele>236.0</ele><time>2026-04-05T09:21:14Z</time></trkpt><trkpt lat="45.887345701467495" lon="9.321500607568936"><ele>230.60000000000002</ele><time>2026-04-05T09:21:15Z</time></trkpt><trkpt lat="45.88727052375681" lon="9.32159986381494"><ele>225.20000000000002</ele><time>2026-04-05T09:21:16Z</time></trkpt><trkpt lat="45.8871831516419" lon="9.321692531014097"><ele>219.8</ele><time>2026-04-05T09:21:17Z</time></trkpt><trkpt lat="45.88709353359946" lon="9.32179002131543"><ele>214.39999999999998</ele><time>2026-04-05T09:21:18Z</time></trkpt><trkpt lat="45.887008099861156" lon="9.321902616050403"><ele>209.0</ele><time>2026-04-05T09:21:19Z</time></trkpt><trkpt lat="45.88692861994593" lon="9.322025230289988"><ele>209.0</ele><time>2026-04-05T09:21:20Z</time></trkpt><trkpt lat="45.886848503389814" lon="9.3221450492301"><ele>209.0</ele><time>2026-04-05T09:21:21Z</time></trkpt><trkpt lat="45.8867622452088" lon="9.32225675352801"><ele>209.0</ele><time>2026-04-05T09:21:22Z</time></trkpt><trkpt lat="45.886669159744464" lon="9.322356127955203"><ele>209.0</ele><time>2026-04-05T09:21:23Z</time></trkpt><trkpt lat="45.886579848724274" lon="9.32244579135844"><ele>207.6</ele><time>2026-04-05T09:21:24Z</time></trkpt><trkpt lat="45.886501964427644" lon="9.322546491218654"><ele>206.2</ele><time>2026-04-05T09:21:25Z</time></trkpt><trkpt lat="45.886439537315205" lon="9.32267155220927"><ele>204.79999999999998</ele><time>2026-04-05T09:21:26Z</time></trkpt><trkpt lat="45.88638581790368" lon="9.322810794359635"><ele>203.39999999999998</ele><time>2026-04-05T09:21:27Z</time></trkpt><trkpt lat="45.88633399852743" lon="9.322948931792457"><ele>202.0</ele><time>2026-04-05T09:21:28Z</time></trkpt><trkpt lat="45.886278939248314" lon="9.32308774473785"><ele>202.0</ele><time>2026-04-05T09:21:29Z</time></trkpt><trkpt lat="45.886217689166074" lon="9.323223280473073"><ele>202.0</ele><time>2026-04-05T09:21:30Z</time></trkpt><trkpt lat="45.886143693011505" lon="9.323347836166395"><ele>202.0</ele><time>2026-04-05T09:21:31Z</time></trkpt><trkpt lat="45.88604515798327" lon="9.323441681310326"><ele>202.0</ele><time>2026-04-05T09:21:32Z</time></trkpt><trkpt lat="45.88594201787505" lon="9.323513961530486"><ele>207.0</ele><time>2026-04-05T09:21:33Z</time></trkpt><trkpt lat="45.88584885819074" lon="9.323579188473378"><ele>212.0</ele><time>2026-04-05T09:21:34Z</time></trkpt><trkpt lat="45.88576317554408" lon="9.323642439056375"><ele>217.0</ele><time>2026-04-05T09:21:35Z</time></trkpt><trkpt lat="45.885682949705604" lon="9.323701237791102"><ele>222.0</ele><time>2026-04-05T09:21:36Z</time></trkpt><trkpt lat="45.88560608835903" lon="9.323755207667123"><ele>227.0</ele><time>2026-04-05T09:21:37Z</time></trkpt><trkpt lat="45.88552312159894" lon="9.323810311465056"><ele>227.0</ele><time>2026-04-05T09:21:38Z</time></trkpt><trkpt lat="45.88543796062955" lon="9.323860337280813"><ele>227.0</ele><time>2026-04-05T09:21:39Z</time></trkpt><trkpt lat="45.885355176734585" lon="9.323925064414427"><ele>227.0</ele><time>2026-04-05T09:21:40Z</time></trkpt><trkpt lat="45.88528589909943" lon="9.324010829653888"><ele>227.0</ele><time>2026-04-05T09:21:40.999Z</time></trkpt><trkpt lat="45.885224464062134" lon="9.32410004146104"><ele>227.0</ele><time>2026-04-05T09:21:41.999Z</time></trkpt><trkpt lat="45.8851579700486" lon="9.324187663874334"><ele>227.6</ele><time>2026-04-05T09:21:42.999Z</time></trkpt><trkpt lat="45.885088921269976" lon="9.324273148897507"><ele>228.2</ele><time>2026-04-05T09:21:43.999Z</time></trkpt><trkpt lat="45.8850262321097" lon="9.324370089468896"><ele>228.8</ele><time>2026-04-05T09:21:44.999Z</time></trkpt><trkpt lat="45.88497457239689" lon="9.32449007756953"><ele>229.4</ele><time>2026-04-05T09:21:45.999Z</time></trkpt><trkpt lat="45.88493297947222" lon="9.324622200231131"><ele>230.0</ele><time>2026-04-05T09:21:46.999Z</time></trkpt><trkpt lat="45.88489859982847" lon="9.324762572113277"><ele>225.8</ele><time>2026-04-05T09:21:47.999Z</time></trkpt><trkpt lat="45.88486767119855" lon="9.324906767644963"><ele>221.6</ele><time>2026-04-05T09:21:48.999Z</time></trkpt><trkpt lat="45.88483193468435" lon="9.325053983572131"><ele>217.39999999999998</ele><time>2026-04-05T09:21:49.999Z</time></trkpt><trkpt lat="45.884797045138264" lon="9.325204342754734"><ele>213.2</ele><time>2026-04-05T09:21:50.999Z</time></trkpt><trkpt lat="45.8847632575155" lon="9.325350492536813"><ele>209.0</ele><time>2026-04-05T09:21:51.999Z</time></trkpt><trkpt lat="45.88473389750515" lon="9.32548463991453"><ele>207.66666666666669</ele><time>2026-04-05T09:21:52.999Z</time></trkpt><trkpt lat="45.8847097918013" lon="9.325606616923762"><ele>206.33333333333334</ele><time>2026-04-05T09:21:53.999Z</time></trkpt><trkpt lat="45.884690750743154" lon="9.325722939320677"><ele>205.0</ele><time>2026-04-05T09:21:54.999Z</time></trkpt><trkpt lat="45.884654931979576" lon="9.325840781011017"><ele>203.66666666666669</ele><time>2026-04-05T09:21:55.999Z</time></trkpt><trkpt lat="45.88463423081786" lon="9.325968672586274"><ele>202.33333333333334</ele><time>2026-04-05T09:21:56.999Z</time></trkpt><trkpt lat="45.884612119256076" lon="9.326104231175863"><ele>201.0</ele><time>2026-04-05T09:21:57.999Z</time></trkpt><trkpt lat="45.88458815072386" lon="9.326250140150632"><ele>201.0</ele><time>2026-04-05T09:21:58.999Z</time></trkpt><trkpt lat="45.88457819589276" lon="9.326401437874924"><ele>201.0</ele><time>2026-04-05T09:21:59.999Z</time></trkpt><trkpt lat="45.884550221373466" lon="9.326549147372736"><ele>201.0</ele><time>2026-04-05T09:22:00.999Z</time></trkpt><trkpt lat="45.884523756329244" lon="9.326707443132708"><ele>201.0</ele><time>2026-04-05T09:22:01.999Z</time></trkpt><trkpt lat="45.88450018880303" lon="9.326870434360034"><ele>201.0</ele><time>2026-04-05T09:22:02.999Z</time></trkpt><trkpt lat="45.884477942270664" lon="9.327037039530138"><ele>201.0</ele><time>2026-04-05T09:22:03.999Z</time></trkpt><trkpt lat="45.88444363191477" lon="9.327196869961918"><ele>201.0</ele><time>2026-04-05T09:22:04.999Z</time></trkpt><trkpt lat="45.884440633401546" lon="9.327356792691624"><ele>201.0</ele><time>2026-04-05T09:22:05.999Z</time></trkpt><trkpt lat="45.88442632984136" lon="9.327515965418755"><ele>201.0</ele><time>2026-04-05T09:22:06.999Z</time></trkpt><trkpt lat="45.88441131776903" lon="9.327678236470687"><ele>200.5</ele><time>2026-04-05T09:22:07.999Z</time></trkpt><trkpt lat="45.88439524480091" lon="9.327845156787559"><ele>200.0</ele><time>2026-04-05T09:22:08.999Z</time></trkpt><trkpt lat="45.8843812708947" lon="9.328017181114634"><ele>199.5</ele><time>2026-04-05T09:22:09.999Z</time></trkpt><trkpt lat="45.884369662903175" lon="9.328190017629076"><ele>199.0</ele><time>2026-04-05T09:22:10.999Z</time></trkpt><trkpt lat="45.884358552556925" lon="9.328363865558897"><ele>198.75</ele><time>2026-04-05T09:22:11.999Z</time></trkpt><trkpt lat="45.88432936847802" lon="9.328533718138035"><ele>198.5</ele><time>2026-04-05T09:22:12.999Z</time></trkpt><trkpt lat="45.88433243147548" lon="9.328709107549116"><ele>198.25</ele><time>2026-04-05T09:22:13.999Z</time></trkpt><trkpt lat="45.884314158541684" lon="9.328881830143093"><ele>198.0</ele><time>2026-04-05T09:22:14.999Z</time></trkpt><trkpt lat="45.88429837895908" lon="9.329053426012843"><ele>198.0</ele><time>2026-04-05T09:22:15.999Z</time></trkpt><trkpt lat="45.884287265925636" lon="9.329225251469916"><ele>198.0</ele><time>2026-04-05T09:22:16.999Z</time></trkpt><trkpt lat="45.884279915513275" lon="9.329400051515622"><ele>198.0</ele><time>2026-04-05T09:22:17.999Z</time></trkpt><trkpt lat="45.884252106753905" lon="9.329569692201925"><ele>198.0</ele><time>2026-04-05T09:22:18.999Z</time></trkpt><trkpt lat="45.884239524001224" lon="9.329743725469342"><ele>203.75</ele><time>2026-04-05T09:22:19.999Z</time></trkpt><trkpt lat="45.884230304114936" lon="9.329925745705546"><ele>209.5</ele><time>2026-04-05T09:22:20.999Z</time></trkpt><trkpt lat="45.88422975345585" lon="9.330111567932759"><ele>215.25</ele><time>2026-04-05T09:22:21.999Z</time></trkpt><trkpt lat="45.884230621319325" lon="9.330300899203142"><ele>221.0</ele><time>2026-04-05T09:22:22.999Z</time></trkpt><trkpt lat="45.88423008547413" lon="9.33048733271497"><ele>219.75</ele><time>2026-04-05T09:22:23.999Z</time></trkpt><trkpt lat="45.88424185413603" lon="9.33067609872179"><ele>218.5</ele><time>2026-04-05T09:22:24.999Z</time></trkpt><trkpt lat="45.884217533618646" lon="9.330864204578658"><ele>217.25</ele><time>2026-04-05T09:22:25.999Z</time></trkpt><trkpt lat="45.88417035565179" lon="9.331049867932897"><ele>216.0</ele><time>2026-04-05T09:22:26.999Z</time></trkpt><trkpt lat="45.884095130332966" lon="9.331221218638193"><ele>214.0</ele><time>2026-04-05T09:22:27.999Z</time></trkpt><trkpt lat="45.88402226607115" lon="9.331393875308947"><ele>212.0</ele><time>2026-04-05T09:22:28.999Z</time></trkpt><trkpt lat="45.88395382662364" lon="9.331561072781163"><ele>210.0</ele><time>2026-04-05T09:22:29.999Z</time></trkpt><trkpt lat="45.88388585709714" lon="9.331731055529671"><ele>208.0</ele><time>2026-04-05T09:22:30.999Z</time></trkpt><trkpt lat="45.883816269746426" lon="9.33189505161769"><ele>208.0</ele><time>2026-04-05T09:22:31.999Z</time></trkpt><trkpt lat="45.883746554689814" lon="9.332064922083815"><ele>208.0</ele><time>2026-04-05T09:22:32.999Z</time></trkpt><trkpt lat="45.88368226580987" lon="9.33222354805169"><ele>208.0</ele><time>2026-04-05T09:22:33.999Z</time></trkpt><trkpt lat="45.883619426984595" lon="9.33238321670732"><ele>208.0</ele><time>2026-04-05T09:22:34.999Z</time></trkpt><trkpt lat="45.883550888016615" lon="9.332545121751037"><ele>208.0</ele><time>2026-04-05T09:22:35.999Z</time></trkpt><trkpt lat="45.88346995055362" lon="9.332696224806341"><ele>208.0</ele><time>2026-04-05T09:22:36.999Z</time></trkpt><trkpt lat="45.88338641712099" lon="9.332864011864798"><ele>208.0</ele><time>2026-04-05T09:22:37.999Z</time></trkpt><trkpt lat="45.88330154516186" lon="9.333040593487002"><ele>208.0</ele><time>2026-04-05T09:22:38.999Z</time></trkpt><trkpt lat="45.883206352615645" lon="9.333221022670473"><ele>208.0</ele><time>2026-04-05T09:22:39.999Z</time></trkpt><trkpt lat="45.883112703364645" lon="9.333405704195453"><ele>208.0</ele><time>2026-04-05T09:22:41Z</time></trkpt><trkpt lat="45.882997372797035" lon="9.333589179726095"><ele>208.0</ele><time>2026-04-05T09:22:42Z</time></trkpt><trkpt lat="45.882918397239784" lon="9.333811231181423"><ele>208.0</ele><time>2026-04-05T09:22:43Z</time></trkpt><trkpt lat="45.88282869828157" lon="9.334025621780183"><ele>208.0</ele><time>2026-04-05T09:22:44Z</time></trkpt><trkpt lat="45.882742946928445" lon="9.334230583423999"><ele>208.0</ele><time>2026-04-05T09:22:45Z</time></trkpt><trkpt lat="45.88265314566729" lon="9.334445082310394"><ele>392.0</ele><time>2026-04-05T09:22:46.072Z</time></trkpt><trkpt lat="45.88168921543253" lon="9.336862178583457"><ele>385.5</ele><time>2026-04-05T09:22:50.401Z</time></trkpt><trkpt lat="45.881418935499816" lon="9.337377519018743"><ele>379.0</ele><time>2026-04-05T09:22:51.402Z</time></trkpt><trkpt lat="45.881167359410895" lon="9.337911701986304"><ele>400.0</ele><time>2026-04-05T09:22:52.402Z</time></trkpt><trkpt lat="45.8809228" lon="9.3383789"><ele>421.0</ele><time>2026-04-05T09:22:53.402Z</time></trkpt><trkpt lat="45.87330150915367" lon="9.35639132923524"><ele>347.6666666666667</ele><time>2026-04-05T09:24:11.999Z</time></trkpt><trkpt lat="45.873227244345685" lon="9.35656564762276"><ele>274.33333333333337</ele><time>2026-04-05T09:24:12.999Z</time></trkpt><trkpt lat="45.87317773607057" lon="9.356773571846265"><ele>201.0</ele><time>2026-04-05T09:24:13.999Z</time></trkpt><trkpt lat="45.87307975716689" lon="9.356950136617352"><ele>201.0</ele><time>2026-04-05T09:24:14.999Z</time></trkpt><trkpt lat="45.8729713901682" lon="9.357099212701565"><ele>201.0</ele><time>2026-04-05T09:24:15.999Z</time></trkpt><trkpt lat="45.872857277805025" lon="9.357230344615994"><ele>201.0</ele><time>2026-04-05T09:24:16.999Z</time></trkpt><trkpt lat="45.87273885989296" lon="9.357362464968524"><ele>201.0</ele><time>2026-04-05T09:24:17.999Z</time></trkpt><trkpt lat="45.872605273955585" lon="9.357469789081682"><ele>203.66666666666669</ele><time>2026-04-05T09:24:18.999Z</time></trkpt><trkpt lat="45.87246440364689" lon="9.357570089259626"><ele>206.33333333333334</ele><time>2026-04-05T09:24:19.999Z</time></trkpt><trkpt lat="45.872312818962094" lon="9.357658688011007"><ele>209.0</ele><time>2026-04-05T09:24:20.999Z</time></trkpt><trkpt lat="45.87216119230918" lon="9.357724765669326"><ele>209.0</ele><time>2026-04-05T09:24:21.999Z</time></trkpt><trkpt lat="45.87201758744489" lon="9.357791815005482"><ele>209.0</ele><time>2026-04-05T09:24:22.999Z</time></trkpt><trkpt lat="45.869219807084235" lon="9.359259854864927"><ele>209.0</ele><time>2026-04-05T09:24:32.4Z</time></trkpt><trkpt lat="45.868627731944386" lon="9.359566527167958"><ele>435.0</ele><time>2026-04-05T09:24:33.4Z</time></trkpt><trkpt lat="45.869920859252304" lon="9.35775211192358"><ele>435.0</ele><time>2026-04-05T09:24:34.032Z</time></trkpt><trkpt lat="45.869717729112224" lon="9.357725528210302"><ele>435.0</ele><time>2026-04-05T09:24:35.027Z</time></trkpt><trkpt lat="45.86951762410776" lon="9.357697252634996"><ele>435.0</ele><time>2026-04-05T09:24:36.023Z</time></trkpt><trkpt lat="45.86931451070372" lon="9.357670100536767"><ele>198.0</ele><time>2026-04-05T09:24:37.023Z</time></trkpt><trkpt lat="45.85904197182888" lon="9.367224758759251"><ele>198.0</ele><time>2026-04-05T09:25:44.998Z</time></trkpt><trkpt lat="45.85894261102148" lon="9.367272418357418"><ele>198.0</ele><time>2026-04-05T09:25:45.998Z</time></trkpt><trkpt lat="45.85877225521042" lon="9.365756275591322"><ele>198.4</ele><time>2026-04-05T09:25:46.998Z</time></trkpt><trkpt lat="45.85867967218189" lon="9.365773687341555"><ele>198.8</ele><time>2026-04-05T09:25:47.998Z</time></trkpt><trkpt lat="45.858563761443065" lon="9.365836284015359"><ele>199.2</ele><time>2026-04-05T09:25:48.998Z</time></trkpt><trkpt lat="45.85846160761412" lon="9.365892294813195"><ele>199.6</ele><time>2026-04-05T09:25:49.998Z</time></trkpt><trkpt lat="45.85837152413518" lon="9.365988612857649"><ele>200.0</ele><time>2026-04-05T09:25:51Z</time></trkpt><trkpt lat="45.85830504711152" lon="9.366048673522736"><ele>200.5</ele><time>2026-04-05T09:25:52Z</time></trkpt><trkpt lat="45.85823118011255" lon="9.366075786396433"><ele>201.0</ele><time>2026-04-05T09:25:53Z</time></trkpt><trkpt lat="45.8581601754244" lon="9.366142797241585"><ele>201.5</ele><time>2026-04-05T09:25:54Z</time></trkpt><trkpt lat="45.85813427264771" lon="9.36588751998642"><ele>202.0</ele><time>2026-04-05T09:25:55Z</time></trkpt><trkpt lat="45.85801271922188" lon="9.36582002211235"><ele>202.0</ele><time>2026-04-05T09:25:57Z</time></trkpt><trkpt lat="45.85788938770758" lon="9.365818652081822"><ele>202.0</ele><time>2026-04-05T09:25:59Z</time></trkpt><trkpt lat="45.857787781618676" lon="9.365831737947342"><ele>202.0</ele><time>2026-04-05T09:26:01Z</time></trkpt><trkpt lat="45.85767746166456" lon="9.365840084734465"><ele>202.0</ele><time>2026-04-05T09:26:03Z</time></trkpt><trkpt lat="45.85756433188646" lon="9.365841863365368"><ele>202.0</ele><time>2026-04-05T09:26:05Z</time></trkpt><trkpt lat="45.85743459990792" lon="9.36585205102092"><ele>201.49999999999997</ele><time>2026-04-05T09:26:07Z</time></trkpt><trkpt lat="45.85735796797241" lon="9.365877309941387"><ele>201.0</ele><time>2026-04-05T09:26:08Z</time></trkpt><trkpt lat="45.857318542101446" lon="9.36596787873875"><ele>200.5</ele><time>2026-04-05T09:26:09Z</time></trkpt><trkpt lat="45.85732915665073" lon="9.366096883742014"><ele>200.0</ele><time>2026-04-05T09:26:10Z</time></trkpt><trkpt lat="45.85736464341315" lon="9.366213066418275"><ele>199.49999999999997</ele><time>2026-04-05T09:26:11Z</time></trkpt><trkpt lat="45.857383931487846" lon="9.366327839174115"><ele>199.0</ele><time>2026-04-05T09:26:12Z</time></trkpt><trkpt lat="45.85735213612434" lon="9.3664290928387"><ele>198.99999999999997</ele><time>2026-04-05T09:26:13Z</time></trkpt><trkpt lat="45.857308502689264" lon="9.366518683195515"><ele>199.0</ele><time>2026-04-05T09:26:14Z</time></trkpt><trkpt lat="45.85728227742052" lon="9.366626153825413"><ele>199.0</ele><time>2026-04-05T09:26:15Z</time></trkpt><trkpt lat="45.857280133958106" lon="9.3667434033354"><ele>199.0</ele><time>2026-04-05T09:26:16Z</time></trkpt><trkpt lat="45.85729812455521" lon="9.366856324298809"><ele>198.99999999999997</ele><time>2026-04-05T09:26:17Z</time></trkpt><trkpt lat="45.85733776974972" lon="9.366962053362622"><ele>199.0</ele><time>2026-04-05T09:26:18Z</time></trkpt><trkpt lat="45.857413781719025" lon="9.367081143772193"><ele>198.66666666666666</ele><time>2026-04-05T09:26:19Z</time></trkpt><trkpt lat="45.857488783353986" lon="9.367276069686762"><ele>198.33333333333331</ele><time>2026-04-05T09:26:20Z</time></trkpt><trkpt lat="45.85759005409086" lon="9.367492682961263"><ele>198.0</ele><time>2026-04-05T09:26:21Z</time></trkpt><trkpt lat="45.85770005140266" lon="9.367728201638569"><ele>198.0</ele><time>2026-04-05T09:26:22Z</time></trkpt><trkpt lat="45.857810484966095" lon="9.367966787860839"><ele>198.0</ele><time>2026-04-05T09:26:23Z</time></trkpt><trkpt lat="45.85786680384932" lon="9.368170764132897"><ele>198.0</ele><time>2026-04-05T09:26:24Z</time></trkpt><trkpt lat="45.85785631269852" lon="9.36836902514813"><ele>198.33333333333331</ele><time>2026-04-05T09:26:25Z</time></trkpt><trkpt lat="45.85783571402834" lon="9.368598631009858"><ele>198.66666666666666</ele><time>2026-04-05T09:26:26Z</time></trkpt><trkpt lat="45.85781593289958" lon="9.368821685414114"><ele>199.0</ele><time>2026-04-05T09:26:27Z</time></trkpt><trkpt lat="45.857801367393435" lon="9.369052170860519"><ele>199.0</ele><time>2026-04-05T09:26:28Z</time></trkpt><trkpt lat="45.857774056665896" lon="9.369286361151206"><ele>199.0</ele><time>2026-04-05T09:26:29Z</time></trkpt><trkpt lat="45.85775251302298" lon="9.369520208210703"><ele>199.0</ele><time>2026-04-05T09:26:30Z</time></trkpt><trkpt lat="45.857734737209384" lon="9.369760304109283"><ele>199.0</ele><time>2026-04-05T09:26:31Z</time></trkpt><trkpt lat="45.85772076449106" lon="9.370006265277855"><ele>199.0</ele><time>2026-04-05T09:26:32Z</time></trkpt><trkpt lat="45.857700505086505" lon="9.370230997627724"><ele>199.0</ele><time>2026-04-05T09:26:33Z</time></trkpt><trkpt lat="45.85770387128186" lon="9.37045427787121"><ele>200.33333333333331</ele><time>2026-04-05T09:26:34Z</time></trkpt><trkpt lat="45.85776293053627" lon="9.370671305557275"><ele>201.66666666666669</ele><time>2026-04-05T09:26:35Z</time></trkpt><trkpt lat="45.85786490293846" lon="9.370889341661458"><ele>203.0</ele><time>2026-04-05T09:26:36Z</time></trkpt><trkpt lat="45.85796534082126" lon="9.371107238480286"><ele>203.0</ele><time>2026-04-05T09:26:37Z</time></trkpt><trkpt lat="45.85801658762477" lon="9.371308142155776"><ele>203.0</ele><time>2026-04-05T09:26:38Z</time></trkpt><trkpt lat="45.8580239502272" lon="9.371503424199268"><ele>203.0</ele><time>2026-04-05T09:26:39Z</time></trkpt><trkpt lat="45.857984869792524" lon="9.37170518184209"><ele>203.0</ele><time>2026-04-05T09:26:40Z</time></trkpt><trkpt lat="45.85790643432947" lon="9.371887220806569"><ele>203.0</ele><time>2026-04-05T09:26:41Z</time></trkpt><trkpt lat="45.857777037330074" lon="9.37200346867376"><ele>203.0</ele><time>2026-04-05T09:26:42Z</time></trkpt><trkpt lat="45.85764357564105" lon="9.372149307769481"><ele>203.0</ele><time>2026-04-05T09:26:43Z</time></trkpt><trkpt lat="45.85749483252676" lon="9.372281317117254"><ele>209.33333333333334</ele><time>2026-04-05T09:26:44Z</time></trkpt><trkpt lat="45.85735367772394" lon="9.372463584749083"><ele>215.66666666666669</ele><time>2026-04-05T09:26:44.999Z</time></trkpt><trkpt lat="45.85720595853044" lon="9.372678052744291"><ele>222.0</ele><time>2026-04-05T09:26:45.999Z</time></trkpt><trkpt lat="45.857076569583455" lon="9.372931539945903"><ele>211.5</ele><time>2026-04-05T09:26:46.999Z</time></trkpt><trkpt lat="45.85695176878041" lon="9.373218057276382"><ele>201.0</ele><time>2026-04-05T09:26:47.999Z</time></trkpt><trkpt lat="45.85682994554281" lon="9.37350099127882"><ele>206.66666666666669</ele><time>2026-04-05T09:26:48.999Z</time></trkpt><trkpt lat="45.8567141264547" lon="9.373762348223801"><ele>212.33333333333334</ele><time>2026-04-05T09:26:49.999Z</time></trkpt><trkpt lat="45.85660488405035" lon="9.373978921289225"><ele>218.0</ele><time>2026-04-05T09:26:50.999Z</time></trkpt><trkpt lat="45.8565077559396" lon="9.374167694041418"><ele>218.0</ele><time>2026-04-05T09:26:51.999Z</time></trkpt><trkpt lat="45.856395144047916" lon="9.374302368252634"><ele>218.0</ele><time>2026-04-05T09:26:52.999Z</time></trkpt><trkpt lat="45.85627957634078" lon="9.374406047572501"><ele>218.0</ele><time>2026-04-05T09:26:53.999Z</time></trkpt><trkpt lat="45.85615982611056" lon="9.374483187892784"><ele>218.0</ele><time>2026-04-05T09:26:54.999Z</time></trkpt><trkpt lat="45.85603469173053" lon="9.374560468870044"><ele>218.5</ele><time>2026-04-05T09:26:55.999Z</time></trkpt><trkpt lat="45.8559155971442" lon="9.374524284166421"><ele>219.0</ele><time>2026-04-05T09:26:56.999Z</time></trkpt><trkpt lat="45.85578621817829" lon="9.374471096546324"><ele>219.5</ele><time>2026-04-05T09:26:57.999Z</time></trkpt><trkpt lat="45.855608761506254" lon="9.374434193850863"><ele>220.0</ele><time>2026-04-05T09:26:58.999Z</time></trkpt><trkpt lat="45.85545105942565" lon="9.374421764960044"><ele>220.0</ele><time>2026-04-05T09:26:59.999Z</time></trkpt><trkpt lat="45.85530166549488" lon="9.374382360098483"><ele>220.0</ele><time>2026-04-05T09:27:00.999Z</time></trkpt><trkpt lat="45.85514976274329" lon="9.37436396823211"><ele>220.0</ele><time>2026-04-05T09:27:01.999Z</time></trkpt><trkpt lat="45.85499334610436" lon="9.374372889663748"><ele>220.25</ele><time>2026-04-05T09:27:02.999Z</time></trkpt><trkpt lat="45.854844926569434" lon="9.374411653987918"><ele>220.5</ele><time>2026-04-05T09:27:03.999Z</time></trkpt><trkpt lat="45.85470530695815" lon="9.374454730568978"><ele>220.75</ele><time>2026-04-05T09:27:04.999Z</time></trkpt><trkpt lat="45.854571483311446" lon="9.374493317882175"><ele>221.0</ele><time>2026-04-05T09:27:05.999Z</time></trkpt><trkpt lat="45.85443971580871" lon="9.374504189187698"><ele>221.0</ele><time>2026-04-05T09:27:06.999Z</time></trkpt><trkpt lat="45.85431667044111" lon="9.374496912752935"><ele>221.00000000000003</ele><time>2026-04-05T09:27:07.999Z</time></trkpt><trkpt lat="45.85420071004987" lon="9.374487013593887"><ele>221.00000000000003</ele><time>2026-04-05T09:27:08.999Z</time></trkpt><trkpt lat="45.85409874242139" lon="9.37449979557667"><ele>221.0</ele><time>2026-04-05T09:27:09.999Z</time></trkpt><trkpt lat="45.85401014532229" lon="9.37450798005048"><ele>221.0</ele><time>2026-04-05T09:27:10.999Z</time></trkpt><trkpt lat="45.853941609674834" lon="9.374515278788303"><ele>219.60000000000002</ele><time>2026-04-05T09:27:11.999Z</time></trkpt><trkpt lat="45.8538728053849" lon="9.374548525756932"><ele>218.20000000000002</ele><time>2026-04-05T09:27:12.999Z</time></trkpt><trkpt lat="45.85379039843871" lon="9.374612533587669"><ele>216.79999999999998</ele><time>2026-04-05T09:27:13.999Z</time></trkpt><trkpt lat="45.85368493297381" lon="9.37466064736508"><ele>215.39999999999998</ele><time>2026-04-05T09:27:14.999Z</time></trkpt><trkpt lat="45.853577499760156" lon="9.374719434023985"><ele>214.0</ele><time>2026-04-05T09:27:15.999Z</time></trkpt><trkpt lat="45.85347234102504" lon="9.37478972882417"><ele>212.5</ele><time>2026-04-05T09:27:16.999Z</time></trkpt><trkpt lat="45.853353950394954" lon="9.374838965743754"><ele>211.0</ele><time>2026-04-05T09:27:17.999Z</time></trkpt><trkpt lat="45.85323742518012" lon="9.374898154663402"><ele>209.5</ele><time>2026-04-05T09:27:18.999Z</time></trkpt><trkpt lat="45.85312609078894" lon="9.374968717557453"><ele>208.0</ele><time>2026-04-05T09:27:19.999Z</time></trkpt><trkpt lat="45.85302722376579" lon="9.375053144130534"><ele>208.0</ele><time>2026-04-05T09:27:20.999Z</time></trkpt><trkpt lat="45.85292704487954" lon="9.375111404623379"><ele>208.0</ele><time>2026-04-05T09:27:21.999Z</time></trkpt><trkpt lat="45.852826907921525" lon="9.375195073515512"><ele>208.0</ele><time>2026-04-05T09:27:22.999Z</time></trkpt><trkpt lat="45.852728047639225" lon="9.375273684076717"><ele>208.0</ele><time>2026-04-05T09:27:23.999Z</time></trkpt><trkpt lat="45.852630114689916" lon="9.375350728493522"><ele>208.0</ele><time>2026-04-05T09:27:24.999Z</time></trkpt><trkpt lat="45.85254032753986" lon="9.375432056166808"><ele>208.0</ele><time>2026-04-05T09:27:25.999Z</time></trkpt><trkpt lat="45.852458095451006" lon="9.375518571624475"><ele>208.0</ele><time>2026-04-05T09:27:26.999Z</time></trkpt><trkpt lat="45.85238421659717" lon="9.375616854139913"><ele>208.0</ele><time>2026-04-05T09:27:27.999Z</time></trkpt><trkpt lat="45.852319707538065" lon="9.375719682792608"><ele>208.0</ele><time>2026-04-05T09:27:28.999Z</time></trkpt><trkpt lat="45.85225619842168" lon="9.375823141565398"><ele>208.0</ele><time>2026-04-05T09:27:29.999Z</time></trkpt><trkpt lat="45.852198282626574" lon="9.375935460867733"><ele>208.0</ele><time>2026-04-05T09:27:30.999Z</time></trkpt><trkpt lat="45.8521474405527" lon="9.376062644862726"><ele>208.0</ele><time>2026-04-05T09:27:31.999Z</time></trkpt><trkpt lat="45.85209815908738" lon="9.376192265478966"><ele>208.0</ele><time>2026-04-05T09:27:32.999Z</time></trkpt><trkpt lat="45.852042508394646" lon="9.376318009203542"><ele>208.0</ele><time>2026-04-05T09:27:33.999Z</time></trkpt><trkpt lat="45.85197523037502" lon="9.376434887349058"><ele>208.0</ele><time>2026-04-05T09:27:34.999Z</time></trkpt><trkpt lat="45.851903571692304" lon="9.376547839917642"><ele>208.8</ele><time>2026-04-05T09:27:35.999Z</time></trkpt><trkpt lat="45.851827717859884" lon="9.376659022007923"><ele>209.60000000000002</ele><time>2026-04-05T09:27:36.999Z</time></trkpt><trkpt lat="45.85175797564309" lon="9.376774856921921"><ele>210.39999999999998</ele><time>2026-04-05T09:27:37.999Z</time></trkpt><trkpt lat="45.85169182142297" lon="9.376896526987238"><ele>211.2</ele><time>2026-04-05T09:27:38.999Z</time></trkpt><trkpt lat="45.851629684439686" lon="9.377023690551574"><ele>212.0</ele><time>2026-04-05T09:27:39.999Z</time></trkpt><trkpt lat="45.8515704242947" lon="9.377151959509874"><ele>210.39999999999998</ele><time>2026-04-05T09:27:40.999Z</time></trkpt><trkpt lat="45.85150960089084" lon="9.377283575899948"><ele>208.79999999999998</ele><time>2026-04-05T09:27:41.999Z</time></trkpt><trkpt lat="45.85145000657037" lon="9.377416461455164"><ele>207.2</ele><time>2026-04-05T09:27:42.999Z</time></trkpt><trkpt lat="45.8513886600968" lon="9.377545967237591"><ele>205.6</ele><time>2026-04-05T09:27:43.999Z</time></trkpt><trkpt lat="45.85133145137502" lon="9.377676228580201"><ele>204.0</ele><time>2026-04-05T09:27:44.999Z</time></trkpt><trkpt lat="45.85127696875256" lon="9.37781333245511"><ele>204.0</ele><time>2026-04-05T09:27:45.999Z</time></trkpt><trkpt lat="45.851220617202394" lon="9.37795093803823"><ele>204.0</ele><time>2026-04-05T09:27:46.999Z</time></trkpt><trkpt lat="45.851159924395816" lon="9.378086122020719"><ele>204.0</ele><time>2026-04-05T09:27:47.999Z</time></trkpt><trkpt lat="45.85110003366143" lon="9.378225918022252"><ele>204.0</ele><time>2026-04-05T09:27:48.999Z</time></trkpt><trkpt lat="45.8510369669514" lon="9.378366164031979"><ele>203.0</ele><time>2026-04-05T09:27:49.999Z</time></trkpt><trkpt lat="45.85097163038649" lon="9.378515881968807"><ele>202.0</ele><time>2026-04-05T09:27:50.999Z</time></trkpt><trkpt lat="45.850904999187655" lon="9.378667970813716"><ele>201.0</ele><time>2026-04-05T09:27:51.999Z</time></trkpt><trkpt lat="45.85084013998141" lon="9.378815028413575"><ele>200.0</ele><time>2026-04-05T09:27:52.999Z</time></trkpt><trkpt lat="45.85077141434319" lon="9.378960445192778"><ele>202.25</ele><time>2026-04-05T09:27:53.999Z</time></trkpt><trkpt lat="45.850712201518775" lon="9.37910592389294"><ele>204.5</ele><time>2026-04-05T09:27:54.999Z</time></trkpt><trkpt lat="45.850650635993226" lon="9.379241737348659"><ele>206.75</ele><time>2026-04-05T09:27:56Z</time></trkpt><trkpt lat="45.8505878682933" lon="9.379371341720335"><ele>209.0</ele><time>2026-04-05T09:27:57Z</time></trkpt><trkpt lat="45.85052495852909" lon="9.379509749791849"><ele>209.0</ele><time>2026-04-05T09:27:58Z</time></trkpt><trkpt lat="45.85046527888143" lon="9.379645095188273"><ele>209.0</ele><time>2026-04-05T09:27:59Z</time></trkpt><trkpt lat="45.85040585858172" lon="9.37977782036104"><ele>209.0</ele><time>2026-04-05T09:28:00Z</time></trkpt><trkpt lat="45.85034861212664" lon="9.379913539393254"><ele>209.0</ele><time>2026-04-05T09:28:01Z</time></trkpt><trkpt lat="45.85028909244598" lon="9.380045130569371"><ele>209.0</ele><time>2026-04-05T09:28:02Z</time></trkpt><trkpt lat="45.850228042915745" lon="9.380178454739966"><ele>208.75</ele><time>2026-04-05T09:28:03Z</time></trkpt><trkpt lat="45.850163832353054" lon="9.380320300723662"><ele>208.5</ele><time>2026-04-05T09:28:04Z</time></trkpt><trkpt lat="45.85009956997923" lon="9.3804681890368"><ele>208.25</ele><time>2026-04-05T09:28:05Z</time></trkpt><trkpt lat="45.85003858431702" lon="9.380613582001459"><ele>208.0</ele><time>2026-04-05T09:28:06Z</time></trkpt><trkpt lat="45.84998205879035" lon="9.380759918718326"><ele>208.0</ele><time>2026-04-05T09:28:07Z</time></trkpt><trkpt lat="45.84992808041827" lon="9.380908432707855"><ele>208.0</ele><time>2026-04-05T09:28:08Z</time></trkpt><trkpt lat="45.849878013959966" lon="9.381058331157496"><ele>208.0</ele><time>2026-04-05T09:28:09Z</time></trkpt><trkpt lat="45.84982309446705" lon="9.38120465151725"><ele>208.0</ele><time>2026-04-05T09:28:10Z</time></trkpt><trkpt lat="45.84977257492402" lon="9.381352840214127"><ele>207.0</ele><time>2026-04-05T09:28:11Z</time></trkpt><trkpt lat="45.84972409472497" lon="9.381500851573797"><ele>206.0</ele><time>2026-04-05T09:28:12Z</time></trkpt><trkpt lat="45.84967644084956" lon="9.381648151249218"><ele>205.0</ele><time>2026-04-05T09:28:13Z</time></trkpt><trkpt lat="45.84962793232243" lon="9.381792924322074"><ele>204.0</ele><time>2026-04-05T09:28:14Z</time></trkpt><trkpt lat="45.849578806127234" lon="9.381933434402233"><ele>203.0</ele><time>2026-04-05T09:28:15Z</time></trkpt><trkpt lat="45.84953035165961" lon="9.382072541359486"><ele>201.75</ele><time>2026-04-05T09:28:16Z</time></trkpt><trkpt lat="45.84947657597833" lon="9.382213872693363"><ele>200.5</ele><time>2026-04-05T09:28:17Z</time></trkpt><trkpt lat="45.84942474828182" lon="9.382362510001096"><ele>199.25</ele><time>2026-04-05T09:28:18Z</time></trkpt><trkpt lat="45.84937242616487" lon="9.382508815250226"><ele>198.0</ele><time>2026-04-05T09:28:19Z</time></trkpt><trkpt lat="45.84931746847082" lon="9.382656665606556"><ele>199.75</ele><time>2026-04-05T09:28:20Z</time></trkpt><trkpt lat="45.84926371553163" lon="9.382806165474433"><ele>201.5</ele><time>2026-04-05T09:28:21Z</time></trkpt><trkpt lat="45.84921143492386" lon="9.382953457357688"><ele>203.25</ele><time>2026-04-05T09:28:22Z</time></trkpt><trkpt lat="45.849155097865584" lon="9.38310134370756"><ele>205.0</ele><time>2026-04-05T09:28:23Z</time></trkpt><trkpt lat="45.84909906234804" lon="9.38325223204981"><ele>205.0</ele><time>2026-04-05T09:28:24Z</time></trkpt><trkpt lat="45.84904109372855" lon="9.383403741981263"><ele>205.0</ele><time>2026-04-05T09:28:25Z</time></trkpt><trkpt lat="45.848982322297566" lon="9.383553021652096"><ele>205.0</ele><time>2026-04-05T09:28:26Z</time></trkpt><trkpt lat="45.84892938614796" lon="9.38370421646121"><ele>205.0</ele><time>2026-04-05T09:28:27Z</time></trkpt><trkpt lat="45.848885535867815" lon="9.383862862149762"><ele>203.25</ele><time>2026-04-05T09:28:28Z</time></trkpt><trkpt lat="45.84884980720245" lon="9.384018559938385"><ele>201.5</ele><time>2026-04-05T09:28:29Z</time></trkpt><trkpt lat="45.848822679389855" lon="9.384178163487064"><ele>199.75</ele><time>2026-04-05T09:28:30Z</time></trkpt><trkpt lat="45.848799316460145" lon="9.384339102254005"><ele>198.0</ele><time>2026-04-05T09:28:31Z</time></trkpt><trkpt lat="45.84877924010665" lon="9.384496440637905"><ele>198.0</ele><time>2026-04-05T09:28:32Z</time></trkpt><trkpt lat="45.848760050188595" lon="9.384646817704052"><ele>198.0</ele><time>2026-04-05T09:28:33Z</time></trkpt><trkpt lat="45.848741527495186" lon="9.384792563835758"><ele>198.0</ele><time>2026-04-05T09:28:34Z</time></trkpt><trkpt lat="45.84872172687723" lon="9.384932231823223"><ele>198.0</ele><time>2026-04-05T09:28:35Z</time></trkpt><trkpt lat="45.84869747755911" lon="9.385064046157302"><ele>198.0</ele><time>2026-04-05T09:28:36Z</time></trkpt><trkpt lat="45.84866966181056" lon="9.38519814261039"><ele>198.0</ele><time>2026-04-05T09:28:37Z</time></trkpt><trkpt lat="45.84863370838882" lon="9.385349345824318"><ele>198.0</ele><time>2026-04-05T09:28:38Z</time></trkpt><trkpt lat="45.848588508845516" lon="9.385512159263813"><ele>198.0</ele><time>2026-04-05T09:28:39Z</time></trkpt><trkpt lat="45.848545942102604" lon="9.385677105607622"><ele>198.0</ele><time>2026-04-05T09:28:40Z</time></trkpt><trkpt lat="45.84850922098832" lon="9.385821250697678"><ele>198.0</ele><time>2026-04-05T09:28:41Z</time></trkpt><trkpt lat="45.848478863619405" lon="9.385944892722954"><ele>198.0</ele><time>2026-04-05T09:28:42Z</time></trkpt><trkpt lat="45.84845117169705" lon="9.386045183843192"><ele>198.0</ele><time>2026-04-05T09:28:42.999Z</time></trkpt><trkpt lat="45.84841702335955" lon="9.386123542726878"><ele>198.0</ele><time>2026-04-05T09:28:43.999Z</time></trkpt><trkpt lat="45.84832036428963" lon="9.38624155099649"><ele>198.0</ele><time>2026-04-05T09:28:45.999Z</time></trkpt><trkpt lat="45.848255710471484" lon="9.386306792090624"><ele>198.0</ele><time>2026-04-05T09:28:46.999Z</time></trkpt><trkpt lat="45.8481960140983" lon="9.386364475262505"><ele>198.83333333333334</ele><time>2026-04-05T09:28:47.999Z</time></trkpt><trkpt lat="45.848142334253986" lon="9.38641828338005"><ele>199.66666666666669</ele><time>2026-04-05T09:28:48.999Z</time></trkpt><trkpt lat="45.84804138877147" lon="9.386523476394972"><ele>200.5</ele><time>2026-04-05T09:28:50.999Z</time></trkpt><trkpt lat="45.8479813970991" lon="9.386571367990877"><ele>201.33333333333334</ele><time>2026-04-05T09:28:51.999Z</time></trkpt><trkpt lat="45.84793629139152" lon="9.386652475608487"><ele>202.16666666666669</ele><time>2026-04-05T09:28:52.999Z</time></trkpt><trkpt lat="45.84791055531021" lon="9.386760041329042"><ele>203.0</ele><time>2026-04-05T09:28:53.999Z</time></trkpt><trkpt lat="45.84787633792824" lon="9.386871105990682"><ele>203.00000000000003</ele><time>2026-04-05T09:28:54.999Z</time></trkpt><trkpt lat="45.84783832598407" lon="9.38697535180609"><ele>203.0</ele><time>2026-04-05T09:28:55.999Z</time></trkpt><trkpt lat="45.84780223743647" lon="9.387077278044336"><ele>203.0</ele><time>2026-04-05T09:28:56.999Z</time></trkpt><trkpt lat="45.847777422684516" lon="9.38718649203764"><ele>203.0</ele><time>2026-04-05T09:28:57.999Z</time></trkpt><trkpt lat="45.847780092114064" lon="9.387306023241937"><ele>203.00000000000003</ele><time>2026-04-05T09:28:58.999Z</time></trkpt><trkpt lat="45.847809404589604" lon="9.387423031772384"><ele>203.0</ele><time>2026-04-05T09:28:59.999Z</time></trkpt><trkpt lat="45.84785475046852" lon="9.387537073450522"><ele>202.4</ele><time>2026-04-05T09:29:00.999Z</time></trkpt><trkpt lat="45.847885875246" lon="9.387656842682114"><ele>201.8</ele><time>2026-04-05T09:29:01.999Z</time></trkpt><trkpt lat="45.84789518219364" lon="9.387798000633921"><ele>201.2</ele><time>2026-04-05T09:29:02.999Z</time></trkpt><trkpt lat="45.84790611834375" lon="9.38794596865779"><ele>200.6</ele><time>2026-04-05T09:29:03.999Z</time></trkpt><trkpt lat="45.84791608886044" lon="9.38810246651295"><ele>200.0</ele><time>2026-04-05T09:29:04.999Z</time></trkpt><trkpt lat="45.84792378493623" lon="9.388260330979689"><ele>199.8</ele><time>2026-04-05T09:29:05.999Z</time></trkpt><trkpt lat="45.847928016085234" lon="9.388417822936773"><ele>199.6</ele><time>2026-04-05T09:29:06.999Z</time></trkpt><trkpt lat="45.84793028447209" lon="9.38857656739091"><ele>199.39999999999998</ele><time>2026-04-05T09:29:07.999Z</time></trkpt><trkpt lat="45.847929128809945" lon="9.38873497606876"><ele>199.2</ele><time>2026-04-05T09:29:08.999Z</time></trkpt><trkpt lat="45.84792646846066" lon="9.388896380335524"><ele>199.0</ele><time>2026-04-05T09:29:09.999Z</time></trkpt><trkpt lat="45.84791863842794" lon="9.389058766553953"><ele>198.79999999999998</ele><time>2026-04-05T09:29:10.999Z</time></trkpt><trkpt lat="45.84790187614628" lon="9.389220040341511"><ele>198.6</ele><time>2026-04-05T09:29:11.999Z</time></trkpt><trkpt lat="45.84787832596446" lon="9.389378147533325"><ele>198.4</ele><time>2026-04-05T09:29:12.999Z</time></trkpt><trkpt lat="45.8478467763398" lon="9.38953244755038"><ele>198.2</ele><time>2026-04-05T09:29:13.999Z</time></trkpt><trkpt lat="45.84780741903923" lon="9.389681437148784"><ele>198.0</ele><time>2026-04-05T09:29:14.999Z</time></trkpt><trkpt lat="45.847763027407844" lon="9.389827408897323"><ele>198.0</ele><time>2026-04-05T09:29:15.999Z</time></trkpt><trkpt lat="45.84771411661503" lon="9.389969840562227"><ele>198.0</ele><time>2026-04-05T09:29:16.999Z</time></trkpt><trkpt lat="45.84766267810184" lon="9.390108110726187"><ele>198.0</ele><time>2026-04-05T09:29:17.999Z</time></trkpt><trkpt lat="45.847607949435826" lon="9.390248945842412"><ele>198.0</ele><time>2026-04-05T09:29:18.999Z</time></trkpt><trkpt lat="45.84754747484295" lon="9.390386348423704"><ele>198.0</ele><time>2026-04-05T09:29:19.999Z</time></trkpt><trkpt lat="45.84749051494104" lon="9.390506880202093"><ele>198.8</ele><time>2026-04-05T09:29:20.999Z</time></trkpt><trkpt lat="45.84743172727153" lon="9.39063753437476"><ele>199.60000000000002</ele><time>2026-04-05T09:29:21.999Z</time></trkpt><trkpt lat="45.847370954844784" lon="9.390773888118096"><ele>200.39999999999998</ele><time>2026-04-05T09:29:22.999Z</time></trkpt><trkpt lat="45.847311291585" lon="9.390912739635308"><ele>201.2</ele><time>2026-04-05T09:29:23.999Z</time></trkpt><trkpt lat="45.84724955080914" lon="9.391051384606909"><ele>202.0</ele><time>2026-04-05T09:29:24.999Z</time></trkpt><trkpt lat="45.84719096269044" lon="9.39118390438862"><ele>202.0</ele><time>2026-04-05T09:29:25.999Z</time></trkpt><trkpt lat="45.84713527590329" lon="9.391310603880092"><ele>202.0</ele><time>2026-04-05T09:29:26.999Z</time></trkpt><trkpt lat="45.84708128716113" lon="9.391433044463666"><ele>202.0</ele><time>2026-04-05T09:29:27.999Z</time></trkpt><trkpt lat="45.84702972333163" lon="9.39155118114446"><ele>202.0</ele><time>2026-04-05T09:29:28.999Z</time></trkpt><trkpt lat="45.84697977350874" lon="9.391670464063434"><ele>202.0</ele><time>2026-04-05T09:29:29.999Z</time></trkpt><trkpt lat="45.846928388764354" lon="9.391789169014498"><ele>202.0</ele><time>2026-04-05T09:29:30.999Z</time></trkpt><trkpt lat="45.84687510468203" lon="9.391905983356427"><ele>202.0</ele><time>2026-04-05T09:29:31.999Z</time></trkpt><trkpt lat="45.84682045302207" lon="9.392020960310086"><ele>202.0</ele><time>2026-04-05T09:29:32.999Z</time></trkpt><trkpt lat="45.84676642929012" lon="9.392138388892535"><ele>202.0</ele><time>2026-04-05T09:29:33.999Z</time></trkpt><trkpt lat="45.84671105929093" lon="9.392257086516784"><ele>202.0</ele><time>2026-04-05T09:29:34.999Z</time></trkpt><trkpt lat="45.84665381732285" lon="9.392376470560386"><ele>202.0</ele><time>2026-04-05T09:29:35.999Z</time></trkpt><trkpt lat="45.84659250263632" lon="9.392494956997357"><ele>202.0</ele><time>2026-04-05T09:29:36.999Z</time></trkpt><trkpt lat="45.84653043669784" lon="9.392615916593588"><ele>202.0</ele><time>2026-04-05T09:29:37.999Z</time></trkpt><trkpt lat="45.84647190660897" lon="9.392743324894612"><ele>202.0</ele><time>2026-04-05T09:29:38.999Z</time></trkpt><trkpt lat="45.846406402768125" lon="9.392862557138361"><ele>202.0</ele><time>2026-04-05T09:29:39.999Z</time></trkpt><trkpt lat="45.84634442469322" lon="9.392992000678571"><ele>201.39999999999998</ele><time>2026-04-05T09:29:40.999Z</time></trkpt><trkpt lat="45.84628205357921" lon="9.393115629976975"><ele>200.79999999999998</ele><time>2026-04-05T09:29:41.999Z</time></trkpt><trkpt lat="45.84622128439408" lon="9.393241353492364"><ele>200.2</ele><time>2026-04-05T09:29:42.999Z</time></trkpt><trkpt lat="45.84616271914367" lon="9.39336981037794"><ele>199.6</ele><time>2026-04-05T09:29:43.999Z</time></trkpt><trkpt lat="45.84610061169896" lon="9.393499411924227"><ele>199.0</ele><time>2026-04-05T09:29:44.999Z</time></trkpt><trkpt lat="45.84603214803813" lon="9.393638315156558"><ele>199.75</ele><time>2026-04-05T09:29:45.999Z</time></trkpt><trkpt lat="45.84595906330089" lon="9.393779587403854"><ele>200.5</ele><time>2026-04-05T09:29:46.999Z</time></trkpt><trkpt lat="45.845887100095524" lon="9.393923561380817"><ele>201.25</ele><time>2026-04-05T09:29:47.999Z</time></trkpt><trkpt lat="45.8458145196761" lon="9.394067194265874"><ele>202.0</ele><time>2026-04-05T09:29:48.999Z</time></trkpt><trkpt lat="45.84574017431085" lon="9.39421387399687"><ele>202.0</ele><time>2026-04-05T09:29:49.999Z</time></trkpt><trkpt lat="45.845666284577625" lon="9.394360926856699"><ele>202.0</ele><time>2026-04-05T09:29:50.999Z</time></trkpt><trkpt lat="45.84559268089734" lon="9.394509867040542"><ele>202.0</ele><time>2026-04-05T09:29:51.999Z</time></trkpt><trkpt lat="45.84552177127309" lon="9.39465974637436"><ele>202.0</ele><time>2026-04-05T09:29:52.999Z</time></trkpt><trkpt lat="45.84544663304996" lon="9.39481167562321"><ele>202.25</ele><time>2026-04-05T09:29:53.999Z</time></trkpt><trkpt lat="45.84536971276552" lon="9.394961905222665"><ele>202.5</ele><time>2026-04-05T09:29:54.999Z</time></trkpt><trkpt lat="45.845288015944504" lon="9.395106368557242"><ele>202.75</ele><time>2026-04-05T09:29:55.999Z</time></trkpt><trkpt lat="45.84520191930867" lon="9.395245496571627"><ele>203.0</ele><time>2026-04-05T09:29:56.999Z</time></trkpt><trkpt lat="45.84511043737947" lon="9.39537682740691"><ele>203.0</ele><time>2026-04-05T09:29:57.999Z</time></trkpt><trkpt lat="45.845013654146236" lon="9.395496645919891"><ele>203.0</ele><time>2026-04-05T09:29:58.999Z</time></trkpt><trkpt lat="45.84491279022504" lon="9.395606554536455"><ele>203.0</ele><time>2026-04-05T09:29:59.999Z</time></trkpt><trkpt lat="45.84480647808509" lon="9.395703649676618"><ele>203.0</ele><time>2026-04-05T09:30:00.999Z</time></trkpt><trkpt lat="45.84469752412842" lon="9.395791121849316"><ele>202.0</ele><time>2026-04-05T09:30:02Z</time></trkpt><trkpt lat="45.84459167141101" lon="9.395875703011043"><ele>201.0</ele><time>2026-04-05T09:30:03Z</time></trkpt><trkpt lat="45.84448423077437" lon="9.395959014755075"><ele>200.0</ele><time>2026-04-05T09:30:04Z</time></trkpt><trkpt lat="45.84437622686506" lon="9.396042437808386"><ele>199.0</ele><time>2026-04-05T09:30:05Z</time></trkpt><trkpt lat="45.844267822602255" lon="9.396128046338081"><ele>199.25</ele><time>2026-04-05T09:30:06Z</time></trkpt><trkpt lat="45.844158517507424" lon="9.39621415935732"><ele>199.5</ele><time>2026-04-05T09:30:07Z</time></trkpt><trkpt lat="45.84404883294619" lon="9.39629765081913"><ele>199.75</ele><time>2026-04-05T09:30:08Z</time></trkpt><trkpt lat="45.843944286109256" lon="9.396378214503365"><ele>200.0</ele><time>2026-04-05T09:30:09Z</time></trkpt><trkpt lat="45.843845470830104" lon="9.396457887898388"><ele>200.0</ele><time>2026-04-05T09:30:10Z</time></trkpt><trkpt lat="45.84374975476303" lon="9.396533439560072"><ele>200.0</ele><time>2026-04-05T09:30:11Z</time></trkpt><trkpt lat="45.84365266346213" lon="9.396607310886084"><ele>200.0</ele><time>2026-04-05T09:30:12Z</time></trkpt><trkpt lat="45.84355386642804" lon="9.396681174895837"><ele>200.0</ele><time>2026-04-05T09:30:13Z</time></trkpt><trkpt lat="45.843452561318216" lon="9.396754531837606"><ele>200.0</ele><time>2026-04-05T09:30:14Z</time></trkpt><trkpt lat="45.84334873460684" lon="9.396828576018557"><ele>202.0</ele><time>2026-04-05T09:30:15Z</time></trkpt><trkpt lat="45.84324002484664" lon="9.396894629892447"><ele>204.0</ele><time>2026-04-05T09:30:16Z</time></trkpt><trkpt lat="45.84312644503035" lon="9.396943662914483"><ele>206.0</ele><time>2026-04-05T09:30:17Z</time></trkpt><trkpt lat="45.84300722554522" lon="9.396969317333216"><ele>208.0</ele><time>2026-04-05T09:30:18Z</time></trkpt><trkpt lat="45.842885889869905" lon="9.396962023566523"><ele>208.0</ele><time>2026-04-05T09:30:19Z</time></trkpt><trkpt lat="45.84276736598827" lon="9.39692934434719"><ele>208.0</ele><time>2026-04-05T09:30:20Z</time></trkpt><trkpt lat="45.842653148627136" lon="9.396873901236843"><ele>208.0</ele><time>2026-04-05T09:30:21Z</time></trkpt><trkpt lat="45.842543514794215" lon="9.396796213505482"><ele>208.0</ele><time>2026-04-05T09:30:22Z</time></trkpt><trkpt lat="45.84243817199793" lon="9.396707050543869"><ele>208.5</ele><time>2026-04-05T09:30:23Z</time></trkpt><trkpt lat="45.84233304433761" lon="9.396613460771988"><ele>209.0</ele><time>2026-04-05T09:30:24Z</time></trkpt><trkpt lat="45.842226825046225" lon="9.396522726134112"><ele>209.5</ele><time>2026-04-05T09:30:25Z</time></trkpt><trkpt lat="45.8421165809015" lon="9.3964294337536"><ele>210.0</ele><time>2026-04-05T09:30:26Z</time></trkpt><trkpt lat="45.84200139851052" lon="9.396337659713232"><ele>209.75</ele><time>2026-04-05T09:30:27Z</time></trkpt><trkpt lat="45.84188438884958" lon="9.396243923603897"><ele>209.5</ele><time>2026-04-05T09:30:28Z</time></trkpt><trkpt lat="45.84177173572445" lon="9.3961424843827"><ele>209.25</ele><time>2026-04-05T09:30:29Z</time></trkpt><trkpt lat="45.84166078951976" lon="9.396038056347429"><ele>209.0</ele><time>2026-04-05T09:30:30Z</time></trkpt><trkpt lat="45.841548767818125" lon="9.395926364834269"><ele>209.0</ele><time>2026-04-05T09:30:31Z</time></trkpt><trkpt lat="45.84143270613859" lon="9.395818035260367"><ele>209.0</ele><time>2026-04-05T09:30:32Z</time></trkpt><trkpt lat="45.84130976707631" lon="9.395720809996646"><ele>209.0</ele><time>2026-04-05T09:30:33Z</time></trkpt><trkpt lat="45.84118178643127" lon="9.395631709930289"><ele>209.0</ele><time>2026-04-05T09:30:34Z</time></trkpt><trkpt lat="45.841059303481295" lon="9.395545420952828"><ele>208.0</ele><time>2026-04-05T09:30:35Z</time></trkpt><trkpt lat="45.840936160494074" lon="9.395465449483988"><ele>207.0</ele><time>2026-04-05T09:30:36Z</time></trkpt><trkpt lat="45.84081230516239" lon="9.395398361982974"><ele>206.0</ele><time>2026-04-05T09:30:37Z</time></trkpt><trkpt lat="45.84068876164251" lon="9.395344918623719"><ele>205.0</ele><time>2026-04-05T09:30:38Z</time></trkpt><trkpt lat="45.84056972890729" lon="9.395306903077936"><ele>205.0</ele><time>2026-04-05T09:30:39Z</time></trkpt><trkpt lat="45.840448086202386" lon="9.395274407993387"><ele>205.0</ele><time>2026-04-05T09:30:40Z</time></trkpt><trkpt lat="45.840323958483765" lon="9.395248297063626"><ele>205.0</ele><time>2026-04-05T09:30:41Z</time></trkpt><trkpt lat="45.84019977107598" lon="9.39523536381004"><ele>205.0</ele><time>2026-04-05T09:30:42Z</time></trkpt><trkpt lat="45.84008291865715" lon="9.395230773132315"><ele>205.0</ele><time>2026-04-05T09:30:43Z</time></trkpt><trkpt lat="45.83997375386926" lon="9.395229587325922"><ele>205.0</ele><time>2026-04-05T09:30:44Z</time></trkpt><trkpt lat="45.83987086582714" lon="9.39523241282734"><ele>205.0</ele><time>2026-04-05T09:30:44.999Z</time></trkpt><trkpt lat="45.83976590203571" lon="9.395236877995389"><ele>205.0</ele><time>2026-04-05T09:30:45.999Z</time></trkpt><trkpt lat="45.839660239151094" lon="9.395239523191478"><ele>205.0</ele><time>2026-04-05T09:30:46.999Z</time></trkpt><trkpt lat="45.83955311489117" lon="9.395243168859976"><ele>205.0</ele><time>2026-04-05T09:30:47.999Z</time></trkpt><trkpt lat="45.839443635859425" lon="9.395245838600253"><ele>205.0</ele><time>2026-04-05T09:30:48.999Z</time></trkpt><trkpt lat="45.83933290005249" lon="9.395248186621679"><ele>205.0</ele><time>2026-04-05T09:30:49.999Z</time></trkpt><trkpt lat="45.83922146764959" lon="9.395252711029308"><ele>205.0</ele><time>2026-04-05T09:30:50.999Z</time></trkpt><trkpt lat="45.83910927877041" lon="9.395258174333119"><ele>205.0</ele><time>2026-04-05T09:30:51.999Z</time></trkpt><trkpt lat="45.83900046839879" lon="9.395262441370742"><ele>205.2</ele><time>2026-04-05T09:30:52.999Z</time></trkpt><trkpt lat="45.83889569620598" lon="9.395263698923493"><ele>205.4</ele><time>2026-04-05T09:30:53.999Z</time></trkpt><trkpt lat="45.83879233887719" lon="9.395266379805514"><ele>205.60000000000002</ele><time>2026-04-05T09:30:54.999Z</time></trkpt><trkpt lat="45.838687286217315" lon="9.395271303811178"><ele>205.8</ele><time>2026-04-05T09:30:55.999Z</time></trkpt><trkpt lat="45.83858273513961" lon="9.395278587492626"><ele>206.0</ele><time>2026-04-05T09:30:56.999Z</time></trkpt><trkpt lat="45.83848090381435" lon="9.395285424493157"><ele>206.4</ele><time>2026-04-05T09:30:57.999Z</time></trkpt><trkpt lat="45.83837999250245" lon="9.395289386324466"><ele>206.8</ele><time>2026-04-05T09:30:58.999Z</time></trkpt><trkpt lat="45.83827758850107" lon="9.395293675440824"><ele>207.20000000000002</ele><time>2026-04-05T09:30:59.999Z</time></trkpt><trkpt lat="45.83816889870659" lon="9.39529957111517"><ele>207.60000000000002</ele><time>2026-04-05T09:31:00.999Z</time></trkpt><trkpt lat="45.83805747637206" lon="9.395310179141916"><ele>208.0</ele><time>2026-04-05T09:31:01.999Z</time></trkpt><trkpt lat="45.837944586203506" lon="9.395312656445288"><ele>208.0</ele><time>2026-04-05T09:31:02.999Z</time></trkpt><trkpt lat="45.83783033777817" lon="9.395317387971966"><ele>208.0</ele><time>2026-04-05T09:31:03.999Z</time></trkpt><trkpt lat="45.83771886184135" lon="9.395320493721238"><ele>208.0</ele><time>2026-04-05T09:31:04.999Z</time></trkpt><trkpt lat="45.837608847388324" lon="9.395316114058593"><ele>208.0</ele><time>2026-04-05T09:31:05.999Z</time></trkpt><trkpt lat="45.83749879228851" lon="9.395299815921852"><ele>208.0</ele><time>2026-04-05T09:31:06.999Z</time></trkpt><trkpt lat="45.83739755346104" lon="9.395271409197283"><ele>207.83333333333331</ele><time>2026-04-05T09:31:07.999Z</time></trkpt><trkpt lat="45.83730901271023" lon="9.395232911261532"><ele>207.66666666666666</ele><time>2026-04-05T09:31:08.999Z</time></trkpt><trkpt lat="45.837228224259405" lon="9.395191187215724"><ele>207.5</ele><time>2026-04-05T09:31:09.999Z</time></trkpt><trkpt lat="45.83715464333716" lon="9.395147388949034"><ele>207.33333333333331</ele><time>2026-04-05T09:31:10.999Z</time></trkpt><trkpt lat="45.83708648129849" lon="9.39509419869774"><ele>207.16666666666666</ele><time>2026-04-05T09:31:11.999Z</time></trkpt><trkpt lat="45.83700983524767" lon="9.39502683652093"><ele>207.0</ele><time>2026-04-05T09:31:12.999Z</time></trkpt><trkpt lat="45.83692772642013" lon="9.394958204214895"><ele>207.0</ele><time>2026-04-05T09:31:13.999Z</time></trkpt><trkpt lat="45.83684556092905" lon="9.394868199823625"><ele>207.0</ele><time>2026-04-05T09:31:14.999Z</time></trkpt><trkpt lat="45.83675772691864" lon="9.394775015438768"><ele>207.0</ele><time>2026-04-05T09:31:15.999Z</time></trkpt><trkpt lat="45.836669788330944" lon="9.394682808951282"><ele>207.0</ele><time>2026-04-05T09:31:16.999Z</time></trkpt><trkpt lat="45.83658422172215" lon="9.394593548949189"><ele>207.0</ele><time>2026-04-05T09:31:17.999Z</time></trkpt><trkpt lat="45.83650220833051" lon="9.394507362998043"><ele>207.2</ele><time>2026-04-05T09:31:18.999Z</time></trkpt><trkpt lat="45.836425699309146" lon="9.394417992120525"><ele>207.39999999999998</ele><time>2026-04-05T09:31:19.999Z</time></trkpt><trkpt lat="45.836352294865634" lon="9.394333728754546"><ele>207.60000000000002</ele><time>2026-04-05T09:31:20.999Z</time></trkpt><trkpt lat="45.83627736882645" lon="9.39425565017455"><ele>207.8</ele><time>2026-04-05T09:31:21.999Z</time></trkpt><trkpt lat="45.83620466968395" lon="9.394185204921317"><ele>208.0</ele><time>2026-04-05T09:31:22.999Z</time></trkpt><trkpt lat="45.83613821683531" lon="9.394123256112204"><ele>207.99999999999997</ele><time>2026-04-05T09:31:23.999Z</time></trkpt><trkpt lat="45.836073652326384" lon="9.394063694257047"><ele>208.0</ele><time>2026-04-05T09:31:24.999Z</time></trkpt><trkpt lat="45.836005318175204" lon="9.394000471957552"><ele>208.0</ele><time>2026-04-05T09:31:25.999Z</time></trkpt><trkpt lat="45.83593618285354" lon="9.393939514602971"><ele>208.0</ele><time>2026-04-05T09:31:26.999Z</time></trkpt><trkpt lat="45.83586876752555" lon="9.393887167880393"><ele>207.99999999999997</ele><time>2026-04-05T09:31:27.999Z</time></trkpt><trkpt lat="45.8357947615017" lon="9.393838337288132"><ele>208.0</ele><time>2026-04-05T09:31:28.999Z</time></trkpt><trkpt lat="45.83570979604715" lon="9.393787895273302"><ele>208.60000000000002</ele><time>2026-04-05T09:31:29.999Z</time></trkpt><trkpt lat="45.83561876313701" lon="9.393748859309493"><ele>209.20000000000002</ele><time>2026-04-05T09:31:30.999Z</time></trkpt><trkpt lat="45.83553373235652" lon="9.393712649895859"><ele>209.8</ele><time>2026-04-05T09:31:31.999Z</time></trkpt><trkpt lat="45.83543791369459" lon="9.393681519211361"><ele>210.4</ele><time>2026-04-05T09:31:32.999Z</time></trkpt><trkpt lat="45.835334039933315" lon="9.39366327456308"><ele>211.0</ele><time>2026-04-05T09:31:33.999Z</time></trkpt><trkpt lat="45.83522380515344" lon="9.393655243552208"><ele>210.75</ele><time>2026-04-05T09:31:34.999Z</time></trkpt><trkpt lat="45.83511167993744" lon="9.393654717762594"><ele>210.5</ele><time>2026-04-05T09:31:35.999Z</time></trkpt><trkpt lat="45.83499874358306" lon="9.39366194173478"><ele>210.25</ele><time>2026-04-05T09:31:36.999Z</time></trkpt><trkpt lat="45.83488475317553" lon="9.393676119701897"><ele>210.0</ele><time>2026-04-05T09:31:37.999Z</time></trkpt><trkpt lat="45.834770523372875" lon="9.393694578002856"><ele>210.0</ele><time>2026-04-05T09:31:38.999Z</time></trkpt><trkpt lat="45.834655118740876" lon="9.39371777990919"><ele>210.0</ele><time>2026-04-05T09:31:39.999Z</time></trkpt><trkpt lat="45.83453960086623" lon="9.393740596626222"><ele>210.0</ele><time>2026-04-05T09:31:40.999Z</time></trkpt><trkpt lat="45.83442441909208" lon="9.39376218075294"><ele>210.0</ele><time>2026-04-05T09:31:41.999Z</time></trkpt><trkpt lat="45.83430902314775" lon="9.393782974863337"><ele>210.0</ele><time>2026-04-05T09:31:42.999Z</time></trkpt><trkpt lat="45.834194645277755" lon="9.393804561859742"><ele>210.0</ele><time>2026-04-05T09:31:43.999Z</time></trkpt><trkpt lat="45.834083670291825" lon="9.393826471176089"><ele>210.0</ele><time>2026-04-05T09:31:44.999Z</time></trkpt><trkpt lat="45.83398384603551" lon="9.393849387092567"><ele>210.0</ele><time>2026-04-05T09:31:45.999Z</time></trkpt><trkpt lat="45.83389546999232" lon="9.393873205643574"><ele>210.0</ele><time>2026-04-05T09:31:46.999Z</time></trkpt><trkpt lat="45.83381362503016" lon="9.39389173083854"><ele>209.0</ele><time>2026-04-05T09:31:47.999Z</time></trkpt><trkpt lat="45.83373362672352" lon="9.3939152517124"><ele>208.0</ele><time>2026-04-05T09:31:48.999Z</time></trkpt><trkpt lat="45.83365666521623" lon="9.393979419732359"><ele>207.0</ele><time>2026-04-05T09:31:49.999Z</time></trkpt><trkpt lat="45.83358281915295" lon="9.394083650130925"><ele>206.0</ele><time>2026-04-05T09:31:50.999Z</time></trkpt><trkpt lat="45.833506837493786" lon="9.394189800827414"><ele>205.0</ele><time>2026-04-05T09:31:51.999Z</time></trkpt><trkpt lat="45.83341924317428" lon="9.394291647346154"><ele>205.0</ele><time>2026-04-05T09:31:52.999Z</time></trkpt><trkpt lat="45.833320232572625" lon="9.394392597674717"><ele>205.0</ele><time>2026-04-05T09:31:53.999Z</time></trkpt><trkpt lat="45.83321023162364" lon="9.394503438663905"><ele>205.0</ele><time>2026-04-05T09:31:54.999Z</time></trkpt><trkpt lat="45.83309611769926" lon="9.394618681967664"><ele>205.0</ele><time>2026-04-05T09:31:55.999Z</time></trkpt><trkpt lat="45.83297689860141" lon="9.394741482880594"><ele>205.66666666666666</ele><time>2026-04-05T09:31:56.999Z</time></trkpt><trkpt lat="45.83284806450496" lon="9.394855871958256"><ele>206.33333333333331</ele><time>2026-04-05T09:31:57.999Z</time></trkpt><trkpt lat="45.832709035455686" lon="9.39496330558948"><ele>207.0</ele><time>2026-04-05T09:31:58.999Z</time></trkpt><trkpt lat="45.83256180389352" lon="9.395060299896095"><ele>207.0</ele><time>2026-04-05T09:31:59.999Z</time></trkpt><trkpt lat="45.832410190557425" lon="9.395145117678874"><ele>207.0</ele><time>2026-04-05T09:32:00.999Z</time></trkpt><trkpt lat="45.832260316494065" lon="9.395214514933231"><ele>207.0</ele><time>2026-04-05T09:32:01.999Z</time></trkpt><trkpt lat="45.83211821381357" lon="9.395265180176699"><ele>207.0</ele><time>2026-04-05T09:32:02.999Z</time></trkpt><trkpt lat="45.831980052342075" lon="9.395303254242503"><ele>207.0</ele><time>2026-04-05T09:32:03.999Z</time></trkpt><trkpt lat="45.83183896033238" lon="9.39533710998489"><ele>207.0</ele><time>2026-04-05T09:32:04.999Z</time></trkpt><trkpt lat="45.83169727129024" lon="9.395366384164848"><ele>207.0</ele><time>2026-04-05T09:32:05.999Z</time></trkpt><trkpt lat="45.8315553742266" lon="9.395391649409548"><ele>207.25</ele><time>2026-04-05T09:32:06.999Z</time></trkpt><trkpt lat="45.83141106732568" lon="9.395419268190569"><ele>207.5</ele><time>2026-04-05T09:32:08Z</time></trkpt><trkpt lat="45.83126503287293" lon="9.395441696600185"><ele>207.75</ele><time>2026-04-05T09:32:09Z</time></trkpt><trkpt lat="45.83111911308179" lon="9.39546457038734"><ele>208.0</ele><time>2026-04-05T09:32:10Z</time></trkpt><trkpt lat="45.830973042643116" lon="9.395490167437707"><ele>205.66666666666666</ele><time>2026-04-05T09:32:11Z</time></trkpt><trkpt lat="45.83082440092299" lon="9.395516994662719"><ele>203.33333333333331</ele><time>2026-04-05T09:32:12Z</time></trkpt><trkpt lat="45.83067268150159" lon="9.395546103274823"><ele>201.0</ele><time>2026-04-05T09:32:13Z</time></trkpt><trkpt lat="45.83052101167901" lon="9.395578190998432"><ele>201.0</ele><time>2026-04-05T09:32:14Z</time></trkpt><trkpt lat="45.83036868966157" lon="9.395609303731344"><ele>201.0</ele><time>2026-04-05T09:32:15Z</time></trkpt><trkpt lat="45.83021645488569" lon="9.395639051970319"><ele>201.0</ele><time>2026-04-05T09:32:16Z</time></trkpt><trkpt lat="45.830063628772706" lon="9.395670284574791"><ele>202.0</ele><time>2026-04-05T09:32:17Z</time></trkpt><trkpt lat="45.82991081382659" lon="9.395703282319095"><ele>203.0</ele><time>2026-04-05T09:32:18Z</time></trkpt><trkpt lat="45.829756923352235" lon="9.395737235917696"><ele>204.0</ele><time>2026-04-05T09:32:19Z</time></trkpt><trkpt lat="45.829603243918314" lon="9.39576911869686"><ele>204.0</ele><time>2026-04-05T09:32:20Z</time></trkpt><trkpt lat="45.829449875788335" lon="9.395798183241912"><ele>204.0</ele><time>2026-04-05T09:32:21Z</time></trkpt><trkpt lat="45.829296282097474" lon="9.395828972357481"><ele>204.0</ele><time>2026-04-05T09:32:22Z</time></trkpt><trkpt lat="45.82914234114247" lon="9.395856470626276"><ele>204.33333333333331</ele><time>2026-04-05T09:32:23Z</time></trkpt><trkpt lat="45.828986585353064" lon="9.395875235852822"><ele>204.66666666666666</ele><time>2026-04-05T09:32:24Z</time></trkpt><trkpt lat="45.828830966676115" lon="9.395885590969625"><ele>205.0</ele><time>2026-04-05T09:32:25Z</time></trkpt><trkpt lat="45.82867530473687" lon="9.395888848283471"><ele>205.0</ele><time>2026-04-05T09:32:26Z</time></trkpt><trkpt lat="45.82852067942485" lon="9.395887158996697"><ele>205.0</ele><time>2026-04-05T09:32:27Z</time></trkpt><trkpt lat="45.82837130797792" lon="9.395877641573323"><ele>205.0</ele><time>2026-04-05T09:32:28Z</time></trkpt><trkpt lat="45.82823166131437" lon="9.395860340214188"><ele>205.0</ele><time>2026-04-05T09:32:29Z</time></trkpt><trkpt lat="45.828102307522585" lon="9.395839538804031"><ele>205.0</ele><time>2026-04-05T09:32:30Z</time></trkpt><trkpt lat="45.827987893918966" lon="9.395821502172714"><ele>205.0</ele><time>2026-04-05T09:32:31Z</time></trkpt><trkpt lat="45.82789775858565" lon="9.395809596937788"><ele>205.0</ele><time>2026-04-05T09:32:32Z</time></trkpt><trkpt lat="45.82782603499514" lon="9.395799179727772"><ele>205.0</ele><time>2026-04-05T09:32:33Z</time></trkpt><trkpt lat="45.82776129851811" lon="9.395793028815934"><ele>205.0</ele><time>2026-04-05T09:32:34Z</time></trkpt><trkpt lat="45.827639210718495" lon="9.395780727518135"><ele>204.8</ele><time>2026-04-05T09:32:36Z</time></trkpt><trkpt lat="45.82755960617222" lon="9.395764004684352"><ele>204.6</ele><time>2026-04-05T09:32:37Z</time></trkpt><trkpt lat="45.827478175850985" lon="9.395747802126383"><ele>204.39999999999998</ele><time>2026-04-05T09:32:38Z</time></trkpt><trkpt lat="45.82738805152629" lon="9.395729241517222"><ele>204.2</ele><time>2026-04-05T09:32:39Z</time></trkpt><trkpt lat="45.827285890457496" lon="9.395712579544716"><ele>204.0</ele><time>2026-04-05T09:32:40Z</time></trkpt><trkpt lat="45.827183471201735" lon="9.395695324960341"><ele>204.0</ele><time>2026-04-05T09:32:41Z</time></trkpt><trkpt lat="45.82707341281374" lon="9.395677273825136"><ele>204.0</ele><time>2026-04-05T09:32:42Z</time></trkpt><trkpt lat="45.82695990693324" lon="9.395652617497591"><ele>204.0</ele><time>2026-04-05T09:32:43Z</time></trkpt><trkpt lat="45.82684543678684" lon="9.39562903799401"><ele>204.0</ele><time>2026-04-05T09:32:44Z</time></trkpt><trkpt lat="45.826724066998" lon="9.395603620332034"><ele>204.25</ele><time>2026-04-05T09:32:45Z</time></trkpt><trkpt lat="45.82659724718844" lon="9.395578704173529"><ele>204.5</ele><time>2026-04-05T09:32:45.999Z</time></trkpt><trkpt lat="45.82646687006588" lon="9.39555479228454"><ele>204.75</ele><time>2026-04-05T09:32:46.999Z</time></trkpt><trkpt lat="45.826337766178426" lon="9.3955290985022"><ele>205.0</ele><time>2026-04-05T09:32:47.999Z</time></trkpt><trkpt lat="45.82620791804904" lon="9.395504275289788"><ele>205.5</ele><time>2026-04-05T09:32:48.999Z</time></trkpt><trkpt lat="45.82607643065171" lon="9.395478410675686"><ele>206.0</ele><time>2026-04-05T09:32:49.999Z</time></trkpt><trkpt lat="45.82594432512738" lon="9.395451363849594"><ele>206.5</ele><time>2026-04-05T09:32:50.999Z</time></trkpt><trkpt lat="45.82581032183989" lon="9.395424304344651"><ele>207.0</ele><time>2026-04-05T09:32:51.999Z</time></trkpt><trkpt lat="45.825674377276" lon="9.395399250136172"><ele>207.0</ele><time>2026-04-05T09:32:52.999Z</time></trkpt><trkpt lat="45.825537312944" lon="9.395374631302973"><ele>207.0</ele><time>2026-04-05T09:32:53.999Z</time></trkpt><trkpt lat="45.825398186617285" lon="9.395352205767049"><ele>207.0</ele><time>2026-04-05T09:32:54.999Z</time></trkpt><trkpt lat="45.82525905522906" lon="9.395328698327903"><ele>207.0</ele><time>2026-04-05T09:32:55.999Z</time></trkpt><trkpt lat="45.82511927400879" lon="9.395302941877866"><ele>206.5</ele><time>2026-04-05T09:32:56.999Z</time></trkpt><trkpt lat="45.82498075370201" lon="9.395274384296632"><ele>206.0</ele><time>2026-04-05T09:32:57.999Z</time></trkpt><trkpt lat="45.82484112526079" lon="9.395246909810021"><ele>205.5</ele><time>2026-04-05T09:32:58.999Z</time></trkpt><trkpt lat="45.82470262231529" lon="9.395221024473067"><ele>205.0</ele><time>2026-04-05T09:32:59.999Z</time></trkpt><trkpt lat="45.82456518051172" lon="9.395193422760066"><ele>205.0</ele><time>2026-04-05T09:33:00.999Z</time></trkpt><trkpt lat="45.824429721400534" lon="9.395166952189813"><ele>205.0</ele><time>2026-04-05T09:33:01.999Z</time></trkpt><trkpt lat="45.82429505596768" lon="9.39514345183052"><ele>205.0</ele><time>2026-04-05T09:33:02.999Z</time></trkpt><trkpt lat="45.82416322431908" lon="9.395115659674238"><ele>205.0</ele><time>2026-04-05T09:33:03.999Z</time></trkpt><trkpt lat="45.82402967634497" lon="9.39508931926943"><ele>205.0</ele><time>2026-04-05T09:33:04.999Z</time></trkpt><trkpt lat="45.823895487795305" lon="9.39506359936668"><ele>205.0</ele><time>2026-04-05T09:33:05.999Z</time></trkpt><trkpt lat="45.8237607823172" lon="9.395039958029978"><ele>205.0</ele><time>2026-04-05T09:33:06.999Z</time></trkpt><trkpt lat="45.82362444787851" lon="9.395022103482228"><ele>205.0</ele><time>2026-04-05T09:33:07.999Z</time></trkpt><trkpt lat="45.82348840310733" lon="9.39501540737513"><ele>204.75</ele><time>2026-04-05T09:33:08.999Z</time></trkpt><trkpt lat="45.823351016934595" lon="9.395019092404464"><ele>204.5</ele><time>2026-04-05T09:33:09.999Z</time></trkpt><trkpt lat="45.82321357875249" lon="9.395027367284888"><ele>204.25</ele><time>2026-04-05T09:33:10.999Z</time></trkpt><trkpt lat="45.8230737240199" lon="9.39503670067859"><ele>204.0</ele><time>2026-04-05T09:33:11.999Z</time></trkpt><trkpt lat="45.822933930540806" lon="9.39504518770623"><ele>204.0</ele><time>2026-04-05T09:33:12.999Z</time></trkpt><trkpt lat="45.822791612249745" lon="9.395041140816291"><ele>204.0</ele><time>2026-04-05T09:33:13.999Z</time></trkpt><trkpt lat="45.82265006575706" lon="9.395030828360666"><ele>204.0</ele><time>2026-04-05T09:33:14.999Z</time></trkpt><trkpt lat="45.82251038597174" lon="9.39501208717442"><ele>204.0</ele><time>2026-04-05T09:33:15.999Z</time></trkpt><trkpt lat="45.822372437645" lon="9.394993471516084"><ele>204.25</ele><time>2026-04-05T09:33:16.999Z</time></trkpt><trkpt lat="45.82223381782484" lon="9.394968856855655"><ele>204.5</ele><time>2026-04-05T09:33:17.999Z</time></trkpt><trkpt lat="45.82209375796406" lon="9.39494768868445"><ele>204.75</ele><time>2026-04-05T09:33:18.999Z</time></trkpt><trkpt lat="45.821949465368434" lon="9.394930230273895"><ele>205.0</ele><time>2026-04-05T09:33:19.999Z</time></trkpt><trkpt lat="45.821800875012734" lon="9.394920008465533"><ele>204.0</ele><time>2026-04-05T09:33:20.999Z</time></trkpt><trkpt lat="45.82164548635829" lon="9.394919455672662"><ele>203.0</ele><time>2026-04-05T09:33:21.999Z</time></trkpt><trkpt lat="45.821482109480705" lon="9.394899073534143"><ele>202.0</ele><time>2026-04-05T09:33:22.999Z</time></trkpt><trkpt lat="45.82131454694542" lon="9.394912558208116"><ele>202.0</ele><time>2026-04-05T09:33:23.999Z</time></trkpt><trkpt lat="45.8211348231299" lon="9.394940381733427"><ele>202.0</ele><time>2026-04-05T09:33:24.999Z</time></trkpt><trkpt lat="45.82096104981986" lon="9.394999001307681"><ele>202.0</ele><time>2026-04-05T09:33:25.999Z</time></trkpt><trkpt lat="45.820795085111705" lon="9.395049104261977"><ele>202.66666666666666</ele><time>2026-04-05T09:33:26.999Z</time></trkpt><trkpt lat="45.82063176644997" lon="9.395114429227117"><ele>203.33333333333331</ele><time>2026-04-05T09:33:27.999Z</time></trkpt><trkpt lat="45.82046951073734" lon="9.395189984574468"><ele>204.0</ele><time>2026-04-05T09:33:28.999Z</time></trkpt><trkpt lat="45.82030657802907" lon="9.395270435738166"><ele>203.0</ele><time>2026-04-05T09:33:29.999Z</time></trkpt><trkpt lat="45.82014369361303" lon="9.395353114394096"><ele>202.0</ele><time>2026-04-05T09:33:30.999Z</time></trkpt><trkpt lat="45.81998141744543" lon="9.395433178609608"><ele>201.0</ele><time>2026-04-05T09:33:31.999Z</time></trkpt><trkpt lat="45.81981861892692" lon="9.39551722710954"><ele>201.0</ele><time>2026-04-05T09:33:32.999Z</time></trkpt><trkpt lat="45.819655133002826" lon="9.395601860162126"><ele>201.0</ele><time>2026-04-05T09:33:33.999Z</time></trkpt><trkpt lat="45.81949297617709" lon="9.395689773373137"><ele>201.0</ele><time>2026-04-05T09:33:34.999Z</time></trkpt><trkpt lat="45.819329325889115" lon="9.395775627558764"><ele>202.0</ele><time>2026-04-05T09:33:35.999Z</time></trkpt><trkpt lat="45.81916567685868" lon="9.395858512112389"><ele>203.0</ele><time>2026-04-05T09:33:36.999Z</time></trkpt><trkpt lat="45.81900024354779" lon="9.395941287171942"><ele>204.0</ele><time>2026-04-05T09:33:37.999Z</time></trkpt><trkpt lat="45.818834615876156" lon="9.396026125448659"><ele>204.0</ele><time>2026-04-05T09:33:38.999Z</time></trkpt><trkpt lat="45.81866958019679" lon="9.396111285137913"><ele>204.0</ele><time>2026-04-05T09:33:39.999Z</time></trkpt><trkpt lat="45.81850299273899" lon="9.396194834383625"><ele>204.0</ele><time>2026-04-05T09:33:40.999Z</time></trkpt><trkpt lat="45.818337129583554" lon="9.396276073448051"><ele>204.0</ele><time>2026-04-05T09:33:41.999Z</time></trkpt><trkpt lat="45.81817081741997" lon="9.396357354929602"><ele>204.0</ele><time>2026-04-05T09:33:42.999Z</time></trkpt><trkpt lat="45.81800454867535" lon="9.396440821620066"><ele>204.0</ele><time>2026-04-05T09:33:43.999Z</time></trkpt><trkpt lat="45.81783843460288" lon="9.396525789982086"><ele>204.0</ele><time>2026-04-05T09:33:44.999Z</time></trkpt><trkpt lat="45.81767292551477" lon="9.396610109761763"><ele>204.0</ele><time>2026-04-05T09:33:45.999Z</time></trkpt><trkpt lat="45.817505607381996" lon="9.39669543347275"><ele>204.0</ele><time>2026-04-05T09:33:46.999Z</time></trkpt><trkpt lat="45.817337838826745" lon="9.396780521060768"><ele>203.33333333333331</ele><time>2026-04-05T09:33:47.999Z</time></trkpt><trkpt lat="45.81716968832541" lon="9.39686497830161"><ele>202.66666666666666</ele><time>2026-04-05T09:33:48.999Z</time></trkpt><trkpt lat="45.81700160344738" lon="9.396949914157485"><ele>202.0</ele><time>2026-04-05T09:33:49.999Z</time></trkpt><trkpt lat="45.81683349630437" lon="9.397036712395941"><ele>202.66666666666666</ele><time>2026-04-05T09:33:50.999Z</time></trkpt><trkpt lat="45.816665328133126" lon="9.397121915793962"><ele>203.33333333333331</ele><time>2026-04-05T09:33:51.999Z</time></trkpt><trkpt lat="45.81649956905123" lon="9.39720775783005"><ele>204.0</ele><time>2026-04-05T09:33:52.999Z</time></trkpt><trkpt lat="45.81633525580301" lon="9.39729154714187"><ele>204.33333333333331</ele><time>2026-04-05T09:33:53.999Z</time></trkpt><trkpt lat="45.81617250912262" lon="9.397373553114324"><ele>204.66666666666666</ele><time>2026-04-05T09:33:54.999Z</time></trkpt><trkpt lat="45.81601310828482" lon="9.397456014893239"><ele>205.0</ele><time>2026-04-05T09:33:55.999Z</time></trkpt><trkpt lat="45.815858500246456" lon="9.397534234241277"><ele>205.25</ele><time>2026-04-05T09:33:56.999Z</time></trkpt><trkpt lat="45.815709945286244" lon="9.397604660403118"><ele>205.5</ele><time>2026-04-05T09:33:57.999Z</time></trkpt><trkpt lat="45.8155692299035" lon="9.397663590036439"><ele>205.75</ele><time>2026-04-05T09:33:58.999Z</time></trkpt><trkpt lat="45.81543575039392" lon="9.397727107769617"><ele>206.0</ele><time>2026-04-05T09:33:59.999Z</time></trkpt><trkpt lat="45.81530013428428" lon="9.397792854296034"><ele>206.0</ele><time>2026-04-05T09:34:00.999Z</time></trkpt><trkpt lat="45.81516136764943" lon="9.397856349964925"><ele>206.0</ele><time>2026-04-05T09:34:01.999Z</time></trkpt><trkpt lat="45.815021613911654" lon="9.39793558923777"><ele>206.0</ele><time>2026-04-05T09:34:02.999Z</time></trkpt><trkpt lat="45.81487942488081" lon="9.398016049592147"><ele>206.0</ele><time>2026-04-05T09:34:03.999Z</time></trkpt><trkpt lat="45.81473473281951" lon="9.398093312692223"><ele>206.0</ele><time>2026-04-05T09:34:04.999Z</time></trkpt><trkpt lat="45.8145894936954" lon="9.398169787105296"><ele>206.0</ele><time>2026-04-05T09:34:05.999Z</time></trkpt><trkpt lat="45.814443807662165" lon="9.398243871553055"><ele>206.0</ele><time>2026-04-05T09:34:06.999Z</time></trkpt><trkpt lat="45.81430007506538" lon="9.398313981694802"><ele>206.66666666666669</ele><time>2026-04-05T09:34:07.999Z</time></trkpt><trkpt lat="45.814156030031086" lon="9.398382998888623"><ele>207.33333333333331</ele><time>2026-04-05T09:34:08.999Z</time></trkpt><trkpt lat="45.814014458098704" lon="9.398457502738848"><ele>208.0</ele><time>2026-04-05T09:34:09.999Z</time></trkpt><trkpt lat="45.813875872788046" lon="9.398533108436567"><ele>208.0</ele><time>2026-04-05T09:34:10.999Z</time></trkpt><trkpt lat="45.81374067512249" lon="9.398605457784342"><ele>208.0</ele><time>2026-04-05T09:34:11.998Z</time></trkpt><trkpt lat="45.8136119539353" lon="9.398674533005497"><ele>208.0</ele><time>2026-04-05T09:34:12.998Z</time></trkpt><trkpt lat="45.813488346469846" lon="9.398737615742098"><ele>208.0</ele><time>2026-04-05T09:34:14Z</time></trkpt><trkpt lat="45.81337342445854" lon="9.398796381350708"><ele>207.66666666666666</ele><time>2026-04-05T09:34:15Z</time></trkpt><trkpt lat="45.81326797170343" lon="9.398853514337183"><ele>207.33333333333331</ele><time>2026-04-05T09:34:16Z</time></trkpt><trkpt lat="45.813172047822626" lon="9.398905984806573"><ele>207.0</ele><time>2026-04-05T09:34:17Z</time></trkpt><trkpt lat="45.81308784367164" lon="9.398947572741394"><ele>206.66666666666669</ele><time>2026-04-05T09:34:18Z</time></trkpt><trkpt lat="45.813015519453174" lon="9.398978844737567"><ele>206.33333333333334</ele><time>2026-04-05T09:34:19Z</time></trkpt><trkpt lat="45.812951796823086" lon="9.39899970316122"><ele>206.0</ele><time>2026-04-05T09:34:20Z</time></trkpt><trkpt lat="45.812847134334675" lon="9.399021163592687"><ele>206.00000000000003</ele><time>2026-04-05T09:34:22Z</time></trkpt><trkpt lat="45.81276206315626" lon="9.399027291858674"><ele>206.0</ele><time>2026-04-05T09:34:24Z</time></trkpt><trkpt lat="45.8126567076859" lon="9.399030948661434"><ele>206.0</ele><time>2026-04-05T09:34:26Z</time></trkpt><trkpt lat="45.812598290650705" lon="9.399070890640434"><ele>206.0</ele><time>2026-04-05T09:34:27Z</time></trkpt><trkpt lat="45.81254485389507" lon="9.399143408571147"><ele>206.00000000000003</ele><time>2026-04-05T09:34:28Z</time></trkpt><trkpt lat="45.81248233903159" lon="9.399229871000323"><ele>206.0</ele><time>2026-04-05T09:34:29Z</time></trkpt><trkpt lat="45.81240320236782" lon="9.399288165201302"><ele>206.0</ele><time>2026-04-05T09:34:30Z</time></trkpt><trkpt lat="45.812324670666264" lon="9.399328470467575"><ele>206.0</ele><time>2026-04-05T09:34:31Z</time></trkpt><trkpt lat="45.81223536925504" lon="9.399376141895448"><ele>206.0</ele><time>2026-04-05T09:34:32Z</time></trkpt><trkpt lat="45.812142452347345" lon="9.399422307488527"><ele>206.0</ele><time>2026-04-05T09:34:33Z</time></trkpt><trkpt lat="45.81205035201973" lon="9.39946825943094"><ele>206.0</ele><time>2026-04-05T09:34:34Z</time></trkpt><trkpt lat="45.81196425990765" lon="9.399511861802129"><ele>206.00000000000003</ele><time>2026-04-05T09:34:35Z</time></trkpt><trkpt lat="45.811882672880344" lon="9.399551041892975"><ele>206.0</ele><time>2026-04-05T09:34:36Z</time></trkpt><trkpt lat="45.81180512413093" lon="9.39958807483283"><ele>206.0</ele><time>2026-04-05T09:34:37Z</time></trkpt><trkpt lat="45.811732001482824" lon="9.399621097875448"><ele>206.0</ele><time>2026-04-05T09:34:38Z</time></trkpt><trkpt lat="45.81166130262715" lon="9.399657159933028"><ele>206.00000000000003</ele><time>2026-04-05T09:34:39Z</time></trkpt><trkpt lat="45.81159033411296" lon="9.399698911723522"><ele>206.0</ele><time>2026-04-05T09:34:40Z</time></trkpt><trkpt lat="45.81151503922762" lon="9.399743440261222"><ele>205.60000000000002</ele><time>2026-04-05T09:34:41Z</time></trkpt><trkpt lat="45.81143438486273" lon="9.399785889758059"><ele>205.2</ele><time>2026-04-05T09:34:42Z</time></trkpt><trkpt lat="45.81134913713934" lon="9.399828346612974"><ele>204.8</ele><time>2026-04-05T09:34:43Z</time></trkpt><trkpt lat="45.81126157697083" lon="9.399868912519786"><ele>204.39999999999998</ele><time>2026-04-05T09:34:44Z</time></trkpt><trkpt lat="45.81117363966974" lon="9.399908431715463"><ele>204.0</ele><time>2026-04-05T09:34:45Z</time></trkpt><trkpt lat="45.81108797263042" lon="9.39994836201482"><ele>204.0</ele><time>2026-04-05T09:34:45.999Z</time></trkpt><trkpt lat="45.81100125871711" lon="9.399991338626242"><ele>204.0</ele><time>2026-04-05T09:34:46.999Z</time></trkpt><trkpt lat="45.81091128282491" lon="9.400037111792996"><ele>204.0</ele><time>2026-04-05T09:34:47.999Z</time></trkpt><trkpt lat="45.81081743738281" lon="9.40008456967417"><ele>204.0</ele><time>2026-04-05T09:34:48.999Z</time></trkpt><trkpt lat="45.81072192898526" lon="9.400131350231462"><ele>204.0</ele><time>2026-04-05T09:34:49.999Z</time></trkpt><trkpt lat="45.810627024862775" lon="9.400181063183492"><ele>203.6</ele><time>2026-04-05T09:34:50.999Z</time></trkpt><trkpt lat="45.810531149231664" lon="9.400230799421829"><ele>203.2</ele><time>2026-04-05T09:34:51.999Z</time></trkpt><trkpt lat="45.810431186116645" lon="9.400281496912571"><ele>202.79999999999998</ele><time>2026-04-05T09:34:52.999Z</time></trkpt><trkpt lat="45.81032842041035" lon="9.40033118639004"><ele>202.39999999999998</ele><time>2026-04-05T09:34:53.999Z</time></trkpt><trkpt lat="45.810229138735934" lon="9.400379244269162"><ele>202.0</ele><time>2026-04-05T09:34:54.999Z</time></trkpt><trkpt lat="45.81013012143644" lon="9.400429402806472"><ele>202.0</ele><time>2026-04-05T09:34:55.999Z</time></trkpt><trkpt lat="45.81002980087918" lon="9.400479543899491"><ele>202.0</ele><time>2026-04-05T09:34:56.999Z</time></trkpt><trkpt lat="45.80992990819906" lon="9.400528857300936"><ele>202.0</ele><time>2026-04-05T09:34:57.999Z</time></trkpt><trkpt lat="45.809829381155225" lon="9.40058006301026"><ele>202.0</ele><time>2026-04-05T09:34:58.999Z</time></trkpt><trkpt lat="45.809728024690386" lon="9.400630644700922"><ele>202.0</ele><time>2026-04-05T09:34:59.999Z</time></trkpt><trkpt lat="45.80962535826653" lon="9.40068053373428"><ele>202.0</ele><time>2026-04-05T09:35:00.999Z</time></trkpt><trkpt lat="45.809521545080415" lon="9.400733198213722"><ele>202.0</ele><time>2026-04-05T09:35:01.999Z</time></trkpt><trkpt lat="45.80941656788991" lon="9.400791951242196"><ele>202.0</ele><time>2026-04-05T09:35:02.999Z</time></trkpt><trkpt lat="45.80930739055732" lon="9.400851455620186"><ele>202.0</ele><time>2026-04-05T09:35:03.999Z</time></trkpt><trkpt lat="45.809195346045286" lon="9.400913308977124"><ele>202.0</ele><time>2026-04-05T09:35:04.999Z</time></trkpt><trkpt lat="45.80907731771833" lon="9.400975843209505"><ele>202.0</ele><time>2026-04-05T09:35:05.999Z</time></trkpt><trkpt lat="45.808952397547934" lon="9.401038977171089"><ele>202.0</ele><time>2026-04-05T09:35:06.999Z</time></trkpt><trkpt lat="45.80882526852851" lon="9.401102749953962"><ele>202.0</ele><time>2026-04-05T09:35:07.999Z</time></trkpt><trkpt lat="45.808697307620065" lon="9.401169725201509"><ele>202.0</ele><time>2026-04-05T09:35:08.999Z</time></trkpt><trkpt lat="45.80856758915414" lon="9.401234210904944"><ele>202.0</ele><time>2026-04-05T09:35:09.999Z</time></trkpt><trkpt lat="45.8084409274876" lon="9.401298757291617"><ele>202.0</ele><time>2026-04-05T09:35:10.999Z</time></trkpt><trkpt lat="45.80831686682805" lon="9.40137104579852"><ele>202.0</ele><time>2026-04-05T09:35:11.999Z</time></trkpt><trkpt lat="45.808196200860756" lon="9.401454909236234"><ele>201.75</ele><time>2026-04-05T09:35:12.999Z</time></trkpt><trkpt lat="45.80808245271972" lon="9.401545523728478"><ele>201.5</ele><time>2026-04-05T09:35:13.999Z</time></trkpt><trkpt lat="45.80797825287362" lon="9.401634609341917"><ele>201.25</ele><time>2026-04-05T09:35:14.999Z</time></trkpt><trkpt lat="45.807884360644934" lon="9.40171996697086"><ele>201.0</ele><time>2026-04-05T09:35:15.999Z</time></trkpt><trkpt lat="45.80780294561615" lon="9.401793925815683"><ele>201.0</ele><time>2026-04-05T09:35:16.999Z</time></trkpt><trkpt lat="45.80774575272859" lon="9.401839136348663"><ele>201.0</ele><time>2026-04-05T09:35:17.999Z</time></trkpt><trkpt lat="45.807646971630604" lon="9.401906196406374"><ele>201.0</ele><time>2026-04-05T09:35:19.999Z</time></trkpt><trkpt lat="45.807569363432066" lon="9.401918416815686"><ele>201.0</ele><time>2026-04-05T09:35:26.999Z</time></trkpt><trkpt lat="45.80748920761754" lon="9.401918757196258"><ele>201.0</ele><time>2026-04-05T09:35:28.999Z</time></trkpt><trkpt lat="45.80742927240384" lon="9.401977884220049"><ele>201.0</ele><time>2026-04-05T09:35:30.999Z</time></trkpt><trkpt lat="45.80741120067988" lon="9.402067986355068"><ele>201.20000000000002</ele><time>2026-04-05T09:35:31.999Z</time></trkpt><trkpt lat="45.8073547442142" lon="9.402250883191211"><ele>201.4</ele><time>2026-04-05T09:35:33.999Z</time></trkpt><trkpt lat="45.80729204828433" lon="9.402315604213717"><ele>201.6</ele><time>2026-04-05T09:35:34.999Z</time></trkpt><trkpt lat="45.80724156543132" lon="9.402404728933753"><ele>201.8</ele><time>2026-04-05T09:35:35.999Z</time></trkpt><trkpt lat="45.80716595220112" lon="9.402476753640217"><ele>202.0</ele><time>2026-04-05T09:35:36.999Z</time></trkpt><trkpt lat="45.80708491072991" lon="9.402562467791537"><ele>202.0</ele><time>2026-04-05T09:35:37.999Z</time></trkpt><trkpt lat="45.80699274984408" lon="9.402636164248511"><ele>202.0</ele><time>2026-04-05T09:35:38.999Z</time></trkpt><trkpt lat="45.80691467896872" lon="9.40274719330197"><ele>202.0</ele><time>2026-04-05T09:35:39.999Z</time></trkpt><trkpt lat="45.806820439729826" lon="9.40283475429466"><ele>202.0</ele><time>2026-04-05T09:35:40.999Z</time></trkpt><trkpt lat="45.80672557014523" lon="9.40292221020375"><ele>202.0</ele><time>2026-04-05T09:35:41.999Z</time></trkpt><trkpt lat="45.80663120839349" lon="9.40301407772809"><ele>202.0</ele><time>2026-04-05T09:35:42.999Z</time></trkpt><trkpt lat="45.80653968563564" lon="9.403113151136449"><ele>202.0</ele><time>2026-04-05T09:35:43.999Z</time></trkpt><trkpt lat="45.80644450704768" lon="9.403213099137247"><ele>202.0</ele><time>2026-04-05T09:35:44.999Z</time></trkpt><trkpt lat="45.80634566506158" lon="9.403311123018748"><ele>202.0</ele><time>2026-04-05T09:35:45.999Z</time></trkpt><trkpt lat="45.80624420190229" lon="9.403411868805605"><ele>202.0</ele><time>2026-04-05T09:35:46.999Z</time></trkpt><trkpt lat="45.80614128672922" lon="9.403519782183913"><ele>202.0</ele><time>2026-04-05T09:35:47.999Z</time></trkpt><trkpt lat="45.806033666479316" lon="9.4036310922851"><ele>202.0</ele><time>2026-04-05T09:35:48.999Z</time></trkpt><trkpt lat="45.805924774187616" lon="9.40374453583137"><ele>202.0</ele><time>2026-04-05T09:35:49.999Z</time></trkpt><trkpt lat="45.80581044920069" lon="9.403856753228597"><ele>202.0</ele><time>2026-04-05T09:35:50.999Z</time></trkpt><trkpt lat="45.80569628707015" lon="9.403968626413702"><ele>202.0</ele><time>2026-04-05T09:35:51.999Z</time></trkpt><trkpt lat="45.80558682865638" lon="9.404078135982619"><ele>202.0</ele><time>2026-04-05T09:35:52.999Z</time></trkpt><trkpt lat="45.80549585964085" lon="9.404171918130432"><ele>202.0</ele><time>2026-04-05T09:35:53.999Z</time></trkpt><trkpt lat="45.805404522563705" lon="9.404261446962622"><ele>202.0</ele><time>2026-04-05T09:35:54.999Z</time></trkpt><trkpt lat="45.80532157414629" lon="9.404344383465128"><ele>202.0</ele><time>2026-04-05T09:35:55.999Z</time></trkpt><trkpt lat="45.80523509079081" lon="9.404427428969067"><ele>202.0</ele><time>2026-04-05T09:35:56.999Z</time></trkpt><trkpt lat="45.80514782326444" lon="9.404514868358834"><ele>202.0</ele><time>2026-04-05T09:35:57.999Z</time></trkpt><trkpt lat="45.80504876802653" lon="9.404614998027228"><ele>202.0</ele><time>2026-04-05T09:35:58.999Z</time></trkpt><trkpt lat="45.80493276169974" lon="9.404702780794466"><ele>201.5</ele><time>2026-04-05T09:35:59.999Z</time></trkpt><trkpt lat="45.80482324123837" lon="9.404810899233897"><ele>201.0</ele><time>2026-04-05T09:36:00.999Z</time></trkpt><trkpt lat="45.80472174682421" lon="9.404936952543368"><ele>200.5</ele><time>2026-04-05T09:36:01.999Z</time></trkpt><trkpt lat="45.804613663281486" lon="9.405038203487768"><ele>200.0</ele><time>2026-04-05T09:36:02.999Z</time></trkpt><trkpt lat="45.804516248174096" lon="9.405148316782581"><ele>200.0</ele><time>2026-04-05T09:36:03.999Z</time></trkpt><trkpt lat="45.80443400985136" lon="9.40525438303488"><ele>200.0</ele><time>2026-04-05T09:36:04.999Z</time></trkpt><trkpt lat="45.804348278038844" lon="9.405356639703578"><ele>200.0</ele><time>2026-04-05T09:36:05.999Z</time></trkpt><trkpt lat="45.80424709217402" lon="9.405452694759946"><ele>200.0</ele><time>2026-04-05T09:36:06.999Z</time></trkpt><trkpt lat="45.80412749658964" lon="9.405555217451429"><ele>201.0</ele><time>2026-04-05T09:36:07.999Z</time></trkpt><trkpt lat="45.803985263899825" lon="9.405674470264783"><ele>202.0</ele><time>2026-04-05T09:36:08.999Z</time></trkpt><trkpt lat="45.803831894221915" lon="9.405810524701828"><ele>203.0</ele><time>2026-04-05T09:36:09.999Z</time></trkpt><trkpt lat="45.80365969983067" lon="9.405994051744027"><ele>205.5</ele><time>2026-04-05T09:36:10.999Z</time></trkpt><trkpt lat="45.80347288716454" lon="9.406234229162527"><ele>208.0</ele><time>2026-04-05T09:36:11.998Z</time></trkpt><trkpt lat="45.803274475481935" lon="9.40651058955099"><ele>208.0</ele><time>2026-04-05T09:36:12.998Z</time></trkpt><trkpt lat="45.80308153168688" lon="9.406774057374115"><ele>208.0</ele><time>2026-04-05T09:36:13.998Z</time></trkpt><trkpt lat="45.80289593053018" lon="9.40703547103449"><ele>209.0</ele><time>2026-04-05T09:36:14.998Z</time></trkpt><trkpt lat="45.802729730946446" lon="9.407276646247414"><ele>210.0</ele><time>2026-04-05T09:36:15.998Z</time></trkpt><trkpt lat="45.80257752332853" lon="9.407497268936291"><ele>212.0</ele><time>2026-04-05T09:36:16.998Z</time></trkpt><trkpt lat="45.802434533598266" lon="9.407705603105427"><ele>214.0</ele><time>2026-04-05T09:36:17.998Z</time></trkpt><trkpt lat="45.80229635601883" lon="9.407909700517672"><ele>216.0</ele><time>2026-04-05T09:36:19Z</time></trkpt><trkpt lat="45.80216250091273" lon="9.40810543003496"><ele>216.0</ele><time>2026-04-05T09:36:20Z</time></trkpt><trkpt lat="45.80203340988468" lon="9.408291210245844"><ele>216.0</ele><time>2026-04-05T09:36:21Z</time></trkpt><trkpt lat="45.80191307024884" lon="9.408462434824393"><ele>216.0</ele><time>2026-04-05T09:36:22Z</time></trkpt><trkpt lat="45.80179794618875" lon="9.408620078724537"><ele>216.5</ele><time>2026-04-05T09:36:23Z</time></trkpt><trkpt lat="45.80168733942415" lon="9.408771090480888"><ele>217.0</ele><time>2026-04-05T09:36:24Z</time></trkpt><trkpt lat="45.8015796939877" lon="9.40891355754472"><ele>217.5</ele><time>2026-04-05T09:36:25Z</time></trkpt><trkpt lat="45.801475758515515" lon="9.409040823897461"><ele>218.0</ele><time>2026-04-05T09:36:26Z</time></trkpt><trkpt lat="45.80137425933108" lon="9.409151554141271"><ele>218.0</ele><time>2026-04-05T09:36:27Z</time></trkpt><trkpt lat="45.801278761530966" lon="9.409247704510378"><ele>218.0</ele><time>2026-04-05T09:36:28Z</time></trkpt><trkpt lat="45.80118639672741" lon="9.409326665777677"><ele>218.0</ele><time>2026-04-05T09:36:29Z</time></trkpt><trkpt lat="45.80110117184702" lon="9.4093913262748"><ele>218.0</ele><time>2026-04-05T09:36:30Z</time></trkpt><trkpt lat="45.8010235650909" lon="9.409448149478939"><ele>218.0</ele><time>2026-04-05T09:36:31Z</time></trkpt><trkpt lat="45.80095411220637" lon="9.409497027062498"><ele>219.0</ele><time>2026-04-05T09:36:32Z</time></trkpt><trkpt lat="45.80088958534637" lon="9.409538666516557"><ele>220.0</ele><time>2026-04-05T09:36:33Z</time></trkpt><trkpt lat="45.80082912402749" lon="9.409569919584627"><ele>221.0</ele><time>2026-04-05T09:36:34Z</time></trkpt><trkpt lat="45.80076659128899" lon="9.40959348848082"><ele>222.0</ele><time>2026-04-05T09:36:35Z</time></trkpt><trkpt lat="45.800702564938604" lon="9.409605170985705"><ele>223.0</ele><time>2026-04-05T09:36:36Z</time></trkpt><trkpt lat="45.800628834171484" lon="9.409596796763784"><ele>224.00000000000003</ele><time>2026-04-05T09:36:37Z</time></trkpt><trkpt lat="45.80054422724527" lon="9.409574558527373"><ele>225.00000000000003</ele><time>2026-04-05T09:36:38Z</time></trkpt><trkpt lat="45.80046555833024" lon="9.409552983743596"><ele>225.0</ele><time>2026-04-05T09:36:39Z</time></trkpt><trkpt lat="45.80041518837875" lon="9.409423570044332"><ele>225.0</ele><time>2026-04-05T09:36:40Z</time></trkpt><trkpt lat="45.800377645372166" lon="9.409298123467195"><ele>225.0</ele><time>2026-04-05T09:36:41Z</time></trkpt><trkpt lat="45.80025609235181" lon="9.409217932399685"><ele>225.0</ele><time>2026-04-05T09:36:42Z</time></trkpt><trkpt lat="45.80016020309052" lon="9.40912783833435"><ele>225.0</ele><time>2026-04-05T09:36:43Z</time></trkpt><trkpt lat="45.8000636425613" lon="9.409026748437995"><ele>226.6</ele><time>2026-04-05T09:36:44Z</time></trkpt><trkpt lat="45.7999766544112" lon="9.408945783011902"><ele>228.2</ele><time>2026-04-05T09:36:45Z</time></trkpt><trkpt lat="45.79987969605378" lon="9.408899060215912"><ele>229.8</ele><time>2026-04-05T09:36:46Z</time></trkpt><trkpt lat="45.79976309232744" lon="9.40890011286019"><ele>231.4</ele><time>2026-04-05T09:36:46.999Z</time></trkpt><trkpt lat="45.79964739923126" lon="9.40894130453017"><ele>233.0</ele><time>2026-04-05T09:36:47.999Z</time></trkpt><trkpt lat="45.79950512393958" lon="9.409000631940625"><ele>233.0</ele><time>2026-04-05T09:36:48.999Z</time></trkpt><trkpt lat="45.799374737997894" lon="9.409054641428037"><ele>233.0</ele><time>2026-04-05T09:36:49.999Z</time></trkpt><trkpt lat="45.799280856624954" lon="9.409104252397661"><ele>233.0</ele><time>2026-04-05T09:36:50.999Z</time></trkpt><trkpt lat="45.79921238346673" lon="9.409121806836584"><ele>233.0</ele><time>2026-04-05T09:36:51.999Z</time></trkpt><trkpt lat="45.79915046809209" lon="9.409068196240243"><ele>233.0</ele><time>2026-04-05T09:36:52.999Z</time></trkpt><trkpt lat="45.799106743415685" lon="9.408961633691543"><ele>235.25</ele><time>2026-04-05T09:36:53.999Z</time></trkpt><trkpt lat="45.799058009467196" lon="9.408806994592675"><ele>237.5</ele><time>2026-04-05T09:36:54.999Z</time></trkpt><trkpt lat="45.79898214383871" lon="9.408636883695102"><ele>239.75</ele><time>2026-04-05T09:36:55.999Z</time></trkpt><trkpt lat="45.79889301642805" lon="9.408460845164333"><ele>242.0</ele><time>2026-04-05T09:36:56.999Z</time></trkpt><trkpt lat="45.79885026776351" lon="9.408354556997342"><ele>242.0</ele><time>2026-04-05T09:36:57.999Z</time></trkpt><trkpt lat="45.798753653232296" lon="9.408345942452037"><ele>242.0</ele><time>2026-04-05T09:36:59.999Z</time></trkpt><trkpt lat="45.798685753723575" lon="9.408421900873233"><ele>242.0</ele><time>2026-04-05T09:37:00.999Z</time></trkpt><trkpt lat="45.79858242973469" lon="9.408530173860154"><ele>242.0</ele><time>2026-04-05T09:37:01.999Z</time></trkpt><trkpt lat="45.79846306801965" lon="9.408626980491098"><ele>242.0</ele><time>2026-04-05T09:37:02.999Z</time></trkpt><trkpt lat="45.79834929717905" lon="9.408636646113894"><ele>242.0</ele><time>2026-04-05T09:37:03.999Z</time></trkpt><trkpt lat="45.79827361019731" lon="9.408666260333725"><ele>242.0</ele><time>2026-04-05T09:37:04.999Z</time></trkpt><trkpt lat="45.79818467673623" lon="9.408649256174366"><ele>242.0</ele><time>2026-04-05T09:37:06.999Z</time></trkpt><trkpt lat="45.79811049677476" lon="9.408794198328227"><ele>242.0</ele><time>2026-04-05T09:37:07.999Z</time></trkpt><trkpt lat="45.79802350632015" lon="9.408902003214667"><ele>242.0</ele><time>2026-04-05T09:37:08.999Z</time></trkpt><trkpt lat="45.797931672880246" lon="9.40902592801257"><ele>242.0</ele><time>2026-04-05T09:37:09.999Z</time></trkpt><trkpt lat="45.797832519333724" lon="9.409153187520598"><ele>242.0</ele><time>2026-04-05T09:37:10.999Z</time></trkpt><trkpt lat="45.79771201578427" lon="9.409250828601186"><ele>242.0</ele><time>2026-04-05T09:37:11.999Z</time></trkpt><trkpt lat="45.797554758077034" lon="9.40930357429039"><ele>242.0</ele><time>2026-04-05T09:37:12.999Z</time></trkpt><trkpt lat="45.797377022165655" lon="9.409332669264115"><ele>243.0</ele><time>2026-04-05T09:37:13.999Z</time></trkpt><trkpt lat="45.79723933955217" lon="9.409376437295306"><ele>244.0</ele><time>2026-04-05T09:37:14.999Z</time></trkpt><trkpt lat="45.79712558241642" lon="9.409441921651176"><ele>245.0</ele><time>2026-04-05T09:37:15.999Z</time></trkpt><trkpt lat="45.797028617159405" lon="9.409537138679932"><ele>246.0</ele><time>2026-04-05T09:37:16.999Z</time></trkpt><trkpt lat="45.79693708499305" lon="9.409628238897545"><ele>244.4</ele><time>2026-04-05T09:37:17.999Z</time></trkpt><trkpt lat="45.79684275722183" lon="9.409713256894698"><ele>242.8</ele><time>2026-04-05T09:37:18.999Z</time></trkpt><trkpt lat="45.796754921055644" lon="9.409798357007592"><ele>241.20000000000002</ele><time>2026-04-05T09:37:19.999Z</time></trkpt><trkpt lat="45.79667159242354" lon="9.409878184941817"><ele>239.60000000000002</ele><time>2026-04-05T09:37:20.999Z</time></trkpt><trkpt lat="45.79659115560594" lon="9.409958761330834"><ele>238.0</ele><time>2026-04-05T09:37:21.999Z</time></trkpt><trkpt lat="45.796509820333604" lon="9.41003740652787"><ele>237.60000000000002</ele><time>2026-04-05T09:37:22.999Z</time></trkpt><trkpt lat="45.796426700866" lon="9.410109211034145"><ele>237.20000000000002</ele><time>2026-04-05T09:37:23.999Z</time></trkpt><trkpt lat="45.796343705998645" lon="9.410176675454201"><ele>236.8</ele><time>2026-04-05T09:37:24.999Z</time></trkpt><trkpt lat="45.79626335726356" lon="9.410244743713232"><ele>236.4</ele><time>2026-04-05T09:37:25.999Z</time></trkpt><trkpt lat="45.79618658628666" lon="9.410316730263887"><ele>236.0</ele><time>2026-04-05T09:37:26.999Z</time></trkpt><trkpt lat="45.79610924388458" lon="9.410383726613397"><ele>236.00000000000003</ele><time>2026-04-05T09:37:27.999Z</time></trkpt><trkpt lat="45.79603145408102" lon="9.410446757056413"><ele>236.0</ele><time>2026-04-05T09:37:28.999Z</time></trkpt><trkpt lat="45.79594394939463" lon="9.410482887620791"><ele>236.0</ele><time>2026-04-05T09:37:29.999Z</time></trkpt><trkpt lat="45.79587101012394" lon="9.410546267150787"><ele>236.0</ele><time>2026-04-05T09:37:30.999Z</time></trkpt><trkpt lat="45.79580781268267" lon="9.410628435758666"><ele>236.00000000000003</ele><time>2026-04-05T09:37:31.999Z</time></trkpt><trkpt lat="45.79573235916392" lon="9.410676693039843"><ele>236.0</ele><time>2026-04-05T09:37:32.999Z</time></trkpt><trkpt lat="45.7956630061785" lon="9.410742911489454"><ele>234.66666666666669</ele><time>2026-04-05T09:37:33.999Z</time></trkpt><trkpt lat="45.79559001992157" lon="9.410806871271896"><ele>233.33333333333334</ele><time>2026-04-05T09:37:34.999Z</time></trkpt><trkpt lat="45.79551874134406" lon="9.41086676815331"><ele>232.0</ele><time>2026-04-05T09:37:35.999Z</time></trkpt><trkpt lat="45.79546171574091" lon="9.4109338664143"><ele>230.66666666666669</ele><time>2026-04-05T09:37:36.999Z</time></trkpt><trkpt lat="45.79540029500272" lon="9.411061057686146"><ele>229.33333333333334</ele><time>2026-04-05T09:37:38.999Z</time></trkpt><trkpt lat="45.79534150076407" lon="9.411156851458882"><ele>228.0</ele><time>2026-04-05T09:37:41.999Z</time></trkpt><trkpt lat="45.79544458187387" lon="9.411309695771875"><ele>226.83333333333334</ele><time>2026-04-05T09:37:42.999Z</time></trkpt><trkpt lat="45.795498924097714" lon="9.411398165125851"><ele>225.66666666666669</ele><time>2026-04-05T09:37:43.999Z</time></trkpt><trkpt lat="45.79555038338199" lon="9.41148572675536"><ele>224.5</ele><time>2026-04-05T09:37:44.999Z</time></trkpt><trkpt lat="45.7955999086778" lon="9.411575015438723"><ele>223.33333333333334</ele><time>2026-04-05T09:37:45.999Z</time></trkpt><trkpt lat="45.79564598756367" lon="9.411670514506024"><ele>222.16666666666669</ele><time>2026-04-05T09:37:46.999Z</time></trkpt><trkpt lat="45.79567766560856" lon="9.411774553098153"><ele>221.0</ele><time>2026-04-05T09:37:47.999Z</time></trkpt><trkpt lat="45.79569096581702" lon="9.411887615719323"><ele>221.0</ele><time>2026-04-05T09:37:48.999Z</time></trkpt><trkpt lat="45.79568986016585" lon="9.411992028830547"><ele>221.00000000000003</ele><time>2026-04-05T09:37:49.999Z</time></trkpt><trkpt lat="45.79567151674355" lon="9.41214703428235"><ele>221.00000000000003</ele><time>2026-04-05T09:37:51.999Z</time></trkpt><trkpt lat="45.795668900124895" lon="9.412255415629003"><ele>221.0</ele><time>2026-04-05T09:37:53.999Z</time></trkpt><trkpt lat="45.79553494039844" lon="9.412289022128546"><ele>221.0</ele><time>2026-04-05T09:37:54.999Z</time></trkpt><trkpt lat="45.79546097387034" lon="9.412301297279479"><ele>220.0</ele><time>2026-04-05T09:37:55.999Z</time></trkpt><trkpt lat="45.79538169242298" lon="9.4123332681511"><ele>219.00000000000003</ele><time>2026-04-05T09:37:56.999Z</time></trkpt><trkpt lat="45.79530011417614" lon="9.412364692601267"><ele>218.00000000000003</ele><time>2026-04-05T09:37:57.999Z</time></trkpt><trkpt lat="45.795224421173394" lon="9.412398381775528"><ele>217.0</ele><time>2026-04-05T09:37:58.999Z</time></trkpt><trkpt lat="45.79516365441871" lon="9.41244699110043"><ele>216.0</ele><time>2026-04-05T09:37:59.999Z</time></trkpt><trkpt lat="45.79517180858618" lon="9.412727503839442"><ele>216.0</ele><time>2026-04-05T09:38:02.999Z</time></trkpt><trkpt lat="45.79520838398359" lon="9.412832452490466"><ele>216.00000000000003</ele><time>2026-04-05T09:38:03.999Z</time></trkpt><trkpt lat="45.795241588657674" lon="9.412949392881197"><ele>216.00000000000003</ele><time>2026-04-05T09:38:04.999Z</time></trkpt><trkpt lat="45.795273937280975" lon="9.413073084579107"><ele>216.0</ele><time>2026-04-05T09:38:05.999Z</time></trkpt><trkpt lat="45.795318324924516" lon="9.413208187574526"><ele>216.0</ele><time>2026-04-05T09:38:06.999Z</time></trkpt><trkpt lat="45.795362296486026" lon="9.413342844257366"><ele>215.4</ele><time>2026-04-05T09:38:07.999Z</time></trkpt><trkpt lat="45.79539997042698" lon="9.413464520083624"><ele>214.8</ele><time>2026-04-05T09:38:08.999Z</time></trkpt><trkpt lat="45.795431731268614" lon="9.413568973669635"><ele>214.20000000000002</ele><time>2026-04-05T09:38:09.999Z</time></trkpt><trkpt lat="45.79546078326043" lon="9.41365354164191"><ele>213.60000000000002</ele><time>2026-04-05T09:38:10.999Z</time></trkpt><trkpt lat="45.795487088643284" lon="9.413787233720678"><ele>213.0</ele><time>2026-04-05T09:38:12.999Z</time></trkpt><trkpt lat="45.79538163834068" lon="9.413877338880525"><ele>212.8</ele><time>2026-04-05T09:38:15.998Z</time></trkpt><trkpt lat="45.79528282529506" lon="9.413920613048736"><ele>212.60000000000002</ele><time>2026-04-05T09:38:17.998Z</time></trkpt><trkpt lat="45.79518601754331" lon="9.413963009014147"><ele>212.39999999999998</ele><time>2026-04-05T09:38:19.998Z</time></trkpt><trkpt lat="45.79508993947957" lon="9.4140050854204"><ele>212.2</ele><time>2026-04-05T09:38:21.998Z</time></trkpt><trkpt lat="45.79500074663423" lon="9.414048279708433"><ele>212.0</ele><time>2026-04-05T09:38:23.998Z</time></trkpt><trkpt lat="45.79492262681321" lon="9.41406928748169"><ele>212.0</ele><time>2026-04-05T09:38:26Z</time></trkpt><trkpt lat="45.79489772830644" lon="9.413929320475232"><ele>212.0</ele><time>2026-04-05T09:38:28Z</time></trkpt><trkpt lat="45.79486241520794" lon="9.413805215754898"><ele>212.0</ele><time>2026-04-05T09:38:30Z</time></trkpt><trkpt lat="45.794830693823975" lon="9.41372373964624"><ele>212.0</ele><time>2026-04-05T09:38:33Z</time></trkpt><trkpt lat="45.794623766501694" lon="9.413861657024315"><ele>212.0</ele><time>2026-04-05T09:38:37Z</time></trkpt><trkpt lat="45.79455937150565" lon="9.41376174189043"><ele>212.0</ele><time>2026-04-05T09:38:39Z</time></trkpt><trkpt lat="45.794541628992434" lon="9.413664123509129"><ele>212.0</ele><time>2026-04-05T09:38:40Z</time></trkpt><trkpt lat="45.7945369769277" lon="9.414147315575741"><ele>212.0</ele><time>2026-04-05T09:40:49.549Z</time></trkpt><trkpt lat="45.79445309385232" lon="9.413656873318843"><ele>212.0</ele><time>2026-04-05T09:41:00.584Z</time></trkpt><trkpt lat="45.7945550018712" lon="9.413675579659287"><ele>212.00000000000003</ele><time>2026-04-05T09:41:10.018Z</time></trkpt><trkpt lat="45.79461336583076" lon="9.413602754629784"><ele>212.0</ele><time>2026-04-05T09:41:12.022Z</time></trkpt><trkpt lat="45.79458924389243" lon="9.413700445050067"><ele>212.0</ele><time>2026-04-05T09:41:32Z</time></trkpt><trkpt lat="45.794571177120936" lon="9.413794562114107"><ele>212.0</ele><time>2026-04-05T09:42:06.999Z</time></trkpt><trkpt lat="45.79460837693161" lon="9.413870824506"><ele>212.00000000000003</ele><time>2026-04-05T09:42:12.999Z</time></trkpt><trkpt lat="45.79466707898833" lon="9.413984003512795"><ele>212.0</ele><time>2026-04-05T09:42:19.999Z</time></trkpt><trkpt lat="45.79466729386864" lon="9.41410228729719"><ele>208.0</ele><time>2026-04-05T09:42:25.999Z</time></trkpt><trkpt lat="45.79461625670454" lon="9.414174036480427"><ele>208.0</ele><time>2026-04-05T09:42:30.999Z</time></trkpt><trkpt lat="45.794566173901664" lon="9.414261124131524"><ele>208.0</ele><time>2026-04-05T09:42:36.999Z</time></trkpt></trkseg></trk></gpx>